<?xml version="1.0" encoding="UTF-8" standalone="no" ?>
<gpx xmlns="http://www.topografix.com/GPX/1/1" xmlns:xsi="http://www.w3.org/2001/XMLSchema-instance" xsi:schemaLocation="http://www.topografix.com/GPX/1/1 http://www.topografix.com/GPX/1/1/gpx.xsd" version="1.1" creator="VisuGPX - https://www.visugpx.com">
  <metadata>
    <name>Rando VTT La Crampe 2023</name>
    <desc><![CDATA[⛅🚴..... Belle rando....]]></desc>
  </metadata>
  <trk>
    <name><![CDATA[Rando VTT La Crampe 2023_1]]></name>
    <trkseg>
      <trkpt lat="46.52669" lon="0.26598">
        <ele>115</ele>
        <time>2023-09-17T06:20:54Z</time>
      </trkpt>
      <trkpt lat="46.52671" lon="0.26606">
        <ele>115</ele>
        <time>2023-09-17T06:21:02Z</time>
      </trkpt>
      <trkpt lat="46.52674" lon="0.2662">
        <ele>115</ele>
        <time>2023-09-17T06:21:09Z</time>
      </trkpt>
      <trkpt lat="46.52678" lon="0.26632">
        <ele>115</ele>
        <time>2023-09-17T06:21:15Z</time>
      </trkpt>
      <trkpt lat="46.52678" lon="0.26634">
        <ele>115.2</ele>
        <time>2023-09-17T06:21:17Z</time>
      </trkpt>
      <trkpt lat="46.52677" lon="0.26645">
        <ele>115.2</ele>
        <time>2023-09-17T06:21:22Z</time>
      </trkpt>
      <trkpt lat="46.5267" lon="0.26666">
        <ele>115.2</ele>
        <time>2023-09-17T06:21:28Z</time>
      </trkpt>
      <trkpt lat="46.52666" lon="0.26688">
        <ele>116.2</ele>
        <time>2023-09-17T06:21:33Z</time>
      </trkpt>
      <trkpt lat="46.52666" lon="0.26692">
        <ele>116.6</ele>
        <time>2023-09-17T06:21:34Z</time>
      </trkpt>
      <trkpt lat="46.52667" lon="0.26705">
        <ele>117.2</ele>
        <time>2023-09-17T06:21:38Z</time>
      </trkpt>
      <trkpt lat="46.52667" lon="0.26708">
        <ele>117.4</ele>
        <time>2023-09-17T06:21:39Z</time>
      </trkpt>
      <trkpt lat="46.52665" lon="0.2672">
        <ele>118.6</ele>
        <time>2023-09-17T06:21:43Z</time>
      </trkpt>
      <trkpt lat="46.52666" lon="0.26727">
        <ele>119</ele>
        <time>2023-09-17T06:21:45Z</time>
      </trkpt>
      <trkpt lat="46.52668" lon="0.26736">
        <ele>119.8</ele>
        <time>2023-09-17T06:21:48Z</time>
      </trkpt>
      <trkpt lat="46.52671" lon="0.26746">
        <ele>120.8</ele>
        <time>2023-09-17T06:21:51Z</time>
      </trkpt>
      <trkpt lat="46.52671" lon="0.26748">
        <ele>121</ele>
        <time>2023-09-17T06:21:52Z</time>
      </trkpt>
      <trkpt lat="46.52672" lon="0.26758">
        <ele>122</ele>
        <time>2023-09-17T06:21:57Z</time>
      </trkpt>
      <trkpt lat="46.52675" lon="0.26765">
        <ele>122.8</ele>
        <time>2023-09-17T06:21:59Z</time>
      </trkpt>
      <trkpt lat="46.52677" lon="0.26768">
        <ele>123</ele>
        <time>2023-09-17T06:22:00Z</time>
      </trkpt>
      <trkpt lat="46.52684" lon="0.26779">
        <ele>124</ele>
        <time>2023-09-17T06:22:04Z</time>
      </trkpt>
      <trkpt lat="46.52685" lon="0.26781">
        <ele>124.2</ele>
        <time>2023-09-17T06:22:05Z</time>
      </trkpt>
      <trkpt lat="46.52691" lon="0.26793">
        <ele>125.4</ele>
        <time>2023-09-17T06:22:09Z</time>
      </trkpt>
      <trkpt lat="46.52692" lon="0.26795">
        <ele>125.8</ele>
        <time>2023-09-17T06:22:10Z</time>
      </trkpt>
      <trkpt lat="46.52696" lon="0.26801">
        <ele>126.4</ele>
        <time>2023-09-17T06:22:13Z</time>
      </trkpt>
      <trkpt lat="46.52703" lon="0.2681">
        <ele>127</ele>
        <time>2023-09-17T06:22:17Z</time>
      </trkpt>
      <trkpt lat="46.52716" lon="0.26828">
        <ele>127.6</ele>
        <time>2023-09-17T06:22:23Z</time>
      </trkpt>
      <trkpt lat="46.52733" lon="0.26847">
        <ele>128</ele>
        <time>2023-09-17T06:22:30Z</time>
      </trkpt>
      <trkpt lat="46.52748" lon="0.26858">
        <ele>128.2</ele>
        <time>2023-09-17T06:22:36Z</time>
      </trkpt>
      <trkpt lat="46.5277" lon="0.26873">
        <ele>127.8</ele>
        <time>2023-09-17T06:22:42Z</time>
      </trkpt>
      <trkpt lat="46.52792" lon="0.26893">
        <ele>127.6</ele>
        <time>2023-09-17T06:22:48Z</time>
      </trkpt>
      <trkpt lat="46.52816" lon="0.26919">
        <ele>126.8</ele>
        <time>2023-09-17T06:22:54Z</time>
      </trkpt>
      <trkpt lat="46.52841" lon="0.26949">
        <ele>126.6</ele>
        <time>2023-09-17T06:23:01Z</time>
      </trkpt>
      <trkpt lat="46.52849" lon="0.26959">
        <ele>126.4</ele>
        <time>2023-09-17T06:23:04Z</time>
      </trkpt>
      <trkpt lat="46.52862" lon="0.26974">
        <ele>126.2</ele>
        <time>2023-09-17T06:23:08Z</time>
      </trkpt>
      <trkpt lat="46.52888" lon="0.27007">
        <ele>126</ele>
        <time>2023-09-17T06:23:15Z</time>
      </trkpt>
      <trkpt lat="46.52896" lon="0.27018">
        <ele>126</ele>
        <time>2023-09-17T06:23:17Z</time>
      </trkpt>
      <trkpt lat="46.52906" lon="0.27036">
        <ele>126</ele>
        <time>2023-09-17T06:23:21Z</time>
      </trkpt>
      <trkpt lat="46.52922" lon="0.27065">
        <ele>126.6</ele>
        <time>2023-09-17T06:23:27Z</time>
      </trkpt>
      <trkpt lat="46.52924" lon="0.2707">
        <ele>126.8</ele>
        <time>2023-09-17T06:23:28Z</time>
      </trkpt>
      <trkpt lat="46.52934" lon="0.27101">
        <ele>127.6</ele>
        <time>2023-09-17T06:23:34Z</time>
      </trkpt>
      <trkpt lat="46.52939" lon="0.2712">
        <ele>128.8</ele>
        <time>2023-09-17T06:23:38Z</time>
      </trkpt>
      <trkpt lat="46.52941" lon="0.27124">
        <ele>129.2</ele>
        <time>2023-09-17T06:23:39Z</time>
      </trkpt>
      <trkpt lat="46.52943" lon="0.27136">
        <ele>130</ele>
        <time>2023-09-17T06:23:43Z</time>
      </trkpt>
      <trkpt lat="46.52944" lon="0.27138">
        <ele>130</ele>
        <time>2023-09-17T06:23:44Z</time>
      </trkpt>
      <trkpt lat="46.52949" lon="0.27152">
        <ele>130.8</ele>
        <time>2023-09-17T06:23:51Z</time>
      </trkpt>
      <trkpt lat="46.52949" lon="0.27153">
        <ele>131</ele>
        <time>2023-09-17T06:23:52Z</time>
      </trkpt>
      <trkpt lat="46.5295" lon="0.27155">
        <ele>131.2</ele>
        <time>2023-09-17T06:23:53Z</time>
      </trkpt>
      <trkpt lat="46.52948" lon="0.27162">
        <ele>132</ele>
        <time>2023-09-17T06:23:57Z</time>
      </trkpt>
      <trkpt lat="46.52949" lon="0.27163">
        <ele>132.6</ele>
        <time>2023-09-17T06:23:59Z</time>
      </trkpt>
      <trkpt lat="46.52947" lon="0.27163">
        <ele>133</ele>
        <time>2023-09-17T06:24:02Z</time>
      </trkpt>
      <trkpt lat="46.52947" lon="0.27164">
        <ele>133.2</ele>
        <time>2023-09-17T06:24:03Z</time>
      </trkpt>
      <trkpt lat="46.52946" lon="0.27164">
        <ele>133.2</ele>
        <time>2023-09-17T06:24:04Z</time>
      </trkpt>
      <trkpt lat="46.52943" lon="0.27162">
        <ele>133.4</ele>
        <time>2023-09-17T06:24:06Z</time>
      </trkpt>
      <trkpt lat="46.52939" lon="0.27158">
        <ele>134</ele>
        <time>2023-09-17T06:24:08Z</time>
      </trkpt>
      <trkpt lat="46.52937" lon="0.27157">
        <ele>134.4</ele>
        <time>2023-09-17T06:24:09Z</time>
      </trkpt>
      <trkpt lat="46.52935" lon="0.27156">
        <ele>134.8</ele>
        <time>2023-09-17T06:24:10Z</time>
      </trkpt>
      <trkpt lat="46.52929" lon="0.27158">
        <ele>135.6</ele>
        <time>2023-09-17T06:24:12Z</time>
      </trkpt>
      <trkpt lat="46.52919" lon="0.27167">
        <ele>136.8</ele>
        <time>2023-09-17T06:24:16Z</time>
      </trkpt>
      <trkpt lat="46.52913" lon="0.27171">
        <ele>137.8</ele>
        <time>2023-09-17T06:24:18Z</time>
      </trkpt>
      <trkpt lat="46.52909" lon="0.27176">
        <ele>138.4</ele>
        <time>2023-09-17T06:24:20Z</time>
      </trkpt>
      <trkpt lat="46.52906" lon="0.27183">
        <ele>139</ele>
        <time>2023-09-17T06:24:22Z</time>
      </trkpt>
      <trkpt lat="46.52903" lon="0.27193">
        <ele>140.2</ele>
        <time>2023-09-17T06:24:25Z</time>
      </trkpt>
      <trkpt lat="46.52902" lon="0.27197">
        <ele>140.4</ele>
        <time>2023-09-17T06:24:26Z</time>
      </trkpt>
      <trkpt lat="46.52895" lon="0.27215">
        <ele>141.4</ele>
        <time>2023-09-17T06:24:31Z</time>
      </trkpt>
      <trkpt lat="46.5289" lon="0.27223">
        <ele>141.6</ele>
        <time>2023-09-17T06:24:33Z</time>
      </trkpt>
      <trkpt lat="46.5288" lon="0.27239">
        <ele>142.6</ele>
        <time>2023-09-17T06:24:37Z</time>
      </trkpt>
      <trkpt lat="46.52872" lon="0.27251">
        <ele>143.2</ele>
        <time>2023-09-17T06:24:40Z</time>
      </trkpt>
      <trkpt lat="46.52864" lon="0.27262">
        <ele>143.6</ele>
        <time>2023-09-17T06:24:43Z</time>
      </trkpt>
      <trkpt lat="46.52861" lon="0.27266">
        <ele>144</ele>
        <time>2023-09-17T06:24:44Z</time>
      </trkpt>
      <trkpt lat="46.52852" lon="0.27275">
        <ele>144.8</ele>
        <time>2023-09-17T06:24:47Z</time>
      </trkpt>
      <trkpt lat="46.52827" lon="0.27293">
        <ele>145.2</ele>
        <time>2023-09-17T06:24:55Z</time>
      </trkpt>
      <trkpt lat="46.52823" lon="0.27311">
        <ele>145.6</ele>
        <time>2023-09-17T06:25:00Z</time>
      </trkpt>
      <trkpt lat="46.52828" lon="0.27311">
        <ele>145.6</ele>
        <time>2023-09-17T06:25:03Z</time>
      </trkpt>
      <trkpt lat="46.52829" lon="0.27309">
        <ele>145.6</ele>
        <time>2023-09-17T06:25:04Z</time>
      </trkpt>
      <trkpt lat="46.52832" lon="0.27297">
        <ele>145.6</ele>
        <time>2023-09-17T06:25:08Z</time>
      </trkpt>
      <trkpt lat="46.52837" lon="0.27288">
        <ele>145.4</ele>
        <time>2023-09-17T06:25:12Z</time>
      </trkpt>
      <trkpt lat="46.52838" lon="0.27288">
        <ele>145.4</ele>
        <time>2023-09-17T06:25:13Z</time>
      </trkpt>
      <trkpt lat="46.52838" lon="0.27287">
        <ele>145</ele>
        <time>2023-09-17T06:25:24Z</time>
      </trkpt>
      <trkpt lat="46.52839" lon="0.27288">
        <ele>145</ele>
        <time>2023-09-17T06:25:42Z</time>
      </trkpt>
      <trkpt lat="46.52839" lon="0.27289">
        <ele>145.2</ele>
        <time>2023-09-17T06:26:03Z</time>
      </trkpt>
      <trkpt lat="46.52839" lon="0.27289">
        <ele>145.4</ele>
        <time>2023-09-17T06:26:35Z</time>
      </trkpt>
      <trkpt lat="46.52838" lon="0.2729">
        <ele>145.4</ele>
        <time>2023-09-17T06:26:44Z</time>
      </trkpt>
      <trkpt lat="46.52835" lon="0.27293">
        <ele>145.4</ele>
        <time>2023-09-17T06:26:47Z</time>
      </trkpt>
      <trkpt lat="46.52831" lon="0.273">
        <ele>145.6</ele>
        <time>2023-09-17T06:26:54Z</time>
      </trkpt>
      <trkpt lat="46.5283" lon="0.273">
        <ele>145.8</ele>
        <time>2023-09-17T06:26:55Z</time>
      </trkpt>
      <trkpt lat="46.5283" lon="0.27304">
        <ele>145.6</ele>
        <time>2023-09-17T06:27:02Z</time>
      </trkpt>
      <trkpt lat="46.5283" lon="0.27306">
        <ele>145.6</ele>
        <time>2023-09-17T06:27:04Z</time>
      </trkpt>
      <trkpt lat="46.52829" lon="0.2731">
        <ele>146.4</ele>
        <time>2023-09-17T06:27:12Z</time>
      </trkpt>
      <trkpt lat="46.52827" lon="0.27309">
        <ele>146.4</ele>
        <time>2023-09-17T06:27:32Z</time>
      </trkpt>
      <trkpt lat="46.52827" lon="0.27309">
        <ele>146.4</ele>
        <time>2023-09-17T06:27:39Z</time>
      </trkpt>
      <trkpt lat="46.52828" lon="0.27311">
        <ele>146.6</ele>
        <time>2023-09-17T06:27:55Z</time>
      </trkpt>
      <trkpt lat="46.52829" lon="0.27313">
        <ele>145.6</ele>
        <time>2023-09-17T06:28:15Z</time>
      </trkpt>
      <trkpt lat="46.52828" lon="0.27312">
        <ele>145.6</ele>
        <time>2023-09-17T06:28:23Z</time>
      </trkpt>
      <trkpt lat="46.52828" lon="0.27313">
        <ele>145.6</ele>
        <time>2023-09-17T06:28:28Z</time>
      </trkpt>
      <trkpt lat="46.52826" lon="0.27318">
        <ele>145.6</ele>
        <time>2023-09-17T06:28:32Z</time>
      </trkpt>
      <trkpt lat="46.5282" lon="0.27336">
        <ele>145.8</ele>
        <time>2023-09-17T06:28:37Z</time>
      </trkpt>
      <trkpt lat="46.52812" lon="0.2736">
        <ele>146.8</ele>
        <time>2023-09-17T06:28:43Z</time>
      </trkpt>
      <trkpt lat="46.52797" lon="0.27396">
        <ele>147.4</ele>
        <time>2023-09-17T06:28:51Z</time>
      </trkpt>
      <trkpt lat="46.5279" lon="0.27419">
        <ele>147.8</ele>
        <time>2023-09-17T06:28:55Z</time>
      </trkpt>
      <trkpt lat="46.52787" lon="0.27431">
        <ele>148</ele>
        <time>2023-09-17T06:28:57Z</time>
      </trkpt>
      <trkpt lat="46.52789" lon="0.27465">
        <ele>148.4</ele>
        <time>2023-09-17T06:29:02Z</time>
      </trkpt>
      <trkpt lat="46.5279" lon="0.27472">
        <ele>148.4</ele>
        <time>2023-09-17T06:29:03Z</time>
      </trkpt>
      <trkpt lat="46.528" lon="0.27496">
        <ele>148.6</ele>
        <time>2023-09-17T06:29:07Z</time>
      </trkpt>
      <trkpt lat="46.52825" lon="0.27547">
        <ele>148.2</ele>
        <time>2023-09-17T06:29:15Z</time>
      </trkpt>
      <trkpt lat="46.52852" lon="0.27599">
        <ele>148.6</ele>
        <time>2023-09-17T06:29:23Z</time>
      </trkpt>
      <trkpt lat="46.52856" lon="0.27613">
        <ele>148.6</ele>
        <time>2023-09-17T06:29:25Z</time>
      </trkpt>
      <trkpt lat="46.52856" lon="0.2762">
        <ele>148.6</ele>
        <time>2023-09-17T06:29:26Z</time>
      </trkpt>
      <trkpt lat="46.52854" lon="0.27628">
        <ele>148.6</ele>
        <time>2023-09-17T06:29:27Z</time>
      </trkpt>
      <trkpt lat="46.52848" lon="0.27641">
        <ele>148.4</ele>
        <time>2023-09-17T06:29:29Z</time>
      </trkpt>
      <trkpt lat="46.52843" lon="0.27647">
        <ele>148.2</ele>
        <time>2023-09-17T06:29:30Z</time>
      </trkpt>
      <trkpt lat="46.52802" lon="0.27695">
        <ele>147.6</ele>
        <time>2023-09-17T06:29:39Z</time>
      </trkpt>
      <trkpt lat="46.52779" lon="0.27719">
        <ele>147.4</ele>
        <time>2023-09-17T06:29:44Z</time>
      </trkpt>
      <trkpt lat="46.52769" lon="0.27724">
        <ele>147.4</ele>
        <time>2023-09-17T06:29:46Z</time>
      </trkpt>
      <trkpt lat="46.52758" lon="0.27725">
        <ele>147.4</ele>
        <time>2023-09-17T06:29:48Z</time>
      </trkpt>
      <trkpt lat="46.52748" lon="0.27724">
        <ele>147.8</ele>
        <time>2023-09-17T06:29:50Z</time>
      </trkpt>
      <trkpt lat="46.52743" lon="0.27724">
        <ele>148</ele>
        <time>2023-09-17T06:29:51Z</time>
      </trkpt>
      <trkpt lat="46.52733" lon="0.27729">
        <ele>148.6</ele>
        <time>2023-09-17T06:29:53Z</time>
      </trkpt>
      <trkpt lat="46.52729" lon="0.27733">
        <ele>148.8</ele>
        <time>2023-09-17T06:29:54Z</time>
      </trkpt>
      <trkpt lat="46.52725" lon="0.27738">
        <ele>148.8</ele>
        <time>2023-09-17T06:29:55Z</time>
      </trkpt>
      <trkpt lat="46.52722" lon="0.27745">
        <ele>148.8</ele>
        <time>2023-09-17T06:29:56Z</time>
      </trkpt>
      <trkpt lat="46.52719" lon="0.27753">
        <ele>148.8</ele>
        <time>2023-09-17T06:29:57Z</time>
      </trkpt>
      <trkpt lat="46.52717" lon="0.27762">
        <ele>148.6</ele>
        <time>2023-09-17T06:29:58Z</time>
      </trkpt>
      <trkpt lat="46.52706" lon="0.27806">
        <ele>148</ele>
        <time>2023-09-17T06:30:03Z</time>
      </trkpt>
      <trkpt lat="46.52698" lon="0.27839">
        <ele>147.8</ele>
        <time>2023-09-17T06:30:07Z</time>
      </trkpt>
      <trkpt lat="46.52696" lon="0.27846">
        <ele>147.6</ele>
        <time>2023-09-17T06:30:08Z</time>
      </trkpt>
      <trkpt lat="46.52693" lon="0.27853">
        <ele>147.6</ele>
        <time>2023-09-17T06:30:09Z</time>
      </trkpt>
      <trkpt lat="46.52681" lon="0.27889">
        <ele>147.4</ele>
        <time>2023-09-17T06:30:14Z</time>
      </trkpt>
      <trkpt lat="46.52677" lon="0.27904">
        <ele>147</ele>
        <time>2023-09-17T06:30:16Z</time>
      </trkpt>
      <trkpt lat="46.52677" lon="0.27922">
        <ele>146.8</ele>
        <time>2023-09-17T06:30:18Z</time>
      </trkpt>
      <trkpt lat="46.52678" lon="0.27939">
        <ele>146.6</ele>
        <time>2023-09-17T06:30:20Z</time>
      </trkpt>
      <trkpt lat="46.52677" lon="0.27947">
        <ele>146.4</ele>
        <time>2023-09-17T06:30:21Z</time>
      </trkpt>
      <trkpt lat="46.52675" lon="0.27964">
        <ele>146</ele>
        <time>2023-09-17T06:30:23Z</time>
      </trkpt>
      <trkpt lat="46.52668" lon="0.27981">
        <ele>145.8</ele>
        <time>2023-09-17T06:30:25Z</time>
      </trkpt>
      <trkpt lat="46.52662" lon="0.27987">
        <ele>145.6</ele>
        <time>2023-09-17T06:30:26Z</time>
      </trkpt>
      <trkpt lat="46.52656" lon="0.2799">
        <ele>145.4</ele>
        <time>2023-09-17T06:30:27Z</time>
      </trkpt>
      <trkpt lat="46.5263" lon="0.28004">
        <ele>145.2</ele>
        <time>2023-09-17T06:30:31Z</time>
      </trkpt>
      <trkpt lat="46.52619" lon="0.28012">
        <ele>145</ele>
        <time>2023-09-17T06:30:33Z</time>
      </trkpt>
      <trkpt lat="46.52609" lon="0.28024">
        <ele>145</ele>
        <time>2023-09-17T06:30:35Z</time>
      </trkpt>
      <trkpt lat="46.52593" lon="0.28046">
        <ele>144.4</ele>
        <time>2023-09-17T06:30:39Z</time>
      </trkpt>
      <trkpt lat="46.52591" lon="0.28048">
        <ele>144.2</ele>
        <time>2023-09-17T06:30:40Z</time>
      </trkpt>
      <trkpt lat="46.52587" lon="0.28047">
        <ele>143.8</ele>
        <time>2023-09-17T06:30:42Z</time>
      </trkpt>
      <trkpt lat="46.52586" lon="0.28045">
        <ele>143.6</ele>
        <time>2023-09-17T06:30:43Z</time>
      </trkpt>
      <trkpt lat="46.52584" lon="0.28027">
        <ele>144</ele>
        <time>2023-09-17T06:30:49Z</time>
      </trkpt>
      <trkpt lat="46.52583" lon="0.28023">
        <ele>144</ele>
        <time>2023-09-17T06:30:50Z</time>
      </trkpt>
      <trkpt lat="46.52572" lon="0.28006">
        <ele>144.2</ele>
        <time>2023-09-17T06:30:53Z</time>
      </trkpt>
      <trkpt lat="46.52554" lon="0.2798">
        <ele>144.8</ele>
        <time>2023-09-17T06:30:57Z</time>
      </trkpt>
      <trkpt lat="46.52523" lon="0.27931">
        <ele>144</ele>
        <time>2023-09-17T06:31:05Z</time>
      </trkpt>
      <trkpt lat="46.52495" lon="0.27889">
        <ele>143</ele>
        <time>2023-09-17T06:31:11Z</time>
      </trkpt>
      <trkpt lat="46.52474" lon="0.27858">
        <ele>141.6</ele>
        <time>2023-09-17T06:31:16Z</time>
      </trkpt>
      <trkpt lat="46.52469" lon="0.27849">
        <ele>141.4</ele>
        <time>2023-09-17T06:31:17Z</time>
      </trkpt>
      <trkpt lat="46.52457" lon="0.2783">
        <ele>140.4</ele>
        <time>2023-09-17T06:31:20Z</time>
      </trkpt>
      <trkpt lat="46.52445" lon="0.27813">
        <ele>139.8</ele>
        <time>2023-09-17T06:31:22Z</time>
      </trkpt>
      <trkpt lat="46.52433" lon="0.27798">
        <ele>139.4</ele>
        <time>2023-09-17T06:31:24Z</time>
      </trkpt>
      <trkpt lat="46.52415" lon="0.27775">
        <ele>139</ele>
        <time>2023-09-17T06:31:27Z</time>
      </trkpt>
      <trkpt lat="46.52405" lon="0.27761">
        <ele>138</ele>
        <time>2023-09-17T06:31:29Z</time>
      </trkpt>
      <trkpt lat="46.52379" lon="0.27733">
        <ele>136.8</ele>
        <time>2023-09-17T06:31:33Z</time>
      </trkpt>
      <trkpt lat="46.52373" lon="0.27729">
        <ele>136.4</ele>
        <time>2023-09-17T06:31:34Z</time>
      </trkpt>
      <trkpt lat="46.5236" lon="0.27724">
        <ele>136</ele>
        <time>2023-09-17T06:31:36Z</time>
      </trkpt>
      <trkpt lat="46.52352" lon="0.27722">
        <ele>135.6</ele>
        <time>2023-09-17T06:31:37Z</time>
      </trkpt>
      <trkpt lat="46.52344" lon="0.2772">
        <ele>134.2</ele>
        <time>2023-09-17T06:31:38Z</time>
      </trkpt>
      <trkpt lat="46.52326" lon="0.27711">
        <ele>133</ele>
        <time>2023-09-17T06:31:40Z</time>
      </trkpt>
      <trkpt lat="46.52309" lon="0.27702">
        <ele>132.2</ele>
        <time>2023-09-17T06:31:42Z</time>
      </trkpt>
      <trkpt lat="46.52292" lon="0.27692">
        <ele>132</ele>
        <time>2023-09-17T06:31:44Z</time>
      </trkpt>
      <trkpt lat="46.52269" lon="0.27673">
        <ele>131.2</ele>
        <time>2023-09-17T06:31:47Z</time>
      </trkpt>
      <trkpt lat="46.52251" lon="0.27661">
        <ele>131</ele>
        <time>2023-09-17T06:31:49Z</time>
      </trkpt>
      <trkpt lat="46.52217" lon="0.27641">
        <ele>130.6</ele>
        <time>2023-09-17T06:31:53Z</time>
      </trkpt>
      <trkpt lat="46.52177" lon="0.27605">
        <ele>130.4</ele>
        <time>2023-09-17T06:31:58Z</time>
      </trkpt>
      <trkpt lat="46.5217" lon="0.27601">
        <ele>130.2</ele>
        <time>2023-09-17T06:31:59Z</time>
      </trkpt>
      <trkpt lat="46.52147" lon="0.27587">
        <ele>129.8</ele>
        <time>2023-09-17T06:32:02Z</time>
      </trkpt>
      <trkpt lat="46.5214" lon="0.27583">
        <ele>129.8</ele>
        <time>2023-09-17T06:32:03Z</time>
      </trkpt>
      <trkpt lat="46.52094" lon="0.27564">
        <ele>129.8</ele>
        <time>2023-09-17T06:32:09Z</time>
      </trkpt>
      <trkpt lat="46.52044" lon="0.27545">
        <ele>129.6</ele>
        <time>2023-09-17T06:32:16Z</time>
      </trkpt>
      <trkpt lat="46.51992" lon="0.2753">
        <ele>129.6</ele>
        <time>2023-09-17T06:32:23Z</time>
      </trkpt>
      <trkpt lat="46.5196" lon="0.27522">
        <ele>129.2</ele>
        <time>2023-09-17T06:32:28Z</time>
      </trkpt>
      <trkpt lat="46.5196" lon="0.27522">
        <ele>128.8</ele>
        <time>2023-09-17T06:32:29Z</time>
      </trkpt>
      <trkpt lat="46.51955" lon="0.2753">
        <ele>128.2</ele>
        <time>2023-09-17T06:32:31Z</time>
      </trkpt>
      <trkpt lat="46.51957" lon="0.27535">
        <ele>128</ele>
        <time>2023-09-17T06:32:32Z</time>
      </trkpt>
      <trkpt lat="46.51959" lon="0.2754">
        <ele>127.8</ele>
        <time>2023-09-17T06:32:33Z</time>
      </trkpt>
      <trkpt lat="46.51965" lon="0.27549">
        <ele>127.6</ele>
        <time>2023-09-17T06:32:35Z</time>
      </trkpt>
      <trkpt lat="46.51974" lon="0.2757">
        <ele>127.2</ele>
        <time>2023-09-17T06:32:38Z</time>
      </trkpt>
      <trkpt lat="46.51978" lon="0.27588">
        <ele>127</ele>
        <time>2023-09-17T06:32:40Z</time>
      </trkpt>
      <trkpt lat="46.51981" lon="0.27609">
        <ele>126.8</ele>
        <time>2023-09-17T06:32:42Z</time>
      </trkpt>
      <trkpt lat="46.51982" lon="0.2762">
        <ele>126.6</ele>
        <time>2023-09-17T06:32:43Z</time>
      </trkpt>
      <trkpt lat="46.51982" lon="0.2764">
        <ele>126.2</ele>
        <time>2023-09-17T06:32:45Z</time>
      </trkpt>
      <trkpt lat="46.51977" lon="0.27705">
        <ele>126</ele>
        <time>2023-09-17T06:32:51Z</time>
      </trkpt>
      <trkpt lat="46.51977" lon="0.27716">
        <ele>126.4</ele>
        <time>2023-09-17T06:32:52Z</time>
      </trkpt>
      <trkpt lat="46.51982" lon="0.27759">
        <ele>126.8</ele>
        <time>2023-09-17T06:32:56Z</time>
      </trkpt>
      <trkpt lat="46.51992" lon="0.27831">
        <ele>128</ele>
        <time>2023-09-17T06:33:03Z</time>
      </trkpt>
      <trkpt lat="46.51996" lon="0.27881">
        <ele>129</ele>
        <time>2023-09-17T06:33:08Z</time>
      </trkpt>
      <trkpt lat="46.51997" lon="0.27911">
        <ele>129.8</ele>
        <time>2023-09-17T06:33:11Z</time>
      </trkpt>
      <trkpt lat="46.51997" lon="0.2796">
        <ele>130.4</ele>
        <time>2023-09-17T06:33:16Z</time>
      </trkpt>
      <trkpt lat="46.51997" lon="0.27988">
        <ele>130.8</ele>
        <time>2023-09-17T06:33:19Z</time>
      </trkpt>
      <trkpt lat="46.51996" lon="0.28032">
        <ele>131.2</ele>
        <time>2023-09-17T06:33:24Z</time>
      </trkpt>
      <trkpt lat="46.51995" lon="0.28039">
        <ele>131.2</ele>
        <time>2023-09-17T06:33:25Z</time>
      </trkpt>
      <trkpt lat="46.51992" lon="0.28055">
        <ele>131.4</ele>
        <time>2023-09-17T06:33:27Z</time>
      </trkpt>
      <trkpt lat="46.5199" lon="0.28062">
        <ele>131.4</ele>
        <time>2023-09-17T06:33:28Z</time>
      </trkpt>
      <trkpt lat="46.51982" lon="0.28071">
        <ele>131.4</ele>
        <time>2023-09-17T06:33:30Z</time>
      </trkpt>
      <trkpt lat="46.51972" lon="0.2807">
        <ele>131.4</ele>
        <time>2023-09-17T06:33:32Z</time>
      </trkpt>
      <trkpt lat="46.51967" lon="0.2807">
        <ele>131.2</ele>
        <time>2023-09-17T06:33:33Z</time>
      </trkpt>
      <trkpt lat="46.51937" lon="0.28063">
        <ele>130.8</ele>
        <time>2023-09-17T06:33:38Z</time>
      </trkpt>
      <trkpt lat="46.51925" lon="0.28061">
        <ele>130.8</ele>
        <time>2023-09-17T06:33:40Z</time>
      </trkpt>
      <trkpt lat="46.51906" lon="0.28056">
        <ele>130.6</ele>
        <time>2023-09-17T06:33:43Z</time>
      </trkpt>
      <trkpt lat="46.51887" lon="0.28052">
        <ele>130.2</ele>
        <time>2023-09-17T06:33:46Z</time>
      </trkpt>
      <trkpt lat="46.51861" lon="0.28045">
        <ele>129</ele>
        <time>2023-09-17T06:33:50Z</time>
      </trkpt>
      <trkpt lat="46.51842" lon="0.28042">
        <ele>128</ele>
        <time>2023-09-17T06:33:53Z</time>
      </trkpt>
      <trkpt lat="46.51836" lon="0.28043">
        <ele>127.4</ele>
        <time>2023-09-17T06:33:54Z</time>
      </trkpt>
      <trkpt lat="46.51831" lon="0.28046">
        <ele>127</ele>
        <time>2023-09-17T06:33:55Z</time>
      </trkpt>
      <trkpt lat="46.51828" lon="0.28052">
        <ele>126.8</ele>
        <time>2023-09-17T06:33:56Z</time>
      </trkpt>
      <trkpt lat="46.51827" lon="0.28069">
        <ele>126.4</ele>
        <time>2023-09-17T06:33:58Z</time>
      </trkpt>
      <trkpt lat="46.51833" lon="0.28115">
        <ele>126.2</ele>
        <time>2023-09-17T06:34:03Z</time>
      </trkpt>
      <trkpt lat="46.51844" lon="0.28187">
        <ele>127.4</ele>
        <time>2023-09-17T06:34:11Z</time>
      </trkpt>
      <trkpt lat="46.51851" lon="0.28237">
        <ele>126.8</ele>
        <time>2023-09-17T06:34:17Z</time>
      </trkpt>
      <trkpt lat="46.51852" lon="0.28246">
        <ele>126.4</ele>
        <time>2023-09-17T06:34:18Z</time>
      </trkpt>
      <trkpt lat="46.51849" lon="0.28264">
        <ele>126.2</ele>
        <time>2023-09-17T06:34:20Z</time>
      </trkpt>
      <trkpt lat="46.51846" lon="0.28273">
        <ele>126</ele>
        <time>2023-09-17T06:34:21Z</time>
      </trkpt>
      <trkpt lat="46.51838" lon="0.2829">
        <ele>125.2</ele>
        <time>2023-09-17T06:34:23Z</time>
      </trkpt>
      <trkpt lat="46.5182" lon="0.28329">
        <ele>123.8</ele>
        <time>2023-09-17T06:34:27Z</time>
      </trkpt>
      <trkpt lat="46.51804" lon="0.2836">
        <ele>122.4</ele>
        <time>2023-09-17T06:34:30Z</time>
      </trkpt>
      <trkpt lat="46.51794" lon="0.28383">
        <ele>121.2</ele>
        <time>2023-09-17T06:34:32Z</time>
      </trkpt>
      <trkpt lat="46.5179" lon="0.28395">
        <ele>120.8</ele>
        <time>2023-09-17T06:34:33Z</time>
      </trkpt>
      <trkpt lat="46.51787" lon="0.28408">
        <ele>120.2</ele>
        <time>2023-09-17T06:34:34Z</time>
      </trkpt>
      <trkpt lat="46.51784" lon="0.28435">
        <ele>119.2</ele>
        <time>2023-09-17T06:34:36Z</time>
      </trkpt>
      <trkpt lat="46.51784" lon="0.2845">
        <ele>118.4</ele>
        <time>2023-09-17T06:34:37Z</time>
      </trkpt>
      <trkpt lat="46.51785" lon="0.28479">
        <ele>117</ele>
        <time>2023-09-17T06:34:39Z</time>
      </trkpt>
      <trkpt lat="46.51787" lon="0.28508">
        <ele>115.8</ele>
        <time>2023-09-17T06:34:41Z</time>
      </trkpt>
      <trkpt lat="46.51793" lon="0.28553">
        <ele>114.6</ele>
        <time>2023-09-17T06:34:44Z</time>
      </trkpt>
      <trkpt lat="46.51799" lon="0.28581">
        <ele>114</ele>
        <time>2023-09-17T06:34:46Z</time>
      </trkpt>
      <trkpt lat="46.51802" lon="0.28596">
        <ele>113.4</ele>
        <time>2023-09-17T06:34:47Z</time>
      </trkpt>
      <trkpt lat="46.5181" lon="0.28635">
        <ele>112.4</ele>
        <time>2023-09-17T06:34:50Z</time>
      </trkpt>
      <trkpt lat="46.51809" lon="0.28644">
        <ele>111.2</ele>
        <time>2023-09-17T06:34:51Z</time>
      </trkpt>
      <trkpt lat="46.51807" lon="0.28653">
        <ele>110.8</ele>
        <time>2023-09-17T06:34:52Z</time>
      </trkpt>
      <trkpt lat="46.51802" lon="0.28668">
        <ele>110.2</ele>
        <time>2023-09-17T06:34:54Z</time>
      </trkpt>
      <trkpt lat="46.51793" lon="0.28676">
        <ele>108.6</ele>
        <time>2023-09-17T06:34:56Z</time>
      </trkpt>
      <trkpt lat="46.51787" lon="0.28682">
        <ele>107.8</ele>
        <time>2023-09-17T06:34:58Z</time>
      </trkpt>
      <trkpt lat="46.51785" lon="0.28685">
        <ele>107.4</ele>
        <time>2023-09-17T06:34:59Z</time>
      </trkpt>
      <trkpt lat="46.51784" lon="0.2869">
        <ele>107.4</ele>
        <time>2023-09-17T06:35:00Z</time>
      </trkpt>
      <trkpt lat="46.51784" lon="0.28696">
        <ele>107.2</ele>
        <time>2023-09-17T06:35:01Z</time>
      </trkpt>
      <trkpt lat="46.51788" lon="0.28735">
        <ele>107.2</ele>
        <time>2023-09-17T06:35:07Z</time>
      </trkpt>
      <trkpt lat="46.51794" lon="0.2878">
        <ele>107.2</ele>
        <time>2023-09-17T06:35:13Z</time>
      </trkpt>
      <trkpt lat="46.51801" lon="0.28821">
        <ele>106.6</ele>
        <time>2023-09-17T06:35:19Z</time>
      </trkpt>
      <trkpt lat="46.51805" lon="0.28845">
        <ele>106.8</ele>
        <time>2023-09-17T06:35:22Z</time>
      </trkpt>
      <trkpt lat="46.51813" lon="0.28882">
        <ele>106.6</ele>
        <time>2023-09-17T06:35:27Z</time>
      </trkpt>
      <trkpt lat="46.51821" lon="0.28932">
        <ele>107</ele>
        <time>2023-09-17T06:35:34Z</time>
      </trkpt>
      <trkpt lat="46.51824" lon="0.28954">
        <ele>106.6</ele>
        <time>2023-09-17T06:35:37Z</time>
      </trkpt>
      <trkpt lat="46.51825" lon="0.28971">
        <ele>106.6</ele>
        <time>2023-09-17T06:35:39Z</time>
      </trkpt>
      <trkpt lat="46.51825" lon="0.2898">
        <ele>106.4</ele>
        <time>2023-09-17T06:35:40Z</time>
      </trkpt>
      <trkpt lat="46.51827" lon="0.28988">
        <ele>106.4</ele>
        <time>2023-09-17T06:35:41Z</time>
      </trkpt>
      <trkpt lat="46.51831" lon="0.29013">
        <ele>106.4</ele>
        <time>2023-09-17T06:35:44Z</time>
      </trkpt>
      <trkpt lat="46.51842" lon="0.29042">
        <ele>105.8</ele>
        <time>2023-09-17T06:35:48Z</time>
      </trkpt>
      <trkpt lat="46.51845" lon="0.29048">
        <ele>105.6</ele>
        <time>2023-09-17T06:35:49Z</time>
      </trkpt>
      <trkpt lat="46.51861" lon="0.29082">
        <ele>105.4</ele>
        <time>2023-09-17T06:35:54Z</time>
      </trkpt>
      <trkpt lat="46.51866" lon="0.29094">
        <ele>105</ele>
        <time>2023-09-17T06:35:56Z</time>
      </trkpt>
      <trkpt lat="46.51876" lon="0.29121">
        <ele>104.6</ele>
        <time>2023-09-17T06:36:00Z</time>
      </trkpt>
      <trkpt lat="46.51879" lon="0.29126">
        <ele>104.4</ele>
        <time>2023-09-17T06:36:01Z</time>
      </trkpt>
      <trkpt lat="46.51898" lon="0.29174">
        <ele>103.4</ele>
        <time>2023-09-17T06:36:07Z</time>
      </trkpt>
      <trkpt lat="46.51919" lon="0.29213">
        <ele>102.4</ele>
        <time>2023-09-17T06:36:12Z</time>
      </trkpt>
      <trkpt lat="46.51923" lon="0.29219">
        <ele>102.2</ele>
        <time>2023-09-17T06:36:13Z</time>
      </trkpt>
      <trkpt lat="46.51927" lon="0.29225">
        <ele>102.2</ele>
        <time>2023-09-17T06:36:14Z</time>
      </trkpt>
      <trkpt lat="46.51935" lon="0.29239">
        <ele>102</ele>
        <time>2023-09-17T06:36:16Z</time>
      </trkpt>
      <trkpt lat="46.51938" lon="0.29247">
        <ele>102</ele>
        <time>2023-09-17T06:36:17Z</time>
      </trkpt>
      <trkpt lat="46.51962" lon="0.29287">
        <ele>101.6</ele>
        <time>2023-09-17T06:36:23Z</time>
      </trkpt>
      <trkpt lat="46.51984" lon="0.2932">
        <ele>101.4</ele>
        <time>2023-09-17T06:36:28Z</time>
      </trkpt>
      <trkpt lat="46.52001" lon="0.29346">
        <ele>101.4</ele>
        <time>2023-09-17T06:36:32Z</time>
      </trkpt>
      <trkpt lat="46.52005" lon="0.29352">
        <ele>101.4</ele>
        <time>2023-09-17T06:36:33Z</time>
      </trkpt>
      <trkpt lat="46.52023" lon="0.29376">
        <ele>101.4</ele>
        <time>2023-09-17T06:36:38Z</time>
      </trkpt>
      <trkpt lat="46.52027" lon="0.29382">
        <ele>101.4</ele>
        <time>2023-09-17T06:36:39Z</time>
      </trkpt>
      <trkpt lat="46.52063" lon="0.29423">
        <ele>101.8</ele>
        <time>2023-09-17T06:36:46Z</time>
      </trkpt>
      <trkpt lat="46.5209" lon="0.2946">
        <ele>101.2</ele>
        <time>2023-09-17T06:36:51Z</time>
      </trkpt>
      <trkpt lat="46.52095" lon="0.29468">
        <ele>101</ele>
        <time>2023-09-17T06:36:52Z</time>
      </trkpt>
      <trkpt lat="46.52124" lon="0.29506">
        <ele>100.6</ele>
        <time>2023-09-17T06:36:58Z</time>
      </trkpt>
      <trkpt lat="46.52137" lon="0.29521">
        <ele>100</ele>
        <time>2023-09-17T06:37:01Z</time>
      </trkpt>
      <trkpt lat="46.52154" lon="0.29543">
        <ele>99.6</ele>
        <time>2023-09-17T06:37:05Z</time>
      </trkpt>
      <trkpt lat="46.52179" lon="0.29568">
        <ele>99.6</ele>
        <time>2023-09-17T06:37:10Z</time>
      </trkpt>
      <trkpt lat="46.52185" lon="0.29573">
        <ele>99.6</ele>
        <time>2023-09-17T06:37:11Z</time>
      </trkpt>
      <trkpt lat="46.52216" lon="0.29606">
        <ele>98.8</ele>
        <time>2023-09-17T06:37:18Z</time>
      </trkpt>
      <trkpt lat="46.52244" lon="0.29634">
        <ele>98.6</ele>
        <time>2023-09-17T06:37:24Z</time>
      </trkpt>
      <trkpt lat="46.5225" lon="0.29641">
        <ele>98</ele>
        <time>2023-09-17T06:37:26Z</time>
      </trkpt>
      <trkpt lat="46.52251" lon="0.29644">
        <ele>97.6</ele>
        <time>2023-09-17T06:37:27Z</time>
      </trkpt>
      <trkpt lat="46.52252" lon="0.29647">
        <ele>97</ele>
        <time>2023-09-17T06:37:28Z</time>
      </trkpt>
      <trkpt lat="46.52253" lon="0.29652">
        <ele>96.4</ele>
        <time>2023-09-17T06:37:30Z</time>
      </trkpt>
      <trkpt lat="46.52253" lon="0.29656">
        <ele>96</ele>
        <time>2023-09-17T06:37:32Z</time>
      </trkpt>
      <trkpt lat="46.52252" lon="0.29659">
        <ele>96</ele>
        <time>2023-09-17T06:37:33Z</time>
      </trkpt>
      <trkpt lat="46.52252" lon="0.29695">
        <ele>96.6</ele>
        <time>2023-09-17T06:37:39Z</time>
      </trkpt>
      <trkpt lat="46.52245" lon="0.29701">
        <ele>97.4</ele>
        <time>2023-09-17T06:37:42Z</time>
      </trkpt>
      <trkpt lat="46.52238" lon="0.29703">
        <ele>98.4</ele>
        <time>2023-09-17T06:37:45Z</time>
      </trkpt>
      <trkpt lat="46.52236" lon="0.29703">
        <ele>98.4</ele>
        <time>2023-09-17T06:37:46Z</time>
      </trkpt>
      <trkpt lat="46.52231" lon="0.29703">
        <ele>98.8</ele>
        <time>2023-09-17T06:37:48Z</time>
      </trkpt>
      <trkpt lat="46.52227" lon="0.29704">
        <ele>99</ele>
        <time>2023-09-17T06:37:50Z</time>
      </trkpt>
      <trkpt lat="46.52222" lon="0.29704">
        <ele>99.2</ele>
        <time>2023-09-17T06:37:52Z</time>
      </trkpt>
      <trkpt lat="46.52217" lon="0.29705">
        <ele>99.4</ele>
        <time>2023-09-17T06:37:54Z</time>
      </trkpt>
      <trkpt lat="46.52208" lon="0.29709">
        <ele>99.8</ele>
        <time>2023-09-17T06:37:57Z</time>
      </trkpt>
      <trkpt lat="46.52205" lon="0.29711">
        <ele>100</ele>
        <time>2023-09-17T06:37:58Z</time>
      </trkpt>
      <trkpt lat="46.52191" lon="0.2971">
        <ele>101</ele>
        <time>2023-09-17T06:38:03Z</time>
      </trkpt>
      <trkpt lat="46.52187" lon="0.29709">
        <ele>101.4</ele>
        <time>2023-09-17T06:38:05Z</time>
      </trkpt>
      <trkpt lat="46.52183" lon="0.29706">
        <ele>102.4</ele>
        <time>2023-09-17T06:38:07Z</time>
      </trkpt>
      <trkpt lat="46.5218" lon="0.29703">
        <ele>102.6</ele>
        <time>2023-09-17T06:38:09Z</time>
      </trkpt>
      <trkpt lat="46.52174" lon="0.29699">
        <ele>102.8</ele>
        <time>2023-09-17T06:38:11Z</time>
      </trkpt>
      <trkpt lat="46.52149" lon="0.29678">
        <ele>102.6</ele>
        <time>2023-09-17T06:38:16Z</time>
      </trkpt>
      <trkpt lat="46.52129" lon="0.29659">
        <ele>102.6</ele>
        <time>2023-09-17T06:38:22Z</time>
      </trkpt>
      <trkpt lat="46.52112" lon="0.29639">
        <ele>102.2</ele>
        <time>2023-09-17T06:38:26Z</time>
      </trkpt>
      <trkpt lat="46.52098" lon="0.29625">
        <ele>102</ele>
        <time>2023-09-17T06:38:28Z</time>
      </trkpt>
      <trkpt lat="46.52074" lon="0.29603">
        <ele>102</ele>
        <time>2023-09-17T06:38:32Z</time>
      </trkpt>
      <trkpt lat="46.5207" lon="0.29601">
        <ele>102</ele>
        <time>2023-09-17T06:38:33Z</time>
      </trkpt>
      <trkpt lat="46.52064" lon="0.29597">
        <ele>102</ele>
        <time>2023-09-17T06:38:34Z</time>
      </trkpt>
      <trkpt lat="46.52036" lon="0.2958">
        <ele>102.2</ele>
        <time>2023-09-17T06:38:39Z</time>
      </trkpt>
      <trkpt lat="46.52022" lon="0.29576">
        <ele>103.6</ele>
        <time>2023-09-17T06:38:43Z</time>
      </trkpt>
      <trkpt lat="46.52016" lon="0.29573">
        <ele>104.8</ele>
        <time>2023-09-17T06:38:46Z</time>
      </trkpt>
      <trkpt lat="46.5201" lon="0.29568">
        <ele>106</ele>
        <time>2023-09-17T06:38:49Z</time>
      </trkpt>
      <trkpt lat="46.52008" lon="0.29567">
        <ele>106.8</ele>
        <time>2023-09-17T06:38:50Z</time>
      </trkpt>
      <trkpt lat="46.52006" lon="0.29566">
        <ele>107.2</ele>
        <time>2023-09-17T06:38:51Z</time>
      </trkpt>
      <trkpt lat="46.51996" lon="0.29561">
        <ele>108.2</ele>
        <time>2023-09-17T06:38:55Z</time>
      </trkpt>
      <trkpt lat="46.51982" lon="0.29545">
        <ele>108.6</ele>
        <time>2023-09-17T06:38:59Z</time>
      </trkpt>
      <trkpt lat="46.5196" lon="0.29515">
        <ele>108</ele>
        <time>2023-09-17T06:39:05Z</time>
      </trkpt>
      <trkpt lat="46.51957" lon="0.29511">
        <ele>107.6</ele>
        <time>2023-09-17T06:39:06Z</time>
      </trkpt>
      <trkpt lat="46.51943" lon="0.29494">
        <ele>107</ele>
        <time>2023-09-17T06:39:10Z</time>
      </trkpt>
      <trkpt lat="46.51938" lon="0.29488">
        <ele>107</ele>
        <time>2023-09-17T06:39:11Z</time>
      </trkpt>
      <trkpt lat="46.51928" lon="0.29478">
        <ele>106.6</ele>
        <time>2023-09-17T06:39:13Z</time>
      </trkpt>
      <trkpt lat="46.51917" lon="0.2947">
        <ele>106.4</ele>
        <time>2023-09-17T06:39:16Z</time>
      </trkpt>
      <trkpt lat="46.51914" lon="0.29465">
        <ele>106.4</ele>
        <time>2023-09-17T06:39:17Z</time>
      </trkpt>
      <trkpt lat="46.51904" lon="0.29453">
        <ele>106.8</ele>
        <time>2023-09-17T06:39:20Z</time>
      </trkpt>
      <trkpt lat="46.51901" lon="0.29447">
        <ele>106.8</ele>
        <time>2023-09-17T06:39:21Z</time>
      </trkpt>
      <trkpt lat="46.51884" lon="0.29407">
        <ele>107</ele>
        <time>2023-09-17T06:39:28Z</time>
      </trkpt>
      <trkpt lat="46.5188" lon="0.29405">
        <ele>107.2</ele>
        <time>2023-09-17T06:39:32Z</time>
      </trkpt>
      <trkpt lat="46.51877" lon="0.29413">
        <ele>108.6</ele>
        <time>2023-09-17T06:39:37Z</time>
      </trkpt>
      <trkpt lat="46.51873" lon="0.29415">
        <ele>109.8</ele>
        <time>2023-09-17T06:39:40Z</time>
      </trkpt>
      <trkpt lat="46.51867" lon="0.29421">
        <ele>110.8</ele>
        <time>2023-09-17T06:39:45Z</time>
      </trkpt>
      <trkpt lat="46.51862" lon="0.29429">
        <ele>111.6</ele>
        <time>2023-09-17T06:39:49Z</time>
      </trkpt>
      <trkpt lat="46.51859" lon="0.29436">
        <ele>111.8</ele>
        <time>2023-09-17T06:39:52Z</time>
      </trkpt>
      <trkpt lat="46.51851" lon="0.2945">
        <ele>113</ele>
        <time>2023-09-17T06:39:58Z</time>
      </trkpt>
      <trkpt lat="46.51846" lon="0.29459">
        <ele>114.2</ele>
        <time>2023-09-17T06:40:02Z</time>
      </trkpt>
      <trkpt lat="46.51842" lon="0.29468">
        <ele>114.8</ele>
        <time>2023-09-17T06:40:05Z</time>
      </trkpt>
      <trkpt lat="46.51838" lon="0.29475">
        <ele>115.6</ele>
        <time>2023-09-17T06:40:08Z</time>
      </trkpt>
      <trkpt lat="46.51832" lon="0.29486">
        <ele>116.8</ele>
        <time>2023-09-17T06:40:13Z</time>
      </trkpt>
      <trkpt lat="46.51826" lon="0.29497">
        <ele>117.8</ele>
        <time>2023-09-17T06:40:17Z</time>
      </trkpt>
      <trkpt lat="46.51822" lon="0.29506">
        <ele>119.2</ele>
        <time>2023-09-17T06:40:21Z</time>
      </trkpt>
      <trkpt lat="46.5182" lon="0.29509">
        <ele>119.4</ele>
        <time>2023-09-17T06:40:22Z</time>
      </trkpt>
      <trkpt lat="46.51816" lon="0.29518">
        <ele>120.4</ele>
        <time>2023-09-17T06:40:26Z</time>
      </trkpt>
      <trkpt lat="46.51813" lon="0.29526">
        <ele>121</ele>
        <time>2023-09-17T06:40:29Z</time>
      </trkpt>
      <trkpt lat="46.51811" lon="0.29531">
        <ele>121.4</ele>
        <time>2023-09-17T06:40:31Z</time>
      </trkpt>
      <trkpt lat="46.51805" lon="0.29541">
        <ele>122.2</ele>
        <time>2023-09-17T06:40:36Z</time>
      </trkpt>
      <trkpt lat="46.51803" lon="0.29543">
        <ele>122.6</ele>
        <time>2023-09-17T06:40:37Z</time>
      </trkpt>
      <trkpt lat="46.51794" lon="0.29555">
        <ele>123.6</ele>
        <time>2023-09-17T06:40:43Z</time>
      </trkpt>
      <trkpt lat="46.51783" lon="0.29574">
        <ele>124.8</ele>
        <time>2023-09-17T06:40:51Z</time>
      </trkpt>
      <trkpt lat="46.51775" lon="0.29595">
        <ele>125.8</ele>
        <time>2023-09-17T06:40:59Z</time>
      </trkpt>
      <trkpt lat="46.51774" lon="0.29598">
        <ele>125.8</ele>
        <time>2023-09-17T06:41:00Z</time>
      </trkpt>
      <trkpt lat="46.51766" lon="0.29619">
        <ele>126.8</ele>
        <time>2023-09-17T06:41:07Z</time>
      </trkpt>
      <trkpt lat="46.51764" lon="0.29624">
        <ele>127</ele>
        <time>2023-09-17T06:41:09Z</time>
      </trkpt>
      <trkpt lat="46.51756" lon="0.29641">
        <ele>127.6</ele>
        <time>2023-09-17T06:41:14Z</time>
      </trkpt>
      <trkpt lat="46.51751" lon="0.2965">
        <ele>128</ele>
        <time>2023-09-17T06:41:16Z</time>
      </trkpt>
      <trkpt lat="46.51743" lon="0.29666">
        <ele>129.2</ele>
        <time>2023-09-17T06:41:20Z</time>
      </trkpt>
      <trkpt lat="46.51735" lon="0.2968">
        <ele>129.6</ele>
        <time>2023-09-17T06:41:26Z</time>
      </trkpt>
      <trkpt lat="46.51728" lon="0.29684">
        <ele>130.2</ele>
        <time>2023-09-17T06:41:30Z</time>
      </trkpt>
      <trkpt lat="46.51722" lon="0.29686">
        <ele>130.4</ele>
        <time>2023-09-17T06:41:33Z</time>
      </trkpt>
      <trkpt lat="46.51713" lon="0.29693">
        <ele>131.4</ele>
        <time>2023-09-17T06:41:38Z</time>
      </trkpt>
      <trkpt lat="46.51709" lon="0.29697">
        <ele>131.4</ele>
        <time>2023-09-17T06:41:40Z</time>
      </trkpt>
      <trkpt lat="46.51689" lon="0.29711">
        <ele>131.8</ele>
        <time>2023-09-17T06:41:48Z</time>
      </trkpt>
      <trkpt lat="46.51677" lon="0.29723">
        <ele>132.4</ele>
        <time>2023-09-17T06:41:53Z</time>
      </trkpt>
      <trkpt lat="46.51671" lon="0.29729">
        <ele>132.8</ele>
        <time>2023-09-17T06:41:55Z</time>
      </trkpt>
      <trkpt lat="46.51655" lon="0.29743">
        <ele>133.6</ele>
        <time>2023-09-17T06:42:00Z</time>
      </trkpt>
      <trkpt lat="46.51648" lon="0.29748">
        <ele>134.4</ele>
        <time>2023-09-17T06:42:02Z</time>
      </trkpt>
      <trkpt lat="46.51645" lon="0.29749">
        <ele>134.8</ele>
        <time>2023-09-17T06:42:03Z</time>
      </trkpt>
      <trkpt lat="46.51641" lon="0.29755">
        <ele>135.2</ele>
        <time>2023-09-17T06:42:06Z</time>
      </trkpt>
      <trkpt lat="46.51643" lon="0.29767">
        <ele>135.4</ele>
        <time>2023-09-17T06:42:10Z</time>
      </trkpt>
      <trkpt lat="46.51646" lon="0.29787">
        <ele>135.8</ele>
        <time>2023-09-17T06:42:14Z</time>
      </trkpt>
      <trkpt lat="46.51647" lon="0.29793">
        <ele>136.2</ele>
        <time>2023-09-17T06:42:15Z</time>
      </trkpt>
      <trkpt lat="46.51647" lon="0.29799">
        <ele>136.2</ele>
        <time>2023-09-17T06:42:16Z</time>
      </trkpt>
      <trkpt lat="46.51653" lon="0.29818">
        <ele>136.2</ele>
        <time>2023-09-17T06:42:19Z</time>
      </trkpt>
      <trkpt lat="46.51656" lon="0.29823">
        <ele>136.2</ele>
        <time>2023-09-17T06:42:20Z</time>
      </trkpt>
      <trkpt lat="46.5167" lon="0.29842">
        <ele>136.2</ele>
        <time>2023-09-17T06:42:24Z</time>
      </trkpt>
      <trkpt lat="46.51701" lon="0.29868">
        <ele>136.2</ele>
        <time>2023-09-17T06:42:31Z</time>
      </trkpt>
      <trkpt lat="46.51726" lon="0.29881">
        <ele>136.2</ele>
        <time>2023-09-17T06:42:36Z</time>
      </trkpt>
      <trkpt lat="46.51736" lon="0.29883">
        <ele>136.2</ele>
        <time>2023-09-17T06:42:38Z</time>
      </trkpt>
      <trkpt lat="46.51775" lon="0.29882">
        <ele>136</ele>
        <time>2023-09-17T06:42:45Z</time>
      </trkpt>
      <trkpt lat="46.51792" lon="0.29881">
        <ele>136</ele>
        <time>2023-09-17T06:42:48Z</time>
      </trkpt>
      <trkpt lat="46.51814" lon="0.29887">
        <ele>135.8</ele>
        <time>2023-09-17T06:42:52Z</time>
      </trkpt>
      <trkpt lat="46.51819" lon="0.29889">
        <ele>135.8</ele>
        <time>2023-09-17T06:42:53Z</time>
      </trkpt>
      <trkpt lat="46.51829" lon="0.29896">
        <ele>135.6</ele>
        <time>2023-09-17T06:42:55Z</time>
      </trkpt>
      <trkpt lat="46.51839" lon="0.29903">
        <ele>135.8</ele>
        <time>2023-09-17T06:42:57Z</time>
      </trkpt>
      <trkpt lat="46.51874" lon="0.29923">
        <ele>135.4</ele>
        <time>2023-09-17T06:43:04Z</time>
      </trkpt>
      <trkpt lat="46.51913" lon="0.29938">
        <ele>135.2</ele>
        <time>2023-09-17T06:43:11Z</time>
      </trkpt>
      <trkpt lat="46.5194" lon="0.29949">
        <ele>134.8</ele>
        <time>2023-09-17T06:43:16Z</time>
      </trkpt>
      <trkpt lat="46.51951" lon="0.29956">
        <ele>134.2</ele>
        <time>2023-09-17T06:43:18Z</time>
      </trkpt>
      <trkpt lat="46.51986" lon="0.29975">
        <ele>134.4</ele>
        <time>2023-09-17T06:43:25Z</time>
      </trkpt>
      <trkpt lat="46.52022" lon="0.29994">
        <ele>134.4</ele>
        <time>2023-09-17T06:43:32Z</time>
      </trkpt>
      <trkpt lat="46.52053" lon="0.30003">
        <ele>134.6</ele>
        <time>2023-09-17T06:43:38Z</time>
      </trkpt>
      <trkpt lat="46.52085" lon="0.30014">
        <ele>134.4</ele>
        <time>2023-09-17T06:43:45Z</time>
      </trkpt>
      <trkpt lat="46.52104" lon="0.30019">
        <ele>134.2</ele>
        <time>2023-09-17T06:43:49Z</time>
      </trkpt>
      <trkpt lat="46.52114" lon="0.30019">
        <ele>134.2</ele>
        <time>2023-09-17T06:43:51Z</time>
      </trkpt>
      <trkpt lat="46.52119" lon="0.30019">
        <ele>134</ele>
        <time>2023-09-17T06:43:52Z</time>
      </trkpt>
      <trkpt lat="46.52128" lon="0.30018">
        <ele>133.2</ele>
        <time>2023-09-17T06:43:54Z</time>
      </trkpt>
      <trkpt lat="46.52138" lon="0.30018">
        <ele>133</ele>
        <time>2023-09-17T06:43:56Z</time>
      </trkpt>
      <trkpt lat="46.52171" lon="0.30031">
        <ele>133.2</ele>
        <time>2023-09-17T06:44:02Z</time>
      </trkpt>
      <trkpt lat="46.52206" lon="0.30057">
        <ele>133</ele>
        <time>2023-09-17T06:44:09Z</time>
      </trkpt>
      <trkpt lat="46.52229" lon="0.30087">
        <ele>132.6</ele>
        <time>2023-09-17T06:44:15Z</time>
      </trkpt>
      <trkpt lat="46.52238" lon="0.30103">
        <ele>132.4</ele>
        <time>2023-09-17T06:44:18Z</time>
      </trkpt>
      <trkpt lat="46.52243" lon="0.30107">
        <ele>132.4</ele>
        <time>2023-09-17T06:44:20Z</time>
      </trkpt>
      <trkpt lat="46.52244" lon="0.30107">
        <ele>132.2</ele>
        <time>2023-09-17T06:44:21Z</time>
      </trkpt>
      <trkpt lat="46.52247" lon="0.301">
        <ele>132.2</ele>
        <time>2023-09-17T06:44:23Z</time>
      </trkpt>
      <trkpt lat="46.52253" lon="0.30083">
        <ele>132.6</ele>
        <time>2023-09-17T06:44:27Z</time>
      </trkpt>
      <trkpt lat="46.52255" lon="0.30079">
        <ele>132.6</ele>
        <time>2023-09-17T06:44:28Z</time>
      </trkpt>
      <trkpt lat="46.52256" lon="0.30074">
        <ele>132.6</ele>
        <time>2023-09-17T06:44:29Z</time>
      </trkpt>
      <trkpt lat="46.52262" lon="0.30051">
        <ele>132.4</ele>
        <time>2023-09-17T06:44:33Z</time>
      </trkpt>
      <trkpt lat="46.52264" lon="0.30037">
        <ele>132.4</ele>
        <time>2023-09-17T06:44:35Z</time>
      </trkpt>
      <trkpt lat="46.52265" lon="0.29992">
        <ele>132.8</ele>
        <time>2023-09-17T06:44:40Z</time>
      </trkpt>
      <trkpt lat="46.5227" lon="0.29949">
        <ele>131.2</ele>
        <time>2023-09-17T06:44:45Z</time>
      </trkpt>
      <trkpt lat="46.52272" lon="0.29943">
        <ele>130.8</ele>
        <time>2023-09-17T06:44:46Z</time>
      </trkpt>
      <trkpt lat="46.52276" lon="0.29925">
        <ele>129.6</ele>
        <time>2023-09-17T06:44:49Z</time>
      </trkpt>
      <trkpt lat="46.52276" lon="0.29918">
        <ele>129</ele>
        <time>2023-09-17T06:44:50Z</time>
      </trkpt>
      <trkpt lat="46.52276" lon="0.29911">
        <ele>127.8</ele>
        <time>2023-09-17T06:44:51Z</time>
      </trkpt>
      <trkpt lat="46.52275" lon="0.29902">
        <ele>126.8</ele>
        <time>2023-09-17T06:44:52Z</time>
      </trkpt>
      <trkpt lat="46.52275" lon="0.29896">
        <ele>126.4</ele>
        <time>2023-09-17T06:44:53Z</time>
      </trkpt>
      <trkpt lat="46.52276" lon="0.29885">
        <ele>125</ele>
        <time>2023-09-17T06:44:55Z</time>
      </trkpt>
      <trkpt lat="46.52277" lon="0.2988">
        <ele>124.4</ele>
        <time>2023-09-17T06:44:56Z</time>
      </trkpt>
      <trkpt lat="46.52279" lon="0.29873">
        <ele>123.8</ele>
        <time>2023-09-17T06:44:57Z</time>
      </trkpt>
      <trkpt lat="46.52284" lon="0.29856">
        <ele>122.8</ele>
        <time>2023-09-17T06:45:00Z</time>
      </trkpt>
      <trkpt lat="46.52286" lon="0.29851">
        <ele>121.2</ele>
        <time>2023-09-17T06:45:01Z</time>
      </trkpt>
      <trkpt lat="46.52288" lon="0.29847">
        <ele>119.6</ele>
        <time>2023-09-17T06:45:02Z</time>
      </trkpt>
      <trkpt lat="46.52292" lon="0.29843">
        <ele>118</ele>
        <time>2023-09-17T06:45:04Z</time>
      </trkpt>
      <trkpt lat="46.52294" lon="0.29843">
        <ele>117.6</ele>
        <time>2023-09-17T06:45:05Z</time>
      </trkpt>
      <trkpt lat="46.52302" lon="0.29847">
        <ele>117</ele>
        <time>2023-09-17T06:45:11Z</time>
      </trkpt>
      <trkpt lat="46.5231" lon="0.29852">
        <ele>116.8</ele>
        <time>2023-09-17T06:45:16Z</time>
      </trkpt>
      <trkpt lat="46.52312" lon="0.29854">
        <ele>116.6</ele>
        <time>2023-09-17T06:45:17Z</time>
      </trkpt>
      <trkpt lat="46.52318" lon="0.29861">
        <ele>115.6</ele>
        <time>2023-09-17T06:45:20Z</time>
      </trkpt>
      <trkpt lat="46.52323" lon="0.29868">
        <ele>115.2</ele>
        <time>2023-09-17T06:45:22Z</time>
      </trkpt>
      <trkpt lat="46.52325" lon="0.29871">
        <ele>114.4</ele>
        <time>2023-09-17T06:45:23Z</time>
      </trkpt>
      <trkpt lat="46.52326" lon="0.29876">
        <ele>113.8</ele>
        <time>2023-09-17T06:45:24Z</time>
      </trkpt>
      <trkpt lat="46.52328" lon="0.2988">
        <ele>113.4</ele>
        <time>2023-09-17T06:45:25Z</time>
      </trkpt>
      <trkpt lat="46.5233" lon="0.29885">
        <ele>113.2</ele>
        <time>2023-09-17T06:45:26Z</time>
      </trkpt>
      <trkpt lat="46.52332" lon="0.2989">
        <ele>113.2</ele>
        <time>2023-09-17T06:45:27Z</time>
      </trkpt>
      <trkpt lat="46.52342" lon="0.29913">
        <ele>114.6</ele>
        <time>2023-09-17T06:45:32Z</time>
      </trkpt>
      <trkpt lat="46.52358" lon="0.29942">
        <ele>115.4</ele>
        <time>2023-09-17T06:45:38Z</time>
      </trkpt>
      <trkpt lat="46.52364" lon="0.29954">
        <ele>115.4</ele>
        <time>2023-09-17T06:45:40Z</time>
      </trkpt>
      <trkpt lat="46.52369" lon="0.29964">
        <ele>115.4</ele>
        <time>2023-09-17T06:45:42Z</time>
      </trkpt>
      <trkpt lat="46.52377" lon="0.2998">
        <ele>115.4</ele>
        <time>2023-09-17T06:45:45Z</time>
      </trkpt>
      <trkpt lat="46.52379" lon="0.29984">
        <ele>115.4</ele>
        <time>2023-09-17T06:45:46Z</time>
      </trkpt>
      <trkpt lat="46.52387" lon="0.29999">
        <ele>115.6</ele>
        <time>2023-09-17T06:45:49Z</time>
      </trkpt>
      <trkpt lat="46.52389" lon="0.30004">
        <ele>115.8</ele>
        <time>2023-09-17T06:45:50Z</time>
      </trkpt>
      <trkpt lat="46.52394" lon="0.30012">
        <ele>115.6</ele>
        <time>2023-09-17T06:45:52Z</time>
      </trkpt>
      <trkpt lat="46.52405" lon="0.30027">
        <ele>115.2</ele>
        <time>2023-09-17T06:45:57Z</time>
      </trkpt>
      <trkpt lat="46.52415" lon="0.30043">
        <ele>114.8</ele>
        <time>2023-09-17T06:46:03Z</time>
      </trkpt>
      <trkpt lat="46.52433" lon="0.30068">
        <ele>115.2</ele>
        <time>2023-09-17T06:46:10Z</time>
      </trkpt>
      <trkpt lat="46.52437" lon="0.30072">
        <ele>115.4</ele>
        <time>2023-09-17T06:46:11Z</time>
      </trkpt>
      <trkpt lat="46.52451" lon="0.30091">
        <ele>114.6</ele>
        <time>2023-09-17T06:46:15Z</time>
      </trkpt>
      <trkpt lat="46.52461" lon="0.30111">
        <ele>113.4</ele>
        <time>2023-09-17T06:46:19Z</time>
      </trkpt>
      <trkpt lat="46.52463" lon="0.30114">
        <ele>112.4</ele>
        <time>2023-09-17T06:46:20Z</time>
      </trkpt>
      <trkpt lat="46.52466" lon="0.30119">
        <ele>110.6</ele>
        <time>2023-09-17T06:46:22Z</time>
      </trkpt>
      <trkpt lat="46.52471" lon="0.30127">
        <ele>109</ele>
        <time>2023-09-17T06:46:24Z</time>
      </trkpt>
      <trkpt lat="46.52475" lon="0.30132">
        <ele>107.2</ele>
        <time>2023-09-17T06:46:26Z</time>
      </trkpt>
      <trkpt lat="46.52478" lon="0.30135">
        <ele>105.6</ele>
        <time>2023-09-17T06:46:28Z</time>
      </trkpt>
      <trkpt lat="46.52481" lon="0.30137">
        <ele>103.8</ele>
        <time>2023-09-17T06:46:30Z</time>
      </trkpt>
      <trkpt lat="46.52482" lon="0.30138">
        <ele>102.4</ele>
        <time>2023-09-17T06:46:31Z</time>
      </trkpt>
      <trkpt lat="46.52488" lon="0.30139">
        <ele>101.2</ele>
        <time>2023-09-17T06:46:33Z</time>
      </trkpt>
      <trkpt lat="46.52497" lon="0.30137">
        <ele>99.4</ele>
        <time>2023-09-17T06:46:36Z</time>
      </trkpt>
      <trkpt lat="46.525" lon="0.30136">
        <ele>98.2</ele>
        <time>2023-09-17T06:46:37Z</time>
      </trkpt>
      <trkpt lat="46.52502" lon="0.30134">
        <ele>98.2</ele>
        <time>2023-09-17T06:46:38Z</time>
      </trkpt>
      <trkpt lat="46.52505" lon="0.30132">
        <ele>98</ele>
        <time>2023-09-17T06:46:39Z</time>
      </trkpt>
      <trkpt lat="46.52512" lon="0.30129">
        <ele>97.2</ele>
        <time>2023-09-17T06:46:42Z</time>
      </trkpt>
      <trkpt lat="46.52517" lon="0.30128">
        <ele>96.6</ele>
        <time>2023-09-17T06:46:44Z</time>
      </trkpt>
      <trkpt lat="46.52519" lon="0.30129">
        <ele>96.4</ele>
        <time>2023-09-17T06:46:45Z</time>
      </trkpt>
      <trkpt lat="46.52522" lon="0.30135">
        <ele>96.2</ele>
        <time>2023-09-17T06:46:47Z</time>
      </trkpt>
      <trkpt lat="46.52525" lon="0.30139">
        <ele>96.4</ele>
        <time>2023-09-17T06:46:48Z</time>
      </trkpt>
      <trkpt lat="46.52525" lon="0.30148">
        <ele>97.2</ele>
        <time>2023-09-17T06:46:51Z</time>
      </trkpt>
      <trkpt lat="46.52523" lon="0.30157">
        <ele>97.8</ele>
        <time>2023-09-17T06:46:54Z</time>
      </trkpt>
      <trkpt lat="46.52515" lon="0.30169">
        <ele>98.4</ele>
        <time>2023-09-17T06:46:59Z</time>
      </trkpt>
      <trkpt lat="46.52512" lon="0.30173">
        <ele>99</ele>
        <time>2023-09-17T06:47:01Z</time>
      </trkpt>
      <trkpt lat="46.52506" lon="0.30179">
        <ele>99.6</ele>
        <time>2023-09-17T06:47:04Z</time>
      </trkpt>
      <trkpt lat="46.52496" lon="0.30188">
        <ele>100.8</ele>
        <time>2023-09-17T06:47:09Z</time>
      </trkpt>
      <trkpt lat="46.52487" lon="0.30195">
        <ele>102.2</ele>
        <time>2023-09-17T06:47:13Z</time>
      </trkpt>
      <trkpt lat="46.5248" lon="0.302">
        <ele>103.2</ele>
        <time>2023-09-17T06:47:16Z</time>
      </trkpt>
      <trkpt lat="46.52479" lon="0.30203">
        <ele>103.6</ele>
        <time>2023-09-17T06:47:19Z</time>
      </trkpt>
      <trkpt lat="46.5248" lon="0.30204">
        <ele>103.8</ele>
        <time>2023-09-17T06:47:20Z</time>
      </trkpt>
      <trkpt lat="46.52483" lon="0.30207">
        <ele>104.4</ele>
        <time>2023-09-17T06:47:22Z</time>
      </trkpt>
      <trkpt lat="46.52487" lon="0.3021">
        <ele>105.6</ele>
        <time>2023-09-17T06:47:26Z</time>
      </trkpt>
      <trkpt lat="46.52488" lon="0.30212">
        <ele>106.4</ele>
        <time>2023-09-17T06:47:27Z</time>
      </trkpt>
      <trkpt lat="46.52489" lon="0.30212">
        <ele>107</ele>
        <time>2023-09-17T06:47:28Z</time>
      </trkpt>
      <trkpt lat="46.52495" lon="0.30216">
        <ele>108.2</ele>
        <time>2023-09-17T06:47:33Z</time>
      </trkpt>
      <trkpt lat="46.52499" lon="0.3022">
        <ele>109.2</ele>
        <time>2023-09-17T06:47:36Z</time>
      </trkpt>
      <trkpt lat="46.52501" lon="0.30221">
        <ele>109.4</ele>
        <time>2023-09-17T06:47:37Z</time>
      </trkpt>
      <trkpt lat="46.52509" lon="0.30225">
        <ele>110.4</ele>
        <time>2023-09-17T06:47:40Z</time>
      </trkpt>
      <trkpt lat="46.5252" lon="0.30229">
        <ele>111.2</ele>
        <time>2023-09-17T06:47:45Z</time>
      </trkpt>
      <trkpt lat="46.52524" lon="0.30229">
        <ele>111.6</ele>
        <time>2023-09-17T06:47:47Z</time>
      </trkpt>
      <trkpt lat="46.52536" lon="0.30226">
        <ele>111.8</ele>
        <time>2023-09-17T06:47:51Z</time>
      </trkpt>
      <trkpt lat="46.52547" lon="0.30229">
        <ele>112.6</ele>
        <time>2023-09-17T06:47:56Z</time>
      </trkpt>
      <trkpt lat="46.52549" lon="0.3023">
        <ele>112.8</ele>
        <time>2023-09-17T06:47:57Z</time>
      </trkpt>
      <trkpt lat="46.52561" lon="0.30234">
        <ele>114</ele>
        <time>2023-09-17T06:48:02Z</time>
      </trkpt>
      <trkpt lat="46.52564" lon="0.30235">
        <ele>114.2</ele>
        <time>2023-09-17T06:48:03Z</time>
      </trkpt>
      <trkpt lat="46.52578" lon="0.30244">
        <ele>115.2</ele>
        <time>2023-09-17T06:48:09Z</time>
      </trkpt>
      <trkpt lat="46.52581" lon="0.30246">
        <ele>115.4</ele>
        <time>2023-09-17T06:48:10Z</time>
      </trkpt>
      <trkpt lat="46.52602" lon="0.30262">
        <ele>116</ele>
        <time>2023-09-17T06:48:18Z</time>
      </trkpt>
      <trkpt lat="46.5261" lon="0.30276">
        <ele>116.2</ele>
        <time>2023-09-17T06:48:22Z</time>
      </trkpt>
      <trkpt lat="46.52613" lon="0.30282">
        <ele>116.6</ele>
        <time>2023-09-17T06:48:24Z</time>
      </trkpt>
      <trkpt lat="46.5262" lon="0.30307">
        <ele>117.2</ele>
        <time>2023-09-17T06:48:29Z</time>
      </trkpt>
      <trkpt lat="46.5262" lon="0.30312">
        <ele>117.4</ele>
        <time>2023-09-17T06:48:30Z</time>
      </trkpt>
      <trkpt lat="46.52624" lon="0.30331">
        <ele>117.6</ele>
        <time>2023-09-17T06:48:34Z</time>
      </trkpt>
      <trkpt lat="46.52632" lon="0.30363">
        <ele>118.8</ele>
        <time>2023-09-17T06:48:41Z</time>
      </trkpt>
      <trkpt lat="46.52635" lon="0.3039">
        <ele>119.2</ele>
        <time>2023-09-17T06:48:47Z</time>
      </trkpt>
      <trkpt lat="46.5264" lon="0.30423">
        <ele>119.6</ele>
        <time>2023-09-17T06:48:53Z</time>
      </trkpt>
      <trkpt lat="46.5264" lon="0.30434">
        <ele>120</ele>
        <time>2023-09-17T06:48:55Z</time>
      </trkpt>
      <trkpt lat="46.52641" lon="0.30451">
        <ele>120.8</ele>
        <time>2023-09-17T06:48:58Z</time>
      </trkpt>
      <trkpt lat="46.52642" lon="0.30464">
        <ele>121</ele>
        <time>2023-09-17T06:49:00Z</time>
      </trkpt>
      <trkpt lat="46.52643" lon="0.30477">
        <ele>121.2</ele>
        <time>2023-09-17T06:49:03Z</time>
      </trkpt>
      <trkpt lat="46.52643" lon="0.3048">
        <ele>121.2</ele>
        <time>2023-09-17T06:49:04Z</time>
      </trkpt>
      <trkpt lat="46.52647" lon="0.3049">
        <ele>120.8</ele>
        <time>2023-09-17T06:49:07Z</time>
      </trkpt>
      <trkpt lat="46.52649" lon="0.30504">
        <ele>120.4</ele>
        <time>2023-09-17T06:49:10Z</time>
      </trkpt>
      <trkpt lat="46.52655" lon="0.30522">
        <ele>120.2</ele>
        <time>2023-09-17T06:49:14Z</time>
      </trkpt>
      <trkpt lat="46.52658" lon="0.30539">
        <ele>120.2</ele>
        <time>2023-09-17T06:49:17Z</time>
      </trkpt>
      <trkpt lat="46.52659" lon="0.30555">
        <ele>120.8</ele>
        <time>2023-09-17T06:49:20Z</time>
      </trkpt>
      <trkpt lat="46.5266" lon="0.30572">
        <ele>122.4</ele>
        <time>2023-09-17T06:49:23Z</time>
      </trkpt>
      <trkpt lat="46.52662" lon="0.30587">
        <ele>122.6</ele>
        <time>2023-09-17T06:49:26Z</time>
      </trkpt>
      <trkpt lat="46.52665" lon="0.30597">
        <ele>122.4</ele>
        <time>2023-09-17T06:49:28Z</time>
      </trkpt>
      <trkpt lat="46.52668" lon="0.3061">
        <ele>122</ele>
        <time>2023-09-17T06:49:30Z</time>
      </trkpt>
      <trkpt lat="46.52672" lon="0.30621">
        <ele>121.4</ele>
        <time>2023-09-17T06:49:32Z</time>
      </trkpt>
      <trkpt lat="46.52675" lon="0.30626">
        <ele>121</ele>
        <time>2023-09-17T06:49:33Z</time>
      </trkpt>
      <trkpt lat="46.5268" lon="0.30647">
        <ele>120.4</ele>
        <time>2023-09-17T06:49:38Z</time>
      </trkpt>
      <trkpt lat="46.52682" lon="0.30657">
        <ele>120.2</ele>
        <time>2023-09-17T06:49:40Z</time>
      </trkpt>
      <trkpt lat="46.52685" lon="0.30667">
        <ele>120</ele>
        <time>2023-09-17T06:49:42Z</time>
      </trkpt>
      <trkpt lat="46.52687" lon="0.30677">
        <ele>120</ele>
        <time>2023-09-17T06:49:44Z</time>
      </trkpt>
      <trkpt lat="46.52693" lon="0.30694">
        <ele>120.4</ele>
        <time>2023-09-17T06:49:48Z</time>
      </trkpt>
      <trkpt lat="46.52693" lon="0.30696">
        <ele>120.4</ele>
        <time>2023-09-17T06:49:49Z</time>
      </trkpt>
      <trkpt lat="46.52693" lon="0.30699">
        <ele>120.4</ele>
        <time>2023-09-17T06:49:50Z</time>
      </trkpt>
      <trkpt lat="46.52689" lon="0.30707">
        <ele>120.8</ele>
        <time>2023-09-17T06:49:54Z</time>
      </trkpt>
      <trkpt lat="46.52686" lon="0.3071">
        <ele>122.2</ele>
        <time>2023-09-17T06:49:57Z</time>
      </trkpt>
      <trkpt lat="46.5268" lon="0.30713">
        <ele>122.8</ele>
        <time>2023-09-17T06:50:00Z</time>
      </trkpt>
      <trkpt lat="46.52676" lon="0.30714">
        <ele>123.4</ele>
        <time>2023-09-17T06:50:02Z</time>
      </trkpt>
      <trkpt lat="46.52669" lon="0.30715">
        <ele>124.6</ele>
        <time>2023-09-17T06:50:05Z</time>
      </trkpt>
      <trkpt lat="46.52662" lon="0.30716">
        <ele>125.6</ele>
        <time>2023-09-17T06:50:08Z</time>
      </trkpt>
      <trkpt lat="46.52658" lon="0.30717">
        <ele>126.2</ele>
        <time>2023-09-17T06:50:10Z</time>
      </trkpt>
      <trkpt lat="46.52655" lon="0.3072">
        <ele>126.6</ele>
        <time>2023-09-17T06:50:12Z</time>
      </trkpt>
      <trkpt lat="46.52652" lon="0.30736">
        <ele>127.6</ele>
        <time>2023-09-17T06:50:17Z</time>
      </trkpt>
      <trkpt lat="46.52652" lon="0.30745">
        <ele>127.6</ele>
        <time>2023-09-17T06:50:19Z</time>
      </trkpt>
      <trkpt lat="46.52654" lon="0.30752">
        <ele>127.6</ele>
        <time>2023-09-17T06:50:21Z</time>
      </trkpt>
      <trkpt lat="46.52662" lon="0.30763">
        <ele>127.4</ele>
        <time>2023-09-17T06:50:24Z</time>
      </trkpt>
      <trkpt lat="46.52668" lon="0.30769">
        <ele>126.6</ele>
        <time>2023-09-17T06:50:26Z</time>
      </trkpt>
      <trkpt lat="46.52672" lon="0.30772">
        <ele>126.4</ele>
        <time>2023-09-17T06:50:27Z</time>
      </trkpt>
      <trkpt lat="46.5268" lon="0.30779">
        <ele>125.8</ele>
        <time>2023-09-17T06:50:29Z</time>
      </trkpt>
      <trkpt lat="46.52684" lon="0.30784">
        <ele>125.6</ele>
        <time>2023-09-17T06:50:30Z</time>
      </trkpt>
      <trkpt lat="46.52691" lon="0.3079">
        <ele>124.2</ele>
        <time>2023-09-17T06:50:32Z</time>
      </trkpt>
      <trkpt lat="46.52694" lon="0.30795">
        <ele>122.6</ele>
        <time>2023-09-17T06:50:34Z</time>
      </trkpt>
      <trkpt lat="46.52696" lon="0.30797">
        <ele>122</ele>
        <time>2023-09-17T06:50:35Z</time>
      </trkpt>
      <trkpt lat="46.52696" lon="0.30797">
        <ele>121.6</ele>
        <time>2023-09-17T06:50:36Z</time>
      </trkpt>
      <trkpt lat="46.52698" lon="0.30799">
        <ele>121</ele>
        <time>2023-09-17T06:50:38Z</time>
      </trkpt>
      <trkpt lat="46.52698" lon="0.30797">
        <ele>120.8</ele>
        <time>2023-09-17T06:50:40Z</time>
      </trkpt>
      <trkpt lat="46.52698" lon="0.30796">
        <ele>120.8</ele>
        <time>2023-09-17T06:50:41Z</time>
      </trkpt>
      <trkpt lat="46.52699" lon="0.30792">
        <ele>120.4</ele>
        <time>2023-09-17T06:50:43Z</time>
      </trkpt>
      <trkpt lat="46.52699" lon="0.30791">
        <ele>120.2</ele>
        <time>2023-09-17T06:50:44Z</time>
      </trkpt>
      <trkpt lat="46.52702" lon="0.30792">
        <ele>119.8</ele>
        <time>2023-09-17T06:50:46Z</time>
      </trkpt>
      <trkpt lat="46.52704" lon="0.30794">
        <ele>119.4</ele>
        <time>2023-09-17T06:50:47Z</time>
      </trkpt>
      <trkpt lat="46.52711" lon="0.30806">
        <ele>118</ele>
        <time>2023-09-17T06:50:51Z</time>
      </trkpt>
      <trkpt lat="46.52716" lon="0.30814">
        <ele>116.8</ele>
        <time>2023-09-17T06:50:53Z</time>
      </trkpt>
      <trkpt lat="46.52717" lon="0.30817">
        <ele>115.2</ele>
        <time>2023-09-17T06:50:54Z</time>
      </trkpt>
      <trkpt lat="46.52721" lon="0.30824">
        <ele>113.8</ele>
        <time>2023-09-17T06:50:56Z</time>
      </trkpt>
      <trkpt lat="46.5273" lon="0.30836">
        <ele>112.6</ele>
        <time>2023-09-17T06:50:59Z</time>
      </trkpt>
      <trkpt lat="46.52732" lon="0.30842">
        <ele>112.4</ele>
        <time>2023-09-17T06:51:00Z</time>
      </trkpt>
      <trkpt lat="46.52734" lon="0.30848">
        <ele>112</ele>
        <time>2023-09-17T06:51:01Z</time>
      </trkpt>
      <trkpt lat="46.52735" lon="0.30855">
        <ele>111.4</ele>
        <time>2023-09-17T06:51:02Z</time>
      </trkpt>
      <trkpt lat="46.52737" lon="0.30864">
        <ele>110.2</ele>
        <time>2023-09-17T06:51:04Z</time>
      </trkpt>
      <trkpt lat="46.52739" lon="0.30867">
        <ele>109.8</ele>
        <time>2023-09-17T06:51:05Z</time>
      </trkpt>
      <trkpt lat="46.5274" lon="0.30871">
        <ele>109.2</ele>
        <time>2023-09-17T06:51:06Z</time>
      </trkpt>
      <trkpt lat="46.52744" lon="0.30881">
        <ele>107.6</ele>
        <time>2023-09-17T06:51:09Z</time>
      </trkpt>
      <trkpt lat="46.52744" lon="0.30885">
        <ele>107.2</ele>
        <time>2023-09-17T06:51:10Z</time>
      </trkpt>
      <trkpt lat="46.52746" lon="0.3089">
        <ele>106.4</ele>
        <time>2023-09-17T06:51:11Z</time>
      </trkpt>
      <trkpt lat="46.52747" lon="0.30895">
        <ele>106</ele>
        <time>2023-09-17T06:51:12Z</time>
      </trkpt>
      <trkpt lat="46.52749" lon="0.30899">
        <ele>105.4</ele>
        <time>2023-09-17T06:51:13Z</time>
      </trkpt>
      <trkpt lat="46.52752" lon="0.30907">
        <ele>103.8</ele>
        <time>2023-09-17T06:51:15Z</time>
      </trkpt>
      <trkpt lat="46.52753" lon="0.3091">
        <ele>103.4</ele>
        <time>2023-09-17T06:51:16Z</time>
      </trkpt>
      <trkpt lat="46.52756" lon="0.30918">
        <ele>102.8</ele>
        <time>2023-09-17T06:51:18Z</time>
      </trkpt>
      <trkpt lat="46.52759" lon="0.30927">
        <ele>101.4</ele>
        <time>2023-09-17T06:51:20Z</time>
      </trkpt>
      <trkpt lat="46.52763" lon="0.30936">
        <ele>100.2</ele>
        <time>2023-09-17T06:51:22Z</time>
      </trkpt>
      <trkpt lat="46.52765" lon="0.30942">
        <ele>99.8</ele>
        <time>2023-09-17T06:51:23Z</time>
      </trkpt>
      <trkpt lat="46.52769" lon="0.30958">
        <ele>99.2</ele>
        <time>2023-09-17T06:51:26Z</time>
      </trkpt>
      <trkpt lat="46.52772" lon="0.30965">
        <ele>98.6</ele>
        <time>2023-09-17T06:51:28Z</time>
      </trkpt>
      <trkpt lat="46.52776" lon="0.30973">
        <ele>97.8</ele>
        <time>2023-09-17T06:51:30Z</time>
      </trkpt>
      <trkpt lat="46.52779" lon="0.30982">
        <ele>97.2</ele>
        <time>2023-09-17T06:51:32Z</time>
      </trkpt>
      <trkpt lat="46.52781" lon="0.30987">
        <ele>96.4</ele>
        <time>2023-09-17T06:51:33Z</time>
      </trkpt>
      <trkpt lat="46.52784" lon="0.30998">
        <ele>95</ele>
        <time>2023-09-17T06:51:35Z</time>
      </trkpt>
      <trkpt lat="46.52789" lon="0.31009">
        <ele>93.8</ele>
        <time>2023-09-17T06:51:37Z</time>
      </trkpt>
      <trkpt lat="46.52795" lon="0.3102">
        <ele>92.8</ele>
        <time>2023-09-17T06:51:39Z</time>
      </trkpt>
      <trkpt lat="46.52797" lon="0.31025">
        <ele>92.8</ele>
        <time>2023-09-17T06:51:40Z</time>
      </trkpt>
      <trkpt lat="46.528" lon="0.3103">
        <ele>92.8</ele>
        <time>2023-09-17T06:51:41Z</time>
      </trkpt>
      <trkpt lat="46.52811" lon="0.31053">
        <ele>91.6</ele>
        <time>2023-09-17T06:51:46Z</time>
      </trkpt>
      <trkpt lat="46.52825" lon="0.31078">
        <ele>90.4</ele>
        <time>2023-09-17T06:51:51Z</time>
      </trkpt>
      <trkpt lat="46.52841" lon="0.31108">
        <ele>89.2</ele>
        <time>2023-09-17T06:51:58Z</time>
      </trkpt>
      <trkpt lat="46.52858" lon="0.31139">
        <ele>88.4</ele>
        <time>2023-09-17T06:52:03Z</time>
      </trkpt>
      <trkpt lat="46.52863" lon="0.3115">
        <ele>88.2</ele>
        <time>2023-09-17T06:52:05Z</time>
      </trkpt>
      <trkpt lat="46.5287" lon="0.3116">
        <ele>88</ele>
        <time>2023-09-17T06:52:07Z</time>
      </trkpt>
      <trkpt lat="46.52872" lon="0.31166">
        <ele>88</ele>
        <time>2023-09-17T06:52:08Z</time>
      </trkpt>
      <trkpt lat="46.52876" lon="0.3118">
        <ele>88</ele>
        <time>2023-09-17T06:52:12Z</time>
      </trkpt>
      <trkpt lat="46.52878" lon="0.31189">
        <ele>89.2</ele>
        <time>2023-09-17T06:52:16Z</time>
      </trkpt>
      <trkpt lat="46.52879" lon="0.31193">
        <ele>89.6</ele>
        <time>2023-09-17T06:52:18Z</time>
      </trkpt>
      <trkpt lat="46.5288" lon="0.31195">
        <ele>90.4</ele>
        <time>2023-09-17T06:52:19Z</time>
      </trkpt>
      <trkpt lat="46.52882" lon="0.31198">
        <ele>91</ele>
        <time>2023-09-17T06:52:20Z</time>
      </trkpt>
      <trkpt lat="46.52883" lon="0.31201">
        <ele>91.6</ele>
        <time>2023-09-17T06:52:21Z</time>
      </trkpt>
      <trkpt lat="46.52885" lon="0.31206">
        <ele>92.6</ele>
        <time>2023-09-17T06:52:23Z</time>
      </trkpt>
      <trkpt lat="46.52889" lon="0.31217">
        <ele>94</ele>
        <time>2023-09-17T06:52:27Z</time>
      </trkpt>
      <trkpt lat="46.52891" lon="0.3122">
        <ele>94.4</ele>
        <time>2023-09-17T06:52:28Z</time>
      </trkpt>
      <trkpt lat="46.52893" lon="0.31225">
        <ele>95.2</ele>
        <time>2023-09-17T06:52:30Z</time>
      </trkpt>
      <trkpt lat="46.52895" lon="0.31235">
        <ele>96.4</ele>
        <time>2023-09-17T06:52:34Z</time>
      </trkpt>
      <trkpt lat="46.52896" lon="0.31237">
        <ele>96.6</ele>
        <time>2023-09-17T06:52:35Z</time>
      </trkpt>
      <trkpt lat="46.52897" lon="0.31242">
        <ele>97.2</ele>
        <time>2023-09-17T06:52:37Z</time>
      </trkpt>
      <trkpt lat="46.52898" lon="0.31245">
        <ele>97.6</ele>
        <time>2023-09-17T06:52:38Z</time>
      </trkpt>
      <trkpt lat="46.529" lon="0.31247">
        <ele>97.8</ele>
        <time>2023-09-17T06:52:39Z</time>
      </trkpt>
      <trkpt lat="46.52903" lon="0.31255">
        <ele>98.6</ele>
        <time>2023-09-17T06:52:42Z</time>
      </trkpt>
      <trkpt lat="46.52907" lon="0.31263">
        <ele>99.4</ele>
        <time>2023-09-17T06:52:45Z</time>
      </trkpt>
      <trkpt lat="46.52907" lon="0.31267">
        <ele>99.8</ele>
        <time>2023-09-17T06:52:47Z</time>
      </trkpt>
      <trkpt lat="46.52907" lon="0.31268">
        <ele>100</ele>
        <time>2023-09-17T06:52:48Z</time>
      </trkpt>
      <trkpt lat="46.52909" lon="0.31272">
        <ele>100.8</ele>
        <time>2023-09-17T06:52:50Z</time>
      </trkpt>
      <trkpt lat="46.5291" lon="0.31277">
        <ele>101.2</ele>
        <time>2023-09-17T06:52:52Z</time>
      </trkpt>
      <trkpt lat="46.52911" lon="0.3128">
        <ele>101.4</ele>
        <time>2023-09-17T06:52:53Z</time>
      </trkpt>
      <trkpt lat="46.52912" lon="0.31285">
        <ele>101.8</ele>
        <time>2023-09-17T06:52:55Z</time>
      </trkpt>
      <trkpt lat="46.52914" lon="0.31293">
        <ele>103</ele>
        <time>2023-09-17T06:52:59Z</time>
      </trkpt>
      <trkpt lat="46.52914" lon="0.31295">
        <ele>103.2</ele>
        <time>2023-09-17T06:53:00Z</time>
      </trkpt>
      <trkpt lat="46.52915" lon="0.31299">
        <ele>104</ele>
        <time>2023-09-17T06:53:02Z</time>
      </trkpt>
      <trkpt lat="46.52916" lon="0.31302">
        <ele>104.6</ele>
        <time>2023-09-17T06:53:03Z</time>
      </trkpt>
      <trkpt lat="46.52919" lon="0.31309">
        <ele>105.6</ele>
        <time>2023-09-17T06:53:06Z</time>
      </trkpt>
      <trkpt lat="46.5292" lon="0.31311">
        <ele>106</ele>
        <time>2023-09-17T06:53:07Z</time>
      </trkpt>
      <trkpt lat="46.52922" lon="0.3132">
        <ele>106.8</ele>
        <time>2023-09-17T06:53:10Z</time>
      </trkpt>
      <trkpt lat="46.52923" lon="0.31325">
        <ele>107.2</ele>
        <time>2023-09-17T06:53:12Z</time>
      </trkpt>
      <trkpt lat="46.52927" lon="0.31339">
        <ele>107.8</ele>
        <time>2023-09-17T06:53:17Z</time>
      </trkpt>
      <trkpt lat="46.52931" lon="0.31353">
        <ele>108.2</ele>
        <time>2023-09-17T06:53:22Z</time>
      </trkpt>
      <trkpt lat="46.52932" lon="0.31359">
        <ele>108.4</ele>
        <time>2023-09-17T06:53:24Z</time>
      </trkpt>
      <trkpt lat="46.52935" lon="0.31372">
        <ele>109.4</ele>
        <time>2023-09-17T06:53:29Z</time>
      </trkpt>
      <trkpt lat="46.52935" lon="0.31378">
        <ele>110</ele>
        <time>2023-09-17T06:53:31Z</time>
      </trkpt>
      <trkpt lat="46.52936" lon="0.3138">
        <ele>110.4</ele>
        <time>2023-09-17T06:53:32Z</time>
      </trkpt>
      <trkpt lat="46.52937" lon="0.31389">
        <ele>111.6</ele>
        <time>2023-09-17T06:53:35Z</time>
      </trkpt>
      <trkpt lat="46.52938" lon="0.31396">
        <ele>112.2</ele>
        <time>2023-09-17T06:53:38Z</time>
      </trkpt>
      <trkpt lat="46.52938" lon="0.31404">
        <ele>112.6</ele>
        <time>2023-09-17T06:53:41Z</time>
      </trkpt>
      <trkpt lat="46.52939" lon="0.31413">
        <ele>113</ele>
        <time>2023-09-17T06:53:45Z</time>
      </trkpt>
      <trkpt lat="46.52939" lon="0.31418">
        <ele>113.2</ele>
        <time>2023-09-17T06:53:47Z</time>
      </trkpt>
      <trkpt lat="46.52939" lon="0.3142">
        <ele>113.6</ele>
        <time>2023-09-17T06:53:48Z</time>
      </trkpt>
      <trkpt lat="46.52939" lon="0.31425">
        <ele>114.2</ele>
        <time>2023-09-17T06:53:51Z</time>
      </trkpt>
      <trkpt lat="46.52938" lon="0.31427">
        <ele>115</ele>
        <time>2023-09-17T06:53:53Z</time>
      </trkpt>
      <trkpt lat="46.52936" lon="0.31428">
        <ele>116.2</ele>
        <time>2023-09-17T06:53:57Z</time>
      </trkpt>
      <trkpt lat="46.52935" lon="0.31427">
        <ele>116.4</ele>
        <time>2023-09-17T06:53:58Z</time>
      </trkpt>
      <trkpt lat="46.52933" lon="0.31425">
        <ele>117.2</ele>
        <time>2023-09-17T06:54:02Z</time>
      </trkpt>
      <trkpt lat="46.52931" lon="0.31424">
        <ele>117.6</ele>
        <time>2023-09-17T06:54:06Z</time>
      </trkpt>
      <trkpt lat="46.5293" lon="0.31423">
        <ele>117.8</ele>
        <time>2023-09-17T06:54:07Z</time>
      </trkpt>
      <trkpt lat="46.52929" lon="0.31421">
        <ele>118.4</ele>
        <time>2023-09-17T06:54:09Z</time>
      </trkpt>
      <trkpt lat="46.52926" lon="0.31416">
        <ele>118.6</ele>
        <time>2023-09-17T06:54:12Z</time>
      </trkpt>
      <trkpt lat="46.5292" lon="0.31398">
        <ele>119.4</ele>
        <time>2023-09-17T06:54:20Z</time>
      </trkpt>
      <trkpt lat="46.52918" lon="0.31395">
        <ele>119.4</ele>
        <time>2023-09-17T06:54:21Z</time>
      </trkpt>
      <trkpt lat="46.52909" lon="0.31382">
        <ele>119.6</ele>
        <time>2023-09-17T06:54:26Z</time>
      </trkpt>
      <trkpt lat="46.52898" lon="0.31362">
        <ele>119.6</ele>
        <time>2023-09-17T06:54:31Z</time>
      </trkpt>
      <trkpt lat="46.52893" lon="0.31355">
        <ele>119.6</ele>
        <time>2023-09-17T06:54:33Z</time>
      </trkpt>
      <trkpt lat="46.52887" lon="0.31337">
        <ele>118.8</ele>
        <time>2023-09-17T06:54:37Z</time>
      </trkpt>
      <trkpt lat="46.5288" lon="0.31314">
        <ele>118.2</ele>
        <time>2023-09-17T06:54:41Z</time>
      </trkpt>
      <trkpt lat="46.52876" lon="0.31306">
        <ele>117.6</ele>
        <time>2023-09-17T06:54:43Z</time>
      </trkpt>
      <trkpt lat="46.52871" lon="0.31299">
        <ele>117</ele>
        <time>2023-09-17T06:54:45Z</time>
      </trkpt>
      <trkpt lat="46.52867" lon="0.31293">
        <ele>116.6</ele>
        <time>2023-09-17T06:54:47Z</time>
      </trkpt>
      <trkpt lat="46.52863" lon="0.31289">
        <ele>116.8</ele>
        <time>2023-09-17T06:54:49Z</time>
      </trkpt>
      <trkpt lat="46.52845" lon="0.31275">
        <ele>117.6</ele>
        <time>2023-09-17T06:54:54Z</time>
      </trkpt>
      <trkpt lat="46.52837" lon="0.31269">
        <ele>118</ele>
        <time>2023-09-17T06:54:56Z</time>
      </trkpt>
      <trkpt lat="46.52831" lon="0.31266">
        <ele>119.4</ele>
        <time>2023-09-17T06:54:59Z</time>
      </trkpt>
      <trkpt lat="46.52827" lon="0.31263">
        <ele>120.4</ele>
        <time>2023-09-17T06:55:02Z</time>
      </trkpt>
      <trkpt lat="46.52823" lon="0.31262">
        <ele>121.4</ele>
        <time>2023-09-17T06:55:04Z</time>
      </trkpt>
      <trkpt lat="46.52817" lon="0.31263">
        <ele>122.4</ele>
        <time>2023-09-17T06:55:06Z</time>
      </trkpt>
      <trkpt lat="46.52813" lon="0.31263">
        <ele>123.4</ele>
        <time>2023-09-17T06:55:08Z</time>
      </trkpt>
      <trkpt lat="46.52812" lon="0.31265">
        <ele>123.6</ele>
        <time>2023-09-17T06:55:09Z</time>
      </trkpt>
      <trkpt lat="46.52809" lon="0.31269">
        <ele>124.2</ele>
        <time>2023-09-17T06:55:11Z</time>
      </trkpt>
      <trkpt lat="46.52806" lon="0.31276">
        <ele>124.8</ele>
        <time>2023-09-17T06:55:15Z</time>
      </trkpt>
      <trkpt lat="46.52805" lon="0.31283">
        <ele>125.2</ele>
        <time>2023-09-17T06:55:18Z</time>
      </trkpt>
      <trkpt lat="46.52805" lon="0.31301">
        <ele>125.8</ele>
        <time>2023-09-17T06:55:24Z</time>
      </trkpt>
      <trkpt lat="46.52804" lon="0.31303">
        <ele>125.8</ele>
        <time>2023-09-17T06:55:25Z</time>
      </trkpt>
      <trkpt lat="46.52802" lon="0.3131">
        <ele>126</ele>
        <time>2023-09-17T06:55:28Z</time>
      </trkpt>
      <trkpt lat="46.52802" lon="0.31313">
        <ele>126.4</ele>
        <time>2023-09-17T06:55:29Z</time>
      </trkpt>
      <trkpt lat="46.52804" lon="0.31334">
        <ele>126.8</ele>
        <time>2023-09-17T06:55:34Z</time>
      </trkpt>
      <trkpt lat="46.52802" lon="0.31356">
        <ele>126.8</ele>
        <time>2023-09-17T06:55:39Z</time>
      </trkpt>
      <trkpt lat="46.5279" lon="0.31368">
        <ele>126.6</ele>
        <time>2023-09-17T06:55:44Z</time>
      </trkpt>
      <trkpt lat="46.52777" lon="0.3138">
        <ele>127</ele>
        <time>2023-09-17T06:55:47Z</time>
      </trkpt>
      <trkpt lat="46.5277" lon="0.31385">
        <ele>127.2</ele>
        <time>2023-09-17T06:55:49Z</time>
      </trkpt>
      <trkpt lat="46.5275" lon="0.314">
        <ele>127.2</ele>
        <time>2023-09-17T06:55:55Z</time>
      </trkpt>
      <trkpt lat="46.52743" lon="0.31409">
        <ele>127.2</ele>
        <time>2023-09-17T06:55:58Z</time>
      </trkpt>
      <trkpt lat="46.52742" lon="0.31419">
        <ele>127</ele>
        <time>2023-09-17T06:56:00Z</time>
      </trkpt>
      <trkpt lat="46.52747" lon="0.31434">
        <ele>126.6</ele>
        <time>2023-09-17T06:56:04Z</time>
      </trkpt>
      <trkpt lat="46.5275" lon="0.31442">
        <ele>126.6</ele>
        <time>2023-09-17T06:56:06Z</time>
      </trkpt>
      <trkpt lat="46.52755" lon="0.31458">
        <ele>125.8</ele>
        <time>2023-09-17T06:56:09Z</time>
      </trkpt>
      <trkpt lat="46.52769" lon="0.31483">
        <ele>125</ele>
        <time>2023-09-17T06:56:13Z</time>
      </trkpt>
      <trkpt lat="46.52773" lon="0.3149">
        <ele>124.8</ele>
        <time>2023-09-17T06:56:14Z</time>
      </trkpt>
      <trkpt lat="46.52777" lon="0.31498">
        <ele>124.4</ele>
        <time>2023-09-17T06:56:15Z</time>
      </trkpt>
      <trkpt lat="46.52781" lon="0.31504">
        <ele>124</ele>
        <time>2023-09-17T06:56:16Z</time>
      </trkpt>
      <trkpt lat="46.52786" lon="0.31509">
        <ele>123.6</ele>
        <time>2023-09-17T06:56:17Z</time>
      </trkpt>
      <trkpt lat="46.52792" lon="0.31511">
        <ele>123.2</ele>
        <time>2023-09-17T06:56:18Z</time>
      </trkpt>
      <trkpt lat="46.52818" lon="0.31523">
        <ele>122</ele>
        <time>2023-09-17T06:56:23Z</time>
      </trkpt>
      <trkpt lat="46.52845" lon="0.31531">
        <ele>121.4</ele>
        <time>2023-09-17T06:56:28Z</time>
      </trkpt>
      <trkpt lat="46.52849" lon="0.31531">
        <ele>121.6</ele>
        <time>2023-09-17T06:56:29Z</time>
      </trkpt>
      <trkpt lat="46.52853" lon="0.3153">
        <ele>121.6</ele>
        <time>2023-09-17T06:56:30Z</time>
      </trkpt>
      <trkpt lat="46.52872" lon="0.31522">
        <ele>121.6</ele>
        <time>2023-09-17T06:56:34Z</time>
      </trkpt>
      <trkpt lat="46.52876" lon="0.3152">
        <ele>121.6</ele>
        <time>2023-09-17T06:56:35Z</time>
      </trkpt>
      <trkpt lat="46.52888" lon="0.31508">
        <ele>121</ele>
        <time>2023-09-17T06:56:38Z</time>
      </trkpt>
      <trkpt lat="46.52891" lon="0.31504">
        <ele>120.8</ele>
        <time>2023-09-17T06:56:39Z</time>
      </trkpt>
      <trkpt lat="46.52902" lon="0.31495">
        <ele>120</ele>
        <time>2023-09-17T06:56:41Z</time>
      </trkpt>
      <trkpt lat="46.52914" lon="0.31481">
        <ele>118.8</ele>
        <time>2023-09-17T06:56:44Z</time>
      </trkpt>
      <trkpt lat="46.52919" lon="0.31472">
        <ele>117.6</ele>
        <time>2023-09-17T06:56:46Z</time>
      </trkpt>
      <trkpt lat="46.52923" lon="0.31466">
        <ele>116.4</ele>
        <time>2023-09-17T06:56:48Z</time>
      </trkpt>
      <trkpt lat="46.52925" lon="0.31464">
        <ele>115.6</ele>
        <time>2023-09-17T06:56:49Z</time>
      </trkpt>
      <trkpt lat="46.52928" lon="0.31463">
        <ele>115</ele>
        <time>2023-09-17T06:56:50Z</time>
      </trkpt>
      <trkpt lat="46.52934" lon="0.31465">
        <ele>113.8</ele>
        <time>2023-09-17T06:56:52Z</time>
      </trkpt>
      <trkpt lat="46.52937" lon="0.31467">
        <ele>113.4</ele>
        <time>2023-09-17T06:56:53Z</time>
      </trkpt>
      <trkpt lat="46.52942" lon="0.31471">
        <ele>112.8</ele>
        <time>2023-09-17T06:56:55Z</time>
      </trkpt>
      <trkpt lat="46.52949" lon="0.31484">
        <ele>112.4</ele>
        <time>2023-09-17T06:56:59Z</time>
      </trkpt>
      <trkpt lat="46.52951" lon="0.31487">
        <ele>112.4</ele>
        <time>2023-09-17T06:57:00Z</time>
      </trkpt>
      <trkpt lat="46.52962" lon="0.31509">
        <ele>112</ele>
        <time>2023-09-17T06:57:06Z</time>
      </trkpt>
      <trkpt lat="46.52967" lon="0.31521">
        <ele>112.2</ele>
        <time>2023-09-17T06:57:09Z</time>
      </trkpt>
      <trkpt lat="46.52969" lon="0.31526">
        <ele>112.6</ele>
        <time>2023-09-17T06:57:11Z</time>
      </trkpt>
      <trkpt lat="46.52973" lon="0.31544">
        <ele>112.6</ele>
        <time>2023-09-17T06:57:16Z</time>
      </trkpt>
      <trkpt lat="46.5298" lon="0.31573">
        <ele>112</ele>
        <time>2023-09-17T06:57:23Z</time>
      </trkpt>
      <trkpt lat="46.52981" lon="0.31582">
        <ele>111.8</ele>
        <time>2023-09-17T06:57:25Z</time>
      </trkpt>
      <trkpt lat="46.52986" lon="0.31598">
        <ele>110.6</ele>
        <time>2023-09-17T06:57:28Z</time>
      </trkpt>
      <trkpt lat="46.52987" lon="0.31602">
        <ele>110.4</ele>
        <time>2023-09-17T06:57:29Z</time>
      </trkpt>
      <trkpt lat="46.52991" lon="0.31612">
        <ele>109.4</ele>
        <time>2023-09-17T06:57:31Z</time>
      </trkpt>
      <trkpt lat="46.52992" lon="0.31615">
        <ele>109</ele>
        <time>2023-09-17T06:57:32Z</time>
      </trkpt>
      <trkpt lat="46.52994" lon="0.31617">
        <ele>108.4</ele>
        <time>2023-09-17T06:57:33Z</time>
      </trkpt>
      <trkpt lat="46.52995" lon="0.31618">
        <ele>107.4</ele>
        <time>2023-09-17T06:57:34Z</time>
      </trkpt>
      <trkpt lat="46.52996" lon="0.3162">
        <ele>106.8</ele>
        <time>2023-09-17T06:57:35Z</time>
      </trkpt>
      <trkpt lat="46.52998" lon="0.31623">
        <ele>106.2</ele>
        <time>2023-09-17T06:57:36Z</time>
      </trkpt>
      <trkpt lat="46.52999" lon="0.31626">
        <ele>105.8</ele>
        <time>2023-09-17T06:57:37Z</time>
      </trkpt>
      <trkpt lat="46.53001" lon="0.3163">
        <ele>104.8</ele>
        <time>2023-09-17T06:57:38Z</time>
      </trkpt>
      <trkpt lat="46.53003" lon="0.31636">
        <ele>103.4</ele>
        <time>2023-09-17T06:57:40Z</time>
      </trkpt>
      <trkpt lat="46.53005" lon="0.31643">
        <ele>101.8</ele>
        <time>2023-09-17T06:57:42Z</time>
      </trkpt>
      <trkpt lat="46.53009" lon="0.31657">
        <ele>100.4</ele>
        <time>2023-09-17T06:57:45Z</time>
      </trkpt>
      <trkpt lat="46.53012" lon="0.31667">
        <ele>99.6</ele>
        <time>2023-09-17T06:57:47Z</time>
      </trkpt>
      <trkpt lat="46.53012" lon="0.31672">
        <ele>98.6</ele>
        <time>2023-09-17T06:57:48Z</time>
      </trkpt>
      <trkpt lat="46.53014" lon="0.3168">
        <ele>97.2</ele>
        <time>2023-09-17T06:57:50Z</time>
      </trkpt>
      <trkpt lat="46.53019" lon="0.31694">
        <ele>96</ele>
        <time>2023-09-17T06:57:53Z</time>
      </trkpt>
      <trkpt lat="46.53023" lon="0.31705">
        <ele>95.2</ele>
        <time>2023-09-17T06:57:55Z</time>
      </trkpt>
      <trkpt lat="46.53024" lon="0.31711">
        <ele>94.2</ele>
        <time>2023-09-17T06:57:56Z</time>
      </trkpt>
      <trkpt lat="46.53026" lon="0.31718">
        <ele>93.4</ele>
        <time>2023-09-17T06:57:57Z</time>
      </trkpt>
      <trkpt lat="46.53026" lon="0.31725">
        <ele>92.8</ele>
        <time>2023-09-17T06:57:58Z</time>
      </trkpt>
      <trkpt lat="46.53027" lon="0.31729">
        <ele>92.4</ele>
        <time>2023-09-17T06:57:59Z</time>
      </trkpt>
      <trkpt lat="46.53029" lon="0.31736">
        <ele>91.8</ele>
        <time>2023-09-17T06:58:00Z</time>
      </trkpt>
      <trkpt lat="46.53029" lon="0.31741">
        <ele>91.2</ele>
        <time>2023-09-17T06:58:01Z</time>
      </trkpt>
      <trkpt lat="46.53032" lon="0.31754">
        <ele>90.6</ele>
        <time>2023-09-17T06:58:03Z</time>
      </trkpt>
      <trkpt lat="46.53032" lon="0.31759">
        <ele>90</ele>
        <time>2023-09-17T06:58:04Z</time>
      </trkpt>
      <trkpt lat="46.53034" lon="0.31765">
        <ele>89.8</ele>
        <time>2023-09-17T06:58:05Z</time>
      </trkpt>
      <trkpt lat="46.53032" lon="0.31776">
        <ele>89.4</ele>
        <time>2023-09-17T06:58:08Z</time>
      </trkpt>
      <trkpt lat="46.53031" lon="0.3178">
        <ele>89.2</ele>
        <time>2023-09-17T06:58:09Z</time>
      </trkpt>
      <trkpt lat="46.5303" lon="0.31783">
        <ele>89</ele>
        <time>2023-09-17T06:58:10Z</time>
      </trkpt>
      <trkpt lat="46.53019" lon="0.3179">
        <ele>89</ele>
        <time>2023-09-17T06:58:14Z</time>
      </trkpt>
      <trkpt lat="46.53013" lon="0.31792">
        <ele>89.4</ele>
        <time>2023-09-17T06:58:16Z</time>
      </trkpt>
      <trkpt lat="46.53002" lon="0.31795">
        <ele>90</ele>
        <time>2023-09-17T06:58:19Z</time>
      </trkpt>
      <trkpt lat="46.52997" lon="0.31797">
        <ele>90.2</ele>
        <time>2023-09-17T06:58:20Z</time>
      </trkpt>
      <trkpt lat="46.5299" lon="0.31799">
        <ele>90.4</ele>
        <time>2023-09-17T06:58:22Z</time>
      </trkpt>
      <trkpt lat="46.52978" lon="0.318">
        <ele>90.8</ele>
        <time>2023-09-17T06:58:26Z</time>
      </trkpt>
      <trkpt lat="46.52976" lon="0.318">
        <ele>91.2</ele>
        <time>2023-09-17T06:58:27Z</time>
      </trkpt>
      <trkpt lat="46.52962" lon="0.31803">
        <ele>91.6</ele>
        <time>2023-09-17T06:58:31Z</time>
      </trkpt>
      <trkpt lat="46.52953" lon="0.31803">
        <ele>92.8</ele>
        <time>2023-09-17T06:58:33Z</time>
      </trkpt>
      <trkpt lat="46.52946" lon="0.31803">
        <ele>93.8</ele>
        <time>2023-09-17T06:58:35Z</time>
      </trkpt>
      <trkpt lat="46.5294" lon="0.31801">
        <ele>94.4</ele>
        <time>2023-09-17T06:58:37Z</time>
      </trkpt>
      <trkpt lat="46.52934" lon="0.318">
        <ele>95</ele>
        <time>2023-09-17T06:58:39Z</time>
      </trkpt>
      <trkpt lat="46.52919" lon="0.31798">
        <ele>95.6</ele>
        <time>2023-09-17T06:58:43Z</time>
      </trkpt>
      <trkpt lat="46.5291" lon="0.31799">
        <ele>96</ele>
        <time>2023-09-17T06:58:46Z</time>
      </trkpt>
      <trkpt lat="46.52894" lon="0.318">
        <ele>96.4</ele>
        <time>2023-09-17T06:58:51Z</time>
      </trkpt>
      <trkpt lat="46.52882" lon="0.31797">
        <ele>97</ele>
        <time>2023-09-17T06:58:54Z</time>
      </trkpt>
      <trkpt lat="46.52873" lon="0.31797">
        <ele>97.4</ele>
        <time>2023-09-17T06:58:57Z</time>
      </trkpt>
      <trkpt lat="46.52853" lon="0.31793">
        <ele>98.2</ele>
        <time>2023-09-17T06:59:02Z</time>
      </trkpt>
      <trkpt lat="46.52846" lon="0.3179">
        <ele>98.6</ele>
        <time>2023-09-17T06:59:04Z</time>
      </trkpt>
      <trkpt lat="46.5283" lon="0.3179">
        <ele>98.8</ele>
        <time>2023-09-17T06:59:10Z</time>
      </trkpt>
      <trkpt lat="46.52816" lon="0.31795">
        <ele>99.2</ele>
        <time>2023-09-17T06:59:15Z</time>
      </trkpt>
      <trkpt lat="46.52813" lon="0.31798">
        <ele>99.6</ele>
        <time>2023-09-17T06:59:17Z</time>
      </trkpt>
      <trkpt lat="46.52811" lon="0.31802">
        <ele>100.2</ele>
        <time>2023-09-17T06:59:19Z</time>
      </trkpt>
      <trkpt lat="46.5281" lon="0.31804">
        <ele>100.4</ele>
        <time>2023-09-17T06:59:20Z</time>
      </trkpt>
      <trkpt lat="46.52809" lon="0.31806">
        <ele>100.8</ele>
        <time>2023-09-17T06:59:22Z</time>
      </trkpt>
      <trkpt lat="46.52806" lon="0.31813">
        <ele>101.6</ele>
        <time>2023-09-17T06:59:25Z</time>
      </trkpt>
      <trkpt lat="46.52799" lon="0.31822">
        <ele>102.8</ele>
        <time>2023-09-17T06:59:28Z</time>
      </trkpt>
      <trkpt lat="46.52798" lon="0.31824">
        <ele>103</ele>
        <time>2023-09-17T06:59:29Z</time>
      </trkpt>
      <trkpt lat="46.52795" lon="0.31829">
        <ele>103.6</ele>
        <time>2023-09-17T06:59:31Z</time>
      </trkpt>
      <trkpt lat="46.52793" lon="0.31832">
        <ele>104</ele>
        <time>2023-09-17T06:59:32Z</time>
      </trkpt>
      <trkpt lat="46.52788" lon="0.31838">
        <ele>105.2</ele>
        <time>2023-09-17T06:59:35Z</time>
      </trkpt>
      <trkpt lat="46.52784" lon="0.31842">
        <ele>105.8</ele>
        <time>2023-09-17T06:59:37Z</time>
      </trkpt>
      <trkpt lat="46.52779" lon="0.31846">
        <ele>106.2</ele>
        <time>2023-09-17T06:59:39Z</time>
      </trkpt>
      <trkpt lat="46.52772" lon="0.31853">
        <ele>107.4</ele>
        <time>2023-09-17T06:59:43Z</time>
      </trkpt>
      <trkpt lat="46.5277" lon="0.31854">
        <ele>107.8</ele>
        <time>2023-09-17T06:59:44Z</time>
      </trkpt>
      <trkpt lat="46.52762" lon="0.3186">
        <ele>108.6</ele>
        <time>2023-09-17T06:59:48Z</time>
      </trkpt>
      <trkpt lat="46.52757" lon="0.31866">
        <ele>109.6</ele>
        <time>2023-09-17T06:59:51Z</time>
      </trkpt>
      <trkpt lat="46.52756" lon="0.31868">
        <ele>110</ele>
        <time>2023-09-17T06:59:52Z</time>
      </trkpt>
      <trkpt lat="46.52751" lon="0.31872">
        <ele>111</ele>
        <time>2023-09-17T06:59:55Z</time>
      </trkpt>
      <trkpt lat="46.52743" lon="0.31879">
        <ele>112</ele>
        <time>2023-09-17T07:00:00Z</time>
      </trkpt>
      <trkpt lat="46.52737" lon="0.31886">
        <ele>113.2</ele>
        <time>2023-09-17T07:00:04Z</time>
      </trkpt>
      <trkpt lat="46.52733" lon="0.31889">
        <ele>113.6</ele>
        <time>2023-09-17T07:00:07Z</time>
      </trkpt>
      <trkpt lat="46.52728" lon="0.31894">
        <ele>114.4</ele>
        <time>2023-09-17T07:00:10Z</time>
      </trkpt>
      <trkpt lat="46.52721" lon="0.319">
        <ele>115.6</ele>
        <time>2023-09-17T07:00:15Z</time>
      </trkpt>
      <trkpt lat="46.52716" lon="0.31904">
        <ele>115.8</ele>
        <time>2023-09-17T07:00:17Z</time>
      </trkpt>
      <trkpt lat="46.52707" lon="0.31911">
        <ele>116.6</ele>
        <time>2023-09-17T07:00:21Z</time>
      </trkpt>
      <trkpt lat="46.52698" lon="0.31917">
        <ele>117.4</ele>
        <time>2023-09-17T07:00:24Z</time>
      </trkpt>
      <trkpt lat="46.52696" lon="0.31918">
        <ele>117.8</ele>
        <time>2023-09-17T07:00:25Z</time>
      </trkpt>
      <trkpt lat="46.52685" lon="0.31924">
        <ele>118.8</ele>
        <time>2023-09-17T07:00:30Z</time>
      </trkpt>
      <trkpt lat="46.52678" lon="0.31932">
        <ele>119.8</ele>
        <time>2023-09-17T07:00:34Z</time>
      </trkpt>
      <trkpt lat="46.52676" lon="0.31934">
        <ele>120</ele>
        <time>2023-09-17T07:00:35Z</time>
      </trkpt>
      <trkpt lat="46.52671" lon="0.31937">
        <ele>120.4</ele>
        <time>2023-09-17T07:00:37Z</time>
      </trkpt>
      <trkpt lat="46.52663" lon="0.31951">
        <ele>121</ele>
        <time>2023-09-17T07:00:42Z</time>
      </trkpt>
      <trkpt lat="46.52661" lon="0.31953">
        <ele>121</ele>
        <time>2023-09-17T07:00:43Z</time>
      </trkpt>
      <trkpt lat="46.52648" lon="0.31965">
        <ele>121.8</ele>
        <time>2023-09-17T07:00:48Z</time>
      </trkpt>
      <trkpt lat="46.52645" lon="0.31971">
        <ele>122</ele>
        <time>2023-09-17T07:00:50Z</time>
      </trkpt>
      <trkpt lat="46.52644" lon="0.31975">
        <ele>122.2</ele>
        <time>2023-09-17T07:00:51Z</time>
      </trkpt>
      <trkpt lat="46.52642" lon="0.31982">
        <ele>122.6</ele>
        <time>2023-09-17T07:00:53Z</time>
      </trkpt>
      <trkpt lat="46.5264" lon="0.31986">
        <ele>122.8</ele>
        <time>2023-09-17T07:00:54Z</time>
      </trkpt>
      <trkpt lat="46.52637" lon="0.31993">
        <ele>123.2</ele>
        <time>2023-09-17T07:00:56Z</time>
      </trkpt>
      <trkpt lat="46.52634" lon="0.32">
        <ele>123.2</ele>
        <time>2023-09-17T07:00:58Z</time>
      </trkpt>
      <trkpt lat="46.52626" lon="0.32026">
        <ele>124.2</ele>
        <time>2023-09-17T07:01:04Z</time>
      </trkpt>
      <trkpt lat="46.52624" lon="0.32051">
        <ele>124.8</ele>
        <time>2023-09-17T07:01:10Z</time>
      </trkpt>
      <trkpt lat="46.52617" lon="0.32076">
        <ele>125.4</ele>
        <time>2023-09-17T07:01:17Z</time>
      </trkpt>
      <trkpt lat="46.52614" lon="0.32079">
        <ele>125.4</ele>
        <time>2023-09-17T07:01:18Z</time>
      </trkpt>
      <trkpt lat="46.52595" lon="0.32083">
        <ele>125.8</ele>
        <time>2023-09-17T07:01:24Z</time>
      </trkpt>
      <trkpt lat="46.5257" lon="0.32096">
        <ele>126.2</ele>
        <time>2023-09-17T07:01:30Z</time>
      </trkpt>
      <trkpt lat="46.52556" lon="0.32099">
        <ele>126.2</ele>
        <time>2023-09-17T07:01:34Z</time>
      </trkpt>
      <trkpt lat="46.5255" lon="0.32107">
        <ele>126.4</ele>
        <time>2023-09-17T07:01:36Z</time>
      </trkpt>
      <trkpt lat="46.52549" lon="0.32112">
        <ele>126.4</ele>
        <time>2023-09-17T07:01:37Z</time>
      </trkpt>
      <trkpt lat="46.52548" lon="0.32118">
        <ele>126.6</ele>
        <time>2023-09-17T07:01:38Z</time>
      </trkpt>
      <trkpt lat="46.52543" lon="0.3214">
        <ele>126.8</ele>
        <time>2023-09-17T07:01:42Z</time>
      </trkpt>
      <trkpt lat="46.52527" lon="0.3217">
        <ele>126.8</ele>
        <time>2023-09-17T07:01:48Z</time>
      </trkpt>
      <trkpt lat="46.52523" lon="0.32183">
        <ele>126.6</ele>
        <time>2023-09-17T07:01:50Z</time>
      </trkpt>
      <trkpt lat="46.52523" lon="0.32194">
        <ele>126.4</ele>
        <time>2023-09-17T07:01:52Z</time>
      </trkpt>
      <trkpt lat="46.52527" lon="0.322">
        <ele>126.4</ele>
        <time>2023-09-17T07:01:55Z</time>
      </trkpt>
      <trkpt lat="46.52528" lon="0.32201">
        <ele>126.2</ele>
        <time>2023-09-17T07:01:56Z</time>
      </trkpt>
      <trkpt lat="46.52535" lon="0.32205">
        <ele>125.4</ele>
        <time>2023-09-17T07:02:00Z</time>
      </trkpt>
      <trkpt lat="46.52538" lon="0.32207">
        <ele>125.4</ele>
        <time>2023-09-17T07:02:01Z</time>
      </trkpt>
      <trkpt lat="46.52544" lon="0.32212">
        <ele>125.8</ele>
        <time>2023-09-17T07:02:04Z</time>
      </trkpt>
      <trkpt lat="46.52546" lon="0.32219">
        <ele>125.8</ele>
        <time>2023-09-17T07:02:06Z</time>
      </trkpt>
      <trkpt lat="46.52554" lon="0.32237">
        <ele>125.6</ele>
        <time>2023-09-17T07:02:10Z</time>
      </trkpt>
      <trkpt lat="46.5256" lon="0.32242">
        <ele>125.2</ele>
        <time>2023-09-17T07:02:12Z</time>
      </trkpt>
      <trkpt lat="46.52567" lon="0.32244">
        <ele>125</ele>
        <time>2023-09-17T07:02:14Z</time>
      </trkpt>
      <trkpt lat="46.52573" lon="0.32245">
        <ele>125</ele>
        <time>2023-09-17T07:02:16Z</time>
      </trkpt>
      <trkpt lat="46.52583" lon="0.32249">
        <ele>125.2</ele>
        <time>2023-09-17T07:02:20Z</time>
      </trkpt>
      <trkpt lat="46.52584" lon="0.32251">
        <ele>125.2</ele>
        <time>2023-09-17T07:02:21Z</time>
      </trkpt>
      <trkpt lat="46.52584" lon="0.32253">
        <ele>125.2</ele>
        <time>2023-09-17T07:02:22Z</time>
      </trkpt>
      <trkpt lat="46.52585" lon="0.32259">
        <ele>125.2</ele>
        <time>2023-09-17T07:02:25Z</time>
      </trkpt>
      <trkpt lat="46.52585" lon="0.32262">
        <ele>125.2</ele>
        <time>2023-09-17T07:02:26Z</time>
      </trkpt>
      <trkpt lat="46.52589" lon="0.32282">
        <ele>124.2</ele>
        <time>2023-09-17T07:02:31Z</time>
      </trkpt>
      <trkpt lat="46.52588" lon="0.3229">
        <ele>124</ele>
        <time>2023-09-17T07:02:33Z</time>
      </trkpt>
      <trkpt lat="46.52584" lon="0.32296">
        <ele>123.8</ele>
        <time>2023-09-17T07:02:35Z</time>
      </trkpt>
      <trkpt lat="46.52578" lon="0.32303">
        <ele>123.2</ele>
        <time>2023-09-17T07:02:38Z</time>
      </trkpt>
      <trkpt lat="46.52575" lon="0.32306">
        <ele>122.8</ele>
        <time>2023-09-17T07:02:39Z</time>
      </trkpt>
      <trkpt lat="46.5257" lon="0.32313">
        <ele>122.8</ele>
        <time>2023-09-17T07:02:41Z</time>
      </trkpt>
      <trkpt lat="46.52565" lon="0.32319">
        <ele>122.8</ele>
        <time>2023-09-17T07:02:43Z</time>
      </trkpt>
      <trkpt lat="46.5256" lon="0.32332">
        <ele>122.8</ele>
        <time>2023-09-17T07:02:46Z</time>
      </trkpt>
      <trkpt lat="46.52557" lon="0.3234">
        <ele>122</ele>
        <time>2023-09-17T07:02:48Z</time>
      </trkpt>
      <trkpt lat="46.52552" lon="0.32346">
        <ele>121</ele>
        <time>2023-09-17T07:02:50Z</time>
      </trkpt>
      <trkpt lat="46.52549" lon="0.3235">
        <ele>120.6</ele>
        <time>2023-09-17T07:02:51Z</time>
      </trkpt>
      <trkpt lat="46.52545" lon="0.32361">
        <ele>120</ele>
        <time>2023-09-17T07:02:53Z</time>
      </trkpt>
      <trkpt lat="46.52544" lon="0.32367">
        <ele>119.8</ele>
        <time>2023-09-17T07:02:54Z</time>
      </trkpt>
      <trkpt lat="46.52545" lon="0.32371">
        <ele>119.6</ele>
        <time>2023-09-17T07:02:55Z</time>
      </trkpt>
      <trkpt lat="46.52553" lon="0.32398">
        <ele>118.8</ele>
        <time>2023-09-17T07:03:00Z</time>
      </trkpt>
      <trkpt lat="46.52555" lon="0.32406">
        <ele>118.8</ele>
        <time>2023-09-17T07:03:01Z</time>
      </trkpt>
      <trkpt lat="46.52569" lon="0.32437">
        <ele>118.8</ele>
        <time>2023-09-17T07:03:05Z</time>
      </trkpt>
      <trkpt lat="46.52586" lon="0.32466">
        <ele>118.8</ele>
        <time>2023-09-17T07:03:09Z</time>
      </trkpt>
      <trkpt lat="46.5259" lon="0.32471">
        <ele>118.8</ele>
        <time>2023-09-17T07:03:10Z</time>
      </trkpt>
      <trkpt lat="46.52599" lon="0.32477">
        <ele>118.8</ele>
        <time>2023-09-17T07:03:12Z</time>
      </trkpt>
      <trkpt lat="46.52606" lon="0.32479">
        <ele>118.8</ele>
        <time>2023-09-17T07:03:14Z</time>
      </trkpt>
      <trkpt lat="46.52621" lon="0.32477">
        <ele>119.6</ele>
        <time>2023-09-17T07:03:19Z</time>
      </trkpt>
      <trkpt lat="46.52624" lon="0.32478">
        <ele>119.8</ele>
        <time>2023-09-17T07:03:20Z</time>
      </trkpt>
      <trkpt lat="46.52636" lon="0.32476">
        <ele>120.8</ele>
        <time>2023-09-17T07:03:25Z</time>
      </trkpt>
      <trkpt lat="46.52639" lon="0.32475">
        <ele>121</ele>
        <time>2023-09-17T07:03:26Z</time>
      </trkpt>
      <trkpt lat="46.52659" lon="0.32473">
        <ele>122</ele>
        <time>2023-09-17T07:03:32Z</time>
      </trkpt>
      <trkpt lat="46.52663" lon="0.32474">
        <ele>122.2</ele>
        <time>2023-09-17T07:03:33Z</time>
      </trkpt>
      <trkpt lat="46.5268" lon="0.32471">
        <ele>122.8</ele>
        <time>2023-09-17T07:03:37Z</time>
      </trkpt>
      <trkpt lat="46.52689" lon="0.32467">
        <ele>123.2</ele>
        <time>2023-09-17T07:03:40Z</time>
      </trkpt>
      <trkpt lat="46.52697" lon="0.3247">
        <ele>123.4</ele>
        <time>2023-09-17T07:03:42Z</time>
      </trkpt>
      <trkpt lat="46.52704" lon="0.32477">
        <ele>123.4</ele>
        <time>2023-09-17T07:03:44Z</time>
      </trkpt>
      <trkpt lat="46.52711" lon="0.32492">
        <ele>123.2</ele>
        <time>2023-09-17T07:03:47Z</time>
      </trkpt>
      <trkpt lat="46.52713" lon="0.32498">
        <ele>123</ele>
        <time>2023-09-17T07:03:48Z</time>
      </trkpt>
      <trkpt lat="46.52717" lon="0.3252">
        <ele>122.6</ele>
        <time>2023-09-17T07:03:51Z</time>
      </trkpt>
      <trkpt lat="46.52719" lon="0.32534">
        <ele>122</ele>
        <time>2023-09-17T07:03:53Z</time>
      </trkpt>
      <trkpt lat="46.5272" lon="0.32541">
        <ele>121.6</ele>
        <time>2023-09-17T07:03:54Z</time>
      </trkpt>
      <trkpt lat="46.52726" lon="0.32582">
        <ele>120.8</ele>
        <time>2023-09-17T07:03:59Z</time>
      </trkpt>
      <trkpt lat="46.52734" lon="0.32629">
        <ele>120.8</ele>
        <time>2023-09-17T07:04:05Z</time>
      </trkpt>
      <trkpt lat="46.52742" lon="0.32671">
        <ele>120.8</ele>
        <time>2023-09-17T07:04:10Z</time>
      </trkpt>
      <trkpt lat="46.52744" lon="0.32676">
        <ele>120.8</ele>
        <time>2023-09-17T07:04:11Z</time>
      </trkpt>
      <trkpt lat="46.52746" lon="0.3268">
        <ele>121</ele>
        <time>2023-09-17T07:04:12Z</time>
      </trkpt>
      <trkpt lat="46.52751" lon="0.32688">
        <ele>121.4</ele>
        <time>2023-09-17T07:04:14Z</time>
      </trkpt>
      <trkpt lat="46.52757" lon="0.32695">
        <ele>121.8</ele>
        <time>2023-09-17T07:04:16Z</time>
      </trkpt>
      <trkpt lat="46.5276" lon="0.32697">
        <ele>122</ele>
        <time>2023-09-17T07:04:17Z</time>
      </trkpt>
      <trkpt lat="46.52774" lon="0.32707">
        <ele>122.2</ele>
        <time>2023-09-17T07:04:21Z</time>
      </trkpt>
      <trkpt lat="46.52781" lon="0.3271">
        <ele>122.2</ele>
        <time>2023-09-17T07:04:23Z</time>
      </trkpt>
      <trkpt lat="46.52791" lon="0.32717">
        <ele>122.4</ele>
        <time>2023-09-17T07:04:26Z</time>
      </trkpt>
      <trkpt lat="46.52805" lon="0.32728">
        <ele>122.6</ele>
        <time>2023-09-17T07:04:30Z</time>
      </trkpt>
      <trkpt lat="46.52807" lon="0.32733">
        <ele>123</ele>
        <time>2023-09-17T07:04:31Z</time>
      </trkpt>
      <trkpt lat="46.52811" lon="0.32738">
        <ele>123.4</ele>
        <time>2023-09-17T07:04:32Z</time>
      </trkpt>
      <trkpt lat="46.52815" lon="0.32752">
        <ele>123.6</ele>
        <time>2023-09-17T07:04:34Z</time>
      </trkpt>
      <trkpt lat="46.52819" lon="0.32767">
        <ele>123.4</ele>
        <time>2023-09-17T07:04:36Z</time>
      </trkpt>
      <trkpt lat="46.52823" lon="0.32782">
        <ele>123.2</ele>
        <time>2023-09-17T07:04:38Z</time>
      </trkpt>
      <trkpt lat="46.52826" lon="0.32796">
        <ele>122.8</ele>
        <time>2023-09-17T07:04:40Z</time>
      </trkpt>
      <trkpt lat="46.52834" lon="0.32825">
        <ele>122.4</ele>
        <time>2023-09-17T07:04:44Z</time>
      </trkpt>
      <trkpt lat="46.5284" lon="0.32839">
        <ele>122.4</ele>
        <time>2023-09-17T07:04:46Z</time>
      </trkpt>
      <trkpt lat="46.52845" lon="0.32855">
        <ele>122</ele>
        <time>2023-09-17T07:04:48Z</time>
      </trkpt>
      <trkpt lat="46.5285" lon="0.32871">
        <ele>121.4</ele>
        <time>2023-09-17T07:04:50Z</time>
      </trkpt>
      <trkpt lat="46.52853" lon="0.32887">
        <ele>121</ele>
        <time>2023-09-17T07:04:52Z</time>
      </trkpt>
      <trkpt lat="46.52855" lon="0.32895">
        <ele>120.8</ele>
        <time>2023-09-17T07:04:53Z</time>
      </trkpt>
      <trkpt lat="46.5286" lon="0.32921">
        <ele>119.8</ele>
        <time>2023-09-17T07:04:56Z</time>
      </trkpt>
      <trkpt lat="46.52867" lon="0.3295">
        <ele>118.6</ele>
        <time>2023-09-17T07:04:59Z</time>
      </trkpt>
      <trkpt lat="46.52875" lon="0.32978">
        <ele>117.6</ele>
        <time>2023-09-17T07:05:02Z</time>
      </trkpt>
      <trkpt lat="46.5288" lon="0.32997">
        <ele>117</ele>
        <time>2023-09-17T07:05:04Z</time>
      </trkpt>
      <trkpt lat="46.52889" lon="0.33043">
        <ele>116.4</ele>
        <time>2023-09-17T07:05:09Z</time>
      </trkpt>
      <trkpt lat="46.52891" lon="0.33051">
        <ele>116.6</ele>
        <time>2023-09-17T07:05:10Z</time>
      </trkpt>
      <trkpt lat="46.52898" lon="0.33082">
        <ele>116.6</ele>
        <time>2023-09-17T07:05:14Z</time>
      </trkpt>
      <trkpt lat="46.52899" lon="0.33089">
        <ele>116.4</ele>
        <time>2023-09-17T07:05:15Z</time>
      </trkpt>
      <trkpt lat="46.52898" lon="0.33095">
        <ele>116.4</ele>
        <time>2023-09-17T07:05:16Z</time>
      </trkpt>
      <trkpt lat="46.52892" lon="0.33105">
        <ele>116.2</ele>
        <time>2023-09-17T07:05:18Z</time>
      </trkpt>
      <trkpt lat="46.52889" lon="0.33111">
        <ele>116</ele>
        <time>2023-09-17T07:05:19Z</time>
      </trkpt>
      <trkpt lat="46.52885" lon="0.33115">
        <ele>115.4</ele>
        <time>2023-09-17T07:05:20Z</time>
      </trkpt>
      <trkpt lat="46.52866" lon="0.33126">
        <ele>114.4</ele>
        <time>2023-09-17T07:05:24Z</time>
      </trkpt>
      <trkpt lat="46.52853" lon="0.33134">
        <ele>113.4</ele>
        <time>2023-09-17T07:05:26Z</time>
      </trkpt>
      <trkpt lat="46.5283" lon="0.3315">
        <ele>112</ele>
        <time>2023-09-17T07:05:29Z</time>
      </trkpt>
      <trkpt lat="46.52823" lon="0.33154">
        <ele>111.2</ele>
        <time>2023-09-17T07:05:30Z</time>
      </trkpt>
      <trkpt lat="46.52817" lon="0.33158">
        <ele>110.6</ele>
        <time>2023-09-17T07:05:31Z</time>
      </trkpt>
      <trkpt lat="46.52812" lon="0.33161">
        <ele>109.8</ele>
        <time>2023-09-17T07:05:32Z</time>
      </trkpt>
      <trkpt lat="46.52808" lon="0.33165">
        <ele>109</ele>
        <time>2023-09-17T07:05:33Z</time>
      </trkpt>
      <trkpt lat="46.52804" lon="0.33172">
        <ele>108</ele>
        <time>2023-09-17T07:05:35Z</time>
      </trkpt>
      <trkpt lat="46.52804" lon="0.33176">
        <ele>107.8</ele>
        <time>2023-09-17T07:05:36Z</time>
      </trkpt>
      <trkpt lat="46.52804" lon="0.33191">
        <ele>107</ele>
        <time>2023-09-17T07:05:39Z</time>
      </trkpt>
      <trkpt lat="46.52805" lon="0.33197">
        <ele>107</ele>
        <time>2023-09-17T07:05:40Z</time>
      </trkpt>
      <trkpt lat="46.52806" lon="0.33205">
        <ele>106.8</ele>
        <time>2023-09-17T07:05:41Z</time>
      </trkpt>
      <trkpt lat="46.52808" lon="0.33228">
        <ele>105.8</ele>
        <time>2023-09-17T07:05:44Z</time>
      </trkpt>
      <trkpt lat="46.52807" lon="0.33237">
        <ele>105.6</ele>
        <time>2023-09-17T07:05:45Z</time>
      </trkpt>
      <trkpt lat="46.52807" lon="0.33246">
        <ele>105.2</ele>
        <time>2023-09-17T07:05:46Z</time>
      </trkpt>
      <trkpt lat="46.52806" lon="0.33267">
        <ele>104.8</ele>
        <time>2023-09-17T07:05:48Z</time>
      </trkpt>
      <trkpt lat="46.52806" lon="0.33299">
        <ele>104.6</ele>
        <time>2023-09-17T07:05:51Z</time>
      </trkpt>
      <trkpt lat="46.52805" lon="0.33309">
        <ele>104.6</ele>
        <time>2023-09-17T07:05:52Z</time>
      </trkpt>
      <trkpt lat="46.52806" lon="0.33349">
        <ele>104.2</ele>
        <time>2023-09-17T07:05:56Z</time>
      </trkpt>
      <trkpt lat="46.52808" lon="0.33358">
        <ele>103.8</ele>
        <time>2023-09-17T07:05:57Z</time>
      </trkpt>
      <trkpt lat="46.5281" lon="0.33377">
        <ele>103</ele>
        <time>2023-09-17T07:05:59Z</time>
      </trkpt>
      <trkpt lat="46.52809" lon="0.33384">
        <ele>102.6</ele>
        <time>2023-09-17T07:06:00Z</time>
      </trkpt>
      <trkpt lat="46.52807" lon="0.33391">
        <ele>102.4</ele>
        <time>2023-09-17T07:06:01Z</time>
      </trkpt>
      <trkpt lat="46.52798" lon="0.33403">
        <ele>101.6</ele>
        <time>2023-09-17T07:06:03Z</time>
      </trkpt>
      <trkpt lat="46.52791" lon="0.33407">
        <ele>101.4</ele>
        <time>2023-09-17T07:06:04Z</time>
      </trkpt>
      <trkpt lat="46.52785" lon="0.3341">
        <ele>101.2</ele>
        <time>2023-09-17T07:06:05Z</time>
      </trkpt>
      <trkpt lat="46.52771" lon="0.3341">
        <ele>100</ele>
        <time>2023-09-17T07:06:07Z</time>
      </trkpt>
      <trkpt lat="46.52759" lon="0.33406">
        <ele>99.6</ele>
        <time>2023-09-17T07:06:09Z</time>
      </trkpt>
      <trkpt lat="46.52748" lon="0.33407">
        <ele>99.4</ele>
        <time>2023-09-17T07:06:11Z</time>
      </trkpt>
      <trkpt lat="46.52742" lon="0.33407">
        <ele>99.2</ele>
        <time>2023-09-17T07:06:12Z</time>
      </trkpt>
      <trkpt lat="46.52729" lon="0.33408">
        <ele>98.8</ele>
        <time>2023-09-17T07:06:14Z</time>
      </trkpt>
      <trkpt lat="46.52701" lon="0.33408">
        <ele>98.2</ele>
        <time>2023-09-17T07:06:18Z</time>
      </trkpt>
      <trkpt lat="46.52694" lon="0.33408">
        <ele>97.8</ele>
        <time>2023-09-17T07:06:19Z</time>
      </trkpt>
      <trkpt lat="46.52668" lon="0.33411">
        <ele>96.6</ele>
        <time>2023-09-17T07:06:22Z</time>
      </trkpt>
      <trkpt lat="46.52661" lon="0.33409">
        <ele>96.2</ele>
        <time>2023-09-17T07:06:23Z</time>
      </trkpt>
      <trkpt lat="46.52654" lon="0.33408">
        <ele>95.6</ele>
        <time>2023-09-17T07:06:24Z</time>
      </trkpt>
      <trkpt lat="46.52641" lon="0.33403">
        <ele>95</ele>
        <time>2023-09-17T07:06:26Z</time>
      </trkpt>
      <trkpt lat="46.52636" lon="0.33399">
        <ele>94.8</ele>
        <time>2023-09-17T07:06:27Z</time>
      </trkpt>
      <trkpt lat="46.5263" lon="0.33395">
        <ele>94.4</ele>
        <time>2023-09-17T07:06:28Z</time>
      </trkpt>
      <trkpt lat="46.52613" lon="0.33376">
        <ele>93.4</ele>
        <time>2023-09-17T07:06:31Z</time>
      </trkpt>
      <trkpt lat="46.52601" lon="0.33369">
        <ele>93.2</ele>
        <time>2023-09-17T07:06:33Z</time>
      </trkpt>
      <trkpt lat="46.52596" lon="0.33368">
        <ele>93.2</ele>
        <time>2023-09-17T07:06:34Z</time>
      </trkpt>
      <trkpt lat="46.5259" lon="0.33368">
        <ele>93.2</ele>
        <time>2023-09-17T07:06:35Z</time>
      </trkpt>
      <trkpt lat="46.5258" lon="0.33376">
        <ele>93</ele>
        <time>2023-09-17T07:06:38Z</time>
      </trkpt>
      <trkpt lat="46.52557" lon="0.33401">
        <ele>92.8</ele>
        <time>2023-09-17T07:06:43Z</time>
      </trkpt>
      <trkpt lat="46.52541" lon="0.33414">
        <ele>92.6</ele>
        <time>2023-09-17T07:06:46Z</time>
      </trkpt>
      <trkpt lat="46.52537" lon="0.33419">
        <ele>92.4</ele>
        <time>2023-09-17T07:06:47Z</time>
      </trkpt>
      <trkpt lat="46.52535" lon="0.33427">
        <ele>92.2</ele>
        <time>2023-09-17T07:06:48Z</time>
      </trkpt>
      <trkpt lat="46.52536" lon="0.33441">
        <ele>91.6</ele>
        <time>2023-09-17T07:06:50Z</time>
      </trkpt>
      <trkpt lat="46.52536" lon="0.33448">
        <ele>91.2</ele>
        <time>2023-09-17T07:06:51Z</time>
      </trkpt>
      <trkpt lat="46.52534" lon="0.33462">
        <ele>90.8</ele>
        <time>2023-09-17T07:06:53Z</time>
      </trkpt>
      <trkpt lat="46.52533" lon="0.33468">
        <ele>90.8</ele>
        <time>2023-09-17T07:06:54Z</time>
      </trkpt>
      <trkpt lat="46.5253" lon="0.33491">
        <ele>90.4</ele>
        <time>2023-09-17T07:06:57Z</time>
      </trkpt>
      <trkpt lat="46.52529" lon="0.33508">
        <ele>90</ele>
        <time>2023-09-17T07:06:59Z</time>
      </trkpt>
      <trkpt lat="46.52529" lon="0.33562">
        <ele>89</ele>
        <time>2023-09-17T07:07:04Z</time>
      </trkpt>
      <trkpt lat="46.52532" lon="0.33607">
        <ele>88.4</ele>
        <time>2023-09-17T07:07:08Z</time>
      </trkpt>
      <trkpt lat="46.52534" lon="0.33615">
        <ele>87.4</ele>
        <time>2023-09-17T07:07:09Z</time>
      </trkpt>
      <trkpt lat="46.52537" lon="0.33621">
        <ele>86.4</ele>
        <time>2023-09-17T07:07:10Z</time>
      </trkpt>
      <trkpt lat="46.5254" lon="0.33625">
        <ele>85.8</ele>
        <time>2023-09-17T07:07:11Z</time>
      </trkpt>
      <trkpt lat="46.52544" lon="0.33628">
        <ele>84.8</ele>
        <time>2023-09-17T07:07:12Z</time>
      </trkpt>
      <trkpt lat="46.52554" lon="0.3363">
        <ele>83.6</ele>
        <time>2023-09-17T07:07:14Z</time>
      </trkpt>
      <trkpt lat="46.52565" lon="0.33629">
        <ele>82.6</ele>
        <time>2023-09-17T07:07:16Z</time>
      </trkpt>
      <trkpt lat="46.52595" lon="0.33623">
        <ele>81.4</ele>
        <time>2023-09-17T07:07:20Z</time>
      </trkpt>
      <trkpt lat="46.52604" lon="0.33622">
        <ele>81.2</ele>
        <time>2023-09-17T07:07:21Z</time>
      </trkpt>
      <trkpt lat="46.52621" lon="0.3362">
        <ele>80.4</ele>
        <time>2023-09-17T07:07:23Z</time>
      </trkpt>
      <trkpt lat="46.52636" lon="0.33623">
        <ele>78.8</ele>
        <time>2023-09-17T07:07:25Z</time>
      </trkpt>
      <trkpt lat="46.52652" lon="0.33625">
        <ele>77.6</ele>
        <time>2023-09-17T07:07:27Z</time>
      </trkpt>
      <trkpt lat="46.52668" lon="0.33623">
        <ele>77</ele>
        <time>2023-09-17T07:07:29Z</time>
      </trkpt>
      <trkpt lat="46.52688" lon="0.33619">
        <ele>76.4</ele>
        <time>2023-09-17T07:07:32Z</time>
      </trkpt>
      <trkpt lat="46.52701" lon="0.33618">
        <ele>75.8</ele>
        <time>2023-09-17T07:07:34Z</time>
      </trkpt>
      <trkpt lat="46.5273" lon="0.33623">
        <ele>75.8</ele>
        <time>2023-09-17T07:07:38Z</time>
      </trkpt>
      <trkpt lat="46.52736" lon="0.33626">
        <ele>75.8</ele>
        <time>2023-09-17T07:07:39Z</time>
      </trkpt>
      <trkpt lat="46.52774" lon="0.33638">
        <ele>76</ele>
        <time>2023-09-17T07:07:45Z</time>
      </trkpt>
      <trkpt lat="46.52781" lon="0.33638">
        <ele>76</ele>
        <time>2023-09-17T07:07:46Z</time>
      </trkpt>
      <trkpt lat="46.52805" lon="0.33635">
        <ele>75.8</ele>
        <time>2023-09-17T07:07:50Z</time>
      </trkpt>
      <trkpt lat="46.52818" lon="0.33635">
        <ele>75.6</ele>
        <time>2023-09-17T07:07:52Z</time>
      </trkpt>
      <trkpt lat="46.52839" lon="0.3364">
        <ele>75.6</ele>
        <time>2023-09-17T07:07:55Z</time>
      </trkpt>
      <trkpt lat="46.52881" lon="0.33654">
        <ele>75.8</ele>
        <time>2023-09-17T07:08:01Z</time>
      </trkpt>
      <trkpt lat="46.52921" lon="0.33665">
        <ele>76</ele>
        <time>2023-09-17T07:08:07Z</time>
      </trkpt>
      <trkpt lat="46.52963" lon="0.33679">
        <ele>75.6</ele>
        <time>2023-09-17T07:08:13Z</time>
      </trkpt>
      <trkpt lat="46.52977" lon="0.33682">
        <ele>75.6</ele>
        <time>2023-09-17T07:08:15Z</time>
      </trkpt>
      <trkpt lat="46.5299" lon="0.3368">
        <ele>75.6</ele>
        <time>2023-09-17T07:08:17Z</time>
      </trkpt>
      <trkpt lat="46.53022" lon="0.33674">
        <ele>75.8</ele>
        <time>2023-09-17T07:08:22Z</time>
      </trkpt>
      <trkpt lat="46.53036" lon="0.3367">
        <ele>75.4</ele>
        <time>2023-09-17T07:08:25Z</time>
      </trkpt>
      <trkpt lat="46.5304" lon="0.33668">
        <ele>75.4</ele>
        <time>2023-09-17T07:08:26Z</time>
      </trkpt>
      <trkpt lat="46.53062" lon="0.33661">
        <ele>75.4</ele>
        <time>2023-09-17T07:08:31Z</time>
      </trkpt>
      <trkpt lat="46.53066" lon="0.3366">
        <ele>75.4</ele>
        <time>2023-09-17T07:08:32Z</time>
      </trkpt>
      <trkpt lat="46.53084" lon="0.33656">
        <ele>75</ele>
        <time>2023-09-17T07:08:38Z</time>
      </trkpt>
      <trkpt lat="46.53103" lon="0.33657">
        <ele>75.2</ele>
        <time>2023-09-17T07:08:43Z</time>
      </trkpt>
      <trkpt lat="46.5313" lon="0.33663">
        <ele>75.4</ele>
        <time>2023-09-17T07:08:48Z</time>
      </trkpt>
      <trkpt lat="46.53135" lon="0.33664">
        <ele>75.4</ele>
        <time>2023-09-17T07:08:49Z</time>
      </trkpt>
      <trkpt lat="46.53154" lon="0.3367">
        <ele>75.4</ele>
        <time>2023-09-17T07:08:53Z</time>
      </trkpt>
      <trkpt lat="46.53159" lon="0.33672">
        <ele>75.6</ele>
        <time>2023-09-17T07:08:54Z</time>
      </trkpt>
      <trkpt lat="46.5318" lon="0.3368">
        <ele>75.4</ele>
        <time>2023-09-17T07:08:59Z</time>
      </trkpt>
      <trkpt lat="46.53196" lon="0.33685">
        <ele>75.2</ele>
        <time>2023-09-17T07:09:04Z</time>
      </trkpt>
      <trkpt lat="46.53215" lon="0.33692">
        <ele>75.4</ele>
        <time>2023-09-17T07:09:08Z</time>
      </trkpt>
      <trkpt lat="46.53229" lon="0.33698">
        <ele>75.8</ele>
        <time>2023-09-17T07:09:11Z</time>
      </trkpt>
      <trkpt lat="46.53238" lon="0.33704">
        <ele>75.8</ele>
        <time>2023-09-17T07:09:13Z</time>
      </trkpt>
      <trkpt lat="46.53257" lon="0.33714">
        <ele>75.8</ele>
        <time>2023-09-17T07:09:17Z</time>
      </trkpt>
      <trkpt lat="46.53261" lon="0.33715">
        <ele>75.8</ele>
        <time>2023-09-17T07:09:18Z</time>
      </trkpt>
      <trkpt lat="46.53278" lon="0.33721">
        <ele>75.4</ele>
        <time>2023-09-17T07:09:22Z</time>
      </trkpt>
      <trkpt lat="46.53282" lon="0.33723">
        <ele>75.4</ele>
        <time>2023-09-17T07:09:23Z</time>
      </trkpt>
      <trkpt lat="46.53299" lon="0.33732">
        <ele>75.8</ele>
        <time>2023-09-17T07:09:28Z</time>
      </trkpt>
      <trkpt lat="46.53303" lon="0.33734">
        <ele>76</ele>
        <time>2023-09-17T07:09:29Z</time>
      </trkpt>
      <trkpt lat="46.53307" lon="0.33737">
        <ele>76</ele>
        <time>2023-09-17T07:09:30Z</time>
      </trkpt>
      <trkpt lat="46.53318" lon="0.33742">
        <ele>76</ele>
        <time>2023-09-17T07:09:34Z</time>
      </trkpt>
      <trkpt lat="46.53334" lon="0.33753">
        <ele>75.8</ele>
        <time>2023-09-17T07:09:38Z</time>
      </trkpt>
      <trkpt lat="46.53361" lon="0.33763">
        <ele>75.8</ele>
        <time>2023-09-17T07:09:43Z</time>
      </trkpt>
      <trkpt lat="46.53398" lon="0.33778">
        <ele>75.6</ele>
        <time>2023-09-17T07:09:49Z</time>
      </trkpt>
      <trkpt lat="46.53428" lon="0.33789">
        <ele>75.4</ele>
        <time>2023-09-17T07:09:55Z</time>
      </trkpt>
      <trkpt lat="46.53448" lon="0.33796">
        <ele>75.2</ele>
        <time>2023-09-17T07:10:00Z</time>
      </trkpt>
      <trkpt lat="46.5346" lon="0.33802">
        <ele>75.2</ele>
        <time>2023-09-17T07:10:05Z</time>
      </trkpt>
      <trkpt lat="46.53463" lon="0.338">
        <ele>75.2</ele>
        <time>2023-09-17T07:10:07Z</time>
      </trkpt>
      <trkpt lat="46.53464" lon="0.33798">
        <ele>75.6</ele>
        <time>2023-09-17T07:10:09Z</time>
      </trkpt>
      <trkpt lat="46.53466" lon="0.33798">
        <ele>75.8</ele>
        <time>2023-09-17T07:10:10Z</time>
      </trkpt>
      <trkpt lat="46.5347" lon="0.338">
        <ele>76.8</ele>
        <time>2023-09-17T07:10:12Z</time>
      </trkpt>
      <trkpt lat="46.53472" lon="0.33802">
        <ele>77.2</ele>
        <time>2023-09-17T07:10:13Z</time>
      </trkpt>
      <trkpt lat="46.53479" lon="0.33807">
        <ele>77.8</ele>
        <time>2023-09-17T07:10:16Z</time>
      </trkpt>
      <trkpt lat="46.53486" lon="0.33811">
        <ele>79.2</ele>
        <time>2023-09-17T07:10:20Z</time>
      </trkpt>
      <trkpt lat="46.53488" lon="0.33812">
        <ele>79.6</ele>
        <time>2023-09-17T07:10:21Z</time>
      </trkpt>
      <trkpt lat="46.53491" lon="0.33814">
        <ele>80.2</ele>
        <time>2023-09-17T07:10:23Z</time>
      </trkpt>
      <trkpt lat="46.53495" lon="0.33817">
        <ele>81.6</ele>
        <time>2023-09-17T07:10:26Z</time>
      </trkpt>
      <trkpt lat="46.53499" lon="0.33817">
        <ele>82.6</ele>
        <time>2023-09-17T07:10:28Z</time>
      </trkpt>
      <trkpt lat="46.53506" lon="0.33819">
        <ele>83.6</ele>
        <time>2023-09-17T07:10:31Z</time>
      </trkpt>
      <trkpt lat="46.53512" lon="0.33825">
        <ele>84.8</ele>
        <time>2023-09-17T07:10:35Z</time>
      </trkpt>
      <trkpt lat="46.5352" lon="0.33831">
        <ele>86</ele>
        <time>2023-09-17T07:10:39Z</time>
      </trkpt>
      <trkpt lat="46.53524" lon="0.33833">
        <ele>86.6</ele>
        <time>2023-09-17T07:10:41Z</time>
      </trkpt>
      <trkpt lat="46.5353" lon="0.33835">
        <ele>87.2</ele>
        <time>2023-09-17T07:10:44Z</time>
      </trkpt>
      <trkpt lat="46.53538" lon="0.33839">
        <ele>88.4</ele>
        <time>2023-09-17T07:10:48Z</time>
      </trkpt>
      <trkpt lat="46.53545" lon="0.33843">
        <ele>89.6</ele>
        <time>2023-09-17T07:10:52Z</time>
      </trkpt>
      <trkpt lat="46.5355" lon="0.33844">
        <ele>91</ele>
        <time>2023-09-17T07:10:55Z</time>
      </trkpt>
      <trkpt lat="46.53552" lon="0.33845">
        <ele>91.2</ele>
        <time>2023-09-17T07:10:56Z</time>
      </trkpt>
      <trkpt lat="46.53556" lon="0.33846">
        <ele>92</ele>
        <time>2023-09-17T07:10:58Z</time>
      </trkpt>
      <trkpt lat="46.53562" lon="0.33846">
        <ele>93.4</ele>
        <time>2023-09-17T07:11:02Z</time>
      </trkpt>
      <trkpt lat="46.53564" lon="0.33845">
        <ele>93.8</ele>
        <time>2023-09-17T07:11:03Z</time>
      </trkpt>
      <trkpt lat="46.53568" lon="0.33843">
        <ele>94.6</ele>
        <time>2023-09-17T07:11:06Z</time>
      </trkpt>
      <trkpt lat="46.53576" lon="0.33838">
        <ele>95.6</ele>
        <time>2023-09-17T07:11:10Z</time>
      </trkpt>
      <trkpt lat="46.53577" lon="0.33836">
        <ele>96</ele>
        <time>2023-09-17T07:11:11Z</time>
      </trkpt>
      <trkpt lat="46.53582" lon="0.33822">
        <ele>97</ele>
        <time>2023-09-17T07:11:16Z</time>
      </trkpt>
      <trkpt lat="46.53585" lon="0.33801">
        <ele>98.2</ele>
        <time>2023-09-17T07:11:23Z</time>
      </trkpt>
      <trkpt lat="46.53585" lon="0.33784">
        <ele>99.2</ele>
        <time>2023-09-17T07:11:29Z</time>
      </trkpt>
      <trkpt lat="46.53584" lon="0.33782">
        <ele>99.6</ele>
        <time>2023-09-17T07:11:30Z</time>
      </trkpt>
      <trkpt lat="46.53576" lon="0.33779">
        <ele>100.4</ele>
        <time>2023-09-17T07:11:34Z</time>
      </trkpt>
      <trkpt lat="46.53574" lon="0.33778">
        <ele>100.6</ele>
        <time>2023-09-17T07:11:35Z</time>
      </trkpt>
      <trkpt lat="46.53554" lon="0.33773">
        <ele>101.6</ele>
        <time>2023-09-17T07:11:42Z</time>
      </trkpt>
      <trkpt lat="46.53542" lon="0.33769">
        <ele>102.6</ele>
        <time>2023-09-17T07:11:46Z</time>
      </trkpt>
      <trkpt lat="46.5353" lon="0.33767">
        <ele>103.2</ele>
        <time>2023-09-17T07:11:50Z</time>
      </trkpt>
      <trkpt lat="46.53524" lon="0.33765">
        <ele>103.8</ele>
        <time>2023-09-17T07:11:52Z</time>
      </trkpt>
      <trkpt lat="46.5351" lon="0.33762">
        <ele>104.6</ele>
        <time>2023-09-17T07:11:57Z</time>
      </trkpt>
      <trkpt lat="46.53505" lon="0.33759">
        <ele>104.8</ele>
        <time>2023-09-17T07:11:59Z</time>
      </trkpt>
      <trkpt lat="46.53494" lon="0.33752">
        <ele>105.6</ele>
        <time>2023-09-17T07:12:04Z</time>
      </trkpt>
      <trkpt lat="46.53491" lon="0.33751">
        <ele>105.8</ele>
        <time>2023-09-17T07:12:05Z</time>
      </trkpt>
      <trkpt lat="46.53475" lon="0.33737">
        <ele>106.6</ele>
        <time>2023-09-17T07:12:10Z</time>
      </trkpt>
      <trkpt lat="46.53472" lon="0.33735">
        <ele>106.8</ele>
        <time>2023-09-17T07:12:11Z</time>
      </trkpt>
      <trkpt lat="46.53456" lon="0.33726">
        <ele>108</ele>
        <time>2023-09-17T07:12:16Z</time>
      </trkpt>
      <trkpt lat="46.53453" lon="0.33724">
        <ele>108.2</ele>
        <time>2023-09-17T07:12:17Z</time>
      </trkpt>
      <trkpt lat="46.5344" lon="0.33717">
        <ele>109.2</ele>
        <time>2023-09-17T07:12:21Z</time>
      </trkpt>
      <trkpt lat="46.53435" lon="0.33714">
        <ele>109.6</ele>
        <time>2023-09-17T07:12:23Z</time>
      </trkpt>
      <trkpt lat="46.53428" lon="0.33698">
        <ele>109.8</ele>
        <time>2023-09-17T07:12:28Z</time>
      </trkpt>
      <trkpt lat="46.53432" lon="0.33682">
        <ele>110.2</ele>
        <time>2023-09-17T07:12:32Z</time>
      </trkpt>
      <trkpt lat="46.53439" lon="0.33655">
        <ele>110.8</ele>
        <time>2023-09-17T07:12:38Z</time>
      </trkpt>
      <trkpt lat="46.53443" lon="0.33638">
        <ele>111.4</ele>
        <time>2023-09-17T07:12:42Z</time>
      </trkpt>
      <trkpt lat="46.53446" lon="0.33621">
        <ele>111.4</ele>
        <time>2023-09-17T07:12:46Z</time>
      </trkpt>
      <trkpt lat="46.53448" lon="0.336">
        <ele>111.6</ele>
        <time>2023-09-17T07:12:51Z</time>
      </trkpt>
      <trkpt lat="46.53445" lon="0.33589">
        <ele>112</ele>
        <time>2023-09-17T07:12:54Z</time>
      </trkpt>
      <trkpt lat="46.53439" lon="0.33582">
        <ele>112.2</ele>
        <time>2023-09-17T07:12:56Z</time>
      </trkpt>
      <trkpt lat="46.53434" lon="0.33575">
        <ele>112.4</ele>
        <time>2023-09-17T07:12:58Z</time>
      </trkpt>
      <trkpt lat="46.53418" lon="0.33559">
        <ele>112.6</ele>
        <time>2023-09-17T07:13:03Z</time>
      </trkpt>
      <trkpt lat="46.53388" lon="0.33538">
        <ele>113</ele>
        <time>2023-09-17T07:13:10Z</time>
      </trkpt>
      <trkpt lat="46.53365" lon="0.33524">
        <ele>113.6</ele>
        <time>2023-09-17T07:13:15Z</time>
      </trkpt>
      <trkpt lat="46.53355" lon="0.33516">
        <ele>113.8</ele>
        <time>2023-09-17T07:13:17Z</time>
      </trkpt>
      <trkpt lat="46.5332" lon="0.33486">
        <ele>114.4</ele>
        <time>2023-09-17T07:13:24Z</time>
      </trkpt>
      <trkpt lat="46.53315" lon="0.33482">
        <ele>114.6</ele>
        <time>2023-09-17T07:13:25Z</time>
      </trkpt>
      <trkpt lat="46.53306" lon="0.33476">
        <ele>114.6</ele>
        <time>2023-09-17T07:13:27Z</time>
      </trkpt>
      <trkpt lat="46.53297" lon="0.33474">
        <ele>114.6</ele>
        <time>2023-09-17T07:13:29Z</time>
      </trkpt>
      <trkpt lat="46.53288" lon="0.33471">
        <ele>114.6</ele>
        <time>2023-09-17T07:13:31Z</time>
      </trkpt>
      <trkpt lat="46.53281" lon="0.33465">
        <ele>114.6</ele>
        <time>2023-09-17T07:13:33Z</time>
      </trkpt>
      <trkpt lat="46.53277" lon="0.33454">
        <ele>115.2</ele>
        <time>2023-09-17T07:13:36Z</time>
      </trkpt>
      <trkpt lat="46.53277" lon="0.3345">
        <ele>115.2</ele>
        <time>2023-09-17T07:13:37Z</time>
      </trkpt>
      <trkpt lat="46.53275" lon="0.33431">
        <ele>115.6</ele>
        <time>2023-09-17T07:13:42Z</time>
      </trkpt>
      <trkpt lat="46.53273" lon="0.33421">
        <ele>116</ele>
        <time>2023-09-17T07:13:44Z</time>
      </trkpt>
      <trkpt lat="46.53267" lon="0.33392">
        <ele>116.6</ele>
        <time>2023-09-17T07:13:49Z</time>
      </trkpt>
      <trkpt lat="46.53265" lon="0.33385">
        <ele>116.8</ele>
        <time>2023-09-17T07:13:50Z</time>
      </trkpt>
      <trkpt lat="46.5326" lon="0.33358">
        <ele>117.6</ele>
        <time>2023-09-17T07:13:55Z</time>
      </trkpt>
      <trkpt lat="46.5326" lon="0.33353">
        <ele>117.6</ele>
        <time>2023-09-17T07:13:56Z</time>
      </trkpt>
      <trkpt lat="46.53259" lon="0.33348">
        <ele>117.8</ele>
        <time>2023-09-17T07:13:57Z</time>
      </trkpt>
      <trkpt lat="46.53255" lon="0.33331">
        <ele>118.2</ele>
        <time>2023-09-17T07:14:00Z</time>
      </trkpt>
      <trkpt lat="46.53249" lon="0.33317">
        <ele>118.4</ele>
        <time>2023-09-17T07:14:03Z</time>
      </trkpt>
      <trkpt lat="46.53242" lon="0.33306">
        <ele>119</ele>
        <time>2023-09-17T07:14:06Z</time>
      </trkpt>
      <trkpt lat="46.53237" lon="0.333">
        <ele>119.6</ele>
        <time>2023-09-17T07:14:08Z</time>
      </trkpt>
      <trkpt lat="46.53232" lon="0.33293">
        <ele>120.2</ele>
        <time>2023-09-17T07:14:10Z</time>
      </trkpt>
      <trkpt lat="46.53223" lon="0.33276">
        <ele>121.2</ele>
        <time>2023-09-17T07:14:14Z</time>
      </trkpt>
      <trkpt lat="46.53213" lon="0.33253">
        <ele>122.2</ele>
        <time>2023-09-17T07:14:20Z</time>
      </trkpt>
      <trkpt lat="46.53213" lon="0.33249">
        <ele>122.4</ele>
        <time>2023-09-17T07:14:21Z</time>
      </trkpt>
      <trkpt lat="46.53212" lon="0.33222">
        <ele>122.8</ele>
        <time>2023-09-17T07:14:29Z</time>
      </trkpt>
      <trkpt lat="46.53215" lon="0.33199">
        <ele>123</ele>
        <time>2023-09-17T07:14:34Z</time>
      </trkpt>
      <trkpt lat="46.53221" lon="0.3318">
        <ele>123</ele>
        <time>2023-09-17T07:14:39Z</time>
      </trkpt>
      <trkpt lat="46.53222" lon="0.33177">
        <ele>123.4</ele>
        <time>2023-09-17T07:14:40Z</time>
      </trkpt>
      <trkpt lat="46.53226" lon="0.33169">
        <ele>123.6</ele>
        <time>2023-09-17T07:14:42Z</time>
      </trkpt>
      <trkpt lat="46.53231" lon="0.33162">
        <ele>123.8</ele>
        <time>2023-09-17T07:14:44Z</time>
      </trkpt>
      <trkpt lat="46.53237" lon="0.33151">
        <ele>123.8</ele>
        <time>2023-09-17T07:14:47Z</time>
      </trkpt>
      <trkpt lat="46.53243" lon="0.33144">
        <ele>123.8</ele>
        <time>2023-09-17T07:14:49Z</time>
      </trkpt>
      <trkpt lat="46.53252" lon="0.33139">
        <ele>123.4</ele>
        <time>2023-09-17T07:14:52Z</time>
      </trkpt>
      <trkpt lat="46.53259" lon="0.33133">
        <ele>123.2</ele>
        <time>2023-09-17T07:14:54Z</time>
      </trkpt>
      <trkpt lat="46.53277" lon="0.33116">
        <ele>123.4</ele>
        <time>2023-09-17T07:15:00Z</time>
      </trkpt>
      <trkpt lat="46.5328" lon="0.33114">
        <ele>123.4</ele>
        <time>2023-09-17T07:15:01Z</time>
      </trkpt>
      <trkpt lat="46.53286" lon="0.3311">
        <ele>122.8</ele>
        <time>2023-09-17T07:15:03Z</time>
      </trkpt>
      <trkpt lat="46.53291" lon="0.33103">
        <ele>122.6</ele>
        <time>2023-09-17T07:15:05Z</time>
      </trkpt>
      <trkpt lat="46.53296" lon="0.33097">
        <ele>122.4</ele>
        <time>2023-09-17T07:15:07Z</time>
      </trkpt>
      <trkpt lat="46.53305" lon="0.33085">
        <ele>122.4</ele>
        <time>2023-09-17T07:15:11Z</time>
      </trkpt>
      <trkpt lat="46.53311" lon="0.33077">
        <ele>122.4</ele>
        <time>2023-09-17T07:15:13Z</time>
      </trkpt>
      <trkpt lat="46.53314" lon="0.33074">
        <ele>122.2</ele>
        <time>2023-09-17T07:15:14Z</time>
      </trkpt>
      <trkpt lat="46.53317" lon="0.3307">
        <ele>122</ele>
        <time>2023-09-17T07:15:15Z</time>
      </trkpt>
      <trkpt lat="46.53324" lon="0.33062">
        <ele>121.6</ele>
        <time>2023-09-17T07:15:17Z</time>
      </trkpt>
      <trkpt lat="46.53332" lon="0.33054">
        <ele>121.2</ele>
        <time>2023-09-17T07:15:19Z</time>
      </trkpt>
      <trkpt lat="46.53335" lon="0.3305">
        <ele>121.2</ele>
        <time>2023-09-17T07:15:20Z</time>
      </trkpt>
      <trkpt lat="46.53339" lon="0.33046">
        <ele>121</ele>
        <time>2023-09-17T07:15:21Z</time>
      </trkpt>
      <trkpt lat="46.53342" lon="0.33037">
        <ele>121.6</ele>
        <time>2023-09-17T07:15:24Z</time>
      </trkpt>
      <trkpt lat="46.53343" lon="0.33034">
        <ele>122</ele>
        <time>2023-09-17T07:15:25Z</time>
      </trkpt>
      <trkpt lat="46.53342" lon="0.33029">
        <ele>122.4</ele>
        <time>2023-09-17T07:15:26Z</time>
      </trkpt>
      <trkpt lat="46.53343" lon="0.33026">
        <ele>122.6</ele>
        <time>2023-09-17T07:15:27Z</time>
      </trkpt>
      <trkpt lat="46.53344" lon="0.33019">
        <ele>123.2</ele>
        <time>2023-09-17T07:15:29Z</time>
      </trkpt>
      <trkpt lat="46.53344" lon="0.33011">
        <ele>123.6</ele>
        <time>2023-09-17T07:15:31Z</time>
      </trkpt>
      <trkpt lat="46.53346" lon="0.32998">
        <ele>124</ele>
        <time>2023-09-17T07:15:34Z</time>
      </trkpt>
      <trkpt lat="46.53348" lon="0.32983">
        <ele>124.4</ele>
        <time>2023-09-17T07:15:37Z</time>
      </trkpt>
      <trkpt lat="46.53346" lon="0.32975">
        <ele>124.4</ele>
        <time>2023-09-17T07:15:39Z</time>
      </trkpt>
      <trkpt lat="46.53346" lon="0.32957">
        <ele>124.6</ele>
        <time>2023-09-17T07:15:43Z</time>
      </trkpt>
      <trkpt lat="46.53346" lon="0.32952">
        <ele>124.8</ele>
        <time>2023-09-17T07:15:44Z</time>
      </trkpt>
      <trkpt lat="46.53345" lon="0.32942">
        <ele>124.8</ele>
        <time>2023-09-17T07:15:46Z</time>
      </trkpt>
      <trkpt lat="46.53345" lon="0.32931">
        <ele>124.8</ele>
        <time>2023-09-17T07:15:48Z</time>
      </trkpt>
      <trkpt lat="46.53347" lon="0.32918">
        <ele>125</ele>
        <time>2023-09-17T07:15:51Z</time>
      </trkpt>
      <trkpt lat="46.53349" lon="0.32888">
        <ele>124.8</ele>
        <time>2023-09-17T07:15:56Z</time>
      </trkpt>
      <trkpt lat="46.53347" lon="0.32877">
        <ele>125</ele>
        <time>2023-09-17T07:15:58Z</time>
      </trkpt>
      <trkpt lat="46.53343" lon="0.3287">
        <ele>124.8</ele>
        <time>2023-09-17T07:16:00Z</time>
      </trkpt>
      <trkpt lat="46.53338" lon="0.32865">
        <ele>125</ele>
        <time>2023-09-17T07:16:02Z</time>
      </trkpt>
      <trkpt lat="46.53335" lon="0.32857">
        <ele>125</ele>
        <time>2023-09-17T07:16:04Z</time>
      </trkpt>
      <trkpt lat="46.53334" lon="0.32836">
        <ele>124.8</ele>
        <time>2023-09-17T07:16:08Z</time>
      </trkpt>
      <trkpt lat="46.53333" lon="0.32831">
        <ele>125</ele>
        <time>2023-09-17T07:16:09Z</time>
      </trkpt>
      <trkpt lat="46.53328" lon="0.32813">
        <ele>125</ele>
        <time>2023-09-17T07:16:12Z</time>
      </trkpt>
      <trkpt lat="46.53322" lon="0.32794">
        <ele>125.2</ele>
        <time>2023-09-17T07:16:15Z</time>
      </trkpt>
      <trkpt lat="46.53315" lon="0.32775">
        <ele>124.6</ele>
        <time>2023-09-17T07:16:18Z</time>
      </trkpt>
      <trkpt lat="46.5331" lon="0.32764">
        <ele>124.2</ele>
        <time>2023-09-17T07:16:20Z</time>
      </trkpt>
      <trkpt lat="46.53307" lon="0.3276">
        <ele>124</ele>
        <time>2023-09-17T07:16:21Z</time>
      </trkpt>
      <trkpt lat="46.53303" lon="0.32757">
        <ele>123.6</ele>
        <time>2023-09-17T07:16:22Z</time>
      </trkpt>
      <trkpt lat="46.53297" lon="0.32752">
        <ele>123.8</ele>
        <time>2023-09-17T07:16:24Z</time>
      </trkpt>
      <trkpt lat="46.53292" lon="0.32751">
        <ele>123.8</ele>
        <time>2023-09-17T07:16:25Z</time>
      </trkpt>
      <trkpt lat="46.53283" lon="0.32749">
        <ele>124.2</ele>
        <time>2023-09-17T07:16:27Z</time>
      </trkpt>
      <trkpt lat="46.53273" lon="0.32746">
        <ele>124.6</ele>
        <time>2023-09-17T07:16:29Z</time>
      </trkpt>
      <trkpt lat="46.53269" lon="0.32744">
        <ele>124.6</ele>
        <time>2023-09-17T07:16:30Z</time>
      </trkpt>
      <trkpt lat="46.5326" lon="0.32741">
        <ele>124.6</ele>
        <time>2023-09-17T07:16:32Z</time>
      </trkpt>
      <trkpt lat="46.53251" lon="0.32741">
        <ele>124.6</ele>
        <time>2023-09-17T07:16:34Z</time>
      </trkpt>
      <trkpt lat="46.53246" lon="0.32743">
        <ele>124.4</ele>
        <time>2023-09-17T07:16:35Z</time>
      </trkpt>
      <trkpt lat="46.5323" lon="0.32744">
        <ele>124.4</ele>
        <time>2023-09-17T07:16:38Z</time>
      </trkpt>
      <trkpt lat="46.53221" lon="0.32741">
        <ele>124.2</ele>
        <time>2023-09-17T07:16:40Z</time>
      </trkpt>
      <trkpt lat="46.53206" lon="0.32733">
        <ele>124.2</ele>
        <time>2023-09-17T07:16:43Z</time>
      </trkpt>
      <trkpt lat="46.53195" lon="0.32729">
        <ele>124</ele>
        <time>2023-09-17T07:16:45Z</time>
      </trkpt>
      <trkpt lat="46.53172" lon="0.32721">
        <ele>124</ele>
        <time>2023-09-17T07:16:49Z</time>
      </trkpt>
      <trkpt lat="46.53162" lon="0.32723">
        <ele>124</ele>
        <time>2023-09-17T07:16:51Z</time>
      </trkpt>
      <trkpt lat="46.53157" lon="0.32723">
        <ele>124.2</ele>
        <time>2023-09-17T07:16:52Z</time>
      </trkpt>
      <trkpt lat="46.53139" lon="0.32726">
        <ele>124.6</ele>
        <time>2023-09-17T07:16:56Z</time>
      </trkpt>
      <trkpt lat="46.53129" lon="0.32728">
        <ele>125</ele>
        <time>2023-09-17T07:16:58Z</time>
      </trkpt>
      <trkpt lat="46.53114" lon="0.32734">
        <ele>125.4</ele>
        <time>2023-09-17T07:17:02Z</time>
      </trkpt>
      <trkpt lat="46.5311" lon="0.32735">
        <ele>125.4</ele>
        <time>2023-09-17T07:17:03Z</time>
      </trkpt>
      <trkpt lat="46.53101" lon="0.32733">
        <ele>125.2</ele>
        <time>2023-09-17T07:17:06Z</time>
      </trkpt>
      <trkpt lat="46.53087" lon="0.32718">
        <ele>125.6</ele>
        <time>2023-09-17T07:17:11Z</time>
      </trkpt>
      <trkpt lat="46.53081" lon="0.32709">
        <ele>125.4</ele>
        <time>2023-09-17T07:17:13Z</time>
      </trkpt>
      <trkpt lat="46.53068" lon="0.32686">
        <ele>125.4</ele>
        <time>2023-09-17T07:17:18Z</time>
      </trkpt>
      <trkpt lat="46.53066" lon="0.32681">
        <ele>125.2</ele>
        <time>2023-09-17T07:17:19Z</time>
      </trkpt>
      <trkpt lat="46.53061" lon="0.32672">
        <ele>125.2</ele>
        <time>2023-09-17T07:17:21Z</time>
      </trkpt>
      <trkpt lat="46.53054" lon="0.32663">
        <ele>125.2</ele>
        <time>2023-09-17T07:17:23Z</time>
      </trkpt>
      <trkpt lat="46.53026" lon="0.32637">
        <ele>125</ele>
        <time>2023-09-17T07:17:29Z</time>
      </trkpt>
      <trkpt lat="46.53016" lon="0.32629">
        <ele>125</ele>
        <time>2023-09-17T07:17:31Z</time>
      </trkpt>
      <trkpt lat="46.53007" lon="0.32617">
        <ele>125.2</ele>
        <time>2023-09-17T07:17:33Z</time>
      </trkpt>
      <trkpt lat="46.53003" lon="0.32609">
        <ele>125.2</ele>
        <time>2023-09-17T07:17:34Z</time>
      </trkpt>
      <trkpt lat="46.52976" lon="0.32573">
        <ele>125.4</ele>
        <time>2023-09-17T07:17:40Z</time>
      </trkpt>
      <trkpt lat="46.52969" lon="0.32563">
        <ele>125.4</ele>
        <time>2023-09-17T07:17:42Z</time>
      </trkpt>
      <trkpt lat="46.52965" lon="0.32551">
        <ele>125.2</ele>
        <time>2023-09-17T07:17:44Z</time>
      </trkpt>
      <trkpt lat="46.52965" lon="0.32545">
        <ele>125</ele>
        <time>2023-09-17T07:17:45Z</time>
      </trkpt>
      <trkpt lat="46.52965" lon="0.32537">
        <ele>124.8</ele>
        <time>2023-09-17T07:17:46Z</time>
      </trkpt>
      <trkpt lat="46.52966" lon="0.32519">
        <ele>124.4</ele>
        <time>2023-09-17T07:17:48Z</time>
      </trkpt>
      <trkpt lat="46.52967" lon="0.32508">
        <ele>124.4</ele>
        <time>2023-09-17T07:17:49Z</time>
      </trkpt>
      <trkpt lat="46.52976" lon="0.3244">
        <ele>123.4</ele>
        <time>2023-09-17T07:17:55Z</time>
      </trkpt>
      <trkpt lat="46.52978" lon="0.32429">
        <ele>123.4</ele>
        <time>2023-09-17T07:17:56Z</time>
      </trkpt>
      <trkpt lat="46.52985" lon="0.32373">
        <ele>122</ele>
        <time>2023-09-17T07:18:01Z</time>
      </trkpt>
      <trkpt lat="46.5299" lon="0.32349">
        <ele>121</ele>
        <time>2023-09-17T07:18:03Z</time>
      </trkpt>
      <trkpt lat="46.52992" lon="0.32337">
        <ele>120.6</ele>
        <time>2023-09-17T07:18:04Z</time>
      </trkpt>
      <trkpt lat="46.53006" lon="0.32283">
        <ele>119.4</ele>
        <time>2023-09-17T07:18:09Z</time>
      </trkpt>
      <trkpt lat="46.53015" lon="0.32239">
        <ele>118.2</ele>
        <time>2023-09-17T07:18:13Z</time>
      </trkpt>
      <trkpt lat="46.53017" lon="0.3223">
        <ele>117.8</ele>
        <time>2023-09-17T07:18:14Z</time>
      </trkpt>
      <trkpt lat="46.53018" lon="0.32223">
        <ele>117</ele>
        <time>2023-09-17T07:18:15Z</time>
      </trkpt>
      <trkpt lat="46.53021" lon="0.32214">
        <ele>116.2</ele>
        <time>2023-09-17T07:18:17Z</time>
      </trkpt>
      <trkpt lat="46.53023" lon="0.32213">
        <ele>115.8</ele>
        <time>2023-09-17T07:18:18Z</time>
      </trkpt>
      <trkpt lat="46.5303" lon="0.32212">
        <ele>115</ele>
        <time>2023-09-17T07:18:21Z</time>
      </trkpt>
      <trkpt lat="46.53037" lon="0.32211">
        <ele>114.8</ele>
        <time>2023-09-17T07:18:23Z</time>
      </trkpt>
      <trkpt lat="46.53043" lon="0.32213">
        <ele>114.8</ele>
        <time>2023-09-17T07:18:25Z</time>
      </trkpt>
      <trkpt lat="46.53054" lon="0.32224">
        <ele>115</ele>
        <time>2023-09-17T07:18:29Z</time>
      </trkpt>
      <trkpt lat="46.5306" lon="0.32231">
        <ele>115.2</ele>
        <time>2023-09-17T07:18:31Z</time>
      </trkpt>
      <trkpt lat="46.53065" lon="0.32235">
        <ele>115.2</ele>
        <time>2023-09-17T07:18:33Z</time>
      </trkpt>
      <trkpt lat="46.53072" lon="0.32238">
        <ele>115.2</ele>
        <time>2023-09-17T07:18:35Z</time>
      </trkpt>
      <trkpt lat="46.53079" lon="0.32245">
        <ele>114.8</ele>
        <time>2023-09-17T07:18:37Z</time>
      </trkpt>
      <trkpt lat="46.53084" lon="0.32249">
        <ele>114.6</ele>
        <time>2023-09-17T07:18:39Z</time>
      </trkpt>
      <trkpt lat="46.5309" lon="0.32251">
        <ele>114.4</ele>
        <time>2023-09-17T07:18:41Z</time>
      </trkpt>
      <trkpt lat="46.53105" lon="0.32258">
        <ele>114</ele>
        <time>2023-09-17T07:18:45Z</time>
      </trkpt>
      <trkpt lat="46.53108" lon="0.3226">
        <ele>113.8</ele>
        <time>2023-09-17T07:18:46Z</time>
      </trkpt>
      <trkpt lat="46.53127" lon="0.32271">
        <ele>113</ele>
        <time>2023-09-17T07:18:51Z</time>
      </trkpt>
      <trkpt lat="46.53131" lon="0.32274">
        <ele>112.8</ele>
        <time>2023-09-17T07:18:52Z</time>
      </trkpt>
      <trkpt lat="46.53135" lon="0.32277">
        <ele>112.8</ele>
        <time>2023-09-17T07:18:53Z</time>
      </trkpt>
      <trkpt lat="46.53143" lon="0.32285">
        <ele>112.4</ele>
        <time>2023-09-17T07:18:55Z</time>
      </trkpt>
      <trkpt lat="46.53147" lon="0.32288">
        <ele>112.2</ele>
        <time>2023-09-17T07:18:56Z</time>
      </trkpt>
      <trkpt lat="46.5316" lon="0.32294">
        <ele>111.8</ele>
        <time>2023-09-17T07:18:58Z</time>
      </trkpt>
      <trkpt lat="46.53169" lon="0.32295">
        <ele>111.4</ele>
        <time>2023-09-17T07:19:00Z</time>
      </trkpt>
      <trkpt lat="46.53174" lon="0.32294">
        <ele>111</ele>
        <time>2023-09-17T07:19:01Z</time>
      </trkpt>
      <trkpt lat="46.53179" lon="0.32294">
        <ele>110.8</ele>
        <time>2023-09-17T07:19:02Z</time>
      </trkpt>
      <trkpt lat="46.53183" lon="0.32294">
        <ele>109.6</ele>
        <time>2023-09-17T07:19:03Z</time>
      </trkpt>
      <trkpt lat="46.53188" lon="0.32295">
        <ele>108.8</ele>
        <time>2023-09-17T07:19:04Z</time>
      </trkpt>
      <trkpt lat="46.53192" lon="0.32294">
        <ele>107.8</ele>
        <time>2023-09-17T07:19:05Z</time>
      </trkpt>
      <trkpt lat="46.53202" lon="0.32294">
        <ele>106.2</ele>
        <time>2023-09-17T07:19:07Z</time>
      </trkpt>
      <trkpt lat="46.53212" lon="0.32293">
        <ele>104.4</ele>
        <time>2023-09-17T07:19:09Z</time>
      </trkpt>
      <trkpt lat="46.53216" lon="0.32294">
        <ele>103.6</ele>
        <time>2023-09-17T07:19:10Z</time>
      </trkpt>
      <trkpt lat="46.53222" lon="0.32296">
        <ele>102.2</ele>
        <time>2023-09-17T07:19:11Z</time>
      </trkpt>
      <trkpt lat="46.53227" lon="0.32299">
        <ele>101</ele>
        <time>2023-09-17T07:19:13Z</time>
      </trkpt>
      <trkpt lat="46.53235" lon="0.32304">
        <ele>100.4</ele>
        <time>2023-09-17T07:19:15Z</time>
      </trkpt>
      <trkpt lat="46.53241" lon="0.32309">
        <ele>100.2</ele>
        <time>2023-09-17T07:19:17Z</time>
      </trkpt>
      <trkpt lat="46.53245" lon="0.32311">
        <ele>100</ele>
        <time>2023-09-17T07:19:18Z</time>
      </trkpt>
      <trkpt lat="46.53248" lon="0.32314">
        <ele>100</ele>
        <time>2023-09-17T07:19:19Z</time>
      </trkpt>
      <trkpt lat="46.5325" lon="0.32316">
        <ele>99.8</ele>
        <time>2023-09-17T07:19:20Z</time>
      </trkpt>
      <trkpt lat="46.53258" lon="0.3232">
        <ele>99</ele>
        <time>2023-09-17T07:19:23Z</time>
      </trkpt>
      <trkpt lat="46.53268" lon="0.32328">
        <ele>98.6</ele>
        <time>2023-09-17T07:19:26Z</time>
      </trkpt>
      <trkpt lat="46.53278" lon="0.32345">
        <ele>98.8</ele>
        <time>2023-09-17T07:19:31Z</time>
      </trkpt>
      <trkpt lat="46.53288" lon="0.32359">
        <ele>100.4</ele>
        <time>2023-09-17T07:19:35Z</time>
      </trkpt>
      <trkpt lat="46.53292" lon="0.32366">
        <ele>102</ele>
        <time>2023-09-17T07:19:37Z</time>
      </trkpt>
      <trkpt lat="46.53294" lon="0.32371">
        <ele>102.4</ele>
        <time>2023-09-17T07:19:38Z</time>
      </trkpt>
      <trkpt lat="46.53299" lon="0.32383">
        <ele>103</ele>
        <time>2023-09-17T07:19:41Z</time>
      </trkpt>
      <trkpt lat="46.53302" lon="0.32393">
        <ele>104</ele>
        <time>2023-09-17T07:19:44Z</time>
      </trkpt>
      <trkpt lat="46.53304" lon="0.32402">
        <ele>104.4</ele>
        <time>2023-09-17T07:19:46Z</time>
      </trkpt>
      <trkpt lat="46.53309" lon="0.32413">
        <ele>104.6</ele>
        <time>2023-09-17T07:19:49Z</time>
      </trkpt>
      <trkpt lat="46.53313" lon="0.32417">
        <ele>104</ele>
        <time>2023-09-17T07:19:51Z</time>
      </trkpt>
      <trkpt lat="46.5332" lon="0.32423">
        <ele>102.2</ele>
        <time>2023-09-17T07:19:54Z</time>
      </trkpt>
      <trkpt lat="46.53324" lon="0.32426">
        <ele>100.8</ele>
        <time>2023-09-17T07:19:56Z</time>
      </trkpt>
      <trkpt lat="46.53328" lon="0.32426">
        <ele>99.6</ele>
        <time>2023-09-17T07:19:58Z</time>
      </trkpt>
      <trkpt lat="46.53331" lon="0.32426">
        <ele>98.4</ele>
        <time>2023-09-17T07:20:00Z</time>
      </trkpt>
      <trkpt lat="46.53333" lon="0.32428">
        <ele>97.4</ele>
        <time>2023-09-17T07:20:02Z</time>
      </trkpt>
      <trkpt lat="46.53334" lon="0.32431">
        <ele>96.6</ele>
        <time>2023-09-17T07:20:04Z</time>
      </trkpt>
      <trkpt lat="46.53337" lon="0.32437">
        <ele>96.4</ele>
        <time>2023-09-17T07:20:06Z</time>
      </trkpt>
      <trkpt lat="46.5334" lon="0.3244">
        <ele>96.4</ele>
        <time>2023-09-17T07:20:07Z</time>
      </trkpt>
      <trkpt lat="46.53345" lon="0.32444">
        <ele>96.6</ele>
        <time>2023-09-17T07:20:09Z</time>
      </trkpt>
      <trkpt lat="46.53347" lon="0.32446">
        <ele>97.2</ele>
        <time>2023-09-17T07:20:11Z</time>
      </trkpt>
      <trkpt lat="46.53349" lon="0.32449">
        <ele>97.6</ele>
        <time>2023-09-17T07:20:13Z</time>
      </trkpt>
      <trkpt lat="46.53349" lon="0.32452">
        <ele>98.2</ele>
        <time>2023-09-17T07:20:15Z</time>
      </trkpt>
      <trkpt lat="46.5335" lon="0.32454">
        <ele>98.2</ele>
        <time>2023-09-17T07:20:16Z</time>
      </trkpt>
      <trkpt lat="46.5335" lon="0.32456">
        <ele>98.6</ele>
        <time>2023-09-17T07:20:17Z</time>
      </trkpt>
      <trkpt lat="46.53349" lon="0.32461">
        <ele>99.8</ele>
        <time>2023-09-17T07:20:20Z</time>
      </trkpt>
      <trkpt lat="46.53347" lon="0.32466">
        <ele>101</ele>
        <time>2023-09-17T07:20:24Z</time>
      </trkpt>
      <trkpt lat="46.53346" lon="0.3247">
        <ele>101.8</ele>
        <time>2023-09-17T07:20:27Z</time>
      </trkpt>
      <trkpt lat="46.53346" lon="0.32471">
        <ele>102.2</ele>
        <time>2023-09-17T07:20:28Z</time>
      </trkpt>
      <trkpt lat="46.53345" lon="0.32476">
        <ele>103.4</ele>
        <time>2023-09-17T07:20:32Z</time>
      </trkpt>
      <trkpt lat="46.53342" lon="0.3248">
        <ele>104.8</ele>
        <time>2023-09-17T07:20:35Z</time>
      </trkpt>
      <trkpt lat="46.53341" lon="0.32481">
        <ele>105</ele>
        <time>2023-09-17T07:20:36Z</time>
      </trkpt>
      <trkpt lat="46.53337" lon="0.32483">
        <ele>106</ele>
        <time>2023-09-17T07:20:39Z</time>
      </trkpt>
      <trkpt lat="46.53334" lon="0.32484">
        <ele>106.6</ele>
        <time>2023-09-17T07:20:41Z</time>
      </trkpt>
      <trkpt lat="46.53332" lon="0.32485">
        <ele>107.2</ele>
        <time>2023-09-17T07:20:43Z</time>
      </trkpt>
      <trkpt lat="46.53326" lon="0.32491">
        <ele>108.4</ele>
        <time>2023-09-17T07:20:47Z</time>
      </trkpt>
      <trkpt lat="46.53322" lon="0.32498">
        <ele>109.8</ele>
        <time>2023-09-17T07:20:52Z</time>
      </trkpt>
      <trkpt lat="46.5332" lon="0.32502">
        <ele>110.4</ele>
        <time>2023-09-17T07:20:55Z</time>
      </trkpt>
      <trkpt lat="46.53319" lon="0.32506">
        <ele>111</ele>
        <time>2023-09-17T07:20:57Z</time>
      </trkpt>
      <trkpt lat="46.53318" lon="0.32514">
        <ele>112.2</ele>
        <time>2023-09-17T07:21:02Z</time>
      </trkpt>
      <trkpt lat="46.53317" lon="0.32516">
        <ele>112.4</ele>
        <time>2023-09-17T07:21:03Z</time>
      </trkpt>
      <trkpt lat="46.53316" lon="0.32525">
        <ele>113.2</ele>
        <time>2023-09-17T07:21:07Z</time>
      </trkpt>
      <trkpt lat="46.53315" lon="0.32534">
        <ele>114.4</ele>
        <time>2023-09-17T07:21:11Z</time>
      </trkpt>
      <trkpt lat="46.53315" lon="0.32536">
        <ele>114.4</ele>
        <time>2023-09-17T07:21:12Z</time>
      </trkpt>
      <trkpt lat="46.53315" lon="0.32545">
        <ele>115.4</ele>
        <time>2023-09-17T07:21:16Z</time>
      </trkpt>
      <trkpt lat="46.53314" lon="0.32562">
        <ele>116.6</ele>
        <time>2023-09-17T07:21:23Z</time>
      </trkpt>
      <trkpt lat="46.53316" lon="0.32581">
        <ele>117.6</ele>
        <time>2023-09-17T07:21:29Z</time>
      </trkpt>
      <trkpt lat="46.5332" lon="0.32594">
        <ele>118</ele>
        <time>2023-09-17T07:21:33Z</time>
      </trkpt>
      <trkpt lat="46.53333" lon="0.32607">
        <ele>118.2</ele>
        <time>2023-09-17T07:21:39Z</time>
      </trkpt>
      <trkpt lat="46.53344" lon="0.32615">
        <ele>118.4</ele>
        <time>2023-09-17T07:21:42Z</time>
      </trkpt>
      <trkpt lat="46.53355" lon="0.32624">
        <ele>118.6</ele>
        <time>2023-09-17T07:21:45Z</time>
      </trkpt>
      <trkpt lat="46.53362" lon="0.3263">
        <ele>118.8</ele>
        <time>2023-09-17T07:21:47Z</time>
      </trkpt>
      <trkpt lat="46.53369" lon="0.32636">
        <ele>118.8</ele>
        <time>2023-09-17T07:21:49Z</time>
      </trkpt>
      <trkpt lat="46.53376" lon="0.32638">
        <ele>118.8</ele>
        <time>2023-09-17T07:21:51Z</time>
      </trkpt>
      <trkpt lat="46.53386" lon="0.3264">
        <ele>118.8</ele>
        <time>2023-09-17T07:21:53Z</time>
      </trkpt>
      <trkpt lat="46.53397" lon="0.32641">
        <ele>118.6</ele>
        <time>2023-09-17T07:21:55Z</time>
      </trkpt>
      <trkpt lat="46.53403" lon="0.32641">
        <ele>118.2</ele>
        <time>2023-09-17T07:21:56Z</time>
      </trkpt>
      <trkpt lat="46.53415" lon="0.3264">
        <ele>117.6</ele>
        <time>2023-09-17T07:21:58Z</time>
      </trkpt>
      <trkpt lat="46.5342" lon="0.32639">
        <ele>117.6</ele>
        <time>2023-09-17T07:21:59Z</time>
      </trkpt>
      <trkpt lat="46.53432" lon="0.32635">
        <ele>117.4</ele>
        <time>2023-09-17T07:22:01Z</time>
      </trkpt>
      <trkpt lat="46.5345" lon="0.3263">
        <ele>116.2</ele>
        <time>2023-09-17T07:22:04Z</time>
      </trkpt>
      <trkpt lat="46.53462" lon="0.32629">
        <ele>115</ele>
        <time>2023-09-17T07:22:05Z</time>
      </trkpt>
      <trkpt lat="46.53477" lon="0.32622">
        <ele>113.2</ele>
        <time>2023-09-17T07:22:07Z</time>
      </trkpt>
      <trkpt lat="46.53498" lon="0.32616">
        <ele>112.2</ele>
        <time>2023-09-17T07:22:09Z</time>
      </trkpt>
      <trkpt lat="46.53518" lon="0.32609">
        <ele>111.4</ele>
        <time>2023-09-17T07:22:11Z</time>
      </trkpt>
      <trkpt lat="46.53525" lon="0.32606">
        <ele>110.2</ele>
        <time>2023-09-17T07:22:12Z</time>
      </trkpt>
      <trkpt lat="46.53532" lon="0.32605">
        <ele>108.6</ele>
        <time>2023-09-17T07:22:13Z</time>
      </trkpt>
      <trkpt lat="46.53544" lon="0.32604">
        <ele>107</ele>
        <time>2023-09-17T07:22:15Z</time>
      </trkpt>
      <trkpt lat="46.53551" lon="0.32603">
        <ele>106.6</ele>
        <time>2023-09-17T07:22:16Z</time>
      </trkpt>
      <trkpt lat="46.53569" lon="0.32599">
        <ele>105.6</ele>
        <time>2023-09-17T07:22:18Z</time>
      </trkpt>
      <trkpt lat="46.5358" lon="0.32596">
        <ele>104.2</ele>
        <time>2023-09-17T07:22:19Z</time>
      </trkpt>
      <trkpt lat="46.53586" lon="0.32593">
        <ele>102.8</ele>
        <time>2023-09-17T07:22:20Z</time>
      </trkpt>
      <trkpt lat="46.53593" lon="0.3259">
        <ele>102</ele>
        <time>2023-09-17T07:22:21Z</time>
      </trkpt>
      <trkpt lat="46.53598" lon="0.32589">
        <ele>100.8</ele>
        <time>2023-09-17T07:22:22Z</time>
      </trkpt>
      <trkpt lat="46.53603" lon="0.32588">
        <ele>100.2</ele>
        <time>2023-09-17T07:22:23Z</time>
      </trkpt>
      <trkpt lat="46.53614" lon="0.32587">
        <ele>99.2</ele>
        <time>2023-09-17T07:22:24Z</time>
      </trkpt>
      <trkpt lat="46.53622" lon="0.32584">
        <ele>98</ele>
        <time>2023-09-17T07:22:26Z</time>
      </trkpt>
      <trkpt lat="46.53625" lon="0.32583">
        <ele>97.6</ele>
        <time>2023-09-17T07:22:27Z</time>
      </trkpt>
      <trkpt lat="46.53627" lon="0.32583">
        <ele>96.8</ele>
        <time>2023-09-17T07:22:28Z</time>
      </trkpt>
      <trkpt lat="46.53629" lon="0.32585">
        <ele>96</ele>
        <time>2023-09-17T07:22:31Z</time>
      </trkpt>
      <trkpt lat="46.53639" lon="0.32593">
        <ele>96.2</ele>
        <time>2023-09-17T07:22:35Z</time>
      </trkpt>
      <trkpt lat="46.5364" lon="0.32595">
        <ele>96.8</ele>
        <time>2023-09-17T07:22:37Z</time>
      </trkpt>
      <trkpt lat="46.53642" lon="0.32601">
        <ele>98.2</ele>
        <time>2023-09-17T07:22:40Z</time>
      </trkpt>
      <trkpt lat="46.53646" lon="0.32607">
        <ele>99.4</ele>
        <time>2023-09-17T07:22:43Z</time>
      </trkpt>
      <trkpt lat="46.53646" lon="0.3261">
        <ele>100</ele>
        <time>2023-09-17T07:22:45Z</time>
      </trkpt>
      <trkpt lat="46.53644" lon="0.32613">
        <ele>100.8</ele>
        <time>2023-09-17T07:22:47Z</time>
      </trkpt>
      <trkpt lat="46.53643" lon="0.32616">
        <ele>101.4</ele>
        <time>2023-09-17T07:22:49Z</time>
      </trkpt>
      <trkpt lat="46.53643" lon="0.32618">
        <ele>101.8</ele>
        <time>2023-09-17T07:22:51Z</time>
      </trkpt>
      <trkpt lat="46.53642" lon="0.32624">
        <ele>103</ele>
        <time>2023-09-17T07:22:55Z</time>
      </trkpt>
      <trkpt lat="46.53642" lon="0.32627">
        <ele>103.4</ele>
        <time>2023-09-17T07:22:57Z</time>
      </trkpt>
      <trkpt lat="46.53643" lon="0.32629">
        <ele>103.6</ele>
        <time>2023-09-17T07:22:59Z</time>
      </trkpt>
      <trkpt lat="46.53646" lon="0.32633">
        <ele>104</ele>
        <time>2023-09-17T07:23:02Z</time>
      </trkpt>
      <trkpt lat="46.53649" lon="0.32635">
        <ele>104</ele>
        <time>2023-09-17T07:23:03Z</time>
      </trkpt>
      <trkpt lat="46.53655" lon="0.32649">
        <ele>104.4</ele>
        <time>2023-09-17T07:23:08Z</time>
      </trkpt>
      <trkpt lat="46.53657" lon="0.32656">
        <ele>105</ele>
        <time>2023-09-17T07:23:11Z</time>
      </trkpt>
      <trkpt lat="46.5366" lon="0.32664">
        <ele>106.2</ele>
        <time>2023-09-17T07:23:14Z</time>
      </trkpt>
      <trkpt lat="46.5366" lon="0.32666">
        <ele>106.8</ele>
        <time>2023-09-17T07:23:15Z</time>
      </trkpt>
      <trkpt lat="46.53661" lon="0.3267">
        <ele>107.2</ele>
        <time>2023-09-17T07:23:17Z</time>
      </trkpt>
      <trkpt lat="46.5366" lon="0.32677">
        <ele>108.6</ele>
        <time>2023-09-17T07:23:21Z</time>
      </trkpt>
      <trkpt lat="46.53659" lon="0.32678">
        <ele>109.8</ele>
        <time>2023-09-17T07:23:22Z</time>
      </trkpt>
      <trkpt lat="46.53659" lon="0.32679">
        <ele>109.8</ele>
        <time>2023-09-17T07:23:23Z</time>
      </trkpt>
      <trkpt lat="46.53659" lon="0.32681">
        <ele>110.2</ele>
        <time>2023-09-17T07:23:24Z</time>
      </trkpt>
      <trkpt lat="46.53655" lon="0.32687">
        <ele>111</ele>
        <time>2023-09-17T07:23:28Z</time>
      </trkpt>
      <trkpt lat="46.53654" lon="0.32691">
        <ele>111.6</ele>
        <time>2023-09-17T07:23:30Z</time>
      </trkpt>
      <trkpt lat="46.53652" lon="0.32695">
        <ele>112.2</ele>
        <time>2023-09-17T07:23:32Z</time>
      </trkpt>
      <trkpt lat="46.5365" lon="0.327">
        <ele>112.6</ele>
        <time>2023-09-17T07:23:34Z</time>
      </trkpt>
      <trkpt lat="46.53649" lon="0.32706">
        <ele>113.4</ele>
        <time>2023-09-17T07:23:37Z</time>
      </trkpt>
      <trkpt lat="46.53647" lon="0.32715">
        <ele>114.6</ele>
        <time>2023-09-17T07:23:41Z</time>
      </trkpt>
      <trkpt lat="46.53647" lon="0.32725">
        <ele>115.4</ele>
        <time>2023-09-17T07:23:46Z</time>
      </trkpt>
      <trkpt lat="46.53652" lon="0.32731">
        <ele>115.4</ele>
        <time>2023-09-17T07:23:50Z</time>
      </trkpt>
      <trkpt lat="46.5366" lon="0.32734">
        <ele>115</ele>
        <time>2023-09-17T07:23:53Z</time>
      </trkpt>
      <trkpt lat="46.53669" lon="0.32737">
        <ele>114.4</ele>
        <time>2023-09-17T07:23:56Z</time>
      </trkpt>
      <trkpt lat="46.53677" lon="0.3274">
        <ele>113.8</ele>
        <time>2023-09-17T07:23:58Z</time>
      </trkpt>
      <trkpt lat="46.53684" lon="0.32742">
        <ele>113.4</ele>
        <time>2023-09-17T07:23:59Z</time>
      </trkpt>
      <trkpt lat="46.53702" lon="0.32747">
        <ele>112.8</ele>
        <time>2023-09-17T07:24:02Z</time>
      </trkpt>
      <trkpt lat="46.53712" lon="0.32748">
        <ele>112.2</ele>
        <time>2023-09-17T07:24:04Z</time>
      </trkpt>
      <trkpt lat="46.53733" lon="0.32752">
        <ele>111.2</ele>
        <time>2023-09-17T07:24:08Z</time>
      </trkpt>
      <trkpt lat="46.53739" lon="0.32753">
        <ele>111.2</ele>
        <time>2023-09-17T07:24:09Z</time>
      </trkpt>
      <trkpt lat="46.53765" lon="0.32757">
        <ele>110.6</ele>
        <time>2023-09-17T07:24:13Z</time>
      </trkpt>
      <trkpt lat="46.53774" lon="0.32758">
        <ele>110.4</ele>
        <time>2023-09-17T07:24:14Z</time>
      </trkpt>
      <trkpt lat="46.53786" lon="0.32761">
        <ele>110</ele>
        <time>2023-09-17T07:24:16Z</time>
      </trkpt>
      <trkpt lat="46.5381" lon="0.3277">
        <ele>109.6</ele>
        <time>2023-09-17T07:24:20Z</time>
      </trkpt>
      <trkpt lat="46.53844" lon="0.32789">
        <ele>109.4</ele>
        <time>2023-09-17T07:24:26Z</time>
      </trkpt>
      <trkpt lat="46.53874" lon="0.32802">
        <ele>109.4</ele>
        <time>2023-09-17T07:24:32Z</time>
      </trkpt>
      <trkpt lat="46.53879" lon="0.32803">
        <ele>109.2</ele>
        <time>2023-09-17T07:24:33Z</time>
      </trkpt>
      <trkpt lat="46.53883" lon="0.32802">
        <ele>109</ele>
        <time>2023-09-17T07:24:34Z</time>
      </trkpt>
      <trkpt lat="46.53894" lon="0.32801">
        <ele>108.4</ele>
        <time>2023-09-17T07:24:36Z</time>
      </trkpt>
      <trkpt lat="46.53904" lon="0.32799">
        <ele>107.2</ele>
        <time>2023-09-17T07:24:38Z</time>
      </trkpt>
      <trkpt lat="46.53913" lon="0.32798">
        <ele>106</ele>
        <time>2023-09-17T07:24:40Z</time>
      </trkpt>
      <trkpt lat="46.53925" lon="0.32799">
        <ele>105.2</ele>
        <time>2023-09-17T07:24:42Z</time>
      </trkpt>
      <trkpt lat="46.53933" lon="0.328">
        <ele>104.6</ele>
        <time>2023-09-17T07:24:44Z</time>
      </trkpt>
      <trkpt lat="46.5394" lon="0.328">
        <ele>103.8</ele>
        <time>2023-09-17T07:24:46Z</time>
      </trkpt>
      <trkpt lat="46.53941" lon="0.32801">
        <ele>103.4</ele>
        <time>2023-09-17T07:24:47Z</time>
      </trkpt>
      <trkpt lat="46.53946" lon="0.32802">
        <ele>103</ele>
        <time>2023-09-17T07:24:49Z</time>
      </trkpt>
      <trkpt lat="46.53954" lon="0.32804">
        <ele>102.6</ele>
        <time>2023-09-17T07:24:54Z</time>
      </trkpt>
      <trkpt lat="46.53958" lon="0.32806">
        <ele>102.4</ele>
        <time>2023-09-17T07:25:02Z</time>
      </trkpt>
      <trkpt lat="46.53959" lon="0.32807">
        <ele>102.4</ele>
        <time>2023-09-17T07:25:03Z</time>
      </trkpt>
      <trkpt lat="46.53968" lon="0.32812">
        <ele>103.4</ele>
        <time>2023-09-17T07:25:10Z</time>
      </trkpt>
      <trkpt lat="46.53972" lon="0.32816">
        <ele>103.6</ele>
        <time>2023-09-17T07:25:12Z</time>
      </trkpt>
      <trkpt lat="46.53972" lon="0.32821">
        <ele>104</ele>
        <time>2023-09-17T07:25:14Z</time>
      </trkpt>
      <trkpt lat="46.53971" lon="0.32823">
        <ele>104.6</ele>
        <time>2023-09-17T07:25:15Z</time>
      </trkpt>
      <trkpt lat="46.53971" lon="0.32824">
        <ele>105</ele>
        <time>2023-09-17T07:25:16Z</time>
      </trkpt>
      <trkpt lat="46.53969" lon="0.32826">
        <ele>105.6</ele>
        <time>2023-09-17T07:25:19Z</time>
      </trkpt>
      <trkpt lat="46.53969" lon="0.32827">
        <ele>106.2</ele>
        <time>2023-09-17T07:25:20Z</time>
      </trkpt>
      <trkpt lat="46.53967" lon="0.32831">
        <ele>107</ele>
        <time>2023-09-17T07:25:24Z</time>
      </trkpt>
      <trkpt lat="46.53966" lon="0.32831">
        <ele>107.2</ele>
        <time>2023-09-17T07:25:25Z</time>
      </trkpt>
      <trkpt lat="46.53966" lon="0.32832">
        <ele>107.4</ele>
        <time>2023-09-17T07:25:26Z</time>
      </trkpt>
      <trkpt lat="46.53961" lon="0.32834">
        <ele>107.6</ele>
        <time>2023-09-17T07:25:30Z</time>
      </trkpt>
      <trkpt lat="46.53957" lon="0.32838">
        <ele>108.2</ele>
        <time>2023-09-17T07:25:33Z</time>
      </trkpt>
      <trkpt lat="46.53957" lon="0.3284">
        <ele>108.4</ele>
        <time>2023-09-17T07:25:34Z</time>
      </trkpt>
      <trkpt lat="46.53957" lon="0.32842">
        <ele>108.6</ele>
        <time>2023-09-17T07:25:35Z</time>
      </trkpt>
      <trkpt lat="46.53954" lon="0.32847">
        <ele>109</ele>
        <time>2023-09-17T07:25:38Z</time>
      </trkpt>
      <trkpt lat="46.53951" lon="0.32849">
        <ele>109.2</ele>
        <time>2023-09-17T07:25:40Z</time>
      </trkpt>
      <trkpt lat="46.53946" lon="0.3285">
        <ele>109.4</ele>
        <time>2023-09-17T07:25:42Z</time>
      </trkpt>
      <trkpt lat="46.53945" lon="0.3285">
        <ele>109.4</ele>
        <time>2023-09-17T07:25:43Z</time>
      </trkpt>
      <trkpt lat="46.53941" lon="0.32854">
        <ele>109.6</ele>
        <time>2023-09-17T07:25:45Z</time>
      </trkpt>
      <trkpt lat="46.53932" lon="0.32859">
        <ele>110.4</ele>
        <time>2023-09-17T07:25:49Z</time>
      </trkpt>
      <trkpt lat="46.53928" lon="0.32862">
        <ele>110.8</ele>
        <time>2023-09-17T07:25:51Z</time>
      </trkpt>
      <trkpt lat="46.5392" lon="0.32869">
        <ele>111.6</ele>
        <time>2023-09-17T07:25:56Z</time>
      </trkpt>
      <trkpt lat="46.53918" lon="0.32873">
        <ele>111.8</ele>
        <time>2023-09-17T07:25:58Z</time>
      </trkpt>
      <trkpt lat="46.53915" lon="0.32879">
        <ele>111.8</ele>
        <time>2023-09-17T07:26:01Z</time>
      </trkpt>
      <trkpt lat="46.53914" lon="0.32887">
        <ele>111.4</ele>
        <time>2023-09-17T07:26:04Z</time>
      </trkpt>
      <trkpt lat="46.53914" lon="0.32894">
        <ele>110.4</ele>
        <time>2023-09-17T07:26:07Z</time>
      </trkpt>
      <trkpt lat="46.53913" lon="0.32898">
        <ele>109.6</ele>
        <time>2023-09-17T07:26:09Z</time>
      </trkpt>
      <trkpt lat="46.53912" lon="0.32899">
        <ele>109.2</ele>
        <time>2023-09-17T07:26:10Z</time>
      </trkpt>
      <trkpt lat="46.53907" lon="0.32904">
        <ele>109.2</ele>
        <time>2023-09-17T07:26:13Z</time>
      </trkpt>
      <trkpt lat="46.53905" lon="0.32907">
        <ele>109.2</ele>
        <time>2023-09-17T07:26:15Z</time>
      </trkpt>
      <trkpt lat="46.53904" lon="0.3291">
        <ele>109.4</ele>
        <time>2023-09-17T07:26:16Z</time>
      </trkpt>
      <trkpt lat="46.53897" lon="0.32921">
        <ele>109.2</ele>
        <time>2023-09-17T07:26:20Z</time>
      </trkpt>
      <trkpt lat="46.53896" lon="0.32924">
        <ele>109.2</ele>
        <time>2023-09-17T07:26:21Z</time>
      </trkpt>
      <trkpt lat="46.53888" lon="0.32944">
        <ele>108.4</ele>
        <time>2023-09-17T07:26:26Z</time>
      </trkpt>
      <trkpt lat="46.53886" lon="0.32948">
        <ele>108</ele>
        <time>2023-09-17T07:26:27Z</time>
      </trkpt>
      <trkpt lat="46.53881" lon="0.32955">
        <ele>106.8</ele>
        <time>2023-09-17T07:26:29Z</time>
      </trkpt>
      <trkpt lat="46.53874" lon="0.32965">
        <ele>105.6</ele>
        <time>2023-09-17T07:26:32Z</time>
      </trkpt>
      <trkpt lat="46.53869" lon="0.32969">
        <ele>105.4</ele>
        <time>2023-09-17T07:26:34Z</time>
      </trkpt>
      <trkpt lat="46.5385" lon="0.32987">
        <ele>106</ele>
        <time>2023-09-17T07:26:41Z</time>
      </trkpt>
      <trkpt lat="46.53843" lon="0.32999">
        <ele>106.6</ele>
        <time>2023-09-17T07:26:44Z</time>
      </trkpt>
      <trkpt lat="46.5384" lon="0.33011">
        <ele>107.8</ele>
        <time>2023-09-17T07:26:47Z</time>
      </trkpt>
      <trkpt lat="46.53837" lon="0.33016">
        <ele>108</ele>
        <time>2023-09-17T07:26:48Z</time>
      </trkpt>
      <trkpt lat="46.53832" lon="0.33025">
        <ele>108.6</ele>
        <time>2023-09-17T07:26:50Z</time>
      </trkpt>
      <trkpt lat="46.53831" lon="0.33029">
        <ele>109.2</ele>
        <time>2023-09-17T07:26:51Z</time>
      </trkpt>
      <trkpt lat="46.5383" lon="0.33034">
        <ele>109.4</ele>
        <time>2023-09-17T07:26:52Z</time>
      </trkpt>
      <trkpt lat="46.53822" lon="0.33055">
        <ele>109.8</ele>
        <time>2023-09-17T07:26:56Z</time>
      </trkpt>
      <trkpt lat="46.53815" lon="0.33066">
        <ele>109.8</ele>
        <time>2023-09-17T07:26:58Z</time>
      </trkpt>
      <trkpt lat="46.53798" lon="0.33085">
        <ele>109.8</ele>
        <time>2023-09-17T07:27:00Z</time>
      </trkpt>
      <trkpt lat="46.53773" lon="0.33105">
        <ele>110</ele>
        <time>2023-09-17T07:27:03Z</time>
      </trkpt>
      <trkpt lat="46.53768" lon="0.33109">
        <ele>110.2</ele>
        <time>2023-09-17T07:27:04Z</time>
      </trkpt>
      <trkpt lat="46.53753" lon="0.33115">
        <ele>111.4</ele>
        <time>2023-09-17T07:27:08Z</time>
      </trkpt>
      <trkpt lat="46.53741" lon="0.33121">
        <ele>112.6</ele>
        <time>2023-09-17T07:27:11Z</time>
      </trkpt>
      <trkpt lat="46.53724" lon="0.33127">
        <ele>114</ele>
        <time>2023-09-17T07:27:15Z</time>
      </trkpt>
      <trkpt lat="46.53717" lon="0.33129">
        <ele>114.8</ele>
        <time>2023-09-17T07:27:17Z</time>
      </trkpt>
      <trkpt lat="46.5371" lon="0.3313">
        <ele>115</ele>
        <time>2023-09-17T07:27:19Z</time>
      </trkpt>
      <trkpt lat="46.53692" lon="0.3313">
        <ele>115.6</ele>
        <time>2023-09-17T07:27:24Z</time>
      </trkpt>
      <trkpt lat="46.53676" lon="0.33132">
        <ele>116.2</ele>
        <time>2023-09-17T07:27:28Z</time>
      </trkpt>
      <trkpt lat="46.53667" lon="0.33131">
        <ele>116.6</ele>
        <time>2023-09-17T07:27:30Z</time>
      </trkpt>
      <trkpt lat="46.53643" lon="0.33133">
        <ele>117.2</ele>
        <time>2023-09-17T07:27:36Z</time>
      </trkpt>
      <trkpt lat="46.53638" lon="0.33134">
        <ele>117.4</ele>
        <time>2023-09-17T07:27:37Z</time>
      </trkpt>
      <trkpt lat="46.5362" lon="0.33134">
        <ele>118</ele>
        <time>2023-09-17T07:27:42Z</time>
      </trkpt>
      <trkpt lat="46.53598" lon="0.33134">
        <ele>118</ele>
        <time>2023-09-17T07:27:49Z</time>
      </trkpt>
      <trkpt lat="46.5357" lon="0.33132">
        <ele>118</ele>
        <time>2023-09-17T07:27:55Z</time>
      </trkpt>
      <trkpt lat="46.53555" lon="0.33131">
        <ele>118.4</ele>
        <time>2023-09-17T07:27:58Z</time>
      </trkpt>
      <trkpt lat="46.53545" lon="0.33129">
        <ele>118.4</ele>
        <time>2023-09-17T07:28:00Z</time>
      </trkpt>
      <trkpt lat="46.53539" lon="0.33129">
        <ele>118.8</ele>
        <time>2023-09-17T07:28:01Z</time>
      </trkpt>
      <trkpt lat="46.5352" lon="0.3313">
        <ele>119</ele>
        <time>2023-09-17T07:28:05Z</time>
      </trkpt>
      <trkpt lat="46.53513" lon="0.33134">
        <ele>118.6</ele>
        <time>2023-09-17T07:28:07Z</time>
      </trkpt>
      <trkpt lat="46.53492" lon="0.33151">
        <ele>117.8</ele>
        <time>2023-09-17T07:28:13Z</time>
      </trkpt>
      <trkpt lat="46.53485" lon="0.3316">
        <ele>117.6</ele>
        <time>2023-09-17T07:28:15Z</time>
      </trkpt>
      <trkpt lat="46.53482" lon="0.33173">
        <ele>117.8</ele>
        <time>2023-09-17T07:28:17Z</time>
      </trkpt>
      <trkpt lat="46.53481" lon="0.33192">
        <ele>117.8</ele>
        <time>2023-09-17T07:28:20Z</time>
      </trkpt>
      <trkpt lat="46.53483" lon="0.33212">
        <ele>117.6</ele>
        <time>2023-09-17T07:28:23Z</time>
      </trkpt>
      <trkpt lat="46.53483" lon="0.33218">
        <ele>117.4</ele>
        <time>2023-09-17T07:28:24Z</time>
      </trkpt>
      <trkpt lat="46.53483" lon="0.33235">
        <ele>116.8</ele>
        <time>2023-09-17T07:28:27Z</time>
      </trkpt>
      <trkpt lat="46.53484" lon="0.33251">
        <ele>116.6</ele>
        <time>2023-09-17T07:28:29Z</time>
      </trkpt>
      <trkpt lat="46.53486" lon="0.33265">
        <ele>116.6</ele>
        <time>2023-09-17T07:28:31Z</time>
      </trkpt>
      <trkpt lat="46.53489" lon="0.33284">
        <ele>116.6</ele>
        <time>2023-09-17T07:28:33Z</time>
      </trkpt>
      <trkpt lat="46.53489" lon="0.33291">
        <ele>116.6</ele>
        <time>2023-09-17T07:28:34Z</time>
      </trkpt>
      <trkpt lat="46.53489" lon="0.333">
        <ele>116.6</ele>
        <time>2023-09-17T07:28:35Z</time>
      </trkpt>
      <trkpt lat="46.53488" lon="0.33339">
        <ele>116.4</ele>
        <time>2023-09-17T07:28:38Z</time>
      </trkpt>
      <trkpt lat="46.53488" lon="0.33353">
        <ele>116</ele>
        <time>2023-09-17T07:28:39Z</time>
      </trkpt>
      <trkpt lat="46.53491" lon="0.33393">
        <ele>115</ele>
        <time>2023-09-17T07:28:43Z</time>
      </trkpt>
      <trkpt lat="46.53495" lon="0.33415">
        <ele>114.8</ele>
        <time>2023-09-17T07:28:45Z</time>
      </trkpt>
      <trkpt lat="46.53502" lon="0.33434">
        <ele>114.8</ele>
        <time>2023-09-17T07:28:47Z</time>
      </trkpt>
      <trkpt lat="46.53506" lon="0.3344">
        <ele>114.6</ele>
        <time>2023-09-17T07:28:48Z</time>
      </trkpt>
      <trkpt lat="46.53531" lon="0.33479">
        <ele>113.8</ele>
        <time>2023-09-17T07:28:53Z</time>
      </trkpt>
      <trkpt lat="46.53536" lon="0.33488">
        <ele>113.6</ele>
        <time>2023-09-17T07:28:54Z</time>
      </trkpt>
      <trkpt lat="46.53547" lon="0.33504">
        <ele>113.4</ele>
        <time>2023-09-17T07:28:56Z</time>
      </trkpt>
      <trkpt lat="46.53562" lon="0.33524">
        <ele>112.8</ele>
        <time>2023-09-17T07:28:59Z</time>
      </trkpt>
      <trkpt lat="46.53566" lon="0.3353">
        <ele>112.4</ele>
        <time>2023-09-17T07:29:00Z</time>
      </trkpt>
      <trkpt lat="46.53576" lon="0.33544">
        <ele>111.2</ele>
        <time>2023-09-17T07:29:02Z</time>
      </trkpt>
      <trkpt lat="46.53581" lon="0.33551">
        <ele>110.2</ele>
        <time>2023-09-17T07:29:03Z</time>
      </trkpt>
      <trkpt lat="46.53586" lon="0.33558">
        <ele>108.8</ele>
        <time>2023-09-17T07:29:04Z</time>
      </trkpt>
      <trkpt lat="46.53593" lon="0.33566">
        <ele>107.6</ele>
        <time>2023-09-17T07:29:05Z</time>
      </trkpt>
      <trkpt lat="46.53604" lon="0.33582">
        <ele>106</ele>
        <time>2023-09-17T07:29:07Z</time>
      </trkpt>
      <trkpt lat="46.53614" lon="0.33593">
        <ele>105.2</ele>
        <time>2023-09-17T07:29:09Z</time>
      </trkpt>
      <trkpt lat="46.53619" lon="0.33599">
        <ele>104.2</ele>
        <time>2023-09-17T07:29:10Z</time>
      </trkpt>
      <trkpt lat="46.53629" lon="0.33611">
        <ele>103</ele>
        <time>2023-09-17T07:29:12Z</time>
      </trkpt>
      <trkpt lat="46.53639" lon="0.33623">
        <ele>101.6</ele>
        <time>2023-09-17T07:29:14Z</time>
      </trkpt>
      <trkpt lat="46.5365" lon="0.33631">
        <ele>100</ele>
        <time>2023-09-17T07:29:16Z</time>
      </trkpt>
      <trkpt lat="46.53655" lon="0.33633">
        <ele>98.8</ele>
        <time>2023-09-17T07:29:17Z</time>
      </trkpt>
      <trkpt lat="46.53659" lon="0.33634">
        <ele>98.2</ele>
        <time>2023-09-17T07:29:18Z</time>
      </trkpt>
      <trkpt lat="46.53662" lon="0.33633">
        <ele>97.8</ele>
        <time>2023-09-17T07:29:19Z</time>
      </trkpt>
      <trkpt lat="46.53665" lon="0.33632">
        <ele>97.4</ele>
        <time>2023-09-17T07:29:20Z</time>
      </trkpt>
      <trkpt lat="46.53671" lon="0.33627">
        <ele>96.6</ele>
        <time>2023-09-17T07:29:22Z</time>
      </trkpt>
      <trkpt lat="46.53679" lon="0.33609">
        <ele>95.2</ele>
        <time>2023-09-17T07:29:25Z</time>
      </trkpt>
      <trkpt lat="46.53683" lon="0.336">
        <ele>94.6</ele>
        <time>2023-09-17T07:29:26Z</time>
      </trkpt>
      <trkpt lat="46.53687" lon="0.33591">
        <ele>94</ele>
        <time>2023-09-17T07:29:27Z</time>
      </trkpt>
      <trkpt lat="46.53697" lon="0.33562">
        <ele>92.8</ele>
        <time>2023-09-17T07:29:30Z</time>
      </trkpt>
      <trkpt lat="46.537" lon="0.33551">
        <ele>92.4</ele>
        <time>2023-09-17T07:29:31Z</time>
      </trkpt>
      <trkpt lat="46.53713" lon="0.33513">
        <ele>91.8</ele>
        <time>2023-09-17T07:29:35Z</time>
      </trkpt>
      <trkpt lat="46.53716" lon="0.33506">
        <ele>91.8</ele>
        <time>2023-09-17T07:29:36Z</time>
      </trkpt>
      <trkpt lat="46.53724" lon="0.33497">
        <ele>91.8</ele>
        <time>2023-09-17T07:29:37Z</time>
      </trkpt>
      <trkpt lat="46.53731" lon="0.33482">
        <ele>91.6</ele>
        <time>2023-09-17T07:29:39Z</time>
      </trkpt>
      <trkpt lat="46.53737" lon="0.33473">
        <ele>91.4</ele>
        <time>2023-09-17T07:29:40Z</time>
      </trkpt>
      <trkpt lat="46.53741" lon="0.33465">
        <ele>91.2</ele>
        <time>2023-09-17T07:29:41Z</time>
      </trkpt>
      <trkpt lat="46.53753" lon="0.33437">
        <ele>90.4</ele>
        <time>2023-09-17T07:29:44Z</time>
      </trkpt>
      <trkpt lat="46.53761" lon="0.33415">
        <ele>90</ele>
        <time>2023-09-17T07:29:46Z</time>
      </trkpt>
      <trkpt lat="46.53771" lon="0.33394">
        <ele>89.4</ele>
        <time>2023-09-17T07:29:48Z</time>
      </trkpt>
      <trkpt lat="46.53779" lon="0.33364">
        <ele>88.6</ele>
        <time>2023-09-17T07:29:51Z</time>
      </trkpt>
      <trkpt lat="46.53783" lon="0.33353">
        <ele>88.2</ele>
        <time>2023-09-17T07:29:52Z</time>
      </trkpt>
      <trkpt lat="46.53799" lon="0.33301">
        <ele>86.8</ele>
        <time>2023-09-17T07:29:57Z</time>
      </trkpt>
      <trkpt lat="46.53803" lon="0.33291">
        <ele>86.6</ele>
        <time>2023-09-17T07:29:58Z</time>
      </trkpt>
      <trkpt lat="46.53814" lon="0.33261">
        <ele>85.6</ele>
        <time>2023-09-17T07:30:01Z</time>
      </trkpt>
      <trkpt lat="46.53825" lon="0.33228">
        <ele>84.6</ele>
        <time>2023-09-17T07:30:04Z</time>
      </trkpt>
      <trkpt lat="46.53829" lon="0.33218">
        <ele>84.4</ele>
        <time>2023-09-17T07:30:05Z</time>
      </trkpt>
      <trkpt lat="46.53839" lon="0.33184">
        <ele>83</ele>
        <time>2023-09-17T07:30:08Z</time>
      </trkpt>
      <trkpt lat="46.53846" lon="0.33162">
        <ele>81.8</ele>
        <time>2023-09-17T07:30:10Z</time>
      </trkpt>
      <trkpt lat="46.53848" lon="0.33152">
        <ele>81.2</ele>
        <time>2023-09-17T07:30:11Z</time>
      </trkpt>
      <trkpt lat="46.5385" lon="0.33133">
        <ele>80.4</ele>
        <time>2023-09-17T07:30:13Z</time>
      </trkpt>
      <trkpt lat="46.53855" lon="0.33106">
        <ele>79.6</ele>
        <time>2023-09-17T07:30:16Z</time>
      </trkpt>
      <trkpt lat="46.5386" lon="0.33085">
        <ele>79.2</ele>
        <time>2023-09-17T07:30:19Z</time>
      </trkpt>
      <trkpt lat="46.53868" lon="0.33064">
        <ele>78.2</ele>
        <time>2023-09-17T07:30:22Z</time>
      </trkpt>
      <trkpt lat="46.53872" lon="0.33055">
        <ele>77.8</ele>
        <time>2023-09-17T07:30:23Z</time>
      </trkpt>
      <trkpt lat="46.5389" lon="0.33014">
        <ele>77.4</ele>
        <time>2023-09-17T07:30:29Z</time>
      </trkpt>
      <trkpt lat="46.53906" lon="0.3298">
        <ele>77.6</ele>
        <time>2023-09-17T07:30:36Z</time>
      </trkpt>
      <trkpt lat="46.53915" lon="0.3297">
        <ele>77.6</ele>
        <time>2023-09-17T07:30:39Z</time>
      </trkpt>
      <trkpt lat="46.53924" lon="0.32962">
        <ele>77.4</ele>
        <time>2023-09-17T07:30:42Z</time>
      </trkpt>
      <trkpt lat="46.53942" lon="0.3294">
        <ele>77.2</ele>
        <time>2023-09-17T07:30:48Z</time>
      </trkpt>
      <trkpt lat="46.53947" lon="0.32936">
        <ele>77.2</ele>
        <time>2023-09-17T07:30:49Z</time>
      </trkpt>
      <trkpt lat="46.53951" lon="0.32932">
        <ele>77.2</ele>
        <time>2023-09-17T07:30:50Z</time>
      </trkpt>
      <trkpt lat="46.53957" lon="0.32923">
        <ele>77</ele>
        <time>2023-09-17T07:30:52Z</time>
      </trkpt>
      <trkpt lat="46.53963" lon="0.32913">
        <ele>76.8</ele>
        <time>2023-09-17T07:30:54Z</time>
      </trkpt>
      <trkpt lat="46.53966" lon="0.3291">
        <ele>76.8</ele>
        <time>2023-09-17T07:30:55Z</time>
      </trkpt>
      <trkpt lat="46.5397" lon="0.32905">
        <ele>77</ele>
        <time>2023-09-17T07:30:57Z</time>
      </trkpt>
      <trkpt lat="46.53975" lon="0.32899">
        <ele>77</ele>
        <time>2023-09-17T07:30:59Z</time>
      </trkpt>
      <trkpt lat="46.53983" lon="0.32896">
        <ele>77.4</ele>
        <time>2023-09-17T07:31:01Z</time>
      </trkpt>
      <trkpt lat="46.5399" lon="0.32889">
        <ele>78</ele>
        <time>2023-09-17T07:31:04Z</time>
      </trkpt>
      <trkpt lat="46.53992" lon="0.32887">
        <ele>78.2</ele>
        <time>2023-09-17T07:31:05Z</time>
      </trkpt>
      <trkpt lat="46.53996" lon="0.32883">
        <ele>78.6</ele>
        <time>2023-09-17T07:31:06Z</time>
      </trkpt>
      <trkpt lat="46.53997" lon="0.3288">
        <ele>79</ele>
        <time>2023-09-17T07:31:07Z</time>
      </trkpt>
      <trkpt lat="46.54002" lon="0.32873">
        <ele>79.2</ele>
        <time>2023-09-17T07:31:09Z</time>
      </trkpt>
      <trkpt lat="46.54008" lon="0.32867">
        <ele>79.4</ele>
        <time>2023-09-17T07:31:10Z</time>
      </trkpt>
      <trkpt lat="46.54028" lon="0.32851">
        <ele>79.4</ele>
        <time>2023-09-17T07:31:12Z</time>
      </trkpt>
      <trkpt lat="46.54055" lon="0.32832">
        <ele>79</ele>
        <time>2023-09-17T07:31:15Z</time>
      </trkpt>
      <trkpt lat="46.54072" lon="0.32826">
        <ele>78.4</ele>
        <time>2023-09-17T07:31:17Z</time>
      </trkpt>
      <trkpt lat="46.54078" lon="0.32823">
        <ele>78.2</ele>
        <time>2023-09-17T07:31:18Z</time>
      </trkpt>
      <trkpt lat="46.54104" lon="0.32809">
        <ele>77.2</ele>
        <time>2023-09-17T07:31:22Z</time>
      </trkpt>
      <trkpt lat="46.54139" lon="0.32786">
        <ele>76.8</ele>
        <time>2023-09-17T07:31:28Z</time>
      </trkpt>
      <trkpt lat="46.54143" lon="0.3278">
        <ele>77</ele>
        <time>2023-09-17T07:31:29Z</time>
      </trkpt>
      <trkpt lat="46.54146" lon="0.32775">
        <ele>77.2</ele>
        <time>2023-09-17T07:31:30Z</time>
      </trkpt>
      <trkpt lat="46.54156" lon="0.32765">
        <ele>77.4</ele>
        <time>2023-09-17T07:31:32Z</time>
      </trkpt>
      <trkpt lat="46.54157" lon="0.32757">
        <ele>77.4</ele>
        <time>2023-09-17T07:31:34Z</time>
      </trkpt>
      <trkpt lat="46.54168" lon="0.32743">
        <ele>77</ele>
        <time>2023-09-17T07:31:39Z</time>
      </trkpt>
      <trkpt lat="46.5417" lon="0.32741">
        <ele>77</ele>
        <time>2023-09-17T07:31:40Z</time>
      </trkpt>
      <trkpt lat="46.54178" lon="0.32742">
        <ele>77</ele>
        <time>2023-09-17T07:31:43Z</time>
      </trkpt>
      <trkpt lat="46.54191" lon="0.32748">
        <ele>77.6</ele>
        <time>2023-09-17T07:31:47Z</time>
      </trkpt>
      <trkpt lat="46.54199" lon="0.32748">
        <ele>77.6</ele>
        <time>2023-09-17T07:31:49Z</time>
      </trkpt>
      <trkpt lat="46.54205" lon="0.32747">
        <ele>77.6</ele>
        <time>2023-09-17T07:31:52Z</time>
      </trkpt>
      <trkpt lat="46.54218" lon="0.32743">
        <ele>77.4</ele>
        <time>2023-09-17T07:31:55Z</time>
      </trkpt>
      <trkpt lat="46.5422" lon="0.32742">
        <ele>77.4</ele>
        <time>2023-09-17T07:31:56Z</time>
      </trkpt>
      <trkpt lat="46.54235" lon="0.32737">
        <ele>77.4</ele>
        <time>2023-09-17T07:32:02Z</time>
      </trkpt>
      <trkpt lat="46.5424" lon="0.32736">
        <ele>77.4</ele>
        <time>2023-09-17T07:32:03Z</time>
      </trkpt>
      <trkpt lat="46.54257" lon="0.32746">
        <ele>77.6</ele>
        <time>2023-09-17T07:32:10Z</time>
      </trkpt>
      <trkpt lat="46.54281" lon="0.32757">
        <ele>77.6</ele>
        <time>2023-09-17T07:32:16Z</time>
      </trkpt>
      <trkpt lat="46.54285" lon="0.32759">
        <ele>77.6</ele>
        <time>2023-09-17T07:32:17Z</time>
      </trkpt>
      <trkpt lat="46.54298" lon="0.32764">
        <ele>77.6</ele>
        <time>2023-09-17T07:32:20Z</time>
      </trkpt>
      <trkpt lat="46.54302" lon="0.32766">
        <ele>77.6</ele>
        <time>2023-09-17T07:32:21Z</time>
      </trkpt>
      <trkpt lat="46.54313" lon="0.32772">
        <ele>77.6</ele>
        <time>2023-09-17T07:32:24Z</time>
      </trkpt>
      <trkpt lat="46.54323" lon="0.32778">
        <ele>77.6</ele>
        <time>2023-09-17T07:32:26Z</time>
      </trkpt>
      <trkpt lat="46.54355" lon="0.32795">
        <ele>77.4</ele>
        <time>2023-09-17T07:32:32Z</time>
      </trkpt>
      <trkpt lat="46.54383" lon="0.3281">
        <ele>77.4</ele>
        <time>2023-09-17T07:32:38Z</time>
      </trkpt>
      <trkpt lat="46.54397" lon="0.32819">
        <ele>77.4</ele>
        <time>2023-09-17T07:32:41Z</time>
      </trkpt>
      <trkpt lat="46.54405" lon="0.32828">
        <ele>77.6</ele>
        <time>2023-09-17T07:32:43Z</time>
      </trkpt>
      <trkpt lat="46.54409" lon="0.32833">
        <ele>77.6</ele>
        <time>2023-09-17T07:32:44Z</time>
      </trkpt>
      <trkpt lat="46.54431" lon="0.32857">
        <ele>77.6</ele>
        <time>2023-09-17T07:32:49Z</time>
      </trkpt>
      <trkpt lat="46.54455" lon="0.32887">
        <ele>77.6</ele>
        <time>2023-09-17T07:32:55Z</time>
      </trkpt>
      <trkpt lat="46.54458" lon="0.32893">
        <ele>77.6</ele>
        <time>2023-09-17T07:32:56Z</time>
      </trkpt>
      <trkpt lat="46.54462" lon="0.32898">
        <ele>77.6</ele>
        <time>2023-09-17T07:32:57Z</time>
      </trkpt>
      <trkpt lat="46.54478" lon="0.3292">
        <ele>77.4</ele>
        <time>2023-09-17T07:33:01Z</time>
      </trkpt>
      <trkpt lat="46.54513" lon="0.32962">
        <ele>77.8</ele>
        <time>2023-09-17T07:33:08Z</time>
      </trkpt>
      <trkpt lat="46.54548" lon="0.33003">
        <ele>77.8</ele>
        <time>2023-09-17T07:33:14Z</time>
      </trkpt>
      <trkpt lat="46.54595" lon="0.33056">
        <ele>78</ele>
        <time>2023-09-17T07:33:22Z</time>
      </trkpt>
      <trkpt lat="46.54615" lon="0.33097">
        <ele>78</ele>
        <time>2023-09-17T07:33:27Z</time>
      </trkpt>
      <trkpt lat="46.54621" lon="0.33106">
        <ele>78</ele>
        <time>2023-09-17T07:33:28Z</time>
      </trkpt>
      <trkpt lat="46.54652" lon="0.33142">
        <ele>78</ele>
        <time>2023-09-17T07:33:33Z</time>
      </trkpt>
      <trkpt lat="46.54682" lon="0.33182">
        <ele>77.8</ele>
        <time>2023-09-17T07:33:39Z</time>
      </trkpt>
      <trkpt lat="46.54712" lon="0.33215">
        <ele>77.8</ele>
        <time>2023-09-17T07:33:44Z</time>
      </trkpt>
      <trkpt lat="46.54754" lon="0.3326">
        <ele>77.6</ele>
        <time>2023-09-17T07:33:51Z</time>
      </trkpt>
      <trkpt lat="46.54781" lon="0.33286">
        <ele>77.8</ele>
        <time>2023-09-17T07:33:56Z</time>
      </trkpt>
      <trkpt lat="46.54819" lon="0.33314">
        <ele>77.8</ele>
        <time>2023-09-17T07:34:03Z</time>
      </trkpt>
      <trkpt lat="46.54836" lon="0.33324">
        <ele>77.8</ele>
        <time>2023-09-17T07:34:06Z</time>
      </trkpt>
      <trkpt lat="46.54849" lon="0.33327">
        <ele>77.8</ele>
        <time>2023-09-17T07:34:08Z</time>
      </trkpt>
      <trkpt lat="46.54855" lon="0.33329">
        <ele>77.8</ele>
        <time>2023-09-17T07:34:09Z</time>
      </trkpt>
      <trkpt lat="46.54877" lon="0.33339">
        <ele>77.8</ele>
        <time>2023-09-17T07:34:13Z</time>
      </trkpt>
      <trkpt lat="46.54885" lon="0.33343">
        <ele>77.8</ele>
        <time>2023-09-17T07:34:14Z</time>
      </trkpt>
      <trkpt lat="46.54916" lon="0.33367">
        <ele>77.8</ele>
        <time>2023-09-17T07:34:20Z</time>
      </trkpt>
      <trkpt lat="46.54943" lon="0.33388">
        <ele>77.4</ele>
        <time>2023-09-17T07:34:26Z</time>
      </trkpt>
      <trkpt lat="46.54958" lon="0.33401">
        <ele>77.2</ele>
        <time>2023-09-17T07:34:30Z</time>
      </trkpt>
      <trkpt lat="46.54969" lon="0.33413">
        <ele>77.2</ele>
        <time>2023-09-17T07:34:32Z</time>
      </trkpt>
      <trkpt lat="46.54978" lon="0.33433">
        <ele>77.2</ele>
        <time>2023-09-17T07:34:35Z</time>
      </trkpt>
      <trkpt lat="46.54982" lon="0.33439">
        <ele>77.2</ele>
        <time>2023-09-17T07:34:36Z</time>
      </trkpt>
      <trkpt lat="46.54985" lon="0.33492">
        <ele>77.2</ele>
        <time>2023-09-17T07:34:40Z</time>
      </trkpt>
      <trkpt lat="46.54988" lon="0.33512">
        <ele>77</ele>
        <time>2023-09-17T07:34:42Z</time>
      </trkpt>
      <trkpt lat="46.55002" lon="0.33571">
        <ele>77.2</ele>
        <time>2023-09-17T07:34:50Z</time>
      </trkpt>
      <trkpt lat="46.5501" lon="0.33609">
        <ele>77.2</ele>
        <time>2023-09-17T07:34:55Z</time>
      </trkpt>
      <trkpt lat="46.5501" lon="0.33616">
        <ele>77</ele>
        <time>2023-09-17T07:34:56Z</time>
      </trkpt>
      <trkpt lat="46.55008" lon="0.33655">
        <ele>76.4</ele>
        <time>2023-09-17T07:35:02Z</time>
      </trkpt>
      <trkpt lat="46.55008" lon="0.33667">
        <ele>76.4</ele>
        <time>2023-09-17T07:35:04Z</time>
      </trkpt>
      <trkpt lat="46.55006" lon="0.33672">
        <ele>76.4</ele>
        <time>2023-09-17T07:35:05Z</time>
      </trkpt>
      <trkpt lat="46.54997" lon="0.33682">
        <ele>76.2</ele>
        <time>2023-09-17T07:35:09Z</time>
      </trkpt>
      <trkpt lat="46.54994" lon="0.33684">
        <ele>76.2</ele>
        <time>2023-09-17T07:35:10Z</time>
      </trkpt>
      <trkpt lat="46.54993" lon="0.33687">
        <ele>76.4</ele>
        <time>2023-09-17T07:35:11Z</time>
      </trkpt>
      <trkpt lat="46.5499" lon="0.33702">
        <ele>77</ele>
        <time>2023-09-17T07:35:14Z</time>
      </trkpt>
      <trkpt lat="46.54987" lon="0.33714">
        <ele>77.2</ele>
        <time>2023-09-17T07:35:16Z</time>
      </trkpt>
      <trkpt lat="46.54982" lon="0.33741">
        <ele>76.8</ele>
        <time>2023-09-17T07:35:21Z</time>
      </trkpt>
      <trkpt lat="46.5498" lon="0.33763">
        <ele>76.4</ele>
        <time>2023-09-17T07:35:26Z</time>
      </trkpt>
      <trkpt lat="46.5498" lon="0.33765">
        <ele>76.4</ele>
        <time>2023-09-17T07:35:27Z</time>
      </trkpt>
      <trkpt lat="46.54978" lon="0.3377">
        <ele>76.2</ele>
        <time>2023-09-17T07:35:32Z</time>
      </trkpt>
      <trkpt lat="46.54974" lon="0.3377">
        <ele>76.2</ele>
        <time>2023-09-17T07:35:43Z</time>
      </trkpt>
      <trkpt lat="46.54973" lon="0.3377">
        <ele>76</ele>
        <time>2023-09-17T07:36:02Z</time>
      </trkpt>
      <trkpt lat="46.54973" lon="0.3377">
        <ele>75.8</ele>
        <time>2023-09-17T07:36:23Z</time>
      </trkpt>
      <trkpt lat="46.54976" lon="0.3377">
        <ele>75.6</ele>
        <time>2023-09-17T07:36:44Z</time>
      </trkpt>
      <trkpt lat="46.54977" lon="0.33768">
        <ele>75.8</ele>
        <time>2023-09-17T07:36:56Z</time>
      </trkpt>
      <trkpt lat="46.54976" lon="0.33767">
        <ele>76</ele>
        <time>2023-09-17T07:37:11Z</time>
      </trkpt>
      <trkpt lat="46.54975" lon="0.33765">
        <ele>75.8</ele>
        <time>2023-09-17T07:37:29Z</time>
      </trkpt>
      <trkpt lat="46.54976" lon="0.33769">
        <ele>75.8</ele>
        <time>2023-09-17T07:37:45Z</time>
      </trkpt>
      <trkpt lat="46.54976" lon="0.33769">
        <ele>76</ele>
        <time>2023-09-17T07:37:53Z</time>
      </trkpt>
      <trkpt lat="46.54976" lon="0.33769">
        <ele>75.8</ele>
        <time>2023-09-17T07:38:07Z</time>
      </trkpt>
      <trkpt lat="46.54976" lon="0.33769">
        <ele>75.8</ele>
        <time>2023-09-17T07:38:24Z</time>
      </trkpt>
      <trkpt lat="46.54976" lon="0.33771">
        <ele>76</ele>
        <time>2023-09-17T07:38:44Z</time>
      </trkpt>
      <trkpt lat="46.54976" lon="0.33772">
        <ele>76</ele>
        <time>2023-09-17T07:39:06Z</time>
      </trkpt>
      <trkpt lat="46.54976" lon="0.33772">
        <ele>76</ele>
        <time>2023-09-17T07:39:25Z</time>
      </trkpt>
      <trkpt lat="46.54977" lon="0.33774">
        <ele>76</ele>
        <time>2023-09-17T07:40:17Z</time>
      </trkpt>
      <trkpt lat="46.54977" lon="0.33773">
        <ele>76</ele>
        <time>2023-09-17T07:40:31Z</time>
      </trkpt>
      <trkpt lat="46.54977" lon="0.33773">
        <ele>76</ele>
        <time>2023-09-17T07:40:50Z</time>
      </trkpt>
      <trkpt lat="46.54977" lon="0.33773">
        <ele>76</ele>
        <time>2023-09-17T07:41:25Z</time>
      </trkpt>
      <trkpt lat="46.54977" lon="0.33775">
        <ele>76</ele>
        <time>2023-09-17T07:42:43Z</time>
      </trkpt>
      <trkpt lat="46.54976" lon="0.33775">
        <ele>76</ele>
        <time>2023-09-17T07:43:05Z</time>
      </trkpt>
      <trkpt lat="46.54979" lon="0.33778">
        <ele>76</ele>
        <time>2023-09-17T07:43:38Z</time>
      </trkpt>
      <trkpt lat="46.54978" lon="0.3378">
        <ele>76</ele>
        <time>2023-09-17T07:44:12Z</time>
      </trkpt>
      <trkpt lat="46.54978" lon="0.3378">
        <ele>76</ele>
        <time>2023-09-17T07:44:47Z</time>
      </trkpt>
      <trkpt lat="46.54977" lon="0.3378">
        <ele>76</ele>
        <time>2023-09-17T07:45:07Z</time>
      </trkpt>
      <trkpt lat="46.54979" lon="0.33773">
        <ele>76</ele>
        <time>2023-09-17T07:45:14Z</time>
      </trkpt>
      <trkpt lat="46.54983" lon="0.33773">
        <ele>76</ele>
        <time>2023-09-17T07:45:18Z</time>
      </trkpt>
      <trkpt lat="46.54987" lon="0.33775">
        <ele>76</ele>
        <time>2023-09-17T07:45:21Z</time>
      </trkpt>
      <trkpt lat="46.5499" lon="0.33774">
        <ele>76</ele>
        <time>2023-09-17T07:45:23Z</time>
      </trkpt>
      <trkpt lat="46.54994" lon="0.33765">
        <ele>75.8</ele>
        <time>2023-09-17T07:45:27Z</time>
      </trkpt>
      <trkpt lat="46.54999" lon="0.3374">
        <ele>75.6</ele>
        <time>2023-09-17T07:45:34Z</time>
      </trkpt>
      <trkpt lat="46.55003" lon="0.33717">
        <ele>76</ele>
        <time>2023-09-17T07:45:39Z</time>
      </trkpt>
      <trkpt lat="46.55008" lon="0.33686">
        <ele>76</ele>
        <time>2023-09-17T07:45:45Z</time>
      </trkpt>
      <trkpt lat="46.55016" lon="0.33659">
        <ele>76.4</ele>
        <time>2023-09-17T07:45:52Z</time>
      </trkpt>
      <trkpt lat="46.55016" lon="0.33645">
        <ele>76.4</ele>
        <time>2023-09-17T07:45:55Z</time>
      </trkpt>
      <trkpt lat="46.55014" lon="0.33642">
        <ele>76.4</ele>
        <time>2023-09-17T07:45:56Z</time>
      </trkpt>
      <trkpt lat="46.55008" lon="0.33638">
        <ele>76.4</ele>
        <time>2023-09-17T07:45:58Z</time>
      </trkpt>
      <trkpt lat="46.54985" lon="0.3363">
        <ele>76</ele>
        <time>2023-09-17T07:46:04Z</time>
      </trkpt>
      <trkpt lat="46.54973" lon="0.33619">
        <ele>75.6</ele>
        <time>2023-09-17T07:46:09Z</time>
      </trkpt>
      <trkpt lat="46.54968" lon="0.33603">
        <ele>75.2</ele>
        <time>2023-09-17T07:46:14Z</time>
      </trkpt>
      <trkpt lat="46.54966" lon="0.33602">
        <ele>75</ele>
        <time>2023-09-17T07:46:15Z</time>
      </trkpt>
      <trkpt lat="46.54959" lon="0.33594">
        <ele>74.8</ele>
        <time>2023-09-17T07:46:18Z</time>
      </trkpt>
      <trkpt lat="46.54954" lon="0.33587">
        <ele>75</ele>
        <time>2023-09-17T07:46:20Z</time>
      </trkpt>
      <trkpt lat="46.54943" lon="0.33577">
        <ele>75.2</ele>
        <time>2023-09-17T07:46:23Z</time>
      </trkpt>
      <trkpt lat="46.54921" lon="0.33549">
        <ele>75.4</ele>
        <time>2023-09-17T07:46:29Z</time>
      </trkpt>
      <trkpt lat="46.54891" lon="0.33508">
        <ele>75.6</ele>
        <time>2023-09-17T07:46:37Z</time>
      </trkpt>
      <trkpt lat="46.54866" lon="0.33467">
        <ele>75.6</ele>
        <time>2023-09-17T07:46:45Z</time>
      </trkpt>
      <trkpt lat="46.54845" lon="0.33433">
        <ele>75.8</ele>
        <time>2023-09-17T07:46:52Z</time>
      </trkpt>
      <trkpt lat="46.54842" lon="0.33429">
        <ele>75.8</ele>
        <time>2023-09-17T07:46:53Z</time>
      </trkpt>
      <trkpt lat="46.54828" lon="0.33412">
        <ele>75.8</ele>
        <time>2023-09-17T07:46:57Z</time>
      </trkpt>
      <trkpt lat="46.54822" lon="0.33409">
        <ele>75.8</ele>
        <time>2023-09-17T07:46:59Z</time>
      </trkpt>
      <trkpt lat="46.54815" lon="0.3341">
        <ele>75.8</ele>
        <time>2023-09-17T07:47:01Z</time>
      </trkpt>
      <trkpt lat="46.54809" lon="0.33415">
        <ele>75.8</ele>
        <time>2023-09-17T07:47:03Z</time>
      </trkpt>
      <trkpt lat="46.54805" lon="0.33417">
        <ele>75.8</ele>
        <time>2023-09-17T07:47:04Z</time>
      </trkpt>
      <trkpt lat="46.54797" lon="0.33419">
        <ele>75.8</ele>
        <time>2023-09-17T07:47:06Z</time>
      </trkpt>
      <trkpt lat="46.54787" lon="0.33418">
        <ele>75.8</ele>
        <time>2023-09-17T07:47:08Z</time>
      </trkpt>
      <trkpt lat="46.54778" lon="0.33414">
        <ele>75.8</ele>
        <time>2023-09-17T07:47:10Z</time>
      </trkpt>
      <trkpt lat="46.54769" lon="0.3341">
        <ele>75.8</ele>
        <time>2023-09-17T07:47:12Z</time>
      </trkpt>
      <trkpt lat="46.54761" lon="0.33404">
        <ele>75.8</ele>
        <time>2023-09-17T07:47:14Z</time>
      </trkpt>
      <trkpt lat="46.54736" lon="0.33379">
        <ele>76</ele>
        <time>2023-09-17T07:47:19Z</time>
      </trkpt>
      <trkpt lat="46.54712" lon="0.33362">
        <ele>76</ele>
        <time>2023-09-17T07:47:24Z</time>
      </trkpt>
      <trkpt lat="46.54702" lon="0.33355">
        <ele>76.2</ele>
        <time>2023-09-17T07:47:26Z</time>
      </trkpt>
      <trkpt lat="46.54685" lon="0.33345">
        <ele>76.2</ele>
        <time>2023-09-17T07:47:29Z</time>
      </trkpt>
      <trkpt lat="46.5468" lon="0.33342">
        <ele>76.2</ele>
        <time>2023-09-17T07:47:30Z</time>
      </trkpt>
      <trkpt lat="46.54658" lon="0.33325">
        <ele>76</ele>
        <time>2023-09-17T07:47:34Z</time>
      </trkpt>
      <trkpt lat="46.54648" lon="0.3332">
        <ele>76</ele>
        <time>2023-09-17T07:47:36Z</time>
      </trkpt>
      <trkpt lat="46.5464" lon="0.33315">
        <ele>75.8</ele>
        <time>2023-09-17T07:47:38Z</time>
      </trkpt>
      <trkpt lat="46.54635" lon="0.33308">
        <ele>75.8</ele>
        <time>2023-09-17T07:47:40Z</time>
      </trkpt>
      <trkpt lat="46.54628" lon="0.33298">
        <ele>75.8</ele>
        <time>2023-09-17T07:47:42Z</time>
      </trkpt>
      <trkpt lat="46.54616" lon="0.33284">
        <ele>75.6</ele>
        <time>2023-09-17T07:47:45Z</time>
      </trkpt>
      <trkpt lat="46.54609" lon="0.33272">
        <ele>75.6</ele>
        <time>2023-09-17T07:47:47Z</time>
      </trkpt>
      <trkpt lat="46.54596" lon="0.33255">
        <ele>75.8</ele>
        <time>2023-09-17T07:47:50Z</time>
      </trkpt>
      <trkpt lat="46.5459" lon="0.33242">
        <ele>76.2</ele>
        <time>2023-09-17T07:47:52Z</time>
      </trkpt>
      <trkpt lat="46.54587" lon="0.33235">
        <ele>76.2</ele>
        <time>2023-09-17T07:47:53Z</time>
      </trkpt>
      <trkpt lat="46.54579" lon="0.33226">
        <ele>76.2</ele>
        <time>2023-09-17T07:47:55Z</time>
      </trkpt>
      <trkpt lat="46.54576" lon="0.33222">
        <ele>76.2</ele>
        <time>2023-09-17T07:47:56Z</time>
      </trkpt>
      <trkpt lat="46.54572" lon="0.33218">
        <ele>76.2</ele>
        <time>2023-09-17T07:47:57Z</time>
      </trkpt>
      <trkpt lat="46.54562" lon="0.33202">
        <ele>76.2</ele>
        <time>2023-09-17T07:48:00Z</time>
      </trkpt>
      <trkpt lat="46.54546" lon="0.33171">
        <ele>76.4</ele>
        <time>2023-09-17T07:48:05Z</time>
      </trkpt>
      <trkpt lat="46.54539" lon="0.33158">
        <ele>76.4</ele>
        <time>2023-09-17T07:48:07Z</time>
      </trkpt>
      <trkpt lat="46.54531" lon="0.33147">
        <ele>76.4</ele>
        <time>2023-09-17T07:48:09Z</time>
      </trkpt>
      <trkpt lat="46.54527" lon="0.3314">
        <ele>76.2</ele>
        <time>2023-09-17T07:48:10Z</time>
      </trkpt>
      <trkpt lat="46.54517" lon="0.3312">
        <ele>76.4</ele>
        <time>2023-09-17T07:48:13Z</time>
      </trkpt>
      <trkpt lat="46.54506" lon="0.33101">
        <ele>76.6</ele>
        <time>2023-09-17T07:48:16Z</time>
      </trkpt>
      <trkpt lat="46.54494" lon="0.33082">
        <ele>76.8</ele>
        <time>2023-09-17T07:48:19Z</time>
      </trkpt>
      <trkpt lat="46.54482" lon="0.33065">
        <ele>76.8</ele>
        <time>2023-09-17T07:48:22Z</time>
      </trkpt>
      <trkpt lat="46.54466" lon="0.33044">
        <ele>76.2</ele>
        <time>2023-09-17T07:48:26Z</time>
      </trkpt>
      <trkpt lat="46.54459" lon="0.33032">
        <ele>76.2</ele>
        <time>2023-09-17T07:48:28Z</time>
      </trkpt>
      <trkpt lat="46.54438" lon="0.33">
        <ele>76.2</ele>
        <time>2023-09-17T07:48:34Z</time>
      </trkpt>
      <trkpt lat="46.54416" lon="0.32971">
        <ele>76</ele>
        <time>2023-09-17T07:48:40Z</time>
      </trkpt>
      <trkpt lat="46.544" lon="0.3295">
        <ele>76</ele>
        <time>2023-09-17T07:48:44Z</time>
      </trkpt>
      <trkpt lat="46.54391" lon="0.32939">
        <ele>76</ele>
        <time>2023-09-17T07:48:46Z</time>
      </trkpt>
      <trkpt lat="46.54388" lon="0.32932">
        <ele>76</ele>
        <time>2023-09-17T07:48:47Z</time>
      </trkpt>
      <trkpt lat="46.54379" lon="0.32912">
        <ele>76</ele>
        <time>2023-09-17T07:48:50Z</time>
      </trkpt>
      <trkpt lat="46.54371" lon="0.32902">
        <ele>76</ele>
        <time>2023-09-17T07:48:52Z</time>
      </trkpt>
      <trkpt lat="46.54358" lon="0.32887">
        <ele>76.2</ele>
        <time>2023-09-17T07:48:55Z</time>
      </trkpt>
      <trkpt lat="46.54339" lon="0.32863">
        <ele>76.2</ele>
        <time>2023-09-17T07:49:00Z</time>
      </trkpt>
      <trkpt lat="46.54335" lon="0.32861">
        <ele>76.2</ele>
        <time>2023-09-17T07:49:01Z</time>
      </trkpt>
      <trkpt lat="46.54331" lon="0.32861">
        <ele>76.2</ele>
        <time>2023-09-17T07:49:02Z</time>
      </trkpt>
      <trkpt lat="46.54323" lon="0.32863">
        <ele>75.8</ele>
        <time>2023-09-17T07:49:04Z</time>
      </trkpt>
      <trkpt lat="46.543" lon="0.32871">
        <ele>76.2</ele>
        <time>2023-09-17T07:49:09Z</time>
      </trkpt>
      <trkpt lat="46.54295" lon="0.32872">
        <ele>76.4</ele>
        <time>2023-09-17T07:49:10Z</time>
      </trkpt>
      <trkpt lat="46.54279" lon="0.32872">
        <ele>76.6</ele>
        <time>2023-09-17T07:49:13Z</time>
      </trkpt>
      <trkpt lat="46.54265" lon="0.32871">
        <ele>76.6</ele>
        <time>2023-09-17T07:49:15Z</time>
      </trkpt>
      <trkpt lat="46.54259" lon="0.3287">
        <ele>76.6</ele>
        <time>2023-09-17T07:49:16Z</time>
      </trkpt>
      <trkpt lat="46.54241" lon="0.32863">
        <ele>76</ele>
        <time>2023-09-17T07:49:20Z</time>
      </trkpt>
      <trkpt lat="46.54215" lon="0.32853">
        <ele>76.4</ele>
        <time>2023-09-17T07:49:26Z</time>
      </trkpt>
      <trkpt lat="46.54206" lon="0.32853">
        <ele>76.2</ele>
        <time>2023-09-17T07:49:28Z</time>
      </trkpt>
      <trkpt lat="46.54191" lon="0.32856">
        <ele>76.2</ele>
        <time>2023-09-17T07:49:31Z</time>
      </trkpt>
      <trkpt lat="46.54184" lon="0.32856">
        <ele>76.2</ele>
        <time>2023-09-17T07:49:32Z</time>
      </trkpt>
      <trkpt lat="46.54179" lon="0.32854">
        <ele>76.2</ele>
        <time>2023-09-17T07:49:33Z</time>
      </trkpt>
      <trkpt lat="46.54167" lon="0.32852">
        <ele>76.2</ele>
        <time>2023-09-17T07:49:35Z</time>
      </trkpt>
      <trkpt lat="46.54156" lon="0.32856">
        <ele>76.2</ele>
        <time>2023-09-17T07:49:37Z</time>
      </trkpt>
      <trkpt lat="46.54148" lon="0.32861">
        <ele>76</ele>
        <time>2023-09-17T07:49:39Z</time>
      </trkpt>
      <trkpt lat="46.54137" lon="0.32876">
        <ele>76.2</ele>
        <time>2023-09-17T07:49:42Z</time>
      </trkpt>
      <trkpt lat="46.54125" lon="0.32891">
        <ele>76.2</ele>
        <time>2023-09-17T07:49:45Z</time>
      </trkpt>
      <trkpt lat="46.54116" lon="0.32901">
        <ele>76.2</ele>
        <time>2023-09-17T07:49:47Z</time>
      </trkpt>
      <trkpt lat="46.54111" lon="0.32906">
        <ele>76.2</ele>
        <time>2023-09-17T07:49:48Z</time>
      </trkpt>
      <trkpt lat="46.54096" lon="0.32919">
        <ele>76.2</ele>
        <time>2023-09-17T07:49:51Z</time>
      </trkpt>
      <trkpt lat="46.54087" lon="0.32929">
        <ele>76.2</ele>
        <time>2023-09-17T07:49:53Z</time>
      </trkpt>
      <trkpt lat="46.54066" lon="0.32955">
        <ele>76.2</ele>
        <time>2023-09-17T07:49:58Z</time>
      </trkpt>
      <trkpt lat="46.54037" lon="0.32991">
        <ele>76.4</ele>
        <time>2023-09-17T07:50:04Z</time>
      </trkpt>
      <trkpt lat="46.54033" lon="0.32998">
        <ele>76.4</ele>
        <time>2023-09-17T07:50:05Z</time>
      </trkpt>
      <trkpt lat="46.54026" lon="0.3301">
        <ele>76.4</ele>
        <time>2023-09-17T07:50:07Z</time>
      </trkpt>
      <trkpt lat="46.54019" lon="0.33018">
        <ele>76.4</ele>
        <time>2023-09-17T07:50:09Z</time>
      </trkpt>
      <trkpt lat="46.54015" lon="0.33021">
        <ele>76.4</ele>
        <time>2023-09-17T07:50:10Z</time>
      </trkpt>
      <trkpt lat="46.54008" lon="0.33027">
        <ele>76.2</ele>
        <time>2023-09-17T07:50:12Z</time>
      </trkpt>
      <trkpt lat="46.53989" lon="0.33036">
        <ele>76</ele>
        <time>2023-09-17T07:50:16Z</time>
      </trkpt>
      <trkpt lat="46.5397" lon="0.33039">
        <ele>75.8</ele>
        <time>2023-09-17T07:50:19Z</time>
      </trkpt>
      <trkpt lat="46.53963" lon="0.33041">
        <ele>75.8</ele>
        <time>2023-09-17T07:50:20Z</time>
      </trkpt>
      <trkpt lat="46.53958" lon="0.33044">
        <ele>75.8</ele>
        <time>2023-09-17T07:50:21Z</time>
      </trkpt>
      <trkpt lat="46.53949" lon="0.33054">
        <ele>75.8</ele>
        <time>2023-09-17T07:50:23Z</time>
      </trkpt>
      <trkpt lat="46.53944" lon="0.33063">
        <ele>75.8</ele>
        <time>2023-09-17T07:50:25Z</time>
      </trkpt>
      <trkpt lat="46.5394" lon="0.33073">
        <ele>76.2</ele>
        <time>2023-09-17T07:50:27Z</time>
      </trkpt>
      <trkpt lat="46.53939" lon="0.33078">
        <ele>76.4</ele>
        <time>2023-09-17T07:50:28Z</time>
      </trkpt>
      <trkpt lat="46.53937" lon="0.33098">
        <ele>76.4</ele>
        <time>2023-09-17T07:50:32Z</time>
      </trkpt>
      <trkpt lat="46.53937" lon="0.33103">
        <ele>76.6</ele>
        <time>2023-09-17T07:50:33Z</time>
      </trkpt>
      <trkpt lat="46.53942" lon="0.33124">
        <ele>76.6</ele>
        <time>2023-09-17T07:50:37Z</time>
      </trkpt>
      <trkpt lat="46.53945" lon="0.33145">
        <ele>76.6</ele>
        <time>2023-09-17T07:50:40Z</time>
      </trkpt>
      <trkpt lat="46.53948" lon="0.33158">
        <ele>76.6</ele>
        <time>2023-09-17T07:50:42Z</time>
      </trkpt>
      <trkpt lat="46.53953" lon="0.33169">
        <ele>76.4</ele>
        <time>2023-09-17T07:50:44Z</time>
      </trkpt>
      <trkpt lat="46.53957" lon="0.3318">
        <ele>76.2</ele>
        <time>2023-09-17T07:50:46Z</time>
      </trkpt>
      <trkpt lat="46.5396" lon="0.33184">
        <ele>76.2</ele>
        <time>2023-09-17T07:50:47Z</time>
      </trkpt>
      <trkpt lat="46.53962" lon="0.33189">
        <ele>76.2</ele>
        <time>2023-09-17T07:50:48Z</time>
      </trkpt>
      <trkpt lat="46.53968" lon="0.33214">
        <ele>76.2</ele>
        <time>2023-09-17T07:50:52Z</time>
      </trkpt>
      <trkpt lat="46.53968" lon="0.33232">
        <ele>76.2</ele>
        <time>2023-09-17T07:50:53Z</time>
      </trkpt>
      <trkpt lat="46.53969" lon="0.33239">
        <ele>76.2</ele>
        <time>2023-09-17T07:50:55Z</time>
      </trkpt>
      <trkpt lat="46.53968" lon="0.33249">
        <ele>76.2</ele>
        <time>2023-09-17T07:50:56Z</time>
      </trkpt>
      <trkpt lat="46.53971" lon="0.33262">
        <ele>75.8</ele>
        <time>2023-09-17T07:50:58Z</time>
      </trkpt>
      <trkpt lat="46.53975" lon="0.33276">
        <ele>75.8</ele>
        <time>2023-09-17T07:51:00Z</time>
      </trkpt>
      <trkpt lat="46.53975" lon="0.3328">
        <ele>75.8</ele>
        <time>2023-09-17T07:51:01Z</time>
      </trkpt>
      <trkpt lat="46.53979" lon="0.33315">
        <ele>75.6</ele>
        <time>2023-09-17T07:51:06Z</time>
      </trkpt>
      <trkpt lat="46.53981" lon="0.33325">
        <ele>75.6</ele>
        <time>2023-09-17T07:51:07Z</time>
      </trkpt>
      <trkpt lat="46.53996" lon="0.33367">
        <ele>75.8</ele>
        <time>2023-09-17T07:51:12Z</time>
      </trkpt>
      <trkpt lat="46.54003" lon="0.3339">
        <ele>75.6</ele>
        <time>2023-09-17T07:51:15Z</time>
      </trkpt>
      <trkpt lat="46.54011" lon="0.33406">
        <ele>75.4</ele>
        <time>2023-09-17T07:51:17Z</time>
      </trkpt>
      <trkpt lat="46.54033" lon="0.3344">
        <ele>75.4</ele>
        <time>2023-09-17T07:51:22Z</time>
      </trkpt>
      <trkpt lat="46.54043" lon="0.3345">
        <ele>75.8</ele>
        <time>2023-09-17T07:51:24Z</time>
      </trkpt>
      <trkpt lat="46.54056" lon="0.33462">
        <ele>75.6</ele>
        <time>2023-09-17T07:51:27Z</time>
      </trkpt>
      <trkpt lat="46.5406" lon="0.33467">
        <ele>75.6</ele>
        <time>2023-09-17T07:51:28Z</time>
      </trkpt>
      <trkpt lat="46.54066" lon="0.33477">
        <ele>75.8</ele>
        <time>2023-09-17T07:51:30Z</time>
      </trkpt>
      <trkpt lat="46.54068" lon="0.33482">
        <ele>75.8</ele>
        <time>2023-09-17T07:51:31Z</time>
      </trkpt>
      <trkpt lat="46.54073" lon="0.33493">
        <ele>75.8</ele>
        <time>2023-09-17T07:51:33Z</time>
      </trkpt>
      <trkpt lat="46.54084" lon="0.33514">
        <ele>75.8</ele>
        <time>2023-09-17T07:51:37Z</time>
      </trkpt>
      <trkpt lat="46.54085" lon="0.33522">
        <ele>75.8</ele>
        <time>2023-09-17T07:51:38Z</time>
      </trkpt>
      <trkpt lat="46.5409" lon="0.33535">
        <ele>76</ele>
        <time>2023-09-17T07:51:40Z</time>
      </trkpt>
      <trkpt lat="46.54095" lon="0.33549">
        <ele>76.2</ele>
        <time>2023-09-17T07:51:42Z</time>
      </trkpt>
      <trkpt lat="46.54109" lon="0.33591">
        <ele>76.4</ele>
        <time>2023-09-17T07:51:49Z</time>
      </trkpt>
      <trkpt lat="46.54111" lon="0.33597">
        <ele>76.4</ele>
        <time>2023-09-17T07:51:50Z</time>
      </trkpt>
      <trkpt lat="46.54114" lon="0.33614">
        <ele>76.6</ele>
        <time>2023-09-17T07:51:52Z</time>
      </trkpt>
      <trkpt lat="46.54117" lon="0.33631">
        <ele>76.6</ele>
        <time>2023-09-17T07:51:54Z</time>
      </trkpt>
      <trkpt lat="46.54121" lon="0.3368">
        <ele>76.2</ele>
        <time>2023-09-17T07:52:00Z</time>
      </trkpt>
      <trkpt lat="46.54121" lon="0.33688">
        <ele>76.2</ele>
        <time>2023-09-17T07:52:01Z</time>
      </trkpt>
      <trkpt lat="46.54122" lon="0.33703">
        <ele>76</ele>
        <time>2023-09-17T07:52:03Z</time>
      </trkpt>
      <trkpt lat="46.54125" lon="0.33724">
        <ele>76</ele>
        <time>2023-09-17T07:52:05Z</time>
      </trkpt>
      <trkpt lat="46.54126" lon="0.33733">
        <ele>76</ele>
        <time>2023-09-17T07:52:06Z</time>
      </trkpt>
      <trkpt lat="46.5413" lon="0.33753">
        <ele>76.2</ele>
        <time>2023-09-17T07:52:08Z</time>
      </trkpt>
      <trkpt lat="46.54138" lon="0.33791">
        <ele>75.8</ele>
        <time>2023-09-17T07:52:12Z</time>
      </trkpt>
      <trkpt lat="46.54142" lon="0.33814">
        <ele>75.8</ele>
        <time>2023-09-17T07:52:15Z</time>
      </trkpt>
      <trkpt lat="46.54143" lon="0.33826">
        <ele>75.8</ele>
        <time>2023-09-17T07:52:17Z</time>
      </trkpt>
      <trkpt lat="46.54144" lon="0.33833">
        <ele>75.8</ele>
        <time>2023-09-17T07:52:18Z</time>
      </trkpt>
      <trkpt lat="46.54144" lon="0.33839">
        <ele>75.8</ele>
        <time>2023-09-17T07:52:19Z</time>
      </trkpt>
      <trkpt lat="46.54144" lon="0.33856">
        <ele>75.8</ele>
        <time>2023-09-17T07:52:21Z</time>
      </trkpt>
      <trkpt lat="46.54142" lon="0.33873">
        <ele>75.8</ele>
        <time>2023-09-17T07:52:23Z</time>
      </trkpt>
      <trkpt lat="46.54138" lon="0.33894">
        <ele>75.6</ele>
        <time>2023-09-17T07:52:25Z</time>
      </trkpt>
      <trkpt lat="46.54131" lon="0.33927">
        <ele>75.4</ele>
        <time>2023-09-17T07:52:28Z</time>
      </trkpt>
      <trkpt lat="46.5412" lon="0.33988">
        <ele>75.2</ele>
        <time>2023-09-17T07:52:33Z</time>
      </trkpt>
      <trkpt lat="46.54118" lon="0.33996">
        <ele>75.2</ele>
        <time>2023-09-17T07:52:34Z</time>
      </trkpt>
      <trkpt lat="46.54116" lon="0.34009">
        <ele>75.2</ele>
        <time>2023-09-17T07:52:36Z</time>
      </trkpt>
      <trkpt lat="46.54116" lon="0.34016">
        <ele>75</ele>
        <time>2023-09-17T07:52:37Z</time>
      </trkpt>
      <trkpt lat="46.54115" lon="0.34021">
        <ele>75</ele>
        <time>2023-09-17T07:52:38Z</time>
      </trkpt>
      <trkpt lat="46.54115" lon="0.34026">
        <ele>75</ele>
        <time>2023-09-17T07:52:39Z</time>
      </trkpt>
      <trkpt lat="46.54112" lon="0.34041">
        <ele>74.8</ele>
        <time>2023-09-17T07:52:42Z</time>
      </trkpt>
      <trkpt lat="46.54111" lon="0.34047">
        <ele>75</ele>
        <time>2023-09-17T07:52:43Z</time>
      </trkpt>
      <trkpt lat="46.5411" lon="0.34071">
        <ele>75.8</ele>
        <time>2023-09-17T07:52:46Z</time>
      </trkpt>
      <trkpt lat="46.54108" lon="0.34083">
        <ele>75.8</ele>
        <time>2023-09-17T07:52:48Z</time>
      </trkpt>
      <trkpt lat="46.54107" lon="0.34087">
        <ele>75.8</ele>
        <time>2023-09-17T07:52:49Z</time>
      </trkpt>
      <trkpt lat="46.54104" lon="0.34103">
        <ele>75.8</ele>
        <time>2023-09-17T07:52:51Z</time>
      </trkpt>
      <trkpt lat="46.54094" lon="0.34123">
        <ele>75.8</ele>
        <time>2023-09-17T07:52:54Z</time>
      </trkpt>
      <trkpt lat="46.54091" lon="0.34131">
        <ele>75.6</ele>
        <time>2023-09-17T07:52:55Z</time>
      </trkpt>
      <trkpt lat="46.54076" lon="0.34155">
        <ele>75.2</ele>
        <time>2023-09-17T07:52:59Z</time>
      </trkpt>
      <trkpt lat="46.54072" lon="0.34159">
        <ele>75</ele>
        <time>2023-09-17T07:53:00Z</time>
      </trkpt>
      <trkpt lat="46.54063" lon="0.34171">
        <ele>74.8</ele>
        <time>2023-09-17T07:53:02Z</time>
      </trkpt>
      <trkpt lat="46.54057" lon="0.34181">
        <ele>75</ele>
        <time>2023-09-17T07:53:04Z</time>
      </trkpt>
      <trkpt lat="46.54054" lon="0.34187">
        <ele>75</ele>
        <time>2023-09-17T07:53:05Z</time>
      </trkpt>
      <trkpt lat="46.54047" lon="0.34215">
        <ele>75.6</ele>
        <time>2023-09-17T07:53:09Z</time>
      </trkpt>
      <trkpt lat="46.54046" lon="0.34221">
        <ele>75.4</ele>
        <time>2023-09-17T07:53:10Z</time>
      </trkpt>
      <trkpt lat="46.54032" lon="0.34252">
        <ele>75.6</ele>
        <time>2023-09-17T07:53:15Z</time>
      </trkpt>
      <trkpt lat="46.54008" lon="0.34298">
        <ele>75.4</ele>
        <time>2023-09-17T07:53:22Z</time>
      </trkpt>
      <trkpt lat="46.53992" lon="0.34325">
        <ele>75.8</ele>
        <time>2023-09-17T07:53:27Z</time>
      </trkpt>
      <trkpt lat="46.53989" lon="0.34329">
        <ele>76.2</ele>
        <time>2023-09-17T07:53:28Z</time>
      </trkpt>
      <trkpt lat="46.53973" lon="0.34349">
        <ele>77.4</ele>
        <time>2023-09-17T07:53:33Z</time>
      </trkpt>
      <trkpt lat="46.53969" lon="0.34353">
        <ele>77.8</ele>
        <time>2023-09-17T07:53:34Z</time>
      </trkpt>
      <trkpt lat="46.53966" lon="0.34357">
        <ele>78</ele>
        <time>2023-09-17T07:53:35Z</time>
      </trkpt>
      <trkpt lat="46.53959" lon="0.34367">
        <ele>78.6</ele>
        <time>2023-09-17T07:53:37Z</time>
      </trkpt>
      <trkpt lat="46.53952" lon="0.34378">
        <ele>79.2</ele>
        <time>2023-09-17T07:53:39Z</time>
      </trkpt>
      <trkpt lat="46.53939" lon="0.34399">
        <ele>80</ele>
        <time>2023-09-17T07:53:43Z</time>
      </trkpt>
      <trkpt lat="46.53933" lon="0.34406">
        <ele>80.4</ele>
        <time>2023-09-17T07:53:45Z</time>
      </trkpt>
      <trkpt lat="46.53927" lon="0.34412">
        <ele>81</ele>
        <time>2023-09-17T07:53:46Z</time>
      </trkpt>
      <trkpt lat="46.53924" lon="0.34419">
        <ele>82.2</ele>
        <time>2023-09-17T07:53:49Z</time>
      </trkpt>
      <trkpt lat="46.53924" lon="0.34422">
        <ele>82.6</ele>
        <time>2023-09-17T07:53:50Z</time>
      </trkpt>
      <trkpt lat="46.53927" lon="0.34432">
        <ele>83.6</ele>
        <time>2023-09-17T07:53:53Z</time>
      </trkpt>
      <trkpt lat="46.53929" lon="0.3444">
        <ele>84.4</ele>
        <time>2023-09-17T07:53:56Z</time>
      </trkpt>
      <trkpt lat="46.5393" lon="0.34446">
        <ele>84.8</ele>
        <time>2023-09-17T07:53:58Z</time>
      </trkpt>
      <trkpt lat="46.53932" lon="0.34455">
        <ele>85.8</ele>
        <time>2023-09-17T07:54:03Z</time>
      </trkpt>
      <trkpt lat="46.53933" lon="0.34455">
        <ele>86.2</ele>
        <time>2023-09-17T07:54:04Z</time>
      </trkpt>
      <trkpt lat="46.53935" lon="0.34454">
        <ele>86.8</ele>
        <time>2023-09-17T07:54:06Z</time>
      </trkpt>
      <trkpt lat="46.53935" lon="0.34453">
        <ele>86.8</ele>
        <time>2023-09-17T07:54:07Z</time>
      </trkpt>
      <trkpt lat="46.53935" lon="0.34435">
        <ele>88.4</ele>
        <time>2023-09-17T07:54:14Z</time>
      </trkpt>
      <trkpt lat="46.53937" lon="0.34427">
        <ele>89.6</ele>
        <time>2023-09-17T07:54:18Z</time>
      </trkpt>
      <trkpt lat="46.53938" lon="0.34424">
        <ele>90</ele>
        <time>2023-09-17T07:54:20Z</time>
      </trkpt>
      <trkpt lat="46.53943" lon="0.3442">
        <ele>90.8</ele>
        <time>2023-09-17T07:54:24Z</time>
      </trkpt>
      <trkpt lat="46.53947" lon="0.34419">
        <ele>91.2</ele>
        <time>2023-09-17T07:54:26Z</time>
      </trkpt>
      <trkpt lat="46.5395" lon="0.34416">
        <ele>92</ele>
        <time>2023-09-17T07:54:29Z</time>
      </trkpt>
      <trkpt lat="46.53955" lon="0.34412">
        <ele>93.2</ele>
        <time>2023-09-17T07:54:33Z</time>
      </trkpt>
      <trkpt lat="46.53961" lon="0.34409">
        <ele>93.8</ele>
        <time>2023-09-17T07:54:36Z</time>
      </trkpt>
      <trkpt lat="46.53965" lon="0.34408">
        <ele>94.4</ele>
        <time>2023-09-17T07:54:38Z</time>
      </trkpt>
      <trkpt lat="46.53967" lon="0.34407">
        <ele>94.6</ele>
        <time>2023-09-17T07:54:39Z</time>
      </trkpt>
      <trkpt lat="46.53972" lon="0.34403">
        <ele>95.6</ele>
        <time>2023-09-17T07:54:42Z</time>
      </trkpt>
      <trkpt lat="46.53978" lon="0.34401">
        <ele>96</ele>
        <time>2023-09-17T07:54:45Z</time>
      </trkpt>
      <trkpt lat="46.53982" lon="0.34399">
        <ele>96.6</ele>
        <time>2023-09-17T07:54:48Z</time>
      </trkpt>
      <trkpt lat="46.53991" lon="0.34398">
        <ele>97.6</ele>
        <time>2023-09-17T07:54:52Z</time>
      </trkpt>
      <trkpt lat="46.54003" lon="0.34397">
        <ele>98.6</ele>
        <time>2023-09-17T07:54:56Z</time>
      </trkpt>
      <trkpt lat="46.54012" lon="0.34397">
        <ele>99</ele>
        <time>2023-09-17T07:54:58Z</time>
      </trkpt>
      <trkpt lat="46.54028" lon="0.34394">
        <ele>99.6</ele>
        <time>2023-09-17T07:55:04Z</time>
      </trkpt>
      <trkpt lat="46.54032" lon="0.34388">
        <ele>99.6</ele>
        <time>2023-09-17T07:55:06Z</time>
      </trkpt>
      <trkpt lat="46.54042" lon="0.34377">
        <ele>100</ele>
        <time>2023-09-17T07:55:10Z</time>
      </trkpt>
      <trkpt lat="46.54051" lon="0.34368">
        <ele>100.8</ele>
        <time>2023-09-17T07:55:15Z</time>
      </trkpt>
      <trkpt lat="46.54056" lon="0.34364">
        <ele>101.4</ele>
        <time>2023-09-17T07:55:18Z</time>
      </trkpt>
      <trkpt lat="46.54057" lon="0.34363">
        <ele>102</ele>
        <time>2023-09-17T07:55:19Z</time>
      </trkpt>
      <trkpt lat="46.54057" lon="0.34361">
        <ele>102.2</ele>
        <time>2023-09-17T07:55:20Z</time>
      </trkpt>
      <trkpt lat="46.54062" lon="0.3436">
        <ele>102.8</ele>
        <time>2023-09-17T07:55:24Z</time>
      </trkpt>
      <trkpt lat="46.54062" lon="0.34351">
        <ele>102.4</ele>
        <time>2023-09-17T07:55:36Z</time>
      </trkpt>
      <trkpt lat="46.54064" lon="0.34332">
        <ele>102</ele>
        <time>2023-09-17T07:55:42Z</time>
      </trkpt>
      <trkpt lat="46.54065" lon="0.34327">
        <ele>103</ele>
        <time>2023-09-17T07:55:45Z</time>
      </trkpt>
      <trkpt lat="46.54067" lon="0.34323">
        <ele>104</ele>
        <time>2023-09-17T07:55:47Z</time>
      </trkpt>
      <trkpt lat="46.5407" lon="0.34319">
        <ele>104.6</ele>
        <time>2023-09-17T07:55:49Z</time>
      </trkpt>
      <trkpt lat="46.54071" lon="0.34318">
        <ele>105.2</ele>
        <time>2023-09-17T07:55:50Z</time>
      </trkpt>
      <trkpt lat="46.54076" lon="0.34311">
        <ele>106.2</ele>
        <time>2023-09-17T07:55:54Z</time>
      </trkpt>
      <trkpt lat="46.54077" lon="0.3431">
        <ele>106.4</ele>
        <time>2023-09-17T07:55:55Z</time>
      </trkpt>
      <trkpt lat="46.54078" lon="0.34308">
        <ele>106.6</ele>
        <time>2023-09-17T07:55:56Z</time>
      </trkpt>
      <trkpt lat="46.54081" lon="0.34303">
        <ele>107.4</ele>
        <time>2023-09-17T07:55:58Z</time>
      </trkpt>
      <trkpt lat="46.54082" lon="0.34297">
        <ele>108.4</ele>
        <time>2023-09-17T07:56:00Z</time>
      </trkpt>
      <trkpt lat="46.54084" lon="0.34294">
        <ele>108.8</ele>
        <time>2023-09-17T07:56:01Z</time>
      </trkpt>
      <trkpt lat="46.54089" lon="0.34282">
        <ele>109.4</ele>
        <time>2023-09-17T07:56:06Z</time>
      </trkpt>
      <trkpt lat="46.5409" lon="0.34281">
        <ele>109.6</ele>
        <time>2023-09-17T07:56:07Z</time>
      </trkpt>
      <trkpt lat="46.54091" lon="0.3428">
        <ele>109.8</ele>
        <time>2023-09-17T07:56:08Z</time>
      </trkpt>
      <trkpt lat="46.54094" lon="0.34272">
        <ele>110.8</ele>
        <time>2023-09-17T07:56:12Z</time>
      </trkpt>
      <trkpt lat="46.54095" lon="0.34266">
        <ele>111.2</ele>
        <time>2023-09-17T07:56:15Z</time>
      </trkpt>
      <trkpt lat="46.54097" lon="0.3426">
        <ele>111.8</ele>
        <time>2023-09-17T07:56:17Z</time>
      </trkpt>
      <trkpt lat="46.54104" lon="0.34248">
        <ele>113</ele>
        <time>2023-09-17T07:56:21Z</time>
      </trkpt>
      <trkpt lat="46.54105" lon="0.34245">
        <ele>113</ele>
        <time>2023-09-17T07:56:22Z</time>
      </trkpt>
      <trkpt lat="46.54117" lon="0.34223">
        <ele>113</ele>
        <time>2023-09-17T07:56:27Z</time>
      </trkpt>
      <trkpt lat="46.54122" lon="0.34209">
        <ele>112.4</ele>
        <time>2023-09-17T07:56:29Z</time>
      </trkpt>
      <trkpt lat="46.54126" lon="0.34193">
        <ele>112.4</ele>
        <time>2023-09-17T07:56:32Z</time>
      </trkpt>
      <trkpt lat="46.54131" lon="0.34173">
        <ele>112.6</ele>
        <time>2023-09-17T07:56:37Z</time>
      </trkpt>
      <trkpt lat="46.54139" lon="0.34153">
        <ele>114</ele>
        <time>2023-09-17T07:56:42Z</time>
      </trkpt>
      <trkpt lat="46.5414" lon="0.3415">
        <ele>114.6</ele>
        <time>2023-09-17T07:56:43Z</time>
      </trkpt>
      <trkpt lat="46.54145" lon="0.34138">
        <ele>115.2</ele>
        <time>2023-09-17T07:56:47Z</time>
      </trkpt>
      <trkpt lat="46.54149" lon="0.3413">
        <ele>115</ele>
        <time>2023-09-17T07:56:49Z</time>
      </trkpt>
      <trkpt lat="46.54157" lon="0.34111">
        <ele>114.8</ele>
        <time>2023-09-17T07:56:54Z</time>
      </trkpt>
      <trkpt lat="46.54168" lon="0.34088">
        <ele>114.2</ele>
        <time>2023-09-17T07:56:59Z</time>
      </trkpt>
      <trkpt lat="46.54168" lon="0.34082">
        <ele>114.2</ele>
        <time>2023-09-17T07:57:00Z</time>
      </trkpt>
      <trkpt lat="46.5417" lon="0.34077">
        <ele>114</ele>
        <time>2023-09-17T07:57:01Z</time>
      </trkpt>
      <trkpt lat="46.54173" lon="0.34062">
        <ele>113.8</ele>
        <time>2023-09-17T07:57:04Z</time>
      </trkpt>
      <trkpt lat="46.54175" lon="0.3406">
        <ele>114</ele>
        <time>2023-09-17T07:57:05Z</time>
      </trkpt>
      <trkpt lat="46.54176" lon="0.34056">
        <ele>114</ele>
        <time>2023-09-17T07:57:06Z</time>
      </trkpt>
      <trkpt lat="46.5418" lon="0.34044">
        <ele>114</ele>
        <time>2023-09-17T07:57:09Z</time>
      </trkpt>
      <trkpt lat="46.54182" lon="0.34024">
        <ele>114.2</ele>
        <time>2023-09-17T07:57:13Z</time>
      </trkpt>
      <trkpt lat="46.54183" lon="0.34009">
        <ele>114</ele>
        <time>2023-09-17T07:57:16Z</time>
      </trkpt>
      <trkpt lat="46.54184" lon="0.34004">
        <ele>114</ele>
        <time>2023-09-17T07:57:17Z</time>
      </trkpt>
      <trkpt lat="46.54185" lon="0.33998">
        <ele>114</ele>
        <time>2023-09-17T07:57:18Z</time>
      </trkpt>
      <trkpt lat="46.54188" lon="0.33978">
        <ele>114.4</ele>
        <time>2023-09-17T07:57:22Z</time>
      </trkpt>
      <trkpt lat="46.54195" lon="0.33964">
        <ele>114.6</ele>
        <time>2023-09-17T07:57:28Z</time>
      </trkpt>
      <trkpt lat="46.54202" lon="0.33952">
        <ele>114.4</ele>
        <time>2023-09-17T07:57:33Z</time>
      </trkpt>
      <trkpt lat="46.54202" lon="0.3395">
        <ele>114.2</ele>
        <time>2023-09-17T07:57:34Z</time>
      </trkpt>
      <trkpt lat="46.542" lon="0.33949">
        <ele>114.4</ele>
        <time>2023-09-17T07:57:36Z</time>
      </trkpt>
      <trkpt lat="46.54197" lon="0.33952">
        <ele>114.4</ele>
        <time>2023-09-17T07:57:38Z</time>
      </trkpt>
      <trkpt lat="46.54196" lon="0.33963">
        <ele>114.6</ele>
        <time>2023-09-17T07:57:42Z</time>
      </trkpt>
      <trkpt lat="46.54191" lon="0.3398">
        <ele>114.2</ele>
        <time>2023-09-17T07:57:48Z</time>
      </trkpt>
      <trkpt lat="46.54189" lon="0.33988">
        <ele>114</ele>
        <time>2023-09-17T07:57:50Z</time>
      </trkpt>
      <trkpt lat="46.54192" lon="0.33995">
        <ele>113.8</ele>
        <time>2023-09-17T07:57:52Z</time>
      </trkpt>
      <trkpt lat="46.54194" lon="0.34004">
        <ele>113.8</ele>
        <time>2023-09-17T07:57:56Z</time>
      </trkpt>
      <trkpt lat="46.54194" lon="0.34007">
        <ele>113.8</ele>
        <time>2023-09-17T07:57:57Z</time>
      </trkpt>
      <trkpt lat="46.54198" lon="0.34031">
        <ele>114.6</ele>
        <time>2023-09-17T07:58:05Z</time>
      </trkpt>
      <trkpt lat="46.54201" lon="0.34041">
        <ele>115.2</ele>
        <time>2023-09-17T07:58:08Z</time>
      </trkpt>
      <trkpt lat="46.54203" lon="0.34054">
        <ele>115.8</ele>
        <time>2023-09-17T07:58:11Z</time>
      </trkpt>
      <trkpt lat="46.54204" lon="0.34057">
        <ele>116.4</ele>
        <time>2023-09-17T07:58:12Z</time>
      </trkpt>
      <trkpt lat="46.54206" lon="0.34061">
        <ele>116.6</ele>
        <time>2023-09-17T07:58:13Z</time>
      </trkpt>
      <trkpt lat="46.54211" lon="0.34067">
        <ele>117</ele>
        <time>2023-09-17T07:58:16Z</time>
      </trkpt>
      <trkpt lat="46.54214" lon="0.34073">
        <ele>117</ele>
        <time>2023-09-17T07:58:18Z</time>
      </trkpt>
      <trkpt lat="46.54216" lon="0.34083">
        <ele>116.8</ele>
        <time>2023-09-17T07:58:21Z</time>
      </trkpt>
      <trkpt lat="46.54228" lon="0.34101">
        <ele>117.4</ele>
        <time>2023-09-17T07:58:26Z</time>
      </trkpt>
      <trkpt lat="46.54233" lon="0.34111">
        <ele>117.4</ele>
        <time>2023-09-17T07:58:28Z</time>
      </trkpt>
      <trkpt lat="46.54233" lon="0.3412">
        <ele>117.4</ele>
        <time>2023-09-17T07:58:30Z</time>
      </trkpt>
      <trkpt lat="46.54234" lon="0.3414">
        <ele>117.2</ele>
        <time>2023-09-17T07:58:35Z</time>
      </trkpt>
      <trkpt lat="46.54234" lon="0.34149">
        <ele>117.6</ele>
        <time>2023-09-17T07:58:38Z</time>
      </trkpt>
      <trkpt lat="46.54235" lon="0.34154">
        <ele>117.6</ele>
        <time>2023-09-17T07:58:40Z</time>
      </trkpt>
      <trkpt lat="46.54245" lon="0.34166">
        <ele>116.8</ele>
        <time>2023-09-17T07:58:45Z</time>
      </trkpt>
      <trkpt lat="46.54249" lon="0.34171">
        <ele>116.8</ele>
        <time>2023-09-17T07:58:47Z</time>
      </trkpt>
      <trkpt lat="46.54254" lon="0.34183">
        <ele>117</ele>
        <time>2023-09-17T07:58:50Z</time>
      </trkpt>
      <trkpt lat="46.54262" lon="0.34203">
        <ele>117</ele>
        <time>2023-09-17T07:58:55Z</time>
      </trkpt>
      <trkpt lat="46.54268" lon="0.34226">
        <ele>117.4</ele>
        <time>2023-09-17T07:59:01Z</time>
      </trkpt>
      <trkpt lat="46.54269" lon="0.34232">
        <ele>117.8</ele>
        <time>2023-09-17T07:59:03Z</time>
      </trkpt>
      <trkpt lat="46.54271" lon="0.34243">
        <ele>117.8</ele>
        <time>2023-09-17T07:59:06Z</time>
      </trkpt>
      <trkpt lat="46.54273" lon="0.34247">
        <ele>117.8</ele>
        <time>2023-09-17T07:59:07Z</time>
      </trkpt>
      <trkpt lat="46.54279" lon="0.34259">
        <ele>117.8</ele>
        <time>2023-09-17T07:59:10Z</time>
      </trkpt>
      <trkpt lat="46.54295" lon="0.34279">
        <ele>117.6</ele>
        <time>2023-09-17T07:59:16Z</time>
      </trkpt>
      <trkpt lat="46.54316" lon="0.34286">
        <ele>117</ele>
        <time>2023-09-17T07:59:21Z</time>
      </trkpt>
      <trkpt lat="46.54329" lon="0.34295">
        <ele>116.6</ele>
        <time>2023-09-17T07:59:24Z</time>
      </trkpt>
      <trkpt lat="46.54333" lon="0.343">
        <ele>116.6</ele>
        <time>2023-09-17T07:59:25Z</time>
      </trkpt>
      <trkpt lat="46.54336" lon="0.34306">
        <ele>116.6</ele>
        <time>2023-09-17T07:59:26Z</time>
      </trkpt>
      <trkpt lat="46.54347" lon="0.34331">
        <ele>116.4</ele>
        <time>2023-09-17T07:59:30Z</time>
      </trkpt>
      <trkpt lat="46.5435" lon="0.34337">
        <ele>116.4</ele>
        <time>2023-09-17T07:59:31Z</time>
      </trkpt>
      <trkpt lat="46.54353" lon="0.34344">
        <ele>116.4</ele>
        <time>2023-09-17T07:59:32Z</time>
      </trkpt>
      <trkpt lat="46.54364" lon="0.3437">
        <ele>116.4</ele>
        <time>2023-09-17T07:59:36Z</time>
      </trkpt>
      <trkpt lat="46.54382" lon="0.34414">
        <ele>116.6</ele>
        <time>2023-09-17T07:59:42Z</time>
      </trkpt>
      <trkpt lat="46.54409" lon="0.34482">
        <ele>117</ele>
        <time>2023-09-17T07:59:51Z</time>
      </trkpt>
      <trkpt lat="46.54411" lon="0.34498">
        <ele>116.8</ele>
        <time>2023-09-17T07:59:53Z</time>
      </trkpt>
      <trkpt lat="46.54409" lon="0.34511">
        <ele>116.8</ele>
        <time>2023-09-17T07:59:55Z</time>
      </trkpt>
      <trkpt lat="46.54405" lon="0.34521">
        <ele>117.2</ele>
        <time>2023-09-17T07:59:57Z</time>
      </trkpt>
      <trkpt lat="46.54399" lon="0.34527">
        <ele>117.4</ele>
        <time>2023-09-17T07:59:59Z</time>
      </trkpt>
      <trkpt lat="46.5439" lon="0.34539">
        <ele>118</ele>
        <time>2023-09-17T08:00:02Z</time>
      </trkpt>
      <trkpt lat="46.54389" lon="0.34543">
        <ele>117.8</ele>
        <time>2023-09-17T08:00:03Z</time>
      </trkpt>
      <trkpt lat="46.54389" lon="0.34548">
        <ele>117.8</ele>
        <time>2023-09-17T08:00:04Z</time>
      </trkpt>
      <trkpt lat="46.5439" lon="0.34557">
        <ele>118</ele>
        <time>2023-09-17T08:00:06Z</time>
      </trkpt>
      <trkpt lat="46.54387" lon="0.34573">
        <ele>118.2</ele>
        <time>2023-09-17T08:00:10Z</time>
      </trkpt>
      <trkpt lat="46.5438" lon="0.34581">
        <ele>118.4</ele>
        <time>2023-09-17T08:00:13Z</time>
      </trkpt>
      <trkpt lat="46.54378" lon="0.34583">
        <ele>118.4</ele>
        <time>2023-09-17T08:00:14Z</time>
      </trkpt>
      <trkpt lat="46.54375" lon="0.34584">
        <ele>118.2</ele>
        <time>2023-09-17T08:00:15Z</time>
      </trkpt>
      <trkpt lat="46.54371" lon="0.34588">
        <ele>118</ele>
        <time>2023-09-17T08:00:17Z</time>
      </trkpt>
      <trkpt lat="46.5437" lon="0.34591">
        <ele>118</ele>
        <time>2023-09-17T08:00:18Z</time>
      </trkpt>
      <trkpt lat="46.54369" lon="0.34594">
        <ele>118</ele>
        <time>2023-09-17T08:00:19Z</time>
      </trkpt>
      <trkpt lat="46.54366" lon="0.346">
        <ele>117.8</ele>
        <time>2023-09-17T08:00:21Z</time>
      </trkpt>
      <trkpt lat="46.54363" lon="0.34602">
        <ele>117.8</ele>
        <time>2023-09-17T08:00:22Z</time>
      </trkpt>
      <trkpt lat="46.54349" lon="0.34616">
        <ele>117.8</ele>
        <time>2023-09-17T08:00:27Z</time>
      </trkpt>
      <trkpt lat="46.54343" lon="0.34623">
        <ele>117.6</ele>
        <time>2023-09-17T08:00:29Z</time>
      </trkpt>
      <trkpt lat="46.54335" lon="0.34634">
        <ele>117</ele>
        <time>2023-09-17T08:00:31Z</time>
      </trkpt>
      <trkpt lat="46.5433" lon="0.34639">
        <ele>117</ele>
        <time>2023-09-17T08:00:32Z</time>
      </trkpt>
      <trkpt lat="46.54326" lon="0.34647">
        <ele>117</ele>
        <time>2023-09-17T08:00:34Z</time>
      </trkpt>
      <trkpt lat="46.54323" lon="0.3465">
        <ele>117</ele>
        <time>2023-09-17T08:00:35Z</time>
      </trkpt>
      <trkpt lat="46.54312" lon="0.3466">
        <ele>117.2</ele>
        <time>2023-09-17T08:00:38Z</time>
      </trkpt>
      <trkpt lat="46.5431" lon="0.34662">
        <ele>117.6</ele>
        <time>2023-09-17T08:00:39Z</time>
      </trkpt>
      <trkpt lat="46.54307" lon="0.34664">
        <ele>117.8</ele>
        <time>2023-09-17T08:00:40Z</time>
      </trkpt>
      <trkpt lat="46.54294" lon="0.34671">
        <ele>117.8</ele>
        <time>2023-09-17T08:00:43Z</time>
      </trkpt>
      <trkpt lat="46.54287" lon="0.3468">
        <ele>117.6</ele>
        <time>2023-09-17T08:00:45Z</time>
      </trkpt>
      <trkpt lat="46.54285" lon="0.34683">
        <ele>117.6</ele>
        <time>2023-09-17T08:00:46Z</time>
      </trkpt>
      <trkpt lat="46.54284" lon="0.34688">
        <ele>117.6</ele>
        <time>2023-09-17T08:00:47Z</time>
      </trkpt>
      <trkpt lat="46.54278" lon="0.34707">
        <ele>118</ele>
        <time>2023-09-17T08:00:51Z</time>
      </trkpt>
      <trkpt lat="46.54278" lon="0.34712">
        <ele>117.8</ele>
        <time>2023-09-17T08:00:52Z</time>
      </trkpt>
      <trkpt lat="46.54278" lon="0.34719">
        <ele>117.8</ele>
        <time>2023-09-17T08:00:54Z</time>
      </trkpt>
      <trkpt lat="46.54276" lon="0.34723">
        <ele>118</ele>
        <time>2023-09-17T08:00:56Z</time>
      </trkpt>
      <trkpt lat="46.54273" lon="0.34731">
        <ele>118.2</ele>
        <time>2023-09-17T08:00:59Z</time>
      </trkpt>
      <trkpt lat="46.54272" lon="0.34741">
        <ele>118.2</ele>
        <time>2023-09-17T08:01:01Z</time>
      </trkpt>
      <trkpt lat="46.54271" lon="0.34751">
        <ele>118.2</ele>
        <time>2023-09-17T08:01:03Z</time>
      </trkpt>
      <trkpt lat="46.54271" lon="0.3476">
        <ele>118.6</ele>
        <time>2023-09-17T08:01:05Z</time>
      </trkpt>
      <trkpt lat="46.54269" lon="0.34768">
        <ele>118.4</ele>
        <time>2023-09-17T08:01:07Z</time>
      </trkpt>
      <trkpt lat="46.54265" lon="0.34779">
        <ele>118.4</ele>
        <time>2023-09-17T08:01:10Z</time>
      </trkpt>
      <trkpt lat="46.54263" lon="0.34787">
        <ele>118.4</ele>
        <time>2023-09-17T08:01:12Z</time>
      </trkpt>
      <trkpt lat="46.54263" lon="0.34796">
        <ele>118.4</ele>
        <time>2023-09-17T08:01:14Z</time>
      </trkpt>
      <trkpt lat="46.54267" lon="0.34813">
        <ele>118.4</ele>
        <time>2023-09-17T08:01:17Z</time>
      </trkpt>
      <trkpt lat="46.54275" lon="0.34837">
        <ele>118.4</ele>
        <time>2023-09-17T08:01:20Z</time>
      </trkpt>
      <trkpt lat="46.54277" lon="0.34842">
        <ele>118.4</ele>
        <time>2023-09-17T08:01:21Z</time>
      </trkpt>
      <trkpt lat="46.54278" lon="0.34847">
        <ele>118.2</ele>
        <time>2023-09-17T08:01:22Z</time>
      </trkpt>
      <trkpt lat="46.54283" lon="0.3486">
        <ele>118</ele>
        <time>2023-09-17T08:01:25Z</time>
      </trkpt>
      <trkpt lat="46.54284" lon="0.34864">
        <ele>118</ele>
        <time>2023-09-17T08:01:26Z</time>
      </trkpt>
      <trkpt lat="46.54286" lon="0.3487">
        <ele>118</ele>
        <time>2023-09-17T08:01:27Z</time>
      </trkpt>
      <trkpt lat="46.54291" lon="0.34881">
        <ele>117.8</ele>
        <time>2023-09-17T08:01:29Z</time>
      </trkpt>
      <trkpt lat="46.54295" lon="0.3489">
        <ele>118</ele>
        <time>2023-09-17T08:01:30Z</time>
      </trkpt>
      <trkpt lat="46.54297" lon="0.34897">
        <ele>117.8</ele>
        <time>2023-09-17T08:01:31Z</time>
      </trkpt>
      <trkpt lat="46.54299" lon="0.3491">
        <ele>117.6</ele>
        <time>2023-09-17T08:01:33Z</time>
      </trkpt>
      <trkpt lat="46.543" lon="0.34914">
        <ele>117.4</ele>
        <time>2023-09-17T08:01:34Z</time>
      </trkpt>
      <trkpt lat="46.54302" lon="0.34918">
        <ele>117.4</ele>
        <time>2023-09-17T08:01:35Z</time>
      </trkpt>
      <trkpt lat="46.54311" lon="0.34931">
        <ele>117</ele>
        <time>2023-09-17T08:01:39Z</time>
      </trkpt>
      <trkpt lat="46.54316" lon="0.34934">
        <ele>117.2</ele>
        <time>2023-09-17T08:01:41Z</time>
      </trkpt>
      <trkpt lat="46.54322" lon="0.34937">
        <ele>117.4</ele>
        <time>2023-09-17T08:01:43Z</time>
      </trkpt>
      <trkpt lat="46.54328" lon="0.34939">
        <ele>117.6</ele>
        <time>2023-09-17T08:01:45Z</time>
      </trkpt>
      <trkpt lat="46.54333" lon="0.34941">
        <ele>118</ele>
        <time>2023-09-17T08:01:47Z</time>
      </trkpt>
      <trkpt lat="46.54338" lon="0.34946">
        <ele>118</ele>
        <time>2023-09-17T08:01:49Z</time>
      </trkpt>
      <trkpt lat="46.54348" lon="0.34954">
        <ele>117.8</ele>
        <time>2023-09-17T08:01:54Z</time>
      </trkpt>
      <trkpt lat="46.54358" lon="0.34962">
        <ele>118.6</ele>
        <time>2023-09-17T08:01:58Z</time>
      </trkpt>
      <trkpt lat="46.54363" lon="0.34962">
        <ele>118.8</ele>
        <time>2023-09-17T08:02:00Z</time>
      </trkpt>
      <trkpt lat="46.5437" lon="0.34951">
        <ele>119.2</ele>
        <time>2023-09-17T08:02:05Z</time>
      </trkpt>
      <trkpt lat="46.54379" lon="0.34944">
        <ele>118.8</ele>
        <time>2023-09-17T08:02:10Z</time>
      </trkpt>
      <trkpt lat="46.54381" lon="0.34945">
        <ele>118.6</ele>
        <time>2023-09-17T08:02:11Z</time>
      </trkpt>
      <trkpt lat="46.5439" lon="0.34935">
        <ele>118.4</ele>
        <time>2023-09-17T08:02:17Z</time>
      </trkpt>
      <trkpt lat="46.54401" lon="0.34917">
        <ele>118.4</ele>
        <time>2023-09-17T08:02:23Z</time>
      </trkpt>
      <trkpt lat="46.54405" lon="0.34914">
        <ele>118.4</ele>
        <time>2023-09-17T08:02:25Z</time>
      </trkpt>
      <trkpt lat="46.5441" lon="0.34913">
        <ele>118.4</ele>
        <time>2023-09-17T08:02:27Z</time>
      </trkpt>
      <trkpt lat="46.54427" lon="0.34914">
        <ele>118.8</ele>
        <time>2023-09-17T08:02:34Z</time>
      </trkpt>
      <trkpt lat="46.54431" lon="0.34916">
        <ele>118.4</ele>
        <time>2023-09-17T08:02:36Z</time>
      </trkpt>
      <trkpt lat="46.54437" lon="0.34922">
        <ele>118.8</ele>
        <time>2023-09-17T08:02:39Z</time>
      </trkpt>
      <trkpt lat="46.54453" lon="0.34933">
        <ele>119</ele>
        <time>2023-09-17T08:02:45Z</time>
      </trkpt>
      <trkpt lat="46.54466" lon="0.34953">
        <ele>119.2</ele>
        <time>2023-09-17T08:02:50Z</time>
      </trkpt>
      <trkpt lat="46.54469" lon="0.34961">
        <ele>119.2</ele>
        <time>2023-09-17T08:02:52Z</time>
      </trkpt>
      <trkpt lat="46.54478" lon="0.34973">
        <ele>119.2</ele>
        <time>2023-09-17T08:02:55Z</time>
      </trkpt>
      <trkpt lat="46.54481" lon="0.34978">
        <ele>119.2</ele>
        <time>2023-09-17T08:02:56Z</time>
      </trkpt>
      <trkpt lat="46.54507" lon="0.35005">
        <ele>119.4</ele>
        <time>2023-09-17T08:03:02Z</time>
      </trkpt>
      <trkpt lat="46.54518" lon="0.35017">
        <ele>119.4</ele>
        <time>2023-09-17T08:03:04Z</time>
      </trkpt>
      <trkpt lat="46.54529" lon="0.35024">
        <ele>119.4</ele>
        <time>2023-09-17T08:03:06Z</time>
      </trkpt>
      <trkpt lat="46.54569" lon="0.35041">
        <ele>119.2</ele>
        <time>2023-09-17T08:03:12Z</time>
      </trkpt>
      <trkpt lat="46.54575" lon="0.35044">
        <ele>119.2</ele>
        <time>2023-09-17T08:03:13Z</time>
      </trkpt>
      <trkpt lat="46.54585" lon="0.35049">
        <ele>119</ele>
        <time>2023-09-17T08:03:15Z</time>
      </trkpt>
      <trkpt lat="46.5459" lon="0.35052">
        <ele>118.8</ele>
        <time>2023-09-17T08:03:16Z</time>
      </trkpt>
      <trkpt lat="46.54599" lon="0.35067">
        <ele>118.2</ele>
        <time>2023-09-17T08:03:20Z</time>
      </trkpt>
      <trkpt lat="46.54608" lon="0.35075">
        <ele>117.6</ele>
        <time>2023-09-17T08:03:23Z</time>
      </trkpt>
      <trkpt lat="46.54614" lon="0.3508">
        <ele>117.4</ele>
        <time>2023-09-17T08:03:25Z</time>
      </trkpt>
      <trkpt lat="46.54618" lon="0.35086">
        <ele>117.2</ele>
        <time>2023-09-17T08:03:27Z</time>
      </trkpt>
      <trkpt lat="46.5462" lon="0.35092">
        <ele>116.6</ele>
        <time>2023-09-17T08:03:29Z</time>
      </trkpt>
      <trkpt lat="46.54618" lon="0.35119">
        <ele>115.6</ele>
        <time>2023-09-17T08:03:35Z</time>
      </trkpt>
      <trkpt lat="46.54615" lon="0.35137">
        <ele>115.2</ele>
        <time>2023-09-17T08:03:38Z</time>
      </trkpt>
      <trkpt lat="46.54613" lon="0.35155">
        <ele>113.8</ele>
        <time>2023-09-17T08:03:41Z</time>
      </trkpt>
      <trkpt lat="46.5461" lon="0.35163">
        <ele>113.2</ele>
        <time>2023-09-17T08:03:43Z</time>
      </trkpt>
      <trkpt lat="46.54604" lon="0.35174">
        <ele>113</ele>
        <time>2023-09-17T08:03:45Z</time>
      </trkpt>
      <trkpt lat="46.54594" lon="0.35193">
        <ele>113.8</ele>
        <time>2023-09-17T08:03:50Z</time>
      </trkpt>
      <trkpt lat="46.54587" lon="0.35198">
        <ele>114</ele>
        <time>2023-09-17T08:03:52Z</time>
      </trkpt>
      <trkpt lat="46.54575" lon="0.35211">
        <ele>115.2</ele>
        <time>2023-09-17T08:03:55Z</time>
      </trkpt>
      <trkpt lat="46.54568" lon="0.35216">
        <ele>115.4</ele>
        <time>2023-09-17T08:03:57Z</time>
      </trkpt>
      <trkpt lat="46.54556" lon="0.35221">
        <ele>115.6</ele>
        <time>2023-09-17T08:04:00Z</time>
      </trkpt>
      <trkpt lat="46.54551" lon="0.35225">
        <ele>115.8</ele>
        <time>2023-09-17T08:04:02Z</time>
      </trkpt>
      <trkpt lat="46.54547" lon="0.35229">
        <ele>116</ele>
        <time>2023-09-17T08:04:04Z</time>
      </trkpt>
      <trkpt lat="46.54545" lon="0.35232">
        <ele>116</ele>
        <time>2023-09-17T08:04:05Z</time>
      </trkpt>
      <trkpt lat="46.54539" lon="0.3524">
        <ele>116.4</ele>
        <time>2023-09-17T08:04:07Z</time>
      </trkpt>
      <trkpt lat="46.54533" lon="0.35245">
        <ele>116.6</ele>
        <time>2023-09-17T08:04:09Z</time>
      </trkpt>
      <trkpt lat="46.54515" lon="0.35255">
        <ele>117</ele>
        <time>2023-09-17T08:04:14Z</time>
      </trkpt>
      <trkpt lat="46.54508" lon="0.35254">
        <ele>117.2</ele>
        <time>2023-09-17T08:04:17Z</time>
      </trkpt>
      <trkpt lat="46.54506" lon="0.35252">
        <ele>117.2</ele>
        <time>2023-09-17T08:04:18Z</time>
      </trkpt>
      <trkpt lat="46.545" lon="0.35249">
        <ele>117.4</ele>
        <time>2023-09-17T08:04:20Z</time>
      </trkpt>
      <trkpt lat="46.54491" lon="0.35243">
        <ele>118</ele>
        <time>2023-09-17T08:04:23Z</time>
      </trkpt>
      <trkpt lat="46.54478" lon="0.35234">
        <ele>118.2</ele>
        <time>2023-09-17T08:04:28Z</time>
      </trkpt>
      <trkpt lat="46.54474" lon="0.3523">
        <ele>118.6</ele>
        <time>2023-09-17T08:04:30Z</time>
      </trkpt>
      <trkpt lat="46.54465" lon="0.35224">
        <ele>118.4</ele>
        <time>2023-09-17T08:04:33Z</time>
      </trkpt>
      <trkpt lat="46.54445" lon="0.35208">
        <ele>118.8</ele>
        <time>2023-09-17T08:04:38Z</time>
      </trkpt>
      <trkpt lat="46.54432" lon="0.35205">
        <ele>119.4</ele>
        <time>2023-09-17T08:04:42Z</time>
      </trkpt>
      <trkpt lat="46.54423" lon="0.35204">
        <ele>119.6</ele>
        <time>2023-09-17T08:04:45Z</time>
      </trkpt>
      <trkpt lat="46.54416" lon="0.35202">
        <ele>120</ele>
        <time>2023-09-17T08:04:47Z</time>
      </trkpt>
      <trkpt lat="46.54411" lon="0.35203">
        <ele>120</ele>
        <time>2023-09-17T08:04:49Z</time>
      </trkpt>
      <trkpt lat="46.54407" lon="0.35206">
        <ele>120.2</ele>
        <time>2023-09-17T08:04:51Z</time>
      </trkpt>
      <trkpt lat="46.54403" lon="0.35208">
        <ele>120.4</ele>
        <time>2023-09-17T08:04:53Z</time>
      </trkpt>
      <trkpt lat="46.54389" lon="0.35206">
        <ele>120.6</ele>
        <time>2023-09-17T08:04:57Z</time>
      </trkpt>
      <trkpt lat="46.54385" lon="0.35206">
        <ele>120.8</ele>
        <time>2023-09-17T08:04:58Z</time>
      </trkpt>
      <trkpt lat="46.54382" lon="0.35208">
        <ele>120.8</ele>
        <time>2023-09-17T08:04:59Z</time>
      </trkpt>
      <trkpt lat="46.54374" lon="0.35212">
        <ele>120.8</ele>
        <time>2023-09-17T08:05:01Z</time>
      </trkpt>
      <trkpt lat="46.54364" lon="0.35214">
        <ele>120.8</ele>
        <time>2023-09-17T08:05:03Z</time>
      </trkpt>
      <trkpt lat="46.5436" lon="0.35214">
        <ele>120.6</ele>
        <time>2023-09-17T08:05:04Z</time>
      </trkpt>
      <trkpt lat="46.54352" lon="0.35214">
        <ele>120.6</ele>
        <time>2023-09-17T08:05:06Z</time>
      </trkpt>
      <trkpt lat="46.54343" lon="0.35214">
        <ele>120.8</ele>
        <time>2023-09-17T08:05:08Z</time>
      </trkpt>
      <trkpt lat="46.54338" lon="0.35215">
        <ele>120.8</ele>
        <time>2023-09-17T08:05:09Z</time>
      </trkpt>
      <trkpt lat="46.54333" lon="0.35215">
        <ele>120.8</ele>
        <time>2023-09-17T08:05:10Z</time>
      </trkpt>
      <trkpt lat="46.5432" lon="0.35222">
        <ele>120.8</ele>
        <time>2023-09-17T08:05:13Z</time>
      </trkpt>
      <trkpt lat="46.5431" lon="0.35223">
        <ele>120.8</ele>
        <time>2023-09-17T08:05:15Z</time>
      </trkpt>
      <trkpt lat="46.54299" lon="0.35221">
        <ele>120.6</ele>
        <time>2023-09-17T08:05:17Z</time>
      </trkpt>
      <trkpt lat="46.54294" lon="0.3522">
        <ele>120.6</ele>
        <time>2023-09-17T08:05:18Z</time>
      </trkpt>
      <trkpt lat="46.54288" lon="0.35224">
        <ele>120.4</ele>
        <time>2023-09-17T08:05:20Z</time>
      </trkpt>
      <trkpt lat="46.54279" lon="0.35234">
        <ele>120.4</ele>
        <time>2023-09-17T08:05:23Z</time>
      </trkpt>
      <trkpt lat="46.5427" lon="0.35246">
        <ele>120.4</ele>
        <time>2023-09-17T08:05:26Z</time>
      </trkpt>
      <trkpt lat="46.54261" lon="0.35254">
        <ele>120.4</ele>
        <time>2023-09-17T08:05:29Z</time>
      </trkpt>
      <trkpt lat="46.54246" lon="0.35267">
        <ele>120.6</ele>
        <time>2023-09-17T08:05:33Z</time>
      </trkpt>
      <trkpt lat="46.5423" lon="0.35283">
        <ele>120.4</ele>
        <time>2023-09-17T08:05:38Z</time>
      </trkpt>
      <trkpt lat="46.54227" lon="0.35285">
        <ele>120.2</ele>
        <time>2023-09-17T08:05:39Z</time>
      </trkpt>
      <trkpt lat="46.5422" lon="0.35291">
        <ele>120</ele>
        <time>2023-09-17T08:05:41Z</time>
      </trkpt>
      <trkpt lat="46.5421" lon="0.35302">
        <ele>119.8</ele>
        <time>2023-09-17T08:05:43Z</time>
      </trkpt>
      <trkpt lat="46.54203" lon="0.35309">
        <ele>119.6</ele>
        <time>2023-09-17T08:05:44Z</time>
      </trkpt>
      <trkpt lat="46.54183" lon="0.35325">
        <ele>119.4</ele>
        <time>2023-09-17T08:05:47Z</time>
      </trkpt>
      <trkpt lat="46.54173" lon="0.35335">
        <ele>119.4</ele>
        <time>2023-09-17T08:05:49Z</time>
      </trkpt>
      <trkpt lat="46.54168" lon="0.35342">
        <ele>119.4</ele>
        <time>2023-09-17T08:05:50Z</time>
      </trkpt>
      <trkpt lat="46.54166" lon="0.35345">
        <ele>119.4</ele>
        <time>2023-09-17T08:05:51Z</time>
      </trkpt>
      <trkpt lat="46.54161" lon="0.35353">
        <ele>119.4</ele>
        <time>2023-09-17T08:05:53Z</time>
      </trkpt>
      <trkpt lat="46.54156" lon="0.35364">
        <ele>119.4</ele>
        <time>2023-09-17T08:05:56Z</time>
      </trkpt>
      <trkpt lat="46.54158" lon="0.35372">
        <ele>119.4</ele>
        <time>2023-09-17T08:05:58Z</time>
      </trkpt>
      <trkpt lat="46.5416" lon="0.35374">
        <ele>119.4</ele>
        <time>2023-09-17T08:05:59Z</time>
      </trkpt>
      <trkpt lat="46.54167" lon="0.35375">
        <ele>119.4</ele>
        <time>2023-09-17T08:06:01Z</time>
      </trkpt>
      <trkpt lat="46.54188" lon="0.3537">
        <ele>119.4</ele>
        <time>2023-09-17T08:06:06Z</time>
      </trkpt>
      <trkpt lat="46.54193" lon="0.35368">
        <ele>119.4</ele>
        <time>2023-09-17T08:06:07Z</time>
      </trkpt>
      <trkpt lat="46.54198" lon="0.35367">
        <ele>119.6</ele>
        <time>2023-09-17T08:06:08Z</time>
      </trkpt>
      <trkpt lat="46.54208" lon="0.35366">
        <ele>120.2</ele>
        <time>2023-09-17T08:06:10Z</time>
      </trkpt>
      <trkpt lat="46.54217" lon="0.35366">
        <ele>120.4</ele>
        <time>2023-09-17T08:06:12Z</time>
      </trkpt>
      <trkpt lat="46.5423" lon="0.35368">
        <ele>120.8</ele>
        <time>2023-09-17T08:06:15Z</time>
      </trkpt>
      <trkpt lat="46.54252" lon="0.35372">
        <ele>121.2</ele>
        <time>2023-09-17T08:06:20Z</time>
      </trkpt>
      <trkpt lat="46.5427" lon="0.35377">
        <ele>121.8</ele>
        <time>2023-09-17T08:06:24Z</time>
      </trkpt>
      <trkpt lat="46.54274" lon="0.35378">
        <ele>121.8</ele>
        <time>2023-09-17T08:06:25Z</time>
      </trkpt>
      <trkpt lat="46.54278" lon="0.35378">
        <ele>121.8</ele>
        <time>2023-09-17T08:06:26Z</time>
      </trkpt>
      <trkpt lat="46.54287" lon="0.3538">
        <ele>121.6</ele>
        <time>2023-09-17T08:06:28Z</time>
      </trkpt>
      <trkpt lat="46.54291" lon="0.35381">
        <ele>121.6</ele>
        <time>2023-09-17T08:06:29Z</time>
      </trkpt>
      <trkpt lat="46.54321" lon="0.3539">
        <ele>121.4</ele>
        <time>2023-09-17T08:06:35Z</time>
      </trkpt>
      <trkpt lat="46.54323" lon="0.35392">
        <ele>121.2</ele>
        <time>2023-09-17T08:06:36Z</time>
      </trkpt>
      <trkpt lat="46.54323" lon="0.35396">
        <ele>121</ele>
        <time>2023-09-17T08:06:37Z</time>
      </trkpt>
      <trkpt lat="46.54326" lon="0.35403">
        <ele>120.8</ele>
        <time>2023-09-17T08:06:39Z</time>
      </trkpt>
      <trkpt lat="46.54328" lon="0.35406">
        <ele>120.6</ele>
        <time>2023-09-17T08:06:40Z</time>
      </trkpt>
      <trkpt lat="46.54332" lon="0.35416">
        <ele>120.4</ele>
        <time>2023-09-17T08:06:44Z</time>
      </trkpt>
      <trkpt lat="46.54343" lon="0.35426">
        <ele>120</ele>
        <time>2023-09-17T08:06:48Z</time>
      </trkpt>
      <trkpt lat="46.54347" lon="0.35429">
        <ele>120.2</ele>
        <time>2023-09-17T08:06:49Z</time>
      </trkpt>
      <trkpt lat="46.54356" lon="0.35433">
        <ele>120</ele>
        <time>2023-09-17T08:06:51Z</time>
      </trkpt>
      <trkpt lat="46.54359" lon="0.35436">
        <ele>120</ele>
        <time>2023-09-17T08:06:52Z</time>
      </trkpt>
      <trkpt lat="46.54363" lon="0.35439">
        <ele>119.8</ele>
        <time>2023-09-17T08:06:53Z</time>
      </trkpt>
      <trkpt lat="46.54368" lon="0.35443">
        <ele>119.6</ele>
        <time>2023-09-17T08:06:55Z</time>
      </trkpt>
      <trkpt lat="46.5437" lon="0.35445">
        <ele>119.6</ele>
        <time>2023-09-17T08:06:56Z</time>
      </trkpt>
      <trkpt lat="46.54372" lon="0.35449">
        <ele>119.6</ele>
        <time>2023-09-17T08:06:57Z</time>
      </trkpt>
      <trkpt lat="46.5438" lon="0.35454">
        <ele>119.4</ele>
        <time>2023-09-17T08:07:00Z</time>
      </trkpt>
      <trkpt lat="46.54382" lon="0.35456">
        <ele>119.2</ele>
        <time>2023-09-17T08:07:01Z</time>
      </trkpt>
      <trkpt lat="46.5439" lon="0.3546">
        <ele>119</ele>
        <time>2023-09-17T08:07:04Z</time>
      </trkpt>
      <trkpt lat="46.544" lon="0.35464">
        <ele>118.6</ele>
        <time>2023-09-17T08:07:07Z</time>
      </trkpt>
      <trkpt lat="46.54404" lon="0.35465">
        <ele>118.4</ele>
        <time>2023-09-17T08:07:08Z</time>
      </trkpt>
      <trkpt lat="46.54411" lon="0.35463">
        <ele>118</ele>
        <time>2023-09-17T08:07:10Z</time>
      </trkpt>
      <trkpt lat="46.54416" lon="0.3546">
        <ele>117.6</ele>
        <time>2023-09-17T08:07:12Z</time>
      </trkpt>
      <trkpt lat="46.54419" lon="0.35456">
        <ele>117.4</ele>
        <time>2023-09-17T08:07:13Z</time>
      </trkpt>
      <trkpt lat="46.54422" lon="0.35453">
        <ele>117.2</ele>
        <time>2023-09-17T08:07:15Z</time>
      </trkpt>
      <trkpt lat="46.54425" lon="0.35453">
        <ele>116.8</ele>
        <time>2023-09-17T08:07:16Z</time>
      </trkpt>
      <trkpt lat="46.54431" lon="0.35455">
        <ele>116.6</ele>
        <time>2023-09-17T08:07:18Z</time>
      </trkpt>
      <trkpt lat="46.54441" lon="0.3546">
        <ele>116.4</ele>
        <time>2023-09-17T08:07:20Z</time>
      </trkpt>
      <trkpt lat="46.54444" lon="0.35463">
        <ele>116.2</ele>
        <time>2023-09-17T08:07:21Z</time>
      </trkpt>
      <trkpt lat="46.54456" lon="0.35475">
        <ele>116.2</ele>
        <time>2023-09-17T08:07:25Z</time>
      </trkpt>
      <trkpt lat="46.54468" lon="0.35482">
        <ele>115.6</ele>
        <time>2023-09-17T08:07:29Z</time>
      </trkpt>
      <trkpt lat="46.5447" lon="0.35482">
        <ele>115.2</ele>
        <time>2023-09-17T08:07:30Z</time>
      </trkpt>
      <trkpt lat="46.54474" lon="0.35481">
        <ele>114.4</ele>
        <time>2023-09-17T08:07:32Z</time>
      </trkpt>
      <trkpt lat="46.54479" lon="0.35475">
        <ele>114.2</ele>
        <time>2023-09-17T08:07:34Z</time>
      </trkpt>
      <trkpt lat="46.54486" lon="0.35469">
        <ele>114</ele>
        <time>2023-09-17T08:07:35Z</time>
      </trkpt>
      <trkpt lat="46.54486" lon="0.35466">
        <ele>113.8</ele>
        <time>2023-09-17T08:07:36Z</time>
      </trkpt>
      <trkpt lat="46.5449" lon="0.35464">
        <ele>113.2</ele>
        <time>2023-09-17T08:07:39Z</time>
      </trkpt>
      <trkpt lat="46.54491" lon="0.35464">
        <ele>113</ele>
        <time>2023-09-17T08:07:40Z</time>
      </trkpt>
      <trkpt lat="46.54499" lon="0.35464">
        <ele>113</ele>
        <time>2023-09-17T08:07:46Z</time>
      </trkpt>
      <trkpt lat="46.545" lon="0.35463">
        <ele>113</ele>
        <time>2023-09-17T08:07:47Z</time>
      </trkpt>
      <trkpt lat="46.54503" lon="0.35457">
        <ele>112</ele>
        <time>2023-09-17T08:07:50Z</time>
      </trkpt>
      <trkpt lat="46.54506" lon="0.35449">
        <ele>111.2</ele>
        <time>2023-09-17T08:07:52Z</time>
      </trkpt>
      <trkpt lat="46.54507" lon="0.35446">
        <ele>110.8</ele>
        <time>2023-09-17T08:07:53Z</time>
      </trkpt>
      <trkpt lat="46.54509" lon="0.35443">
        <ele>110.2</ele>
        <time>2023-09-17T08:07:54Z</time>
      </trkpt>
      <trkpt lat="46.54512" lon="0.35442">
        <ele>109.6</ele>
        <time>2023-09-17T08:07:56Z</time>
      </trkpt>
      <trkpt lat="46.54521" lon="0.35443">
        <ele>108.4</ele>
        <time>2023-09-17T08:07:59Z</time>
      </trkpt>
      <trkpt lat="46.54529" lon="0.35445">
        <ele>107.2</ele>
        <time>2023-09-17T08:08:02Z</time>
      </trkpt>
      <trkpt lat="46.5454" lon="0.35451">
        <ele>105.8</ele>
        <time>2023-09-17T08:08:05Z</time>
      </trkpt>
      <trkpt lat="46.54548" lon="0.35453">
        <ele>104.2</ele>
        <time>2023-09-17T08:08:07Z</time>
      </trkpt>
      <trkpt lat="46.54558" lon="0.35456">
        <ele>102.6</ele>
        <time>2023-09-17T08:08:09Z</time>
      </trkpt>
      <trkpt lat="46.54564" lon="0.35458">
        <ele>101.8</ele>
        <time>2023-09-17T08:08:10Z</time>
      </trkpt>
      <trkpt lat="46.54569" lon="0.3546">
        <ele>100.8</ele>
        <time>2023-09-17T08:08:11Z</time>
      </trkpt>
      <trkpt lat="46.54574" lon="0.35462">
        <ele>99.4</ele>
        <time>2023-09-17T08:08:12Z</time>
      </trkpt>
      <trkpt lat="46.54578" lon="0.35464">
        <ele>98</ele>
        <time>2023-09-17T08:08:13Z</time>
      </trkpt>
      <trkpt lat="46.54582" lon="0.35467">
        <ele>97.2</ele>
        <time>2023-09-17T08:08:14Z</time>
      </trkpt>
      <trkpt lat="46.54586" lon="0.35469">
        <ele>96.6</ele>
        <time>2023-09-17T08:08:15Z</time>
      </trkpt>
      <trkpt lat="46.54597" lon="0.3548">
        <ele>94.6</ele>
        <time>2023-09-17T08:08:18Z</time>
      </trkpt>
      <trkpt lat="46.54599" lon="0.35482">
        <ele>94.2</ele>
        <time>2023-09-17T08:08:19Z</time>
      </trkpt>
      <trkpt lat="46.54608" lon="0.35487">
        <ele>93.6</ele>
        <time>2023-09-17T08:08:22Z</time>
      </trkpt>
      <trkpt lat="46.54615" lon="0.3549">
        <ele>93.4</ele>
        <time>2023-09-17T08:08:24Z</time>
      </trkpt>
      <trkpt lat="46.54622" lon="0.35495">
        <ele>93.2</ele>
        <time>2023-09-17T08:08:26Z</time>
      </trkpt>
      <trkpt lat="46.54629" lon="0.35501">
        <ele>93.2</ele>
        <time>2023-09-17T08:08:28Z</time>
      </trkpt>
      <trkpt lat="46.54636" lon="0.35507">
        <ele>92.4</ele>
        <time>2023-09-17T08:08:30Z</time>
      </trkpt>
      <trkpt lat="46.54642" lon="0.35512">
        <ele>91.6</ele>
        <time>2023-09-17T08:08:32Z</time>
      </trkpt>
      <trkpt lat="46.54644" lon="0.35517">
        <ele>91.6</ele>
        <time>2023-09-17T08:08:34Z</time>
      </trkpt>
      <trkpt lat="46.54646" lon="0.3552">
        <ele>91.4</ele>
        <time>2023-09-17T08:08:35Z</time>
      </trkpt>
      <trkpt lat="46.54648" lon="0.35523">
        <ele>91.4</ele>
        <time>2023-09-17T08:08:36Z</time>
      </trkpt>
      <trkpt lat="46.5465" lon="0.35531">
        <ele>92.4</ele>
        <time>2023-09-17T08:08:40Z</time>
      </trkpt>
      <trkpt lat="46.54654" lon="0.35537">
        <ele>92.8</ele>
        <time>2023-09-17T08:08:42Z</time>
      </trkpt>
      <trkpt lat="46.54662" lon="0.35551">
        <ele>93.4</ele>
        <time>2023-09-17T08:08:46Z</time>
      </trkpt>
      <trkpt lat="46.54667" lon="0.35564">
        <ele>93.6</ele>
        <time>2023-09-17T08:08:49Z</time>
      </trkpt>
      <trkpt lat="46.54678" lon="0.35587">
        <ele>94.2</ele>
        <time>2023-09-17T08:08:55Z</time>
      </trkpt>
      <trkpt lat="46.54686" lon="0.35604">
        <ele>94.4</ele>
        <time>2023-09-17T08:09:00Z</time>
      </trkpt>
      <trkpt lat="46.54687" lon="0.35609">
        <ele>94.8</ele>
        <time>2023-09-17T08:09:02Z</time>
      </trkpt>
      <trkpt lat="46.54684" lon="0.35617">
        <ele>95.8</ele>
        <time>2023-09-17T08:09:06Z</time>
      </trkpt>
      <trkpt lat="46.5468" lon="0.35626">
        <ele>97</ele>
        <time>2023-09-17T08:09:09Z</time>
      </trkpt>
      <trkpt lat="46.54677" lon="0.35633">
        <ele>98</ele>
        <time>2023-09-17T08:09:12Z</time>
      </trkpt>
      <trkpt lat="46.54674" lon="0.35641">
        <ele>99.2</ele>
        <time>2023-09-17T08:09:16Z</time>
      </trkpt>
      <trkpt lat="46.54674" lon="0.35644">
        <ele>100.2</ele>
        <time>2023-09-17T08:09:18Z</time>
      </trkpt>
      <trkpt lat="46.54669" lon="0.3565">
        <ele>101.4</ele>
        <time>2023-09-17T08:09:22Z</time>
      </trkpt>
      <trkpt lat="46.54667" lon="0.35656">
        <ele>102.4</ele>
        <time>2023-09-17T08:09:25Z</time>
      </trkpt>
      <trkpt lat="46.54663" lon="0.35663">
        <ele>103.4</ele>
        <time>2023-09-17T08:09:28Z</time>
      </trkpt>
      <trkpt lat="46.54658" lon="0.35668">
        <ele>104.6</ele>
        <time>2023-09-17T08:09:31Z</time>
      </trkpt>
      <trkpt lat="46.54656" lon="0.3567">
        <ele>104.6</ele>
        <time>2023-09-17T08:09:32Z</time>
      </trkpt>
      <trkpt lat="46.54654" lon="0.35678">
        <ele>105.2</ele>
        <time>2023-09-17T08:09:36Z</time>
      </trkpt>
      <trkpt lat="46.54654" lon="0.3568">
        <ele>105.6</ele>
        <time>2023-09-17T08:09:37Z</time>
      </trkpt>
      <trkpt lat="46.54654" lon="0.35683">
        <ele>105.8</ele>
        <time>2023-09-17T08:09:38Z</time>
      </trkpt>
      <trkpt lat="46.54667" lon="0.35702">
        <ele>105.6</ele>
        <time>2023-09-17T08:09:44Z</time>
      </trkpt>
      <trkpt lat="46.54682" lon="0.35726">
        <ele>104.8</ele>
        <time>2023-09-17T08:09:49Z</time>
      </trkpt>
      <trkpt lat="46.54685" lon="0.35732">
        <ele>104.8</ele>
        <time>2023-09-17T08:09:50Z</time>
      </trkpt>
      <trkpt lat="46.54692" lon="0.35745">
        <ele>104.4</ele>
        <time>2023-09-17T08:09:52Z</time>
      </trkpt>
      <trkpt lat="46.54702" lon="0.35767">
        <ele>104</ele>
        <time>2023-09-17T08:09:56Z</time>
      </trkpt>
      <trkpt lat="46.54702" lon="0.35771">
        <ele>104.6</ele>
        <time>2023-09-17T08:09:57Z</time>
      </trkpt>
      <trkpt lat="46.54705" lon="0.35785">
        <ele>105.4</ele>
        <time>2023-09-17T08:10:01Z</time>
      </trkpt>
      <trkpt lat="46.54711" lon="0.3581">
        <ele>105.8</ele>
        <time>2023-09-17T08:10:06Z</time>
      </trkpt>
      <trkpt lat="46.54717" lon="0.35845">
        <ele>104</ele>
        <time>2023-09-17T08:10:10Z</time>
      </trkpt>
      <trkpt lat="46.5472" lon="0.35854">
        <ele>103</ele>
        <time>2023-09-17T08:10:11Z</time>
      </trkpt>
      <trkpt lat="46.54727" lon="0.35873">
        <ele>101.2</ele>
        <time>2023-09-17T08:10:13Z</time>
      </trkpt>
      <trkpt lat="46.54734" lon="0.3589">
        <ele>100.2</ele>
        <time>2023-09-17T08:10:15Z</time>
      </trkpt>
      <trkpt lat="46.54742" lon="0.35907">
        <ele>99.6</ele>
        <time>2023-09-17T08:10:17Z</time>
      </trkpt>
      <trkpt lat="46.54753" lon="0.35926">
        <ele>99</ele>
        <time>2023-09-17T08:10:20Z</time>
      </trkpt>
      <trkpt lat="46.54755" lon="0.35929">
        <ele>98.6</ele>
        <time>2023-09-17T08:10:21Z</time>
      </trkpt>
      <trkpt lat="46.54757" lon="0.35931">
        <ele>98</ele>
        <time>2023-09-17T08:10:23Z</time>
      </trkpt>
      <trkpt lat="46.54761" lon="0.35932">
        <ele>96.6</ele>
        <time>2023-09-17T08:10:25Z</time>
      </trkpt>
      <trkpt lat="46.54761" lon="0.35932">
        <ele>96</ele>
        <time>2023-09-17T08:10:26Z</time>
      </trkpt>
      <trkpt lat="46.54762" lon="0.35932">
        <ele>95.2</ele>
        <time>2023-09-17T08:10:28Z</time>
      </trkpt>
      <trkpt lat="46.54763" lon="0.35933">
        <ele>94</ele>
        <time>2023-09-17T08:10:30Z</time>
      </trkpt>
      <trkpt lat="46.54765" lon="0.35933">
        <ele>92.6</ele>
        <time>2023-09-17T08:10:33Z</time>
      </trkpt>
      <trkpt lat="46.54766" lon="0.35933">
        <ele>92</ele>
        <time>2023-09-17T08:10:34Z</time>
      </trkpt>
      <trkpt lat="46.54767" lon="0.35931">
        <ele>91.4</ele>
        <time>2023-09-17T08:10:36Z</time>
      </trkpt>
      <trkpt lat="46.54768" lon="0.3593">
        <ele>90.4</ele>
        <time>2023-09-17T08:10:37Z</time>
      </trkpt>
      <trkpt lat="46.54769" lon="0.35929">
        <ele>89.2</ele>
        <time>2023-09-17T08:10:38Z</time>
      </trkpt>
      <trkpt lat="46.5477" lon="0.35928">
        <ele>88.2</ele>
        <time>2023-09-17T08:10:39Z</time>
      </trkpt>
      <trkpt lat="46.54771" lon="0.35925">
        <ele>86.8</ele>
        <time>2023-09-17T08:10:41Z</time>
      </trkpt>
      <trkpt lat="46.54773" lon="0.35923">
        <ele>85.2</ele>
        <time>2023-09-17T08:10:43Z</time>
      </trkpt>
      <trkpt lat="46.54774" lon="0.35922">
        <ele>84.8</ele>
        <time>2023-09-17T08:10:44Z</time>
      </trkpt>
      <trkpt lat="46.54776" lon="0.3592">
        <ele>83.6</ele>
        <time>2023-09-17T08:10:46Z</time>
      </trkpt>
      <trkpt lat="46.54779" lon="0.3592">
        <ele>82</ele>
        <time>2023-09-17T08:10:48Z</time>
      </trkpt>
      <trkpt lat="46.5478" lon="0.35921">
        <ele>81.6</ele>
        <time>2023-09-17T08:10:49Z</time>
      </trkpt>
      <trkpt lat="46.54786" lon="0.35926">
        <ele>81</ele>
        <time>2023-09-17T08:10:53Z</time>
      </trkpt>
      <trkpt lat="46.54789" lon="0.35928">
        <ele>81</ele>
        <time>2023-09-17T08:10:55Z</time>
      </trkpt>
      <trkpt lat="46.54791" lon="0.35932">
        <ele>81</ele>
        <time>2023-09-17T08:10:57Z</time>
      </trkpt>
      <trkpt lat="46.54797" lon="0.35944">
        <ele>82.2</ele>
        <time>2023-09-17T08:11:03Z</time>
      </trkpt>
      <trkpt lat="46.54798" lon="0.35945">
        <ele>82.2</ele>
        <time>2023-09-17T08:11:04Z</time>
      </trkpt>
      <trkpt lat="46.54803" lon="0.35954">
        <ele>83.2</ele>
        <time>2023-09-17T08:11:09Z</time>
      </trkpt>
      <trkpt lat="46.54805" lon="0.35957">
        <ele>83.4</ele>
        <time>2023-09-17T08:11:11Z</time>
      </trkpt>
      <trkpt lat="46.54806" lon="0.35959">
        <ele>83.8</ele>
        <time>2023-09-17T08:11:12Z</time>
      </trkpt>
      <trkpt lat="46.5481" lon="0.35963">
        <ele>84.4</ele>
        <time>2023-09-17T08:11:14Z</time>
      </trkpt>
      <trkpt lat="46.54812" lon="0.35967">
        <ele>84.8</ele>
        <time>2023-09-17T08:11:16Z</time>
      </trkpt>
      <trkpt lat="46.54813" lon="0.3597">
        <ele>85.4</ele>
        <time>2023-09-17T08:11:18Z</time>
      </trkpt>
      <trkpt lat="46.54814" lon="0.35973">
        <ele>86.2</ele>
        <time>2023-09-17T08:11:20Z</time>
      </trkpt>
      <trkpt lat="46.54814" lon="0.35974">
        <ele>86.8</ele>
        <time>2023-09-17T08:11:21Z</time>
      </trkpt>
      <trkpt lat="46.54814" lon="0.35974">
        <ele>87</ele>
        <time>2023-09-17T08:11:22Z</time>
      </trkpt>
      <trkpt lat="46.54813" lon="0.35975">
        <ele>87.6</ele>
        <time>2023-09-17T08:11:24Z</time>
      </trkpt>
      <trkpt lat="46.54813" lon="0.35976">
        <ele>88</ele>
        <time>2023-09-17T08:11:26Z</time>
      </trkpt>
      <trkpt lat="46.54812" lon="0.35975">
        <ele>88.4</ele>
        <time>2023-09-17T08:11:29Z</time>
      </trkpt>
      <trkpt lat="46.5481" lon="0.35974">
        <ele>88.6</ele>
        <time>2023-09-17T08:11:33Z</time>
      </trkpt>
      <trkpt lat="46.5481" lon="0.35974">
        <ele>89</ele>
        <time>2023-09-17T08:11:35Z</time>
      </trkpt>
      <trkpt lat="46.54808" lon="0.35975">
        <ele>89.4</ele>
        <time>2023-09-17T08:11:36Z</time>
      </trkpt>
      <trkpt lat="46.54807" lon="0.35974">
        <ele>90</ele>
        <time>2023-09-17T08:11:37Z</time>
      </trkpt>
      <trkpt lat="46.54804" lon="0.35973">
        <ele>90.4</ele>
        <time>2023-09-17T08:11:39Z</time>
      </trkpt>
      <trkpt lat="46.54801" lon="0.35972">
        <ele>90.6</ele>
        <time>2023-09-17T08:11:42Z</time>
      </trkpt>
      <trkpt lat="46.54796" lon="0.35971">
        <ele>91.4</ele>
        <time>2023-09-17T08:11:46Z</time>
      </trkpt>
      <trkpt lat="46.54794" lon="0.3597">
        <ele>92.8</ele>
        <time>2023-09-17T08:11:48Z</time>
      </trkpt>
      <trkpt lat="46.54793" lon="0.3597">
        <ele>93</ele>
        <time>2023-09-17T08:11:49Z</time>
      </trkpt>
      <trkpt lat="46.54787" lon="0.35969">
        <ele>93.6</ele>
        <time>2023-09-17T08:11:55Z</time>
      </trkpt>
      <trkpt lat="46.54786" lon="0.35969">
        <ele>93.8</ele>
        <time>2023-09-17T08:11:56Z</time>
      </trkpt>
      <trkpt lat="46.54784" lon="0.3597">
        <ele>94</ele>
        <time>2023-09-17T08:11:58Z</time>
      </trkpt>
      <trkpt lat="46.54781" lon="0.3597">
        <ele>95.2</ele>
        <time>2023-09-17T08:12:01Z</time>
      </trkpt>
      <trkpt lat="46.54779" lon="0.35971">
        <ele>95.8</ele>
        <time>2023-09-17T08:12:03Z</time>
      </trkpt>
      <trkpt lat="46.54777" lon="0.35971">
        <ele>96.6</ele>
        <time>2023-09-17T08:12:05Z</time>
      </trkpt>
      <trkpt lat="46.54777" lon="0.35973">
        <ele>96.8</ele>
        <time>2023-09-17T08:12:07Z</time>
      </trkpt>
      <trkpt lat="46.54777" lon="0.35975">
        <ele>97</ele>
        <time>2023-09-17T08:12:08Z</time>
      </trkpt>
      <trkpt lat="46.54778" lon="0.35979">
        <ele>97</ele>
        <time>2023-09-17T08:12:10Z</time>
      </trkpt>
      <trkpt lat="46.54779" lon="0.35995">
        <ele>97.6</ele>
        <time>2023-09-17T08:12:16Z</time>
      </trkpt>
      <trkpt lat="46.54783" lon="0.36012">
        <ele>97.6</ele>
        <time>2023-09-17T08:12:22Z</time>
      </trkpt>
      <trkpt lat="46.54792" lon="0.36029">
        <ele>98.4</ele>
        <time>2023-09-17T08:12:28Z</time>
      </trkpt>
      <trkpt lat="46.54796" lon="0.36036">
        <ele>98.6</ele>
        <time>2023-09-17T08:12:30Z</time>
      </trkpt>
      <trkpt lat="46.54807" lon="0.36051">
        <ele>99</ele>
        <time>2023-09-17T08:12:34Z</time>
      </trkpt>
      <trkpt lat="46.54821" lon="0.36066">
        <ele>99</ele>
        <time>2023-09-17T08:12:39Z</time>
      </trkpt>
      <trkpt lat="46.5483" lon="0.36075">
        <ele>98.8</ele>
        <time>2023-09-17T08:12:42Z</time>
      </trkpt>
      <trkpt lat="46.54838" lon="0.36085">
        <ele>98.2</ele>
        <time>2023-09-17T08:12:45Z</time>
      </trkpt>
      <trkpt lat="46.54844" lon="0.3609">
        <ele>97.4</ele>
        <time>2023-09-17T08:12:47Z</time>
      </trkpt>
      <trkpt lat="46.54857" lon="0.36105">
        <ele>97</ele>
        <time>2023-09-17T08:12:50Z</time>
      </trkpt>
      <trkpt lat="46.54868" lon="0.36115">
        <ele>96.8</ele>
        <time>2023-09-17T08:12:52Z</time>
      </trkpt>
      <trkpt lat="46.54885" lon="0.36131">
        <ele>96.4</ele>
        <time>2023-09-17T08:12:55Z</time>
      </trkpt>
      <trkpt lat="46.549" lon="0.36145">
        <ele>95.2</ele>
        <time>2023-09-17T08:12:58Z</time>
      </trkpt>
      <trkpt lat="46.54911" lon="0.36157">
        <ele>94</ele>
        <time>2023-09-17T08:13:00Z</time>
      </trkpt>
      <trkpt lat="46.54922" lon="0.3617">
        <ele>92.4</ele>
        <time>2023-09-17T08:13:02Z</time>
      </trkpt>
      <trkpt lat="46.54947" lon="0.36197">
        <ele>91</ele>
        <time>2023-09-17T08:13:06Z</time>
      </trkpt>
      <trkpt lat="46.54952" lon="0.36201">
        <ele>90.4</ele>
        <time>2023-09-17T08:13:07Z</time>
      </trkpt>
      <trkpt lat="46.54962" lon="0.3621">
        <ele>90</ele>
        <time>2023-09-17T08:13:09Z</time>
      </trkpt>
      <trkpt lat="46.54966" lon="0.36214">
        <ele>89.8</ele>
        <time>2023-09-17T08:13:10Z</time>
      </trkpt>
      <trkpt lat="46.5497" lon="0.36218">
        <ele>89.8</ele>
        <time>2023-09-17T08:13:11Z</time>
      </trkpt>
      <trkpt lat="46.54985" lon="0.36238">
        <ele>88.8</ele>
        <time>2023-09-17T08:13:15Z</time>
      </trkpt>
      <trkpt lat="46.54995" lon="0.36248">
        <ele>87.2</ele>
        <time>2023-09-17T08:13:17Z</time>
      </trkpt>
      <trkpt lat="46.55008" lon="0.3626">
        <ele>86.6</ele>
        <time>2023-09-17T08:13:19Z</time>
      </trkpt>
      <trkpt lat="46.55015" lon="0.36265">
        <ele>85.8</ele>
        <time>2023-09-17T08:13:20Z</time>
      </trkpt>
      <trkpt lat="46.55027" lon="0.36273">
        <ele>84.8</ele>
        <time>2023-09-17T08:13:22Z</time>
      </trkpt>
      <trkpt lat="46.55032" lon="0.36276">
        <ele>83.2</ele>
        <time>2023-09-17T08:13:23Z</time>
      </trkpt>
      <trkpt lat="46.55036" lon="0.36279">
        <ele>82.2</ele>
        <time>2023-09-17T08:13:24Z</time>
      </trkpt>
      <trkpt lat="46.55039" lon="0.36281">
        <ele>81.8</ele>
        <time>2023-09-17T08:13:25Z</time>
      </trkpt>
      <trkpt lat="46.55049" lon="0.36287">
        <ele>81.2</ele>
        <time>2023-09-17T08:13:28Z</time>
      </trkpt>
      <trkpt lat="46.55062" lon="0.36297">
        <ele>81.4</ele>
        <time>2023-09-17T08:13:34Z</time>
      </trkpt>
      <trkpt lat="46.55066" lon="0.36299">
        <ele>81.4</ele>
        <time>2023-09-17T08:13:37Z</time>
      </trkpt>
      <trkpt lat="46.55067" lon="0.36299">
        <ele>81.2</ele>
        <time>2023-09-17T08:13:38Z</time>
      </trkpt>
      <trkpt lat="46.55067" lon="0.36304">
        <ele>80.8</ele>
        <time>2023-09-17T08:13:43Z</time>
      </trkpt>
      <trkpt lat="46.55067" lon="0.36304">
        <ele>80.8</ele>
        <time>2023-09-17T08:13:44Z</time>
      </trkpt>
      <trkpt lat="46.55065" lon="0.36307">
        <ele>81.2</ele>
        <time>2023-09-17T08:13:48Z</time>
      </trkpt>
      <trkpt lat="46.55062" lon="0.36308">
        <ele>81.2</ele>
        <time>2023-09-17T08:13:51Z</time>
      </trkpt>
      <trkpt lat="46.55058" lon="0.36303">
        <ele>81.2</ele>
        <time>2023-09-17T08:13:57Z</time>
      </trkpt>
      <trkpt lat="46.55056" lon="0.363">
        <ele>81.4</ele>
        <time>2023-09-17T08:14:00Z</time>
      </trkpt>
      <trkpt lat="46.55055" lon="0.36298">
        <ele>82</ele>
        <time>2023-09-17T08:14:02Z</time>
      </trkpt>
      <trkpt lat="46.55054" lon="0.36295">
        <ele>83.2</ele>
        <time>2023-09-17T08:14:04Z</time>
      </trkpt>
      <trkpt lat="46.55054" lon="0.36294">
        <ele>84</ele>
        <time>2023-09-17T08:14:05Z</time>
      </trkpt>
      <trkpt lat="46.55054" lon="0.36292">
        <ele>84.4</ele>
        <time>2023-09-17T08:14:06Z</time>
      </trkpt>
      <trkpt lat="46.55055" lon="0.36284">
        <ele>85.4</ele>
        <time>2023-09-17T08:14:10Z</time>
      </trkpt>
      <trkpt lat="46.55054" lon="0.36282">
        <ele>85.6</ele>
        <time>2023-09-17T08:14:12Z</time>
      </trkpt>
      <trkpt lat="46.55054" lon="0.36282">
        <ele>85.8</ele>
        <time>2023-09-17T08:14:13Z</time>
      </trkpt>
      <trkpt lat="46.5505" lon="0.36276">
        <ele>86.2</ele>
        <time>2023-09-17T08:14:17Z</time>
      </trkpt>
      <trkpt lat="46.55046" lon="0.36266">
        <ele>85.6</ele>
        <time>2023-09-17T08:14:22Z</time>
      </trkpt>
      <trkpt lat="46.55046" lon="0.36262">
        <ele>85</ele>
        <time>2023-09-17T08:14:23Z</time>
      </trkpt>
      <trkpt lat="46.55046" lon="0.36256">
        <ele>84.2</ele>
        <time>2023-09-17T08:14:25Z</time>
      </trkpt>
      <trkpt lat="46.55046" lon="0.36251">
        <ele>83</ele>
        <time>2023-09-17T08:14:26Z</time>
      </trkpt>
      <trkpt lat="46.55045" lon="0.36247">
        <ele>82.2</ele>
        <time>2023-09-17T08:14:27Z</time>
      </trkpt>
      <trkpt lat="46.55045" lon="0.36244">
        <ele>81.4</ele>
        <time>2023-09-17T08:14:28Z</time>
      </trkpt>
      <trkpt lat="46.55044" lon="0.36242">
        <ele>81</ele>
        <time>2023-09-17T08:14:29Z</time>
      </trkpt>
      <trkpt lat="46.55042" lon="0.36238">
        <ele>80.6</ele>
        <time>2023-09-17T08:14:32Z</time>
      </trkpt>
      <trkpt lat="46.55039" lon="0.36237">
        <ele>80.6</ele>
        <time>2023-09-17T08:14:33Z</time>
      </trkpt>
      <trkpt lat="46.55023" lon="0.36225">
        <ele>80.8</ele>
        <time>2023-09-17T08:14:39Z</time>
      </trkpt>
      <trkpt lat="46.55003" lon="0.36216">
        <ele>81.2</ele>
        <time>2023-09-17T08:14:44Z</time>
      </trkpt>
      <trkpt lat="46.54998" lon="0.36212">
        <ele>81.2</ele>
        <time>2023-09-17T08:14:45Z</time>
      </trkpt>
      <trkpt lat="46.54994" lon="0.36207">
        <ele>81.4</ele>
        <time>2023-09-17T08:14:46Z</time>
      </trkpt>
      <trkpt lat="46.54983" lon="0.3619">
        <ele>81.4</ele>
        <time>2023-09-17T08:14:49Z</time>
      </trkpt>
      <trkpt lat="46.5498" lon="0.36184">
        <ele>81.4</ele>
        <time>2023-09-17T08:14:50Z</time>
      </trkpt>
      <trkpt lat="46.54968" lon="0.36157">
        <ele>81.2</ele>
        <time>2023-09-17T08:14:55Z</time>
      </trkpt>
      <trkpt lat="46.54963" lon="0.36149">
        <ele>81.2</ele>
        <time>2023-09-17T08:14:57Z</time>
      </trkpt>
      <trkpt lat="46.54956" lon="0.36137">
        <ele>80.8</ele>
        <time>2023-09-17T08:15:00Z</time>
      </trkpt>
      <trkpt lat="46.54952" lon="0.36132">
        <ele>80.4</ele>
        <time>2023-09-17T08:15:01Z</time>
      </trkpt>
      <trkpt lat="46.54944" lon="0.3612">
        <ele>80.4</ele>
        <time>2023-09-17T08:15:03Z</time>
      </trkpt>
      <trkpt lat="46.54935" lon="0.36106">
        <ele>80.2</ele>
        <time>2023-09-17T08:15:06Z</time>
      </trkpt>
      <trkpt lat="46.54917" lon="0.36079">
        <ele>80.6</ele>
        <time>2023-09-17T08:15:12Z</time>
      </trkpt>
      <trkpt lat="46.54898" lon="0.36053">
        <ele>80.6</ele>
        <time>2023-09-17T08:15:18Z</time>
      </trkpt>
      <trkpt lat="46.54894" lon="0.36049">
        <ele>80.6</ele>
        <time>2023-09-17T08:15:19Z</time>
      </trkpt>
      <trkpt lat="46.54872" lon="0.36022">
        <ele>80.6</ele>
        <time>2023-09-17T08:15:25Z</time>
      </trkpt>
      <trkpt lat="46.54847" lon="0.35998">
        <ele>81</ele>
        <time>2023-09-17T08:15:32Z</time>
      </trkpt>
      <trkpt lat="46.5483" lon="0.35981">
        <ele>80.8</ele>
        <time>2023-09-17T08:15:38Z</time>
      </trkpt>
      <trkpt lat="46.54825" lon="0.35974">
        <ele>80.6</ele>
        <time>2023-09-17T08:15:40Z</time>
      </trkpt>
      <trkpt lat="46.54819" lon="0.35967">
        <ele>80.6</ele>
        <time>2023-09-17T08:15:42Z</time>
      </trkpt>
      <trkpt lat="46.54814" lon="0.35959">
        <ele>80.6</ele>
        <time>2023-09-17T08:15:44Z</time>
      </trkpt>
      <trkpt lat="46.54801" lon="0.35935">
        <ele>80.8</ele>
        <time>2023-09-17T08:15:49Z</time>
      </trkpt>
      <trkpt lat="46.54798" lon="0.35924">
        <ele>81</ele>
        <time>2023-09-17T08:15:51Z</time>
      </trkpt>
      <trkpt lat="46.5479" lon="0.359">
        <ele>80.8</ele>
        <time>2023-09-17T08:15:55Z</time>
      </trkpt>
      <trkpt lat="46.54781" lon="0.35866">
        <ele>81.2</ele>
        <time>2023-09-17T08:16:01Z</time>
      </trkpt>
      <trkpt lat="46.54772" lon="0.35826">
        <ele>80.8</ele>
        <time>2023-09-17T08:16:07Z</time>
      </trkpt>
      <trkpt lat="46.54771" lon="0.3582">
        <ele>81</ele>
        <time>2023-09-17T08:16:08Z</time>
      </trkpt>
      <trkpt lat="46.54766" lon="0.35774">
        <ele>81.2</ele>
        <time>2023-09-17T08:16:14Z</time>
      </trkpt>
      <trkpt lat="46.54766" lon="0.35761">
        <ele>81.2</ele>
        <time>2023-09-17T08:16:16Z</time>
      </trkpt>
      <trkpt lat="46.54762" lon="0.35735">
        <ele>81.6</ele>
        <time>2023-09-17T08:16:19Z</time>
      </trkpt>
      <trkpt lat="46.54758" lon="0.35697">
        <ele>81.6</ele>
        <time>2023-09-17T08:16:23Z</time>
      </trkpt>
      <trkpt lat="46.54758" lon="0.35681">
        <ele>81.6</ele>
        <time>2023-09-17T08:16:25Z</time>
      </trkpt>
      <trkpt lat="46.54755" lon="0.35659">
        <ele>81.6</ele>
        <time>2023-09-17T08:16:28Z</time>
      </trkpt>
      <trkpt lat="46.54752" lon="0.35644">
        <ele>81.6</ele>
        <time>2023-09-17T08:16:30Z</time>
      </trkpt>
      <trkpt lat="46.54741" lon="0.35605">
        <ele>81.6</ele>
        <time>2023-09-17T08:16:36Z</time>
      </trkpt>
      <trkpt lat="46.54741" lon="0.35595">
        <ele>81.6</ele>
        <time>2023-09-17T08:16:40Z</time>
      </trkpt>
      <trkpt lat="46.54742" lon="0.3558">
        <ele>81.2</ele>
        <time>2023-09-17T08:16:48Z</time>
      </trkpt>
      <trkpt lat="46.54744" lon="0.35575">
        <ele>81.2</ele>
        <time>2023-09-17T08:17:00Z</time>
      </trkpt>
      <trkpt lat="46.54738" lon="0.3557">
        <ele>81.2</ele>
        <time>2023-09-17T08:17:12Z</time>
      </trkpt>
      <trkpt lat="46.54737" lon="0.35567">
        <ele>81.2</ele>
        <time>2023-09-17T08:17:14Z</time>
      </trkpt>
      <trkpt lat="46.54736" lon="0.3556">
        <ele>82.8</ele>
        <time>2023-09-17T08:17:18Z</time>
      </trkpt>
      <trkpt lat="46.54736" lon="0.35558">
        <ele>83.4</ele>
        <time>2023-09-17T08:17:19Z</time>
      </trkpt>
      <trkpt lat="46.54735" lon="0.35555">
        <ele>83.6</ele>
        <time>2023-09-17T08:17:21Z</time>
      </trkpt>
      <trkpt lat="46.54734" lon="0.35553">
        <ele>84</ele>
        <time>2023-09-17T08:17:23Z</time>
      </trkpt>
      <trkpt lat="46.54732" lon="0.3555">
        <ele>84.8</ele>
        <time>2023-09-17T08:17:28Z</time>
      </trkpt>
      <trkpt lat="46.54732" lon="0.3555">
        <ele>85</ele>
        <time>2023-09-17T08:17:29Z</time>
      </trkpt>
      <trkpt lat="46.5473" lon="0.35548">
        <ele>85.2</ele>
        <time>2023-09-17T08:17:32Z</time>
      </trkpt>
      <trkpt lat="46.54728" lon="0.35548">
        <ele>85.6</ele>
        <time>2023-09-17T08:17:35Z</time>
      </trkpt>
      <trkpt lat="46.54724" lon="0.35547">
        <ele>86.2</ele>
        <time>2023-09-17T08:17:38Z</time>
      </trkpt>
      <trkpt lat="46.54721" lon="0.35546">
        <ele>86.4</ele>
        <time>2023-09-17T08:17:40Z</time>
      </trkpt>
      <trkpt lat="46.5472" lon="0.35542">
        <ele>87.4</ele>
        <time>2023-09-17T08:17:42Z</time>
      </trkpt>
      <trkpt lat="46.54719" lon="0.35539">
        <ele>87.8</ele>
        <time>2023-09-17T08:17:43Z</time>
      </trkpt>
      <trkpt lat="46.54714" lon="0.35529">
        <ele>88.6</ele>
        <time>2023-09-17T08:17:47Z</time>
      </trkpt>
      <trkpt lat="46.54713" lon="0.35523">
        <ele>88.8</ele>
        <time>2023-09-17T08:17:49Z</time>
      </trkpt>
      <trkpt lat="46.54711" lon="0.35517">
        <ele>89.4</ele>
        <time>2023-09-17T08:17:51Z</time>
      </trkpt>
      <trkpt lat="46.54709" lon="0.35511">
        <ele>89.6</ele>
        <time>2023-09-17T08:17:53Z</time>
      </trkpt>
      <trkpt lat="46.54704" lon="0.35495">
        <ele>90.2</ele>
        <time>2023-09-17T08:17:58Z</time>
      </trkpt>
      <trkpt lat="46.54704" lon="0.35474">
        <ele>90.4</ele>
        <time>2023-09-17T08:18:04Z</time>
      </trkpt>
      <trkpt lat="46.54705" lon="0.35471">
        <ele>90.2</ele>
        <time>2023-09-17T08:18:05Z</time>
      </trkpt>
      <trkpt lat="46.54708" lon="0.35455">
        <ele>89.2</ele>
        <time>2023-09-17T08:18:10Z</time>
      </trkpt>
      <trkpt lat="46.54709" lon="0.35442">
        <ele>88.4</ele>
        <time>2023-09-17T08:18:13Z</time>
      </trkpt>
      <trkpt lat="46.5471" lon="0.35436">
        <ele>88.4</ele>
        <time>2023-09-17T08:18:14Z</time>
      </trkpt>
      <trkpt lat="46.54711" lon="0.35431">
        <ele>88.4</ele>
        <time>2023-09-17T08:18:15Z</time>
      </trkpt>
      <trkpt lat="46.54714" lon="0.35409">
        <ele>88.6</ele>
        <time>2023-09-17T08:18:19Z</time>
      </trkpt>
      <trkpt lat="46.54715" lon="0.35406">
        <ele>88.6</ele>
        <time>2023-09-17T08:18:20Z</time>
      </trkpt>
      <trkpt lat="46.54716" lon="0.35403">
        <ele>88.4</ele>
        <time>2023-09-17T08:18:21Z</time>
      </trkpt>
      <trkpt lat="46.54719" lon="0.35392">
        <ele>87.8</ele>
        <time>2023-09-17T08:18:23Z</time>
      </trkpt>
      <trkpt lat="46.5472" lon="0.35386">
        <ele>87.4</ele>
        <time>2023-09-17T08:18:24Z</time>
      </trkpt>
      <trkpt lat="46.54721" lon="0.35381">
        <ele>87.2</ele>
        <time>2023-09-17T08:18:25Z</time>
      </trkpt>
      <trkpt lat="46.54722" lon="0.35377">
        <ele>86.8</ele>
        <time>2023-09-17T08:18:26Z</time>
      </trkpt>
      <trkpt lat="46.54725" lon="0.35368">
        <ele>86</ele>
        <time>2023-09-17T08:18:28Z</time>
      </trkpt>
      <trkpt lat="46.54726" lon="0.35363">
        <ele>86</ele>
        <time>2023-09-17T08:18:29Z</time>
      </trkpt>
      <trkpt lat="46.54733" lon="0.3535">
        <ele>86</ele>
        <time>2023-09-17T08:18:31Z</time>
      </trkpt>
      <trkpt lat="46.54738" lon="0.35339">
        <ele>85.8</ele>
        <time>2023-09-17T08:18:33Z</time>
      </trkpt>
      <trkpt lat="46.54749" lon="0.35326">
        <ele>86</ele>
        <time>2023-09-17T08:18:37Z</time>
      </trkpt>
      <trkpt lat="46.54753" lon="0.35321">
        <ele>85.8</ele>
        <time>2023-09-17T08:18:38Z</time>
      </trkpt>
      <trkpt lat="46.54756" lon="0.35309">
        <ele>86</ele>
        <time>2023-09-17T08:18:40Z</time>
      </trkpt>
      <trkpt lat="46.5476" lon="0.35295">
        <ele>86</ele>
        <time>2023-09-17T08:18:42Z</time>
      </trkpt>
      <trkpt lat="46.54763" lon="0.35287">
        <ele>86.2</ele>
        <time>2023-09-17T08:18:43Z</time>
      </trkpt>
      <trkpt lat="46.54767" lon="0.35275">
        <ele>86.8</ele>
        <time>2023-09-17T08:18:45Z</time>
      </trkpt>
      <trkpt lat="46.54771" lon="0.35264">
        <ele>87</ele>
        <time>2023-09-17T08:18:47Z</time>
      </trkpt>
      <trkpt lat="46.54773" lon="0.35259">
        <ele>87.2</ele>
        <time>2023-09-17T08:18:48Z</time>
      </trkpt>
      <trkpt lat="46.54776" lon="0.35256">
        <ele>87.6</ele>
        <time>2023-09-17T08:18:49Z</time>
      </trkpt>
      <trkpt lat="46.54783" lon="0.3525">
        <ele>87.4</ele>
        <time>2023-09-17T08:18:51Z</time>
      </trkpt>
      <trkpt lat="46.54791" lon="0.35244">
        <ele>87.4</ele>
        <time>2023-09-17T08:18:53Z</time>
      </trkpt>
      <trkpt lat="46.54799" lon="0.35237">
        <ele>86</ele>
        <time>2023-09-17T08:18:55Z</time>
      </trkpt>
      <trkpt lat="46.54803" lon="0.35234">
        <ele>85</ele>
        <time>2023-09-17T08:18:56Z</time>
      </trkpt>
      <trkpt lat="46.54809" lon="0.35232">
        <ele>84</ele>
        <time>2023-09-17T08:18:57Z</time>
      </trkpt>
      <trkpt lat="46.54813" lon="0.35228">
        <ele>83.6</ele>
        <time>2023-09-17T08:18:58Z</time>
      </trkpt>
      <trkpt lat="46.54822" lon="0.3522">
        <ele>82.6</ele>
        <time>2023-09-17T08:19:00Z</time>
      </trkpt>
      <trkpt lat="46.54829" lon="0.35213">
        <ele>82</ele>
        <time>2023-09-17T08:19:02Z</time>
      </trkpt>
      <trkpt lat="46.54837" lon="0.35207">
        <ele>81.8</ele>
        <time>2023-09-17T08:19:04Z</time>
      </trkpt>
      <trkpt lat="46.54856" lon="0.35194">
        <ele>81.6</ele>
        <time>2023-09-17T08:19:08Z</time>
      </trkpt>
      <trkpt lat="46.54895" lon="0.35169">
        <ele>81.6</ele>
        <time>2023-09-17T08:19:14Z</time>
      </trkpt>
      <trkpt lat="46.54909" lon="0.35161">
        <ele>81.6</ele>
        <time>2023-09-17T08:19:16Z</time>
      </trkpt>
      <trkpt lat="46.5493" lon="0.35154">
        <ele>81.6</ele>
        <time>2023-09-17T08:19:19Z</time>
      </trkpt>
      <trkpt lat="46.54967" lon="0.35145">
        <ele>81.4</ele>
        <time>2023-09-17T08:19:25Z</time>
      </trkpt>
      <trkpt lat="46.54973" lon="0.35144">
        <ele>81.4</ele>
        <time>2023-09-17T08:19:26Z</time>
      </trkpt>
      <trkpt lat="46.55011" lon="0.35138">
        <ele>81.8</ele>
        <time>2023-09-17T08:19:32Z</time>
      </trkpt>
      <trkpt lat="46.55036" lon="0.35138">
        <ele>81.6</ele>
        <time>2023-09-17T08:19:36Z</time>
      </trkpt>
      <trkpt lat="46.55042" lon="0.3514">
        <ele>81.4</ele>
        <time>2023-09-17T08:19:37Z</time>
      </trkpt>
      <trkpt lat="46.55092" lon="0.35156">
        <ele>81.2</ele>
        <time>2023-09-17T08:19:45Z</time>
      </trkpt>
      <trkpt lat="46.55125" lon="0.35176">
        <ele>81.6</ele>
        <time>2023-09-17T08:19:51Z</time>
      </trkpt>
      <trkpt lat="46.5513" lon="0.35181">
        <ele>81.6</ele>
        <time>2023-09-17T08:19:52Z</time>
      </trkpt>
      <trkpt lat="46.55166" lon="0.3521">
        <ele>81.8</ele>
        <time>2023-09-17T08:19:58Z</time>
      </trkpt>
      <trkpt lat="46.55192" lon="0.35231">
        <ele>81.8</ele>
        <time>2023-09-17T08:20:02Z</time>
      </trkpt>
      <trkpt lat="46.55197" lon="0.35235">
        <ele>81.6</ele>
        <time>2023-09-17T08:20:03Z</time>
      </trkpt>
      <trkpt lat="46.55213" lon="0.35246">
        <ele>81.8</ele>
        <time>2023-09-17T08:20:06Z</time>
      </trkpt>
      <trkpt lat="46.55223" lon="0.35251">
        <ele>81.6</ele>
        <time>2023-09-17T08:20:08Z</time>
      </trkpt>
      <trkpt lat="46.55227" lon="0.35253">
        <ele>81.2</ele>
        <time>2023-09-17T08:20:09Z</time>
      </trkpt>
      <trkpt lat="46.55232" lon="0.35256">
        <ele>81</ele>
        <time>2023-09-17T08:20:10Z</time>
      </trkpt>
      <trkpt lat="46.5524" lon="0.35259">
        <ele>80.6</ele>
        <time>2023-09-17T08:20:12Z</time>
      </trkpt>
      <trkpt lat="46.55243" lon="0.35258">
        <ele>80.6</ele>
        <time>2023-09-17T08:20:13Z</time>
      </trkpt>
      <trkpt lat="46.55256" lon="0.35257">
        <ele>81.8</ele>
        <time>2023-09-17T08:20:18Z</time>
      </trkpt>
      <trkpt lat="46.55273" lon="0.35259">
        <ele>82.4</ele>
        <time>2023-09-17T08:20:23Z</time>
      </trkpt>
      <trkpt lat="46.55297" lon="0.35248">
        <ele>81.6</ele>
        <time>2023-09-17T08:20:29Z</time>
      </trkpt>
      <trkpt lat="46.55318" lon="0.35229">
        <ele>81</ele>
        <time>2023-09-17T08:20:34Z</time>
      </trkpt>
      <trkpt lat="46.55319" lon="0.35226">
        <ele>80.8</ele>
        <time>2023-09-17T08:20:35Z</time>
      </trkpt>
      <trkpt lat="46.55321" lon="0.35222">
        <ele>80.6</ele>
        <time>2023-09-17T08:20:36Z</time>
      </trkpt>
      <trkpt lat="46.55321" lon="0.35212">
        <ele>79.6</ele>
        <time>2023-09-17T08:20:38Z</time>
      </trkpt>
      <trkpt lat="46.55321" lon="0.35202">
        <ele>78.8</ele>
        <time>2023-09-17T08:20:40Z</time>
      </trkpt>
      <trkpt lat="46.55319" lon="0.35198">
        <ele>78.4</ele>
        <time>2023-09-17T08:20:41Z</time>
      </trkpt>
      <trkpt lat="46.55317" lon="0.35176">
        <ele>77.4</ele>
        <time>2023-09-17T08:20:46Z</time>
      </trkpt>
      <trkpt lat="46.55316" lon="0.35172">
        <ele>77.2</ele>
        <time>2023-09-17T08:20:47Z</time>
      </trkpt>
      <trkpt lat="46.5531" lon="0.35151">
        <ele>77</ele>
        <time>2023-09-17T08:20:52Z</time>
      </trkpt>
      <trkpt lat="46.5531" lon="0.35147">
        <ele>77.4</ele>
        <time>2023-09-17T08:20:53Z</time>
      </trkpt>
      <trkpt lat="46.55307" lon="0.35139">
        <ele>77.8</ele>
        <time>2023-09-17T08:20:55Z</time>
      </trkpt>
      <trkpt lat="46.55298" lon="0.3512">
        <ele>78.2</ele>
        <time>2023-09-17T08:20:59Z</time>
      </trkpt>
      <trkpt lat="46.55296" lon="0.35113">
        <ele>78.2</ele>
        <time>2023-09-17T08:21:00Z</time>
      </trkpt>
      <trkpt lat="46.55283" lon="0.35085">
        <ele>78.2</ele>
        <time>2023-09-17T08:21:04Z</time>
      </trkpt>
      <trkpt lat="46.55271" lon="0.35042">
        <ele>78.2</ele>
        <time>2023-09-17T08:21:10Z</time>
      </trkpt>
      <trkpt lat="46.55263" lon="0.34991">
        <ele>79</ele>
        <time>2023-09-17T08:21:16Z</time>
      </trkpt>
      <trkpt lat="46.55261" lon="0.3497">
        <ele>79</ele>
        <time>2023-09-17T08:21:18Z</time>
      </trkpt>
      <trkpt lat="46.5526" lon="0.34951">
        <ele>79.2</ele>
        <time>2023-09-17T08:21:20Z</time>
      </trkpt>
      <trkpt lat="46.55261" lon="0.34886">
        <ele>79.2</ele>
        <time>2023-09-17T08:21:26Z</time>
      </trkpt>
      <trkpt lat="46.55268" lon="0.34842">
        <ele>79</ele>
        <time>2023-09-17T08:21:30Z</time>
      </trkpt>
      <trkpt lat="46.55271" lon="0.34832">
        <ele>78.8</ele>
        <time>2023-09-17T08:21:31Z</time>
      </trkpt>
      <trkpt lat="46.55279" lon="0.34797">
        <ele>78.6</ele>
        <time>2023-09-17T08:21:35Z</time>
      </trkpt>
      <trkpt lat="46.55281" lon="0.34789">
        <ele>78.6</ele>
        <time>2023-09-17T08:21:36Z</time>
      </trkpt>
      <trkpt lat="46.55299" lon="0.34747">
        <ele>78.6</ele>
        <time>2023-09-17T08:21:42Z</time>
      </trkpt>
      <trkpt lat="46.55304" lon="0.34734">
        <ele>78.2</ele>
        <time>2023-09-17T08:21:44Z</time>
      </trkpt>
      <trkpt lat="46.55307" lon="0.34723">
        <ele>77.8</ele>
        <time>2023-09-17T08:21:46Z</time>
      </trkpt>
      <trkpt lat="46.5531" lon="0.34715">
        <ele>77.8</ele>
        <time>2023-09-17T08:21:47Z</time>
      </trkpt>
      <trkpt lat="46.5531" lon="0.34688">
        <ele>78.2</ele>
        <time>2023-09-17T08:21:51Z</time>
      </trkpt>
      <trkpt lat="46.5531" lon="0.34675">
        <ele>79.4</ele>
        <time>2023-09-17T08:21:54Z</time>
      </trkpt>
      <trkpt lat="46.55311" lon="0.34661">
        <ele>80.6</ele>
        <time>2023-09-17T08:21:57Z</time>
      </trkpt>
      <trkpt lat="46.55312" lon="0.34639">
        <ele>81.6</ele>
        <time>2023-09-17T08:22:02Z</time>
      </trkpt>
      <trkpt lat="46.55312" lon="0.34634">
        <ele>81.8</ele>
        <time>2023-09-17T08:22:03Z</time>
      </trkpt>
      <trkpt lat="46.55311" lon="0.3463">
        <ele>81.8</ele>
        <time>2023-09-17T08:22:04Z</time>
      </trkpt>
      <trkpt lat="46.55309" lon="0.34621">
        <ele>81.8</ele>
        <time>2023-09-17T08:22:06Z</time>
      </trkpt>
      <trkpt lat="46.55305" lon="0.34609">
        <ele>81.6</ele>
        <time>2023-09-17T08:22:08Z</time>
      </trkpt>
      <trkpt lat="46.55292" lon="0.34579">
        <ele>81</ele>
        <time>2023-09-17T08:22:13Z</time>
      </trkpt>
      <trkpt lat="46.55285" lon="0.34565">
        <ele>80.8</ele>
        <time>2023-09-17T08:22:17Z</time>
      </trkpt>
      <trkpt lat="46.55284" lon="0.34562">
        <ele>80.8</ele>
        <time>2023-09-17T08:22:18Z</time>
      </trkpt>
      <trkpt lat="46.55277" lon="0.34549">
        <ele>80.6</ele>
        <time>2023-09-17T08:22:23Z</time>
      </trkpt>
      <trkpt lat="46.55263" lon="0.34537">
        <ele>79.8</ele>
        <time>2023-09-17T08:22:28Z</time>
      </trkpt>
      <trkpt lat="46.5526" lon="0.34535">
        <ele>79.6</ele>
        <time>2023-09-17T08:22:29Z</time>
      </trkpt>
      <trkpt lat="46.55242" lon="0.34526">
        <ele>79</ele>
        <time>2023-09-17T08:22:34Z</time>
      </trkpt>
      <trkpt lat="46.55233" lon="0.34521">
        <ele>78.6</ele>
        <time>2023-09-17T08:22:37Z</time>
      </trkpt>
      <trkpt lat="46.55222" lon="0.34513">
        <ele>78.2</ele>
        <time>2023-09-17T08:22:40Z</time>
      </trkpt>
      <trkpt lat="46.55205" lon="0.34505">
        <ele>77.8</ele>
        <time>2023-09-17T08:22:44Z</time>
      </trkpt>
      <trkpt lat="46.55202" lon="0.34503">
        <ele>77.6</ele>
        <time>2023-09-17T08:22:45Z</time>
      </trkpt>
      <trkpt lat="46.55193" lon="0.34498">
        <ele>77.6</ele>
        <time>2023-09-17T08:22:47Z</time>
      </trkpt>
      <trkpt lat="46.55189" lon="0.34497">
        <ele>77.4</ele>
        <time>2023-09-17T08:22:48Z</time>
      </trkpt>
      <trkpt lat="46.55178" lon="0.34494">
        <ele>78</ele>
        <time>2023-09-17T08:22:51Z</time>
      </trkpt>
      <trkpt lat="46.55148" lon="0.34488">
        <ele>78</ele>
        <time>2023-09-17T08:22:57Z</time>
      </trkpt>
      <trkpt lat="46.55129" lon="0.34483">
        <ele>78.6</ele>
        <time>2023-09-17T08:23:01Z</time>
      </trkpt>
      <trkpt lat="46.55113" lon="0.34478">
        <ele>79.8</ele>
        <time>2023-09-17T08:23:05Z</time>
      </trkpt>
      <trkpt lat="46.55109" lon="0.34477">
        <ele>79.6</ele>
        <time>2023-09-17T08:23:06Z</time>
      </trkpt>
      <trkpt lat="46.55103" lon="0.34471">
        <ele>79.4</ele>
        <time>2023-09-17T08:23:08Z</time>
      </trkpt>
      <trkpt lat="46.55095" lon="0.34464">
        <ele>79</ele>
        <time>2023-09-17T08:23:10Z</time>
      </trkpt>
      <trkpt lat="46.55091" lon="0.34459">
        <ele>78.6</ele>
        <time>2023-09-17T08:23:11Z</time>
      </trkpt>
      <trkpt lat="46.55083" lon="0.34449">
        <ele>78</ele>
        <time>2023-09-17T08:23:13Z</time>
      </trkpt>
      <trkpt lat="46.55081" lon="0.34443">
        <ele>78</ele>
        <time>2023-09-17T08:23:14Z</time>
      </trkpt>
      <trkpt lat="46.55079" lon="0.34437">
        <ele>77.2</ele>
        <time>2023-09-17T08:23:15Z</time>
      </trkpt>
      <trkpt lat="46.55072" lon="0.34417">
        <ele>76.6</ele>
        <time>2023-09-17T08:23:18Z</time>
      </trkpt>
      <trkpt lat="46.55067" lon="0.34404">
        <ele>76.2</ele>
        <time>2023-09-17T08:23:21Z</time>
      </trkpt>
      <trkpt lat="46.55062" lon="0.34392">
        <ele>76.2</ele>
        <time>2023-09-17T08:23:23Z</time>
      </trkpt>
      <trkpt lat="46.55059" lon="0.34382">
        <ele>76.4</ele>
        <time>2023-09-17T08:23:25Z</time>
      </trkpt>
      <trkpt lat="46.55056" lon="0.34376">
        <ele>76.6</ele>
        <time>2023-09-17T08:23:27Z</time>
      </trkpt>
      <trkpt lat="46.55041" lon="0.34357">
        <ele>76.8</ele>
        <time>2023-09-17T08:23:33Z</time>
      </trkpt>
      <trkpt lat="46.5504" lon="0.34349">
        <ele>77.4</ele>
        <time>2023-09-17T08:23:36Z</time>
      </trkpt>
      <trkpt lat="46.55043" lon="0.34348">
        <ele>77.6</ele>
        <time>2023-09-17T08:23:37Z</time>
      </trkpt>
      <trkpt lat="46.55047" lon="0.34348">
        <ele>77.8</ele>
        <time>2023-09-17T08:23:38Z</time>
      </trkpt>
      <trkpt lat="46.55065" lon="0.34353">
        <ele>78.4</ele>
        <time>2023-09-17T08:23:43Z</time>
      </trkpt>
      <trkpt lat="46.55089" lon="0.3436">
        <ele>79.6</ele>
        <time>2023-09-17T08:23:49Z</time>
      </trkpt>
      <trkpt lat="46.55093" lon="0.34362">
        <ele>79.6</ele>
        <time>2023-09-17T08:23:50Z</time>
      </trkpt>
      <trkpt lat="46.55116" lon="0.34377">
        <ele>80</ele>
        <time>2023-09-17T08:23:56Z</time>
      </trkpt>
      <trkpt lat="46.55124" lon="0.3438">
        <ele>80.2</ele>
        <time>2023-09-17T08:23:58Z</time>
      </trkpt>
      <trkpt lat="46.55131" lon="0.34384">
        <ele>80.2</ele>
        <time>2023-09-17T08:24:00Z</time>
      </trkpt>
      <trkpt lat="46.5514" lon="0.34386">
        <ele>80</ele>
        <time>2023-09-17T08:24:02Z</time>
      </trkpt>
      <trkpt lat="46.55156" lon="0.34389">
        <ele>79.6</ele>
        <time>2023-09-17T08:24:06Z</time>
      </trkpt>
      <trkpt lat="46.55169" lon="0.34393">
        <ele>79.8</ele>
        <time>2023-09-17T08:24:09Z</time>
      </trkpt>
      <trkpt lat="46.55175" lon="0.34392">
        <ele>79.8</ele>
        <time>2023-09-17T08:24:11Z</time>
      </trkpt>
      <trkpt lat="46.55176" lon="0.34389">
        <ele>79.8</ele>
        <time>2023-09-17T08:24:13Z</time>
      </trkpt>
      <trkpt lat="46.55167" lon="0.34381">
        <ele>80.4</ele>
        <time>2023-09-17T08:24:18Z</time>
      </trkpt>
      <trkpt lat="46.55165" lon="0.3438">
        <ele>80.8</ele>
        <time>2023-09-17T08:24:19Z</time>
      </trkpt>
      <trkpt lat="46.55157" lon="0.34377">
        <ele>82</ele>
        <time>2023-09-17T08:24:22Z</time>
      </trkpt>
      <trkpt lat="46.55151" lon="0.34374">
        <ele>82.4</ele>
        <time>2023-09-17T08:24:25Z</time>
      </trkpt>
      <trkpt lat="46.55149" lon="0.34372">
        <ele>83</ele>
        <time>2023-09-17T08:24:26Z</time>
      </trkpt>
      <trkpt lat="46.55136" lon="0.34363">
        <ele>84</ele>
        <time>2023-09-17T08:24:32Z</time>
      </trkpt>
      <trkpt lat="46.55135" lon="0.34362">
        <ele>84.2</ele>
        <time>2023-09-17T08:24:33Z</time>
      </trkpt>
      <trkpt lat="46.55127" lon="0.34358">
        <ele>85.2</ele>
        <time>2023-09-17T08:24:37Z</time>
      </trkpt>
      <trkpt lat="46.55123" lon="0.34353">
        <ele>85.6</ele>
        <time>2023-09-17T08:24:40Z</time>
      </trkpt>
      <trkpt lat="46.55114" lon="0.34348">
        <ele>86.2</ele>
        <time>2023-09-17T08:24:45Z</time>
      </trkpt>
      <trkpt lat="46.5511" lon="0.34346">
        <ele>86.8</ele>
        <time>2023-09-17T08:24:47Z</time>
      </trkpt>
      <trkpt lat="46.55106" lon="0.34341">
        <ele>87.4</ele>
        <time>2023-09-17T08:24:49Z</time>
      </trkpt>
      <trkpt lat="46.55101" lon="0.34334">
        <ele>87.8</ele>
        <time>2023-09-17T08:24:52Z</time>
      </trkpt>
      <trkpt lat="46.55101" lon="0.34332">
        <ele>88</ele>
        <time>2023-09-17T08:24:53Z</time>
      </trkpt>
      <trkpt lat="46.55101" lon="0.3433">
        <ele>88.4</ele>
        <time>2023-09-17T08:24:55Z</time>
      </trkpt>
      <trkpt lat="46.55099" lon="0.34328">
        <ele>88.4</ele>
        <time>2023-09-17T08:24:56Z</time>
      </trkpt>
      <trkpt lat="46.551" lon="0.34326">
        <ele>89.4</ele>
        <time>2023-09-17T08:25:00Z</time>
      </trkpt>
      <trkpt lat="46.55102" lon="0.34326">
        <ele>90</ele>
        <time>2023-09-17T08:25:02Z</time>
      </trkpt>
      <trkpt lat="46.55103" lon="0.34324">
        <ele>90.8</ele>
        <time>2023-09-17T08:25:04Z</time>
      </trkpt>
      <trkpt lat="46.55105" lon="0.34323">
        <ele>92</ele>
        <time>2023-09-17T08:25:08Z</time>
      </trkpt>
      <trkpt lat="46.55107" lon="0.34323">
        <ele>92.8</ele>
        <time>2023-09-17T08:25:10Z</time>
      </trkpt>
      <trkpt lat="46.55109" lon="0.34322">
        <ele>93.4</ele>
        <time>2023-09-17T08:25:12Z</time>
      </trkpt>
      <trkpt lat="46.55112" lon="0.34322">
        <ele>94.6</ele>
        <time>2023-09-17T08:25:15Z</time>
      </trkpt>
      <trkpt lat="46.55113" lon="0.3432">
        <ele>95</ele>
        <time>2023-09-17T08:25:17Z</time>
      </trkpt>
      <trkpt lat="46.55115" lon="0.34319">
        <ele>96</ele>
        <time>2023-09-17T08:25:19Z</time>
      </trkpt>
      <trkpt lat="46.55118" lon="0.34316">
        <ele>96.8</ele>
        <time>2023-09-17T08:25:22Z</time>
      </trkpt>
      <trkpt lat="46.55119" lon="0.34316">
        <ele>97</ele>
        <time>2023-09-17T08:25:23Z</time>
      </trkpt>
      <trkpt lat="46.55122" lon="0.34314">
        <ele>97.4</ele>
        <time>2023-09-17T08:25:25Z</time>
      </trkpt>
      <trkpt lat="46.55125" lon="0.34312">
        <ele>98.2</ele>
        <time>2023-09-17T08:25:27Z</time>
      </trkpt>
      <trkpt lat="46.55131" lon="0.34312">
        <ele>99.2</ele>
        <time>2023-09-17T08:25:30Z</time>
      </trkpt>
      <trkpt lat="46.55133" lon="0.34314">
        <ele>99.2</ele>
        <time>2023-09-17T08:25:31Z</time>
      </trkpt>
      <trkpt lat="46.55151" lon="0.34323">
        <ele>99.6</ele>
        <time>2023-09-17T08:25:37Z</time>
      </trkpt>
      <trkpt lat="46.55172" lon="0.34331">
        <ele>100</ele>
        <time>2023-09-17T08:25:43Z</time>
      </trkpt>
      <trkpt lat="46.55181" lon="0.34333">
        <ele>100.2</ele>
        <time>2023-09-17T08:25:46Z</time>
      </trkpt>
      <trkpt lat="46.5519" lon="0.34335">
        <ele>100.4</ele>
        <time>2023-09-17T08:25:49Z</time>
      </trkpt>
      <trkpt lat="46.55203" lon="0.34336">
        <ele>100.8</ele>
        <time>2023-09-17T08:25:54Z</time>
      </trkpt>
      <trkpt lat="46.55209" lon="0.34338">
        <ele>100.8</ele>
        <time>2023-09-17T08:25:56Z</time>
      </trkpt>
      <trkpt lat="46.55219" lon="0.3434">
        <ele>101</ele>
        <time>2023-09-17T08:25:59Z</time>
      </trkpt>
      <trkpt lat="46.55222" lon="0.34341">
        <ele>101.4</ele>
        <time>2023-09-17T08:26:00Z</time>
      </trkpt>
      <trkpt lat="46.55234" lon="0.34344">
        <ele>102</ele>
        <time>2023-09-17T08:26:04Z</time>
      </trkpt>
      <trkpt lat="46.5525" lon="0.34345">
        <ele>102.4</ele>
        <time>2023-09-17T08:26:09Z</time>
      </trkpt>
      <trkpt lat="46.55256" lon="0.34345">
        <ele>102.8</ele>
        <time>2023-09-17T08:26:11Z</time>
      </trkpt>
      <trkpt lat="46.55264" lon="0.34345">
        <ele>103.6</ele>
        <time>2023-09-17T08:26:14Z</time>
      </trkpt>
      <trkpt lat="46.55272" lon="0.34345">
        <ele>104.8</ele>
        <time>2023-09-17T08:26:17Z</time>
      </trkpt>
      <trkpt lat="46.55274" lon="0.34346">
        <ele>105.4</ele>
        <time>2023-09-17T08:26:18Z</time>
      </trkpt>
      <trkpt lat="46.55279" lon="0.34345">
        <ele>105.8</ele>
        <time>2023-09-17T08:26:20Z</time>
      </trkpt>
      <trkpt lat="46.55295" lon="0.34346">
        <ele>107</ele>
        <time>2023-09-17T08:26:25Z</time>
      </trkpt>
      <trkpt lat="46.55313" lon="0.34347">
        <ele>108.4</ele>
        <time>2023-09-17T08:26:31Z</time>
      </trkpt>
      <trkpt lat="46.55333" lon="0.34351">
        <ele>108.6</ele>
        <time>2023-09-17T08:26:37Z</time>
      </trkpt>
      <trkpt lat="46.55343" lon="0.3435">
        <ele>108.2</ele>
        <time>2023-09-17T08:26:40Z</time>
      </trkpt>
      <trkpt lat="46.5535" lon="0.34348">
        <ele>107.8</ele>
        <time>2023-09-17T08:26:42Z</time>
      </trkpt>
      <trkpt lat="46.55354" lon="0.34345">
        <ele>107.6</ele>
        <time>2023-09-17T08:26:44Z</time>
      </trkpt>
      <trkpt lat="46.55362" lon="0.3434">
        <ele>107.6</ele>
        <time>2023-09-17T08:26:47Z</time>
      </trkpt>
      <trkpt lat="46.5538" lon="0.34332">
        <ele>109.6</ele>
        <time>2023-09-17T08:26:53Z</time>
      </trkpt>
      <trkpt lat="46.55394" lon="0.34327">
        <ele>110.6</ele>
        <time>2023-09-17T08:26:56Z</time>
      </trkpt>
      <trkpt lat="46.55412" lon="0.34321">
        <ele>111</ele>
        <time>2023-09-17T08:26:59Z</time>
      </trkpt>
      <trkpt lat="46.55429" lon="0.34321">
        <ele>110.2</ele>
        <time>2023-09-17T08:27:04Z</time>
      </trkpt>
      <trkpt lat="46.55437" lon="0.34322">
        <ele>110</ele>
        <time>2023-09-17T08:27:08Z</time>
      </trkpt>
      <trkpt lat="46.55444" lon="0.34321">
        <ele>110.2</ele>
        <time>2023-09-17T08:27:10Z</time>
      </trkpt>
      <trkpt lat="46.55462" lon="0.34321">
        <ele>111.2</ele>
        <time>2023-09-17T08:27:17Z</time>
      </trkpt>
      <trkpt lat="46.5547" lon="0.34322">
        <ele>111.8</ele>
        <time>2023-09-17T08:27:20Z</time>
      </trkpt>
      <trkpt lat="46.55473" lon="0.34323">
        <ele>111.8</ele>
        <time>2023-09-17T08:27:21Z</time>
      </trkpt>
      <trkpt lat="46.55475" lon="0.34322">
        <ele>112</ele>
        <time>2023-09-17T08:27:22Z</time>
      </trkpt>
      <trkpt lat="46.55479" lon="0.34318">
        <ele>112.2</ele>
        <time>2023-09-17T08:27:24Z</time>
      </trkpt>
      <trkpt lat="46.55479" lon="0.34315">
        <ele>112.4</ele>
        <time>2023-09-17T08:27:25Z</time>
      </trkpt>
      <trkpt lat="46.5548" lon="0.34305">
        <ele>113</ele>
        <time>2023-09-17T08:27:28Z</time>
      </trkpt>
      <trkpt lat="46.55476" lon="0.34298">
        <ele>113.6</ele>
        <time>2023-09-17T08:27:30Z</time>
      </trkpt>
      <trkpt lat="46.55472" lon="0.3429">
        <ele>114.2</ele>
        <time>2023-09-17T08:27:32Z</time>
      </trkpt>
      <trkpt lat="46.55466" lon="0.34276">
        <ele>115.4</ele>
        <time>2023-09-17T08:27:36Z</time>
      </trkpt>
      <trkpt lat="46.55462" lon="0.34268">
        <ele>115.8</ele>
        <time>2023-09-17T08:27:38Z</time>
      </trkpt>
      <trkpt lat="46.55459" lon="0.34254">
        <ele>116.6</ele>
        <time>2023-09-17T08:27:41Z</time>
      </trkpt>
      <trkpt lat="46.55456" lon="0.34241">
        <ele>117.2</ele>
        <time>2023-09-17T08:27:44Z</time>
      </trkpt>
      <trkpt lat="46.55457" lon="0.34235">
        <ele>117.6</ele>
        <time>2023-09-17T08:27:46Z</time>
      </trkpt>
      <trkpt lat="46.55457" lon="0.34233">
        <ele>117.6</ele>
        <time>2023-09-17T08:27:47Z</time>
      </trkpt>
      <trkpt lat="46.55459" lon="0.34231">
        <ele>117.6</ele>
        <time>2023-09-17T08:27:48Z</time>
      </trkpt>
      <trkpt lat="46.55472" lon="0.3423">
        <ele>117.8</ele>
        <time>2023-09-17T08:27:52Z</time>
      </trkpt>
      <trkpt lat="46.55485" lon="0.34229">
        <ele>118.6</ele>
        <time>2023-09-17T08:27:56Z</time>
      </trkpt>
      <trkpt lat="46.555" lon="0.34227">
        <ele>119.2</ele>
        <time>2023-09-17T08:28:00Z</time>
      </trkpt>
      <trkpt lat="46.55532" lon="0.34222">
        <ele>119.2</ele>
        <time>2023-09-17T08:28:07Z</time>
      </trkpt>
      <trkpt lat="46.55542" lon="0.3422">
        <ele>119.4</ele>
        <time>2023-09-17T08:28:09Z</time>
      </trkpt>
      <trkpt lat="46.55563" lon="0.34215">
        <ele>119.6</ele>
        <time>2023-09-17T08:28:14Z</time>
      </trkpt>
      <trkpt lat="46.55565" lon="0.34214">
        <ele>119.6</ele>
        <time>2023-09-17T08:28:15Z</time>
      </trkpt>
      <trkpt lat="46.55567" lon="0.34213">
        <ele>119.6</ele>
        <time>2023-09-17T08:28:16Z</time>
      </trkpt>
      <trkpt lat="46.55569" lon="0.34206">
        <ele>119.6</ele>
        <time>2023-09-17T08:28:19Z</time>
      </trkpt>
      <trkpt lat="46.5558" lon="0.34203">
        <ele>119.4</ele>
        <time>2023-09-17T08:28:23Z</time>
      </trkpt>
      <trkpt lat="46.55606" lon="0.34202">
        <ele>120</ele>
        <time>2023-09-17T08:28:30Z</time>
      </trkpt>
      <trkpt lat="46.55618" lon="0.34203">
        <ele>120.2</ele>
        <time>2023-09-17T08:28:33Z</time>
      </trkpt>
      <trkpt lat="46.5563" lon="0.34206">
        <ele>120.4</ele>
        <time>2023-09-17T08:28:36Z</time>
      </trkpt>
      <trkpt lat="46.55661" lon="0.3421">
        <ele>120.4</ele>
        <time>2023-09-17T08:28:44Z</time>
      </trkpt>
      <trkpt lat="46.55672" lon="0.34198">
        <ele>120.4</ele>
        <time>2023-09-17T08:28:47Z</time>
      </trkpt>
      <trkpt lat="46.55674" lon="0.34192">
        <ele>120.4</ele>
        <time>2023-09-17T08:28:48Z</time>
      </trkpt>
      <trkpt lat="46.55689" lon="0.34151">
        <ele>119.8</ele>
        <time>2023-09-17T08:28:54Z</time>
      </trkpt>
      <trkpt lat="46.55699" lon="0.34106">
        <ele>118.4</ele>
        <time>2023-09-17T08:28:59Z</time>
      </trkpt>
      <trkpt lat="46.55706" lon="0.34098">
        <ele>116.8</ele>
        <time>2023-09-17T08:29:01Z</time>
      </trkpt>
      <trkpt lat="46.55709" lon="0.34096">
        <ele>116</ele>
        <time>2023-09-17T08:29:02Z</time>
      </trkpt>
      <trkpt lat="46.55713" lon="0.34095">
        <ele>115.4</ele>
        <time>2023-09-17T08:29:03Z</time>
      </trkpt>
      <trkpt lat="46.55721" lon="0.34095">
        <ele>114.8</ele>
        <time>2023-09-17T08:29:05Z</time>
      </trkpt>
      <trkpt lat="46.55729" lon="0.34095">
        <ele>114.4</ele>
        <time>2023-09-17T08:29:07Z</time>
      </trkpt>
      <trkpt lat="46.55746" lon="0.34094">
        <ele>114.2</ele>
        <time>2023-09-17T08:29:10Z</time>
      </trkpt>
      <trkpt lat="46.55756" lon="0.34092">
        <ele>114.2</ele>
        <time>2023-09-17T08:29:12Z</time>
      </trkpt>
      <trkpt lat="46.5576" lon="0.34091">
        <ele>114.2</ele>
        <time>2023-09-17T08:29:13Z</time>
      </trkpt>
      <trkpt lat="46.5578" lon="0.34079">
        <ele>114.4</ele>
        <time>2023-09-17T08:29:17Z</time>
      </trkpt>
      <trkpt lat="46.55805" lon="0.34063">
        <ele>113.8</ele>
        <time>2023-09-17T08:29:23Z</time>
      </trkpt>
      <trkpt lat="46.55824" lon="0.34052">
        <ele>113.6</ele>
        <time>2023-09-17T08:29:27Z</time>
      </trkpt>
      <trkpt lat="46.55824" lon="0.34052">
        <ele>113.4</ele>
        <time>2023-09-17T08:29:28Z</time>
      </trkpt>
      <trkpt lat="46.55835" lon="0.34052">
        <ele>113.4</ele>
        <time>2023-09-17T08:29:29Z</time>
      </trkpt>
      <trkpt lat="46.55861" lon="0.34051">
        <ele>113.2</ele>
        <time>2023-09-17T08:29:33Z</time>
      </trkpt>
      <trkpt lat="46.55874" lon="0.34049">
        <ele>113.2</ele>
        <time>2023-09-17T08:29:35Z</time>
      </trkpt>
      <trkpt lat="46.55878" lon="0.34049">
        <ele>113.4</ele>
        <time>2023-09-17T08:29:36Z</time>
      </trkpt>
      <trkpt lat="46.55892" lon="0.34049">
        <ele>113.8</ele>
        <time>2023-09-17T08:29:39Z</time>
      </trkpt>
      <trkpt lat="46.55896" lon="0.34048">
        <ele>114</ele>
        <time>2023-09-17T08:29:40Z</time>
      </trkpt>
      <trkpt lat="46.55902" lon="0.34045">
        <ele>114.2</ele>
        <time>2023-09-17T08:29:41Z</time>
      </trkpt>
      <trkpt lat="46.55908" lon="0.34032">
        <ele>114.4</ele>
        <time>2023-09-17T08:29:44Z</time>
      </trkpt>
      <trkpt lat="46.55919" lon="0.34006">
        <ele>114.2</ele>
        <time>2023-09-17T08:29:48Z</time>
      </trkpt>
      <trkpt lat="46.55923" lon="0.34001">
        <ele>114</ele>
        <time>2023-09-17T08:29:49Z</time>
      </trkpt>
      <trkpt lat="46.55929" lon="0.33994">
        <ele>114</ele>
        <time>2023-09-17T08:29:50Z</time>
      </trkpt>
      <trkpt lat="46.55939" lon="0.33985">
        <ele>114.2</ele>
        <time>2023-09-17T08:29:52Z</time>
      </trkpt>
      <trkpt lat="46.55943" lon="0.33981">
        <ele>114.6</ele>
        <time>2023-09-17T08:29:53Z</time>
      </trkpt>
      <trkpt lat="46.55952" lon="0.33973">
        <ele>115.4</ele>
        <time>2023-09-17T08:29:55Z</time>
      </trkpt>
      <trkpt lat="46.55955" lon="0.33969">
        <ele>115.6</ele>
        <time>2023-09-17T08:29:56Z</time>
      </trkpt>
      <trkpt lat="46.55959" lon="0.33966">
        <ele>115.8</ele>
        <time>2023-09-17T08:29:57Z</time>
      </trkpt>
      <trkpt lat="46.55981" lon="0.33948">
        <ele>116.4</ele>
        <time>2023-09-17T08:30:03Z</time>
      </trkpt>
      <trkpt lat="46.5599" lon="0.33945">
        <ele>116.4</ele>
        <time>2023-09-17T08:30:05Z</time>
      </trkpt>
      <trkpt lat="46.55996" lon="0.33941">
        <ele>116.2</ele>
        <time>2023-09-17T08:30:07Z</time>
      </trkpt>
      <trkpt lat="46.56" lon="0.33938">
        <ele>116</ele>
        <time>2023-09-17T08:30:08Z</time>
      </trkpt>
      <trkpt lat="46.56004" lon="0.33933">
        <ele>115.8</ele>
        <time>2023-09-17T08:30:09Z</time>
      </trkpt>
      <trkpt lat="46.56017" lon="0.33912">
        <ele>115.4</ele>
        <time>2023-09-17T08:30:12Z</time>
      </trkpt>
      <trkpt lat="46.56029" lon="0.3389">
        <ele>115.2</ele>
        <time>2023-09-17T08:30:15Z</time>
      </trkpt>
      <trkpt lat="46.56046" lon="0.33868">
        <ele>115.2</ele>
        <time>2023-09-17T08:30:18Z</time>
      </trkpt>
      <trkpt lat="46.56064" lon="0.33848">
        <ele>115</ele>
        <time>2023-09-17T08:30:21Z</time>
      </trkpt>
      <trkpt lat="46.5607" lon="0.33837">
        <ele>114.4</ele>
        <time>2023-09-17T08:30:23Z</time>
      </trkpt>
      <trkpt lat="46.56072" lon="0.33824">
        <ele>114</ele>
        <time>2023-09-17T08:30:27Z</time>
      </trkpt>
      <trkpt lat="46.56072" lon="0.33815">
        <ele>114</ele>
        <time>2023-09-17T08:30:29Z</time>
      </trkpt>
      <trkpt lat="46.56072" lon="0.3381">
        <ele>113.4</ele>
        <time>2023-09-17T08:30:31Z</time>
      </trkpt>
      <trkpt lat="46.56075" lon="0.33807">
        <ele>113</ele>
        <time>2023-09-17T08:30:37Z</time>
      </trkpt>
      <trkpt lat="46.56079" lon="0.33804">
        <ele>113.2</ele>
        <time>2023-09-17T08:30:41Z</time>
      </trkpt>
      <trkpt lat="46.56083" lon="0.33797">
        <ele>113.2</ele>
        <time>2023-09-17T08:30:44Z</time>
      </trkpt>
      <trkpt lat="46.56085" lon="0.33794">
        <ele>113.2</ele>
        <time>2023-09-17T08:30:45Z</time>
      </trkpt>
      <trkpt lat="46.56092" lon="0.33783">
        <ele>112</ele>
        <time>2023-09-17T08:30:49Z</time>
      </trkpt>
      <trkpt lat="46.56094" lon="0.33781">
        <ele>111.8</ele>
        <time>2023-09-17T08:30:50Z</time>
      </trkpt>
      <trkpt lat="46.56096" lon="0.33778">
        <ele>111.4</ele>
        <time>2023-09-17T08:30:51Z</time>
      </trkpt>
      <trkpt lat="46.56102" lon="0.33774">
        <ele>110.8</ele>
        <time>2023-09-17T08:30:53Z</time>
      </trkpt>
      <trkpt lat="46.56106" lon="0.33771">
        <ele>110.2</ele>
        <time>2023-09-17T08:30:54Z</time>
      </trkpt>
      <trkpt lat="46.5611" lon="0.33768">
        <ele>109.8</ele>
        <time>2023-09-17T08:30:55Z</time>
      </trkpt>
      <trkpt lat="46.56119" lon="0.33763">
        <ele>108.4</ele>
        <time>2023-09-17T08:30:57Z</time>
      </trkpt>
      <trkpt lat="46.56127" lon="0.33757">
        <ele>107.4</ele>
        <time>2023-09-17T08:30:59Z</time>
      </trkpt>
      <trkpt lat="46.56134" lon="0.3375">
        <ele>106.8</ele>
        <time>2023-09-17T08:31:01Z</time>
      </trkpt>
      <trkpt lat="46.56134" lon="0.3375">
        <ele>106.2</ele>
        <time>2023-09-17T08:31:02Z</time>
      </trkpt>
      <trkpt lat="46.5614" lon="0.33742">
        <ele>106</ele>
        <time>2023-09-17T08:31:03Z</time>
      </trkpt>
      <trkpt lat="46.5615" lon="0.33736">
        <ele>105.4</ele>
        <time>2023-09-17T08:31:05Z</time>
      </trkpt>
      <trkpt lat="46.56156" lon="0.33733">
        <ele>104.8</ele>
        <time>2023-09-17T08:31:06Z</time>
      </trkpt>
      <trkpt lat="46.56164" lon="0.33731">
        <ele>104.2</ele>
        <time>2023-09-17T08:31:08Z</time>
      </trkpt>
      <trkpt lat="46.56169" lon="0.33728">
        <ele>103.8</ele>
        <time>2023-09-17T08:31:09Z</time>
      </trkpt>
      <trkpt lat="46.56177" lon="0.33723">
        <ele>102.2</ele>
        <time>2023-09-17T08:31:11Z</time>
      </trkpt>
      <trkpt lat="46.56184" lon="0.33714">
        <ele>100.4</ele>
        <time>2023-09-17T08:31:14Z</time>
      </trkpt>
      <trkpt lat="46.56184" lon="0.33711">
        <ele>100</ele>
        <time>2023-09-17T08:31:15Z</time>
      </trkpt>
      <trkpt lat="46.56185" lon="0.33699">
        <ele>99.2</ele>
        <time>2023-09-17T08:31:18Z</time>
      </trkpt>
      <trkpt lat="46.56182" lon="0.33693">
        <ele>98.8</ele>
        <time>2023-09-17T08:31:20Z</time>
      </trkpt>
      <trkpt lat="46.5618" lon="0.33691">
        <ele>98.4</ele>
        <time>2023-09-17T08:31:21Z</time>
      </trkpt>
      <trkpt lat="46.56178" lon="0.33689">
        <ele>97.8</ele>
        <time>2023-09-17T08:31:22Z</time>
      </trkpt>
      <trkpt lat="46.56177" lon="0.33687">
        <ele>96.6</ele>
        <time>2023-09-17T08:31:24Z</time>
      </trkpt>
      <trkpt lat="46.56174" lon="0.33686">
        <ele>95.6</ele>
        <time>2023-09-17T08:31:27Z</time>
      </trkpt>
      <trkpt lat="46.56171" lon="0.33687">
        <ele>94.8</ele>
        <time>2023-09-17T08:31:29Z</time>
      </trkpt>
      <trkpt lat="46.5617" lon="0.33687">
        <ele>93.8</ele>
        <time>2023-09-17T08:31:30Z</time>
      </trkpt>
      <trkpt lat="46.56166" lon="0.33691">
        <ele>92.8</ele>
        <time>2023-09-17T08:31:32Z</time>
      </trkpt>
      <trkpt lat="46.56159" lon="0.33698">
        <ele>92.2</ele>
        <time>2023-09-17T08:31:36Z</time>
      </trkpt>
      <trkpt lat="46.56158" lon="0.337">
        <ele>91.4</ele>
        <time>2023-09-17T08:31:37Z</time>
      </trkpt>
      <trkpt lat="46.56156" lon="0.33704">
        <ele>90.2</ele>
        <time>2023-09-17T08:31:39Z</time>
      </trkpt>
      <trkpt lat="46.5615" lon="0.33715">
        <ele>89.4</ele>
        <time>2023-09-17T08:31:42Z</time>
      </trkpt>
      <trkpt lat="46.56149" lon="0.33718">
        <ele>89.2</ele>
        <time>2023-09-17T08:31:43Z</time>
      </trkpt>
      <trkpt lat="46.56147" lon="0.33722">
        <ele>89</ele>
        <time>2023-09-17T08:31:44Z</time>
      </trkpt>
      <trkpt lat="46.56135" lon="0.33726">
        <ele>88.4</ele>
        <time>2023-09-17T08:31:47Z</time>
      </trkpt>
      <trkpt lat="46.56129" lon="0.33728">
        <ele>87.2</ele>
        <time>2023-09-17T08:31:49Z</time>
      </trkpt>
      <trkpt lat="46.56121" lon="0.33729">
        <ele>85.4</ele>
        <time>2023-09-17T08:31:51Z</time>
      </trkpt>
      <trkpt lat="46.56114" lon="0.33729">
        <ele>83.4</ele>
        <time>2023-09-17T08:31:53Z</time>
      </trkpt>
      <trkpt lat="46.56108" lon="0.33728">
        <ele>82.2</ele>
        <time>2023-09-17T08:31:55Z</time>
      </trkpt>
      <trkpt lat="46.56104" lon="0.3373">
        <ele>81</ele>
        <time>2023-09-17T08:31:57Z</time>
      </trkpt>
      <trkpt lat="46.56101" lon="0.33731">
        <ele>80</ele>
        <time>2023-09-17T08:31:58Z</time>
      </trkpt>
      <trkpt lat="46.56095" lon="0.33735">
        <ele>78</ele>
        <time>2023-09-17T08:32:00Z</time>
      </trkpt>
      <trkpt lat="46.56091" lon="0.33739">
        <ele>76.8</ele>
        <time>2023-09-17T08:32:02Z</time>
      </trkpt>
      <trkpt lat="46.56083" lon="0.33742">
        <ele>75.8</ele>
        <time>2023-09-17T08:32:05Z</time>
      </trkpt>
      <trkpt lat="46.56075" lon="0.33742">
        <ele>75.6</ele>
        <time>2023-09-17T08:32:06Z</time>
      </trkpt>
      <trkpt lat="46.56066" lon="0.33744">
        <ele>75</ele>
        <time>2023-09-17T08:32:08Z</time>
      </trkpt>
      <trkpt lat="46.56058" lon="0.3375">
        <ele>74.6</ele>
        <time>2023-09-17T08:32:10Z</time>
      </trkpt>
      <trkpt lat="46.56052" lon="0.33758">
        <ele>74</ele>
        <time>2023-09-17T08:32:12Z</time>
      </trkpt>
      <trkpt lat="46.5605" lon="0.33762">
        <ele>73.8</ele>
        <time>2023-09-17T08:32:13Z</time>
      </trkpt>
      <trkpt lat="46.56032" lon="0.33798">
        <ele>73.6</ele>
        <time>2023-09-17T08:32:20Z</time>
      </trkpt>
      <trkpt lat="46.5603" lon="0.33802">
        <ele>73.6</ele>
        <time>2023-09-17T08:32:21Z</time>
      </trkpt>
      <trkpt lat="46.56026" lon="0.33817">
        <ele>73.2</ele>
        <time>2023-09-17T08:32:24Z</time>
      </trkpt>
      <trkpt lat="46.56021" lon="0.33827">
        <ele>73.4</ele>
        <time>2023-09-17T08:32:26Z</time>
      </trkpt>
      <trkpt lat="46.56019" lon="0.33834">
        <ele>73.6</ele>
        <time>2023-09-17T08:32:27Z</time>
      </trkpt>
      <trkpt lat="46.56014" lon="0.33844">
        <ele>73.6</ele>
        <time>2023-09-17T08:32:29Z</time>
      </trkpt>
      <trkpt lat="46.56006" lon="0.33861">
        <ele>73.6</ele>
        <time>2023-09-17T08:32:32Z</time>
      </trkpt>
      <trkpt lat="46.56003" lon="0.33866">
        <ele>73.8</ele>
        <time>2023-09-17T08:32:33Z</time>
      </trkpt>
      <trkpt lat="46.55993" lon="0.33877">
        <ele>74</ele>
        <time>2023-09-17T08:32:35Z</time>
      </trkpt>
      <trkpt lat="46.55981" lon="0.33887">
        <ele>74</ele>
        <time>2023-09-17T08:32:37Z</time>
      </trkpt>
      <trkpt lat="46.55963" lon="0.33903">
        <ele>74.6</ele>
        <time>2023-09-17T08:32:41Z</time>
      </trkpt>
      <trkpt lat="46.55954" lon="0.33909">
        <ele>75.2</ele>
        <time>2023-09-17T08:32:43Z</time>
      </trkpt>
      <trkpt lat="46.55936" lon="0.33918">
        <ele>75.6</ele>
        <time>2023-09-17T08:32:46Z</time>
      </trkpt>
      <trkpt lat="46.55911" lon="0.33915">
        <ele>75.6</ele>
        <time>2023-09-17T08:32:47Z</time>
      </trkpt>
      <trkpt lat="46.55884" lon="0.33911">
        <ele>75.6</ele>
        <time>2023-09-17T08:32:48Z</time>
      </trkpt>
      <trkpt lat="46.5586" lon="0.33913">
        <ele>76</ele>
        <time>2023-09-17T08:32:51Z</time>
      </trkpt>
      <trkpt lat="46.55856" lon="0.33912">
        <ele>76.2</ele>
        <time>2023-09-17T08:32:52Z</time>
      </trkpt>
      <trkpt lat="46.5585" lon="0.33909">
        <ele>76</ele>
        <time>2023-09-17T08:32:53Z</time>
      </trkpt>
      <trkpt lat="46.5583" lon="0.33895">
        <ele>75.6</ele>
        <time>2023-09-17T08:32:56Z</time>
      </trkpt>
      <trkpt lat="46.55809" lon="0.33885">
        <ele>74.4</ele>
        <time>2023-09-17T08:32:59Z</time>
      </trkpt>
      <trkpt lat="46.55792" lon="0.33884">
        <ele>74</ele>
        <time>2023-09-17T08:33:01Z</time>
      </trkpt>
      <trkpt lat="46.55782" lon="0.33889">
        <ele>73.2</ele>
        <time>2023-09-17T08:33:03Z</time>
      </trkpt>
      <trkpt lat="46.55771" lon="0.33897">
        <ele>73</ele>
        <time>2023-09-17T08:33:05Z</time>
      </trkpt>
      <trkpt lat="46.55743" lon="0.33913">
        <ele>73.4</ele>
        <time>2023-09-17T08:33:09Z</time>
      </trkpt>
      <trkpt lat="46.55733" lon="0.33915">
        <ele>73.6</ele>
        <time>2023-09-17T08:33:10Z</time>
      </trkpt>
      <trkpt lat="46.55707" lon="0.33928">
        <ele>73.6</ele>
        <time>2023-09-17T08:33:14Z</time>
      </trkpt>
      <trkpt lat="46.55702" lon="0.33929">
        <ele>73.4</ele>
        <time>2023-09-17T08:33:15Z</time>
      </trkpt>
      <trkpt lat="46.55679" lon="0.33933">
        <ele>72.6</ele>
        <time>2023-09-17T08:33:19Z</time>
      </trkpt>
      <trkpt lat="46.55663" lon="0.33935">
        <ele>72.2</ele>
        <time>2023-09-17T08:33:21Z</time>
      </trkpt>
      <trkpt lat="46.55643" lon="0.33932">
        <ele>72.2</ele>
        <time>2023-09-17T08:33:23Z</time>
      </trkpt>
      <trkpt lat="46.55634" lon="0.33931">
        <ele>72.2</ele>
        <time>2023-09-17T08:33:24Z</time>
      </trkpt>
      <trkpt lat="46.55624" lon="0.33927">
        <ele>71.8</ele>
        <time>2023-09-17T08:33:26Z</time>
      </trkpt>
      <trkpt lat="46.55611" lon="0.33922">
        <ele>71.2</ele>
        <time>2023-09-17T08:33:31Z</time>
      </trkpt>
      <trkpt lat="46.55604" lon="0.33917">
        <ele>71</ele>
        <time>2023-09-17T08:33:36Z</time>
      </trkpt>
      <trkpt lat="46.55599" lon="0.33912">
        <ele>71</ele>
        <time>2023-09-17T08:33:37Z</time>
      </trkpt>
      <trkpt lat="46.55588" lon="0.33905">
        <ele>71.2</ele>
        <time>2023-09-17T08:33:42Z</time>
      </trkpt>
      <trkpt lat="46.55573" lon="0.33894">
        <ele>71.4</ele>
        <time>2023-09-17T08:33:47Z</time>
      </trkpt>
      <trkpt lat="46.5556" lon="0.33881">
        <ele>71.8</ele>
        <time>2023-09-17T08:33:50Z</time>
      </trkpt>
      <trkpt lat="46.55556" lon="0.33874">
        <ele>72</ele>
        <time>2023-09-17T08:33:51Z</time>
      </trkpt>
      <trkpt lat="46.55553" lon="0.33867">
        <ele>72</ele>
        <time>2023-09-17T08:33:52Z</time>
      </trkpt>
      <trkpt lat="46.55553" lon="0.33867">
        <ele>72.2</ele>
        <time>2023-09-17T08:33:53Z</time>
      </trkpt>
      <trkpt lat="46.55537" lon="0.33841">
        <ele>72</ele>
        <time>2023-09-17T08:33:56Z</time>
      </trkpt>
      <trkpt lat="46.55525" lon="0.33824">
        <ele>71.8</ele>
        <time>2023-09-17T08:33:59Z</time>
      </trkpt>
      <trkpt lat="46.55517" lon="0.33814">
        <ele>71.8</ele>
        <time>2023-09-17T08:34:01Z</time>
      </trkpt>
      <trkpt lat="46.55498" lon="0.338">
        <ele>71.8</ele>
        <time>2023-09-17T08:34:05Z</time>
      </trkpt>
      <trkpt lat="46.55467" lon="0.33786">
        <ele>72.2</ele>
        <time>2023-09-17T08:34:11Z</time>
      </trkpt>
      <trkpt lat="46.55461" lon="0.33786">
        <ele>72.2</ele>
        <time>2023-09-17T08:34:12Z</time>
      </trkpt>
      <trkpt lat="46.55425" lon="0.3378">
        <ele>72.2</ele>
        <time>2023-09-17T08:34:18Z</time>
      </trkpt>
      <trkpt lat="46.55397" lon="0.33775">
        <ele>72.4</ele>
        <time>2023-09-17T08:34:24Z</time>
      </trkpt>
      <trkpt lat="46.55388" lon="0.3377">
        <ele>72</ele>
        <time>2023-09-17T08:34:26Z</time>
      </trkpt>
      <trkpt lat="46.55381" lon="0.33764">
        <ele>72</ele>
        <time>2023-09-17T08:34:28Z</time>
      </trkpt>
      <trkpt lat="46.55377" lon="0.33762">
        <ele>72</ele>
        <time>2023-09-17T08:34:29Z</time>
      </trkpt>
      <trkpt lat="46.55362" lon="0.33758">
        <ele>72.2</ele>
        <time>2023-09-17T08:34:32Z</time>
      </trkpt>
      <trkpt lat="46.55349" lon="0.33758">
        <ele>72.4</ele>
        <time>2023-09-17T08:34:34Z</time>
      </trkpt>
      <trkpt lat="46.55328" lon="0.33756">
        <ele>72.4</ele>
        <time>2023-09-17T08:34:36Z</time>
      </trkpt>
      <trkpt lat="46.55315" lon="0.33753">
        <ele>72.4</ele>
        <time>2023-09-17T08:34:37Z</time>
      </trkpt>
      <trkpt lat="46.55269" lon="0.33746">
        <ele>71.6</ele>
        <time>2023-09-17T08:34:42Z</time>
      </trkpt>
      <trkpt lat="46.55218" lon="0.33745">
        <ele>72.4</ele>
        <time>2023-09-17T08:34:48Z</time>
      </trkpt>
      <trkpt lat="46.55171" lon="0.33743">
        <ele>72.6</ele>
        <time>2023-09-17T08:34:54Z</time>
      </trkpt>
      <trkpt lat="46.5513" lon="0.33739">
        <ele>72.6</ele>
        <time>2023-09-17T08:35:00Z</time>
      </trkpt>
      <trkpt lat="46.55083" lon="0.33731">
        <ele>72.8</ele>
        <time>2023-09-17T08:35:07Z</time>
      </trkpt>
      <trkpt lat="46.55044" lon="0.33721">
        <ele>72.6</ele>
        <time>2023-09-17T08:35:13Z</time>
      </trkpt>
      <trkpt lat="46.55028" lon="0.33719">
        <ele>72.4</ele>
        <time>2023-09-17T08:35:17Z</time>
      </trkpt>
      <trkpt lat="46.55017" lon="0.33718">
        <ele>71.8</ele>
        <time>2023-09-17T08:35:21Z</time>
      </trkpt>
      <trkpt lat="46.55017" lon="0.33719">
        <ele>71.8</ele>
        <time>2023-09-17T08:35:22Z</time>
      </trkpt>
      <trkpt lat="46.55015" lon="0.33734">
        <ele>72.4</ele>
        <time>2023-09-17T08:35:26Z</time>
      </trkpt>
      <trkpt lat="46.55013" lon="0.33756">
        <ele>72.4</ele>
        <time>2023-09-17T08:35:31Z</time>
      </trkpt>
      <trkpt lat="46.55012" lon="0.33765">
        <ele>72.2</ele>
        <time>2023-09-17T08:35:33Z</time>
      </trkpt>
      <trkpt lat="46.55012" lon="0.3377">
        <ele>72</ele>
        <time>2023-09-17T08:35:34Z</time>
      </trkpt>
      <trkpt lat="46.5501" lon="0.33791">
        <ele>72</ele>
        <time>2023-09-17T08:35:38Z</time>
      </trkpt>
      <trkpt lat="46.55009" lon="0.33807">
        <ele>72</ele>
        <time>2023-09-17T08:35:41Z</time>
      </trkpt>
      <trkpt lat="46.55007" lon="0.33835">
        <ele>72.4</ele>
        <time>2023-09-17T08:35:45Z</time>
      </trkpt>
      <trkpt lat="46.55008" lon="0.33848">
        <ele>72.6</ele>
        <time>2023-09-17T08:35:47Z</time>
      </trkpt>
      <trkpt lat="46.55008" lon="0.33885">
        <ele>73</ele>
        <time>2023-09-17T08:35:53Z</time>
      </trkpt>
      <trkpt lat="46.55006" lon="0.33896">
        <ele>73</ele>
        <time>2023-09-17T08:35:56Z</time>
      </trkpt>
      <trkpt lat="46.55004" lon="0.33897">
        <ele>72.8</ele>
        <time>2023-09-17T08:35:57Z</time>
      </trkpt>
      <trkpt lat="46.54991" lon="0.339">
        <ele>72.8</ele>
        <time>2023-09-17T08:36:01Z</time>
      </trkpt>
      <trkpt lat="46.54975" lon="0.33895">
        <ele>73.2</ele>
        <time>2023-09-17T08:36:06Z</time>
      </trkpt>
      <trkpt lat="46.54973" lon="0.33893">
        <ele>73.2</ele>
        <time>2023-09-17T08:36:07Z</time>
      </trkpt>
      <trkpt lat="46.54949" lon="0.33876">
        <ele>73.2</ele>
        <time>2023-09-17T08:36:14Z</time>
      </trkpt>
      <trkpt lat="46.54938" lon="0.33866">
        <ele>73.4</ele>
        <time>2023-09-17T08:36:17Z</time>
      </trkpt>
      <trkpt lat="46.54926" lon="0.33858">
        <ele>74</ele>
        <time>2023-09-17T08:36:20Z</time>
      </trkpt>
      <trkpt lat="46.54915" lon="0.33853">
        <ele>74.4</ele>
        <time>2023-09-17T08:36:23Z</time>
      </trkpt>
      <trkpt lat="46.54906" lon="0.3385">
        <ele>75.4</ele>
        <time>2023-09-17T08:36:26Z</time>
      </trkpt>
      <trkpt lat="46.54901" lon="0.33847">
        <ele>76.8</ele>
        <time>2023-09-17T08:36:28Z</time>
      </trkpt>
      <trkpt lat="46.54895" lon="0.33842">
        <ele>78</ele>
        <time>2023-09-17T08:36:31Z</time>
      </trkpt>
      <trkpt lat="46.54892" lon="0.33839">
        <ele>78.4</ele>
        <time>2023-09-17T08:36:33Z</time>
      </trkpt>
      <trkpt lat="46.54888" lon="0.33838">
        <ele>79</ele>
        <time>2023-09-17T08:36:34Z</time>
      </trkpt>
      <trkpt lat="46.54875" lon="0.33831">
        <ele>80.6</ele>
        <time>2023-09-17T08:36:37Z</time>
      </trkpt>
      <trkpt lat="46.54872" lon="0.33829">
        <ele>81</ele>
        <time>2023-09-17T08:36:38Z</time>
      </trkpt>
      <trkpt lat="46.54866" lon="0.33825">
        <ele>81.6</ele>
        <time>2023-09-17T08:36:40Z</time>
      </trkpt>
      <trkpt lat="46.54859" lon="0.3382">
        <ele>82.8</ele>
        <time>2023-09-17T08:36:43Z</time>
      </trkpt>
      <trkpt lat="46.54848" lon="0.33815">
        <ele>83.8</ele>
        <time>2023-09-17T08:36:46Z</time>
      </trkpt>
      <trkpt lat="46.54842" lon="0.33811">
        <ele>84.4</ele>
        <time>2023-09-17T08:36:48Z</time>
      </trkpt>
      <trkpt lat="46.54835" lon="0.33808">
        <ele>85</ele>
        <time>2023-09-17T08:36:50Z</time>
      </trkpt>
      <trkpt lat="46.54823" lon="0.338">
        <ele>86.2</ele>
        <time>2023-09-17T08:36:53Z</time>
      </trkpt>
      <trkpt lat="46.54817" lon="0.33796">
        <ele>87</ele>
        <time>2023-09-17T08:36:55Z</time>
      </trkpt>
      <trkpt lat="46.54815" lon="0.33794">
        <ele>87.2</ele>
        <time>2023-09-17T08:36:56Z</time>
      </trkpt>
      <trkpt lat="46.54809" lon="0.33789">
        <ele>88.2</ele>
        <time>2023-09-17T08:36:59Z</time>
      </trkpt>
      <trkpt lat="46.54803" lon="0.33784">
        <ele>89.4</ele>
        <time>2023-09-17T08:37:02Z</time>
      </trkpt>
      <trkpt lat="46.54796" lon="0.33776">
        <ele>90.8</ele>
        <time>2023-09-17T08:37:06Z</time>
      </trkpt>
      <trkpt lat="46.54789" lon="0.33771">
        <ele>91.8</ele>
        <time>2023-09-17T08:37:09Z</time>
      </trkpt>
      <trkpt lat="46.54779" lon="0.33764">
        <ele>93.2</ele>
        <time>2023-09-17T08:37:14Z</time>
      </trkpt>
      <trkpt lat="46.54776" lon="0.33761">
        <ele>94</ele>
        <time>2023-09-17T08:37:16Z</time>
      </trkpt>
      <trkpt lat="46.54772" lon="0.33757">
        <ele>94.2</ele>
        <time>2023-09-17T08:37:18Z</time>
      </trkpt>
      <trkpt lat="46.54758" lon="0.33747">
        <ele>95.2</ele>
        <time>2023-09-17T08:37:24Z</time>
      </trkpt>
      <trkpt lat="46.54755" lon="0.33746">
        <ele>95.4</ele>
        <time>2023-09-17T08:37:25Z</time>
      </trkpt>
      <trkpt lat="46.54735" lon="0.33738">
        <ele>96.4</ele>
        <time>2023-09-17T08:37:30Z</time>
      </trkpt>
      <trkpt lat="46.54723" lon="0.33732">
        <ele>97.6</ele>
        <time>2023-09-17T08:37:33Z</time>
      </trkpt>
      <trkpt lat="46.547" lon="0.33723">
        <ele>98.6</ele>
        <time>2023-09-17T08:37:39Z</time>
      </trkpt>
      <trkpt lat="46.54678" lon="0.33716">
        <ele>99.6</ele>
        <time>2023-09-17T08:37:45Z</time>
      </trkpt>
      <trkpt lat="46.54674" lon="0.33714">
        <ele>99.8</ele>
        <time>2023-09-17T08:37:46Z</time>
      </trkpt>
      <trkpt lat="46.54659" lon="0.33705">
        <ele>100</ele>
        <time>2023-09-17T08:37:51Z</time>
      </trkpt>
      <trkpt lat="46.54634" lon="0.33692">
        <ele>100.2</ele>
        <time>2023-09-17T08:37:57Z</time>
      </trkpt>
      <trkpt lat="46.54607" lon="0.33677">
        <ele>99.8</ele>
        <time>2023-09-17T08:38:03Z</time>
      </trkpt>
      <trkpt lat="46.54594" lon="0.3367">
        <ele>99.8</ele>
        <time>2023-09-17T08:38:06Z</time>
      </trkpt>
      <trkpt lat="46.54592" lon="0.33665">
        <ele>99.6</ele>
        <time>2023-09-17T08:38:07Z</time>
      </trkpt>
      <trkpt lat="46.54591" lon="0.33658">
        <ele>99.6</ele>
        <time>2023-09-17T08:38:08Z</time>
      </trkpt>
      <trkpt lat="46.54593" lon="0.33641">
        <ele>99.6</ele>
        <time>2023-09-17T08:38:10Z</time>
      </trkpt>
      <trkpt lat="46.54594" lon="0.33632">
        <ele>99</ele>
        <time>2023-09-17T08:38:11Z</time>
      </trkpt>
      <trkpt lat="46.54595" lon="0.33625">
        <ele>98.2</ele>
        <time>2023-09-17T08:38:12Z</time>
      </trkpt>
      <trkpt lat="46.54597" lon="0.33618">
        <ele>96.6</ele>
        <time>2023-09-17T08:38:13Z</time>
      </trkpt>
      <trkpt lat="46.54599" lon="0.33615">
        <ele>95.4</ele>
        <time>2023-09-17T08:38:14Z</time>
      </trkpt>
      <trkpt lat="46.54602" lon="0.33614">
        <ele>94.6</ele>
        <time>2023-09-17T08:38:15Z</time>
      </trkpt>
      <trkpt lat="46.54605" lon="0.33616">
        <ele>94</ele>
        <time>2023-09-17T08:38:16Z</time>
      </trkpt>
      <trkpt lat="46.54609" lon="0.33619">
        <ele>93.6</ele>
        <time>2023-09-17T08:38:17Z</time>
      </trkpt>
      <trkpt lat="46.54618" lon="0.33624">
        <ele>92.6</ele>
        <time>2023-09-17T08:38:19Z</time>
      </trkpt>
      <trkpt lat="46.54629" lon="0.33631">
        <ele>92.2</ele>
        <time>2023-09-17T08:38:21Z</time>
      </trkpt>
      <trkpt lat="46.54654" lon="0.33645">
        <ele>91.6</ele>
        <time>2023-09-17T08:38:25Z</time>
      </trkpt>
      <trkpt lat="46.54661" lon="0.33647">
        <ele>91.6</ele>
        <time>2023-09-17T08:38:26Z</time>
      </trkpt>
      <trkpt lat="46.54669" lon="0.33648">
        <ele>91.4</ele>
        <time>2023-09-17T08:38:27Z</time>
      </trkpt>
      <trkpt lat="46.54687" lon="0.33645">
        <ele>91</ele>
        <time>2023-09-17T08:38:30Z</time>
      </trkpt>
      <trkpt lat="46.54691" lon="0.33642">
        <ele>90.6</ele>
        <time>2023-09-17T08:38:32Z</time>
      </trkpt>
      <trkpt lat="46.54692" lon="0.33641">
        <ele>90.6</ele>
        <time>2023-09-17T08:38:33Z</time>
      </trkpt>
      <trkpt lat="46.54692" lon="0.3364">
        <ele>90.4</ele>
        <time>2023-09-17T08:38:34Z</time>
      </trkpt>
      <trkpt lat="46.54698" lon="0.33635">
        <ele>90.4</ele>
        <time>2023-09-17T08:38:37Z</time>
      </trkpt>
      <trkpt lat="46.54716" lon="0.33612">
        <ele>90.8</ele>
        <time>2023-09-17T08:38:42Z</time>
      </trkpt>
      <trkpt lat="46.54728" lon="0.33594">
        <ele>90.8</ele>
        <time>2023-09-17T08:38:45Z</time>
      </trkpt>
      <trkpt lat="46.5474" lon="0.33576">
        <ele>91</ele>
        <time>2023-09-17T08:38:48Z</time>
      </trkpt>
      <trkpt lat="46.54762" lon="0.33535">
        <ele>90.6</ele>
        <time>2023-09-17T08:38:54Z</time>
      </trkpt>
      <trkpt lat="46.54784" lon="0.33494">
        <ele>90.6</ele>
        <time>2023-09-17T08:39:00Z</time>
      </trkpt>
      <trkpt lat="46.54809" lon="0.33444">
        <ele>90.8</ele>
        <time>2023-09-17T08:39:07Z</time>
      </trkpt>
      <trkpt lat="46.54835" lon="0.33402">
        <ele>91.2</ele>
        <time>2023-09-17T08:39:13Z</time>
      </trkpt>
      <trkpt lat="46.54839" lon="0.33397">
        <ele>91.2</ele>
        <time>2023-09-17T08:39:14Z</time>
      </trkpt>
      <trkpt lat="46.54865" lon="0.33367">
        <ele>91</ele>
        <time>2023-09-17T08:39:20Z</time>
      </trkpt>
      <trkpt lat="46.54884" lon="0.33352">
        <ele>91.2</ele>
        <time>2023-09-17T08:39:24Z</time>
      </trkpt>
      <trkpt lat="46.54889" lon="0.3335">
        <ele>91.2</ele>
        <time>2023-09-17T08:39:25Z</time>
      </trkpt>
      <trkpt lat="46.54912" lon="0.33343">
        <ele>90.8</ele>
        <time>2023-09-17T08:39:30Z</time>
      </trkpt>
      <trkpt lat="46.54923" lon="0.33342">
        <ele>90.6</ele>
        <time>2023-09-17T08:39:35Z</time>
      </trkpt>
      <trkpt lat="46.54936" lon="0.33345">
        <ele>90.8</ele>
        <time>2023-09-17T08:39:41Z</time>
      </trkpt>
      <trkpt lat="46.54938" lon="0.33345">
        <ele>90.8</ele>
        <time>2023-09-17T08:39:43Z</time>
      </trkpt>
      <trkpt lat="46.54937" lon="0.33342">
        <ele>91</ele>
        <time>2023-09-17T08:39:45Z</time>
      </trkpt>
      <trkpt lat="46.54936" lon="0.33336">
        <ele>92.2</ele>
        <time>2023-09-17T08:39:49Z</time>
      </trkpt>
      <trkpt lat="46.54936" lon="0.33335">
        <ele>92.8</ele>
        <time>2023-09-17T08:39:50Z</time>
      </trkpt>
      <trkpt lat="46.54936" lon="0.33334">
        <ele>93.4</ele>
        <time>2023-09-17T08:39:51Z</time>
      </trkpt>
      <trkpt lat="46.54937" lon="0.3333">
        <ele>94.6</ele>
        <time>2023-09-17T08:39:54Z</time>
      </trkpt>
      <trkpt lat="46.54937" lon="0.33326">
        <ele>95.2</ele>
        <time>2023-09-17T08:39:56Z</time>
      </trkpt>
      <trkpt lat="46.54936" lon="0.33323">
        <ele>95.6</ele>
        <time>2023-09-17T08:39:58Z</time>
      </trkpt>
      <trkpt lat="46.54935" lon="0.33321">
        <ele>96.6</ele>
        <time>2023-09-17T08:40:01Z</time>
      </trkpt>
      <trkpt lat="46.54934" lon="0.33316">
        <ele>97.8</ele>
        <time>2023-09-17T08:40:04Z</time>
      </trkpt>
      <trkpt lat="46.54933" lon="0.33315">
        <ele>98.2</ele>
        <time>2023-09-17T08:40:05Z</time>
      </trkpt>
      <trkpt lat="46.54931" lon="0.33311">
        <ele>99.2</ele>
        <time>2023-09-17T08:40:08Z</time>
      </trkpt>
      <trkpt lat="46.5493" lon="0.33308">
        <ele>99.4</ele>
        <time>2023-09-17T08:40:10Z</time>
      </trkpt>
      <trkpt lat="46.54928" lon="0.33306">
        <ele>100.2</ele>
        <time>2023-09-17T08:40:12Z</time>
      </trkpt>
      <trkpt lat="46.54925" lon="0.33304">
        <ele>100.6</ele>
        <time>2023-09-17T08:40:14Z</time>
      </trkpt>
      <trkpt lat="46.54922" lon="0.33301">
        <ele>101.2</ele>
        <time>2023-09-17T08:40:16Z</time>
      </trkpt>
      <trkpt lat="46.54921" lon="0.333">
        <ele>101.4</ele>
        <time>2023-09-17T08:40:17Z</time>
      </trkpt>
      <trkpt lat="46.54912" lon="0.33292">
        <ele>102.2</ele>
        <time>2023-09-17T08:40:22Z</time>
      </trkpt>
      <trkpt lat="46.54908" lon="0.33286">
        <ele>103.4</ele>
        <time>2023-09-17T08:40:26Z</time>
      </trkpt>
      <trkpt lat="46.54903" lon="0.3328">
        <ele>104.4</ele>
        <time>2023-09-17T08:40:30Z</time>
      </trkpt>
      <trkpt lat="46.54902" lon="0.33279">
        <ele>104.6</ele>
        <time>2023-09-17T08:40:31Z</time>
      </trkpt>
      <trkpt lat="46.54901" lon="0.33278">
        <ele>104.8</ele>
        <time>2023-09-17T08:40:32Z</time>
      </trkpt>
      <trkpt lat="46.54899" lon="0.33276">
        <ele>105.8</ele>
        <time>2023-09-17T08:40:35Z</time>
      </trkpt>
      <trkpt lat="46.54897" lon="0.33273">
        <ele>106.2</ele>
        <time>2023-09-17T08:40:37Z</time>
      </trkpt>
      <trkpt lat="46.54894" lon="0.33269">
        <ele>107.2</ele>
        <time>2023-09-17T08:40:40Z</time>
      </trkpt>
      <trkpt lat="46.54893" lon="0.33268">
        <ele>107.4</ele>
        <time>2023-09-17T08:40:41Z</time>
      </trkpt>
      <trkpt lat="46.54892" lon="0.33267">
        <ele>107.6</ele>
        <time>2023-09-17T08:40:42Z</time>
      </trkpt>
      <trkpt lat="46.54889" lon="0.33265">
        <ele>107.8</ele>
        <time>2023-09-17T08:40:44Z</time>
      </trkpt>
      <trkpt lat="46.54887" lon="0.33262">
        <ele>108.2</ele>
        <time>2023-09-17T08:40:46Z</time>
      </trkpt>
      <trkpt lat="46.5488" lon="0.33252">
        <ele>109.8</ele>
        <time>2023-09-17T08:40:51Z</time>
      </trkpt>
      <trkpt lat="46.54875" lon="0.33245">
        <ele>110.8</ele>
        <time>2023-09-17T08:40:56Z</time>
      </trkpt>
      <trkpt lat="46.54872" lon="0.3324">
        <ele>111.2</ele>
        <time>2023-09-17T08:40:59Z</time>
      </trkpt>
      <trkpt lat="46.5487" lon="0.33235">
        <ele>111.8</ele>
        <time>2023-09-17T08:41:02Z</time>
      </trkpt>
      <trkpt lat="46.54866" lon="0.33226">
        <ele>113</ele>
        <time>2023-09-17T08:41:07Z</time>
      </trkpt>
      <trkpt lat="46.54861" lon="0.33215">
        <ele>113.8</ele>
        <time>2023-09-17T08:41:12Z</time>
      </trkpt>
      <trkpt lat="46.5486" lon="0.33212">
        <ele>114.2</ele>
        <time>2023-09-17T08:41:13Z</time>
      </trkpt>
      <trkpt lat="46.54854" lon="0.33196">
        <ele>115</ele>
        <time>2023-09-17T08:41:19Z</time>
      </trkpt>
      <trkpt lat="46.54851" lon="0.33189">
        <ele>115.2</ele>
        <time>2023-09-17T08:41:21Z</time>
      </trkpt>
      <trkpt lat="46.5484" lon="0.33168">
        <ele>115.8</ele>
        <time>2023-09-17T08:41:26Z</time>
      </trkpt>
      <trkpt lat="46.54836" lon="0.33158">
        <ele>116.4</ele>
        <time>2023-09-17T08:41:29Z</time>
      </trkpt>
      <trkpt lat="46.54833" lon="0.33145">
        <ele>117.4</ele>
        <time>2023-09-17T08:41:34Z</time>
      </trkpt>
      <trkpt lat="46.54831" lon="0.33129">
        <ele>118.6</ele>
        <time>2023-09-17T08:41:40Z</time>
      </trkpt>
      <trkpt lat="46.54831" lon="0.33124">
        <ele>119</ele>
        <time>2023-09-17T08:41:42Z</time>
      </trkpt>
      <trkpt lat="46.54831" lon="0.33115">
        <ele>119.6</ele>
        <time>2023-09-17T08:41:45Z</time>
      </trkpt>
      <trkpt lat="46.54829" lon="0.3309">
        <ele>120.6</ele>
        <time>2023-09-17T08:41:51Z</time>
      </trkpt>
      <trkpt lat="46.54829" lon="0.3308">
        <ele>120.8</ele>
        <time>2023-09-17T08:41:53Z</time>
      </trkpt>
      <trkpt lat="46.54826" lon="0.33042">
        <ele>121.8</ele>
        <time>2023-09-17T08:42:00Z</time>
      </trkpt>
      <trkpt lat="46.54825" lon="0.33035">
        <ele>121.8</ele>
        <time>2023-09-17T08:42:01Z</time>
      </trkpt>
      <trkpt lat="46.54824" lon="0.33007">
        <ele>122.2</ele>
        <time>2023-09-17T08:42:06Z</time>
      </trkpt>
      <trkpt lat="46.54821" lon="0.32958">
        <ele>122.4</ele>
        <time>2023-09-17T08:42:13Z</time>
      </trkpt>
      <trkpt lat="46.54819" lon="0.32943">
        <ele>122.6</ele>
        <time>2023-09-17T08:42:15Z</time>
      </trkpt>
      <trkpt lat="46.54815" lon="0.32928">
        <ele>122.4</ele>
        <time>2023-09-17T08:42:17Z</time>
      </trkpt>
      <trkpt lat="46.54813" lon="0.3292">
        <ele>122.4</ele>
        <time>2023-09-17T08:42:18Z</time>
      </trkpt>
      <trkpt lat="46.5481" lon="0.32914">
        <ele>122.4</ele>
        <time>2023-09-17T08:42:19Z</time>
      </trkpt>
      <trkpt lat="46.54806" lon="0.32906">
        <ele>122.2</ele>
        <time>2023-09-17T08:42:21Z</time>
      </trkpt>
      <trkpt lat="46.54801" lon="0.32914">
        <ele>122.4</ele>
        <time>2023-09-17T08:42:27Z</time>
      </trkpt>
      <trkpt lat="46.54798" lon="0.32922">
        <ele>122.6</ele>
        <time>2023-09-17T08:42:31Z</time>
      </trkpt>
      <trkpt lat="46.54793" lon="0.32929">
        <ele>122.6</ele>
        <time>2023-09-17T08:42:34Z</time>
      </trkpt>
      <trkpt lat="46.54773" lon="0.32941">
        <ele>122.4</ele>
        <time>2023-09-17T08:42:39Z</time>
      </trkpt>
      <trkpt lat="46.5477" lon="0.32946">
        <ele>122.4</ele>
        <time>2023-09-17T08:42:40Z</time>
      </trkpt>
      <trkpt lat="46.54761" lon="0.32957">
        <ele>122.4</ele>
        <time>2023-09-17T08:42:43Z</time>
      </trkpt>
      <trkpt lat="46.54756" lon="0.3296">
        <ele>122.4</ele>
        <time>2023-09-17T08:42:44Z</time>
      </trkpt>
      <trkpt lat="46.54751" lon="0.32961">
        <ele>122.4</ele>
        <time>2023-09-17T08:42:45Z</time>
      </trkpt>
      <trkpt lat="46.54746" lon="0.32961">
        <ele>122.2</ele>
        <time>2023-09-17T08:42:47Z</time>
      </trkpt>
      <trkpt lat="46.54742" lon="0.32961">
        <ele>122.2</ele>
        <time>2023-09-17T08:42:48Z</time>
      </trkpt>
      <trkpt lat="46.54739" lon="0.3296">
        <ele>122.2</ele>
        <time>2023-09-17T08:42:49Z</time>
      </trkpt>
      <trkpt lat="46.54733" lon="0.32956">
        <ele>122</ele>
        <time>2023-09-17T08:42:51Z</time>
      </trkpt>
      <trkpt lat="46.5473" lon="0.32949">
        <ele>122</ele>
        <time>2023-09-17T08:42:53Z</time>
      </trkpt>
      <trkpt lat="46.54726" lon="0.32942">
        <ele>121.8</ele>
        <time>2023-09-17T08:42:55Z</time>
      </trkpt>
      <trkpt lat="46.54724" lon="0.32936">
        <ele>121.6</ele>
        <time>2023-09-17T08:42:57Z</time>
      </trkpt>
      <trkpt lat="46.54722" lon="0.32934">
        <ele>121.6</ele>
        <time>2023-09-17T08:42:58Z</time>
      </trkpt>
      <trkpt lat="46.54722" lon="0.32933">
        <ele>121.6</ele>
        <time>2023-09-17T08:42:59Z</time>
      </trkpt>
      <trkpt lat="46.54714" lon="0.32925">
        <ele>121.4</ele>
        <time>2023-09-17T08:43:01Z</time>
      </trkpt>
      <trkpt lat="46.5471" lon="0.32923">
        <ele>121.2</ele>
        <time>2023-09-17T08:43:03Z</time>
      </trkpt>
      <trkpt lat="46.54699" lon="0.32914">
        <ele>121.2</ele>
        <time>2023-09-17T08:43:05Z</time>
      </trkpt>
      <trkpt lat="46.5469" lon="0.32905">
        <ele>120.8</ele>
        <time>2023-09-17T08:43:07Z</time>
      </trkpt>
      <trkpt lat="46.54686" lon="0.329">
        <ele>120.8</ele>
        <time>2023-09-17T08:43:08Z</time>
      </trkpt>
      <trkpt lat="46.54681" lon="0.32896">
        <ele>120.6</ele>
        <time>2023-09-17T08:43:09Z</time>
      </trkpt>
      <trkpt lat="46.54668" lon="0.32888">
        <ele>120.2</ele>
        <time>2023-09-17T08:43:14Z</time>
      </trkpt>
      <trkpt lat="46.54666" lon="0.32886">
        <ele>120.2</ele>
        <time>2023-09-17T08:43:15Z</time>
      </trkpt>
      <trkpt lat="46.54664" lon="0.32884">
        <ele>120</ele>
        <time>2023-09-17T08:43:16Z</time>
      </trkpt>
      <trkpt lat="46.54648" lon="0.32862">
        <ele>119.8</ele>
        <time>2023-09-17T08:43:20Z</time>
      </trkpt>
      <trkpt lat="46.54639" lon="0.32851">
        <ele>119.6</ele>
        <time>2023-09-17T08:43:22Z</time>
      </trkpt>
      <trkpt lat="46.5463" lon="0.32839">
        <ele>119.2</ele>
        <time>2023-09-17T08:43:24Z</time>
      </trkpt>
      <trkpt lat="46.54625" lon="0.32834">
        <ele>119</ele>
        <time>2023-09-17T08:43:25Z</time>
      </trkpt>
      <trkpt lat="46.5462" lon="0.32831">
        <ele>118.8</ele>
        <time>2023-09-17T08:43:26Z</time>
      </trkpt>
      <trkpt lat="46.54616" lon="0.32826">
        <ele>118.4</ele>
        <time>2023-09-17T08:43:27Z</time>
      </trkpt>
      <trkpt lat="46.54611" lon="0.32821">
        <ele>118.2</ele>
        <time>2023-09-17T08:43:28Z</time>
      </trkpt>
      <trkpt lat="46.54604" lon="0.3281">
        <ele>117.8</ele>
        <time>2023-09-17T08:43:30Z</time>
      </trkpt>
      <trkpt lat="46.54597" lon="0.32799">
        <ele>117.4</ele>
        <time>2023-09-17T08:43:32Z</time>
      </trkpt>
      <trkpt lat="46.54592" lon="0.32792">
        <ele>116.4</ele>
        <time>2023-09-17T08:43:34Z</time>
      </trkpt>
      <trkpt lat="46.54589" lon="0.32787">
        <ele>115.8</ele>
        <time>2023-09-17T08:43:35Z</time>
      </trkpt>
      <trkpt lat="46.5458" lon="0.32772">
        <ele>115</ele>
        <time>2023-09-17T08:43:38Z</time>
      </trkpt>
      <trkpt lat="46.54576" lon="0.32769">
        <ele>114.8</ele>
        <time>2023-09-17T08:43:39Z</time>
      </trkpt>
      <trkpt lat="46.54567" lon="0.32757">
        <ele>114.8</ele>
        <time>2023-09-17T08:43:41Z</time>
      </trkpt>
      <trkpt lat="46.54561" lon="0.32747">
        <ele>114</ele>
        <time>2023-09-17T08:43:43Z</time>
      </trkpt>
      <trkpt lat="46.54559" lon="0.32743">
        <ele>113.6</ele>
        <time>2023-09-17T08:43:44Z</time>
      </trkpt>
      <trkpt lat="46.54556" lon="0.32739">
        <ele>113.4</ele>
        <time>2023-09-17T08:43:45Z</time>
      </trkpt>
      <trkpt lat="46.54551" lon="0.32726">
        <ele>113.2</ele>
        <time>2023-09-17T08:43:47Z</time>
      </trkpt>
      <trkpt lat="46.54548" lon="0.32718">
        <ele>112.2</ele>
        <time>2023-09-17T08:43:48Z</time>
      </trkpt>
      <trkpt lat="46.54547" lon="0.32711">
        <ele>111.8</ele>
        <time>2023-09-17T08:43:49Z</time>
      </trkpt>
      <trkpt lat="46.54544" lon="0.32699">
        <ele>111</ele>
        <time>2023-09-17T08:43:51Z</time>
      </trkpt>
      <trkpt lat="46.54542" lon="0.32693">
        <ele>111</ele>
        <time>2023-09-17T08:43:52Z</time>
      </trkpt>
      <trkpt lat="46.54537" lon="0.32681">
        <ele>111.4</ele>
        <time>2023-09-17T08:43:54Z</time>
      </trkpt>
      <trkpt lat="46.54528" lon="0.32661">
        <ele>111.8</ele>
        <time>2023-09-17T08:43:57Z</time>
      </trkpt>
      <trkpt lat="46.54526" lon="0.32655">
        <ele>112.4</ele>
        <time>2023-09-17T08:43:58Z</time>
      </trkpt>
      <trkpt lat="46.54522" lon="0.32639">
        <ele>113.4</ele>
        <time>2023-09-17T08:44:02Z</time>
      </trkpt>
      <trkpt lat="46.54522" lon="0.32636">
        <ele>113.8</ele>
        <time>2023-09-17T08:44:03Z</time>
      </trkpt>
      <trkpt lat="46.54522" lon="0.32631">
        <ele>114.2</ele>
        <time>2023-09-17T08:44:04Z</time>
      </trkpt>
      <trkpt lat="46.54521" lon="0.32622">
        <ele>115</ele>
        <time>2023-09-17T08:44:06Z</time>
      </trkpt>
      <trkpt lat="46.54521" lon="0.32615">
        <ele>115.6</ele>
        <time>2023-09-17T08:44:08Z</time>
      </trkpt>
      <trkpt lat="46.5452" lon="0.326">
        <ele>116</ele>
        <time>2023-09-17T08:44:12Z</time>
      </trkpt>
      <trkpt lat="46.54521" lon="0.32576">
        <ele>116.2</ele>
        <time>2023-09-17T08:44:18Z</time>
      </trkpt>
      <trkpt lat="46.54523" lon="0.32554">
        <ele>117</ele>
        <time>2023-09-17T08:44:24Z</time>
      </trkpt>
      <trkpt lat="46.54523" lon="0.32546">
        <ele>117.2</ele>
        <time>2023-09-17T08:44:27Z</time>
      </trkpt>
      <trkpt lat="46.54521" lon="0.32544">
        <ele>117.2</ele>
        <time>2023-09-17T08:44:29Z</time>
      </trkpt>
      <trkpt lat="46.54517" lon="0.32545">
        <ele>117.2</ele>
        <time>2023-09-17T08:44:33Z</time>
      </trkpt>
      <trkpt lat="46.54515" lon="0.32547">
        <ele>117.4</ele>
        <time>2023-09-17T08:44:38Z</time>
      </trkpt>
      <trkpt lat="46.54514" lon="0.32548">
        <ele>117.4</ele>
        <time>2023-09-17T08:44:39Z</time>
      </trkpt>
      <trkpt lat="46.54512" lon="0.32551">
        <ele>117.6</ele>
        <time>2023-09-17T08:44:41Z</time>
      </trkpt>
      <trkpt lat="46.54508" lon="0.32554">
        <ele>117</ele>
        <time>2023-09-17T08:44:43Z</time>
      </trkpt>
      <trkpt lat="46.54506" lon="0.32559">
        <ele>116.4</ele>
        <time>2023-09-17T08:44:45Z</time>
      </trkpt>
      <trkpt lat="46.54505" lon="0.32563">
        <ele>116.2</ele>
        <time>2023-09-17T08:44:46Z</time>
      </trkpt>
      <trkpt lat="46.54505" lon="0.32566">
        <ele>116</ele>
        <time>2023-09-17T08:44:47Z</time>
      </trkpt>
      <trkpt lat="46.54506" lon="0.32571">
        <ele>115.6</ele>
        <time>2023-09-17T08:44:49Z</time>
      </trkpt>
      <trkpt lat="46.54507" lon="0.32574">
        <ele>115.6</ele>
        <time>2023-09-17T08:44:50Z</time>
      </trkpt>
      <trkpt lat="46.54508" lon="0.32576">
        <ele>115.4</ele>
        <time>2023-09-17T08:44:51Z</time>
      </trkpt>
      <trkpt lat="46.54508" lon="0.32579">
        <ele>115</ele>
        <time>2023-09-17T08:44:52Z</time>
      </trkpt>
      <trkpt lat="46.54506" lon="0.32581">
        <ele>114.2</ele>
        <time>2023-09-17T08:44:54Z</time>
      </trkpt>
      <trkpt lat="46.54505" lon="0.3258">
        <ele>113.4</ele>
        <time>2023-09-17T08:44:55Z</time>
      </trkpt>
      <trkpt lat="46.54504" lon="0.32592">
        <ele>113.6</ele>
        <time>2023-09-17T08:45:03Z</time>
      </trkpt>
      <trkpt lat="46.54503" lon="0.32598">
        <ele>113.6</ele>
        <time>2023-09-17T08:45:06Z</time>
      </trkpt>
      <trkpt lat="46.54501" lon="0.32599">
        <ele>113.6</ele>
        <time>2023-09-17T08:45:08Z</time>
      </trkpt>
      <trkpt lat="46.54498" lon="0.32602">
        <ele>113.6</ele>
        <time>2023-09-17T08:45:10Z</time>
      </trkpt>
      <trkpt lat="46.54494" lon="0.32605">
        <ele>113.6</ele>
        <time>2023-09-17T08:45:12Z</time>
      </trkpt>
      <trkpt lat="46.5449" lon="0.32606">
        <ele>113.6</ele>
        <time>2023-09-17T08:45:14Z</time>
      </trkpt>
      <trkpt lat="46.54486" lon="0.32606">
        <ele>113.2</ele>
        <time>2023-09-17T08:45:16Z</time>
      </trkpt>
      <trkpt lat="46.54483" lon="0.32606">
        <ele>113.2</ele>
        <time>2023-09-17T08:45:17Z</time>
      </trkpt>
      <trkpt lat="46.54481" lon="0.32607">
        <ele>113.2</ele>
        <time>2023-09-17T08:45:18Z</time>
      </trkpt>
      <trkpt lat="46.54475" lon="0.32607">
        <ele>112.8</ele>
        <time>2023-09-17T08:45:20Z</time>
      </trkpt>
      <trkpt lat="46.54469" lon="0.32608">
        <ele>112.6</ele>
        <time>2023-09-17T08:45:22Z</time>
      </trkpt>
      <trkpt lat="46.54467" lon="0.3261">
        <ele>112.2</ele>
        <time>2023-09-17T08:45:23Z</time>
      </trkpt>
      <trkpt lat="46.54464" lon="0.32612">
        <ele>111.8</ele>
        <time>2023-09-17T08:45:24Z</time>
      </trkpt>
      <trkpt lat="46.54458" lon="0.32618">
        <ele>111</ele>
        <time>2023-09-17T08:45:27Z</time>
      </trkpt>
      <trkpt lat="46.54456" lon="0.32619">
        <ele>110.6</ele>
        <time>2023-09-17T08:45:28Z</time>
      </trkpt>
      <trkpt lat="46.54449" lon="0.32622">
        <ele>110</ele>
        <time>2023-09-17T08:45:31Z</time>
      </trkpt>
      <trkpt lat="46.54444" lon="0.32628">
        <ele>109.4</ele>
        <time>2023-09-17T08:45:33Z</time>
      </trkpt>
      <trkpt lat="46.54442" lon="0.32632">
        <ele>109</ele>
        <time>2023-09-17T08:45:34Z</time>
      </trkpt>
      <trkpt lat="46.54441" lon="0.32635">
        <ele>108.8</ele>
        <time>2023-09-17T08:45:35Z</time>
      </trkpt>
      <trkpt lat="46.54438" lon="0.32638">
        <ele>108.6</ele>
        <time>2023-09-17T08:45:36Z</time>
      </trkpt>
      <trkpt lat="46.54432" lon="0.32645">
        <ele>108</ele>
        <time>2023-09-17T08:45:39Z</time>
      </trkpt>
      <trkpt lat="46.54428" lon="0.32648">
        <ele>107.8</ele>
        <time>2023-09-17T08:45:40Z</time>
      </trkpt>
      <trkpt lat="46.54425" lon="0.3265">
        <ele>107.8</ele>
        <time>2023-09-17T08:45:41Z</time>
      </trkpt>
      <trkpt lat="46.54423" lon="0.32656">
        <ele>107.6</ele>
        <time>2023-09-17T08:45:42Z</time>
      </trkpt>
      <trkpt lat="46.54421" lon="0.32661">
        <ele>107.6</ele>
        <time>2023-09-17T08:45:43Z</time>
      </trkpt>
      <trkpt lat="46.54419" lon="0.32663">
        <ele>107.6</ele>
        <time>2023-09-17T08:45:44Z</time>
      </trkpt>
      <trkpt lat="46.54415" lon="0.32666">
        <ele>106.8</ele>
        <time>2023-09-17T08:45:46Z</time>
      </trkpt>
      <trkpt lat="46.54414" lon="0.32667">
        <ele>106.6</ele>
        <time>2023-09-17T08:45:47Z</time>
      </trkpt>
      <trkpt lat="46.54413" lon="0.32667">
        <ele>106.2</ele>
        <time>2023-09-17T08:45:48Z</time>
      </trkpt>
      <trkpt lat="46.54412" lon="0.32669">
        <ele>106</ele>
        <time>2023-09-17T08:45:50Z</time>
      </trkpt>
      <trkpt lat="46.5441" lon="0.32676">
        <ele>105.2</ele>
        <time>2023-09-17T08:45:52Z</time>
      </trkpt>
      <trkpt lat="46.54408" lon="0.32679">
        <ele>104.4</ele>
        <time>2023-09-17T08:45:53Z</time>
      </trkpt>
      <trkpt lat="46.54406" lon="0.32682">
        <ele>104</ele>
        <time>2023-09-17T08:45:54Z</time>
      </trkpt>
      <trkpt lat="46.54403" lon="0.32682">
        <ele>103.4</ele>
        <time>2023-09-17T08:45:55Z</time>
      </trkpt>
      <trkpt lat="46.544" lon="0.3268">
        <ele>102.8</ele>
        <time>2023-09-17T08:45:56Z</time>
      </trkpt>
      <trkpt lat="46.54397" lon="0.32678">
        <ele>102.4</ele>
        <time>2023-09-17T08:45:57Z</time>
      </trkpt>
      <trkpt lat="46.54386" lon="0.32672">
        <ele>102</ele>
        <time>2023-09-17T08:46:01Z</time>
      </trkpt>
      <trkpt lat="46.54383" lon="0.3267">
        <ele>102.2</ele>
        <time>2023-09-17T08:46:03Z</time>
      </trkpt>
      <trkpt lat="46.54379" lon="0.32668">
        <ele>102.4</ele>
        <time>2023-09-17T08:46:05Z</time>
      </trkpt>
      <trkpt lat="46.54375" lon="0.32664">
        <ele>102.4</ele>
        <time>2023-09-17T08:46:08Z</time>
      </trkpt>
      <trkpt lat="46.54372" lon="0.32661">
        <ele>102.8</ele>
        <time>2023-09-17T08:46:12Z</time>
      </trkpt>
      <trkpt lat="46.54371" lon="0.32663">
        <ele>103</ele>
        <time>2023-09-17T08:46:15Z</time>
      </trkpt>
      <trkpt lat="46.54366" lon="0.32665">
        <ele>102.8</ele>
        <time>2023-09-17T08:46:24Z</time>
      </trkpt>
      <trkpt lat="46.54364" lon="0.32659">
        <ele>104.2</ele>
        <time>2023-09-17T08:46:28Z</time>
      </trkpt>
      <trkpt lat="46.54364" lon="0.32657">
        <ele>104.8</ele>
        <time>2023-09-17T08:46:30Z</time>
      </trkpt>
      <trkpt lat="46.54364" lon="0.32656">
        <ele>105</ele>
        <time>2023-09-17T08:46:31Z</time>
      </trkpt>
      <trkpt lat="46.54364" lon="0.32654">
        <ele>105.4</ele>
        <time>2023-09-17T08:46:32Z</time>
      </trkpt>
      <trkpt lat="46.54364" lon="0.32654">
        <ele>106</ele>
        <time>2023-09-17T08:46:33Z</time>
      </trkpt>
      <trkpt lat="46.54363" lon="0.32653">
        <ele>106.4</ele>
        <time>2023-09-17T08:46:34Z</time>
      </trkpt>
      <trkpt lat="46.54359" lon="0.32654">
        <ele>107.6</ele>
        <time>2023-09-17T08:46:38Z</time>
      </trkpt>
      <trkpt lat="46.54356" lon="0.32653">
        <ele>108</ele>
        <time>2023-09-17T08:46:41Z</time>
      </trkpt>
      <trkpt lat="46.54356" lon="0.32652">
        <ele>108.2</ele>
        <time>2023-09-17T08:46:42Z</time>
      </trkpt>
      <trkpt lat="46.54343" lon="0.32641">
        <ele>108.4</ele>
        <time>2023-09-17T08:46:44Z</time>
      </trkpt>
      <trkpt lat="46.5434" lon="0.32637">
        <ele>108.8</ele>
        <time>2023-09-17T08:46:45Z</time>
      </trkpt>
      <trkpt lat="46.54336" lon="0.3263">
        <ele>109.4</ele>
        <time>2023-09-17T08:46:48Z</time>
      </trkpt>
      <trkpt lat="46.54334" lon="0.32629">
        <ele>109.6</ele>
        <time>2023-09-17T08:46:49Z</time>
      </trkpt>
      <trkpt lat="46.54332" lon="0.32629">
        <ele>109.8</ele>
        <time>2023-09-17T08:46:51Z</time>
      </trkpt>
      <trkpt lat="46.54328" lon="0.32628">
        <ele>110.2</ele>
        <time>2023-09-17T08:46:53Z</time>
      </trkpt>
      <trkpt lat="46.54323" lon="0.32628">
        <ele>110.2</ele>
        <time>2023-09-17T08:46:55Z</time>
      </trkpt>
      <trkpt lat="46.54316" lon="0.32633">
        <ele>109.8</ele>
        <time>2023-09-17T08:46:59Z</time>
      </trkpt>
      <trkpt lat="46.54313" lon="0.32641">
        <ele>108</ele>
        <time>2023-09-17T08:47:02Z</time>
      </trkpt>
      <trkpt lat="46.54311" lon="0.32644">
        <ele>107</ele>
        <time>2023-09-17T08:47:04Z</time>
      </trkpt>
      <trkpt lat="46.5431" lon="0.32645">
        <ele>106.6</ele>
        <time>2023-09-17T08:47:05Z</time>
      </trkpt>
      <trkpt lat="46.54307" lon="0.32645">
        <ele>106.6</ele>
        <time>2023-09-17T08:47:08Z</time>
      </trkpt>
      <trkpt lat="46.54304" lon="0.32645">
        <ele>107</ele>
        <time>2023-09-17T08:47:10Z</time>
      </trkpt>
      <trkpt lat="46.54303" lon="0.32645">
        <ele>107</ele>
        <time>2023-09-17T08:47:11Z</time>
      </trkpt>
      <trkpt lat="46.54296" lon="0.32642">
        <ele>108</ele>
        <time>2023-09-17T08:47:17Z</time>
      </trkpt>
      <trkpt lat="46.54293" lon="0.32641">
        <ele>108.2</ele>
        <time>2023-09-17T08:47:18Z</time>
      </trkpt>
      <trkpt lat="46.54288" lon="0.3264">
        <ele>108.6</ele>
        <time>2023-09-17T08:47:22Z</time>
      </trkpt>
      <trkpt lat="46.54285" lon="0.32638">
        <ele>108.8</ele>
        <time>2023-09-17T08:47:24Z</time>
      </trkpt>
      <trkpt lat="46.54281" lon="0.32637">
        <ele>109</ele>
        <time>2023-09-17T08:47:27Z</time>
      </trkpt>
      <trkpt lat="46.54276" lon="0.32632">
        <ele>109.6</ele>
        <time>2023-09-17T08:47:31Z</time>
      </trkpt>
      <trkpt lat="46.54271" lon="0.32626">
        <ele>110.2</ele>
        <time>2023-09-17T08:47:35Z</time>
      </trkpt>
      <trkpt lat="46.54269" lon="0.32624">
        <ele>110.2</ele>
        <time>2023-09-17T08:47:36Z</time>
      </trkpt>
      <trkpt lat="46.54264" lon="0.32617">
        <ele>111.4</ele>
        <time>2023-09-17T08:47:40Z</time>
      </trkpt>
      <trkpt lat="46.54261" lon="0.32614">
        <ele>111.6</ele>
        <time>2023-09-17T08:47:42Z</time>
      </trkpt>
      <trkpt lat="46.54258" lon="0.3261">
        <ele>111.8</ele>
        <time>2023-09-17T08:47:44Z</time>
      </trkpt>
      <trkpt lat="46.54249" lon="0.32596">
        <ele>112.4</ele>
        <time>2023-09-17T08:47:49Z</time>
      </trkpt>
      <trkpt lat="46.54247" lon="0.32591">
        <ele>113.2</ele>
        <time>2023-09-17T08:47:52Z</time>
      </trkpt>
      <trkpt lat="46.54245" lon="0.3259">
        <ele>113.2</ele>
        <time>2023-09-17T08:47:53Z</time>
      </trkpt>
      <trkpt lat="46.54234" lon="0.3259">
        <ele>112.6</ele>
        <time>2023-09-17T08:47:57Z</time>
      </trkpt>
      <trkpt lat="46.5422" lon="0.32595">
        <ele>111.2</ele>
        <time>2023-09-17T08:48:02Z</time>
      </trkpt>
      <trkpt lat="46.54213" lon="0.32598">
        <ele>110.6</ele>
        <time>2023-09-17T08:48:04Z</time>
      </trkpt>
      <trkpt lat="46.54209" lon="0.32599">
        <ele>110.2</ele>
        <time>2023-09-17T08:48:05Z</time>
      </trkpt>
      <trkpt lat="46.542" lon="0.32601">
        <ele>109</ele>
        <time>2023-09-17T08:48:07Z</time>
      </trkpt>
      <trkpt lat="46.54192" lon="0.32602">
        <ele>108.2</ele>
        <time>2023-09-17T08:48:09Z</time>
      </trkpt>
      <trkpt lat="46.54187" lon="0.32602">
        <ele>107.8</ele>
        <time>2023-09-17T08:48:10Z</time>
      </trkpt>
      <trkpt lat="46.54181" lon="0.32603">
        <ele>106.8</ele>
        <time>2023-09-17T08:48:12Z</time>
      </trkpt>
      <trkpt lat="46.54176" lon="0.32604">
        <ele>106.2</ele>
        <time>2023-09-17T08:48:13Z</time>
      </trkpt>
      <trkpt lat="46.54168" lon="0.32604">
        <ele>105</ele>
        <time>2023-09-17T08:48:15Z</time>
      </trkpt>
      <trkpt lat="46.54163" lon="0.32603">
        <ele>104.6</ele>
        <time>2023-09-17T08:48:16Z</time>
      </trkpt>
      <trkpt lat="46.54149" lon="0.32598">
        <ele>105</ele>
        <time>2023-09-17T08:48:23Z</time>
      </trkpt>
      <trkpt lat="46.54146" lon="0.32596">
        <ele>105.2</ele>
        <time>2023-09-17T08:48:24Z</time>
      </trkpt>
      <trkpt lat="46.54139" lon="0.3259">
        <ele>106.4</ele>
        <time>2023-09-17T08:48:28Z</time>
      </trkpt>
      <trkpt lat="46.54138" lon="0.32588">
        <ele>106.4</ele>
        <time>2023-09-17T08:48:29Z</time>
      </trkpt>
      <trkpt lat="46.54133" lon="0.32584">
        <ele>106.6</ele>
        <time>2023-09-17T08:48:32Z</time>
      </trkpt>
      <trkpt lat="46.54126" lon="0.32581">
        <ele>106.4</ele>
        <time>2023-09-17T08:48:36Z</time>
      </trkpt>
      <trkpt lat="46.54109" lon="0.32577">
        <ele>106.4</ele>
        <time>2023-09-17T08:48:43Z</time>
      </trkpt>
      <trkpt lat="46.54094" lon="0.32571">
        <ele>106.2</ele>
        <time>2023-09-17T08:48:49Z</time>
      </trkpt>
      <trkpt lat="46.54091" lon="0.32568">
        <ele>106.4</ele>
        <time>2023-09-17T08:48:50Z</time>
      </trkpt>
      <trkpt lat="46.54081" lon="0.32555">
        <ele>107.2</ele>
        <time>2023-09-17T08:48:54Z</time>
      </trkpt>
      <trkpt lat="46.54079" lon="0.32553">
        <ele>107.4</ele>
        <time>2023-09-17T08:48:55Z</time>
      </trkpt>
      <trkpt lat="46.54069" lon="0.32538">
        <ele>108.4</ele>
        <time>2023-09-17T08:49:00Z</time>
      </trkpt>
      <trkpt lat="46.54065" lon="0.32533">
        <ele>108.8</ele>
        <time>2023-09-17T08:49:02Z</time>
      </trkpt>
      <trkpt lat="46.54061" lon="0.32524">
        <ele>109.6</ele>
        <time>2023-09-17T08:49:06Z</time>
      </trkpt>
      <trkpt lat="46.54059" lon="0.32516">
        <ele>110.4</ele>
        <time>2023-09-17T08:49:10Z</time>
      </trkpt>
      <trkpt lat="46.54059" lon="0.3251">
        <ele>110.6</ele>
        <time>2023-09-17T08:49:12Z</time>
      </trkpt>
      <trkpt lat="46.54059" lon="0.32496">
        <ele>111.8</ele>
        <time>2023-09-17T08:49:15Z</time>
      </trkpt>
      <trkpt lat="46.54059" lon="0.32493">
        <ele>112.2</ele>
        <time>2023-09-17T08:49:16Z</time>
      </trkpt>
      <trkpt lat="46.5406" lon="0.32488">
        <ele>112.8</ele>
        <time>2023-09-17T08:49:17Z</time>
      </trkpt>
      <trkpt lat="46.54064" lon="0.3248">
        <ele>113.8</ele>
        <time>2023-09-17T08:49:21Z</time>
      </trkpt>
      <trkpt lat="46.54065" lon="0.3248">
        <ele>113.6</ele>
        <time>2023-09-17T08:49:22Z</time>
      </trkpt>
      <trkpt lat="46.5407" lon="0.32478">
        <ele>113</ele>
        <time>2023-09-17T08:49:26Z</time>
      </trkpt>
      <trkpt lat="46.54071" lon="0.32477">
        <ele>112.8</ele>
        <time>2023-09-17T08:49:27Z</time>
      </trkpt>
      <trkpt lat="46.54082" lon="0.32472">
        <ele>112.4</ele>
        <time>2023-09-17T08:49:33Z</time>
      </trkpt>
      <trkpt lat="46.54085" lon="0.3247">
        <ele>112.4</ele>
        <time>2023-09-17T08:49:36Z</time>
      </trkpt>
      <trkpt lat="46.54088" lon="0.32469">
        <ele>113</ele>
        <time>2023-09-17T08:49:38Z</time>
      </trkpt>
      <trkpt lat="46.54093" lon="0.32468">
        <ele>113.8</ele>
        <time>2023-09-17T08:49:42Z</time>
      </trkpt>
      <trkpt lat="46.54098" lon="0.32468">
        <ele>114.2</ele>
        <time>2023-09-17T08:49:45Z</time>
      </trkpt>
      <trkpt lat="46.54112" lon="0.32469">
        <ele>114.8</ele>
        <time>2023-09-17T08:49:51Z</time>
      </trkpt>
      <trkpt lat="46.54115" lon="0.32472">
        <ele>114.8</ele>
        <time>2023-09-17T08:49:53Z</time>
      </trkpt>
      <trkpt lat="46.54121" lon="0.32481">
        <ele>114.8</ele>
        <time>2023-09-17T08:49:58Z</time>
      </trkpt>
      <trkpt lat="46.54121" lon="0.32483">
        <ele>114.8</ele>
        <time>2023-09-17T08:49:59Z</time>
      </trkpt>
      <trkpt lat="46.54125" lon="0.32488">
        <ele>114.8</ele>
        <time>2023-09-17T08:50:02Z</time>
      </trkpt>
      <trkpt lat="46.5413" lon="0.32491">
        <ele>115</ele>
        <time>2023-09-17T08:50:04Z</time>
      </trkpt>
      <trkpt lat="46.54148" lon="0.32497">
        <ele>115.2</ele>
        <time>2023-09-17T08:50:10Z</time>
      </trkpt>
      <trkpt lat="46.54155" lon="0.32497">
        <ele>116</ele>
        <time>2023-09-17T08:50:13Z</time>
      </trkpt>
      <trkpt lat="46.54167" lon="0.32496">
        <ele>116.6</ele>
        <time>2023-09-17T08:50:18Z</time>
      </trkpt>
      <trkpt lat="46.54185" lon="0.32493">
        <ele>116.8</ele>
        <time>2023-09-17T08:50:25Z</time>
      </trkpt>
      <trkpt lat="46.54189" lon="0.32493">
        <ele>117.2</ele>
        <time>2023-09-17T08:50:27Z</time>
      </trkpt>
      <trkpt lat="46.54208" lon="0.32492">
        <ele>118</ele>
        <time>2023-09-17T08:50:34Z</time>
      </trkpt>
      <trkpt lat="46.5421" lon="0.32492">
        <ele>118.2</ele>
        <time>2023-09-17T08:50:35Z</time>
      </trkpt>
      <trkpt lat="46.54234" lon="0.32488">
        <ele>119</ele>
        <time>2023-09-17T08:50:43Z</time>
      </trkpt>
      <trkpt lat="46.54245" lon="0.32488">
        <ele>119.2</ele>
        <time>2023-09-17T08:50:46Z</time>
      </trkpt>
      <trkpt lat="46.54259" lon="0.32488">
        <ele>119.4</ele>
        <time>2023-09-17T08:50:50Z</time>
      </trkpt>
      <trkpt lat="46.5428" lon="0.32485">
        <ele>119.8</ele>
        <time>2023-09-17T08:50:56Z</time>
      </trkpt>
      <trkpt lat="46.54314" lon="0.32478">
        <ele>120</ele>
        <time>2023-09-17T08:51:04Z</time>
      </trkpt>
      <trkpt lat="46.54317" lon="0.32477">
        <ele>120.2</ele>
        <time>2023-09-17T08:51:05Z</time>
      </trkpt>
      <trkpt lat="46.54325" lon="0.32476">
        <ele>120.6</ele>
        <time>2023-09-17T08:51:07Z</time>
      </trkpt>
      <trkpt lat="46.54343" lon="0.32476">
        <ele>120</ele>
        <time>2023-09-17T08:51:11Z</time>
      </trkpt>
      <trkpt lat="46.54376" lon="0.32473">
        <ele>120</ele>
        <time>2023-09-17T08:51:18Z</time>
      </trkpt>
      <trkpt lat="46.5438" lon="0.32474">
        <ele>120</ele>
        <time>2023-09-17T08:51:19Z</time>
      </trkpt>
      <trkpt lat="46.5441" lon="0.32472">
        <ele>120.2</ele>
        <time>2023-09-17T08:51:27Z</time>
      </trkpt>
      <trkpt lat="46.5442" lon="0.32467">
        <ele>120.2</ele>
        <time>2023-09-17T08:51:32Z</time>
      </trkpt>
      <trkpt lat="46.54421" lon="0.32465">
        <ele>120.2</ele>
        <time>2023-09-17T08:51:33Z</time>
      </trkpt>
      <trkpt lat="46.54424" lon="0.3246">
        <ele>120.4</ele>
        <time>2023-09-17T08:51:35Z</time>
      </trkpt>
      <trkpt lat="46.54428" lon="0.32452">
        <ele>120.6</ele>
        <time>2023-09-17T08:51:38Z</time>
      </trkpt>
      <trkpt lat="46.5443" lon="0.3245">
        <ele>120.8</ele>
        <time>2023-09-17T08:51:39Z</time>
      </trkpt>
      <trkpt lat="46.54436" lon="0.32432">
        <ele>121.2</ele>
        <time>2023-09-17T08:51:45Z</time>
      </trkpt>
      <trkpt lat="46.54437" lon="0.32424">
        <ele>121.2</ele>
        <time>2023-09-17T08:51:48Z</time>
      </trkpt>
      <trkpt lat="46.54438" lon="0.32422">
        <ele>121.2</ele>
        <time>2023-09-17T08:51:50Z</time>
      </trkpt>
      <trkpt lat="46.54439" lon="0.32421">
        <ele>121.2</ele>
        <time>2023-09-17T08:51:51Z</time>
      </trkpt>
      <trkpt lat="46.54438" lon="0.32422">
        <ele>121.2</ele>
        <time>2023-09-17T08:51:52Z</time>
      </trkpt>
      <trkpt lat="46.54438" lon="0.32422">
        <ele>121.4</ele>
        <time>2023-09-17T08:51:55Z</time>
      </trkpt>
      <trkpt lat="46.54436" lon="0.3242">
        <ele>121.4</ele>
        <time>2023-09-17T08:51:56Z</time>
      </trkpt>
      <trkpt lat="46.54435" lon="0.32417">
        <ele>121.4</ele>
        <time>2023-09-17T08:51:58Z</time>
      </trkpt>
      <trkpt lat="46.54433" lon="0.32412">
        <ele>121.8</ele>
        <time>2023-09-17T08:52:00Z</time>
      </trkpt>
      <trkpt lat="46.54432" lon="0.32411">
        <ele>121.6</ele>
        <time>2023-09-17T08:52:01Z</time>
      </trkpt>
      <trkpt lat="46.54426" lon="0.32411">
        <ele>122</ele>
        <time>2023-09-17T08:52:05Z</time>
      </trkpt>
      <trkpt lat="46.54422" lon="0.32412">
        <ele>122.4</ele>
        <time>2023-09-17T08:52:09Z</time>
      </trkpt>
      <trkpt lat="46.54417" lon="0.32413">
        <ele>122.2</ele>
        <time>2023-09-17T08:52:11Z</time>
      </trkpt>
      <trkpt lat="46.54416" lon="0.32415">
        <ele>121.6</ele>
        <time>2023-09-17T08:52:12Z</time>
      </trkpt>
      <trkpt lat="46.54415" lon="0.32417">
        <ele>121.4</ele>
        <time>2023-09-17T08:52:13Z</time>
      </trkpt>
      <trkpt lat="46.54412" lon="0.32417">
        <ele>121.2</ele>
        <time>2023-09-17T08:52:14Z</time>
      </trkpt>
      <trkpt lat="46.54397" lon="0.32414">
        <ele>121.2</ele>
        <time>2023-09-17T08:52:17Z</time>
      </trkpt>
      <trkpt lat="46.54385" lon="0.3241">
        <ele>120.8</ele>
        <time>2023-09-17T08:52:20Z</time>
      </trkpt>
      <trkpt lat="46.54378" lon="0.32409">
        <ele>121.2</ele>
        <time>2023-09-17T08:52:22Z</time>
      </trkpt>
      <trkpt lat="46.54377" lon="0.32409">
        <ele>121.2</ele>
        <time>2023-09-17T08:52:23Z</time>
      </trkpt>
      <trkpt lat="46.54375" lon="0.32407">
        <ele>121.2</ele>
        <time>2023-09-17T08:52:24Z</time>
      </trkpt>
      <trkpt lat="46.54367" lon="0.32397">
        <ele>121.4</ele>
        <time>2023-09-17T08:52:29Z</time>
      </trkpt>
      <trkpt lat="46.5436" lon="0.32391">
        <ele>121.4</ele>
        <time>2023-09-17T08:52:32Z</time>
      </trkpt>
      <trkpt lat="46.54355" lon="0.32386">
        <ele>121.2</ele>
        <time>2023-09-17T08:52:34Z</time>
      </trkpt>
      <trkpt lat="46.54346" lon="0.32369">
        <ele>121.6</ele>
        <time>2023-09-17T08:52:40Z</time>
      </trkpt>
      <trkpt lat="46.54346" lon="0.32366">
        <ele>121.6</ele>
        <time>2023-09-17T08:52:41Z</time>
      </trkpt>
      <trkpt lat="46.5434" lon="0.32359">
        <ele>122</ele>
        <time>2023-09-17T08:52:44Z</time>
      </trkpt>
      <trkpt lat="46.54338" lon="0.32359">
        <ele>122</ele>
        <time>2023-09-17T08:52:45Z</time>
      </trkpt>
      <trkpt lat="46.54335" lon="0.32355">
        <ele>122</ele>
        <time>2023-09-17T08:52:48Z</time>
      </trkpt>
      <trkpt lat="46.54333" lon="0.32352">
        <ele>122.2</ele>
        <time>2023-09-17T08:52:49Z</time>
      </trkpt>
      <trkpt lat="46.54329" lon="0.32348">
        <ele>122.2</ele>
        <time>2023-09-17T08:52:51Z</time>
      </trkpt>
      <trkpt lat="46.54323" lon="0.32346">
        <ele>122.2</ele>
        <time>2023-09-17T08:52:53Z</time>
      </trkpt>
      <trkpt lat="46.5432" lon="0.32345">
        <ele>122.2</ele>
        <time>2023-09-17T08:52:54Z</time>
      </trkpt>
      <trkpt lat="46.54319" lon="0.32342">
        <ele>122.4</ele>
        <time>2023-09-17T08:52:55Z</time>
      </trkpt>
      <trkpt lat="46.54315" lon="0.32336">
        <ele>122.4</ele>
        <time>2023-09-17T08:52:57Z</time>
      </trkpt>
      <trkpt lat="46.54306" lon="0.32319">
        <ele>122.4</ele>
        <time>2023-09-17T08:53:02Z</time>
      </trkpt>
      <trkpt lat="46.54304" lon="0.32317">
        <ele>122.4</ele>
        <time>2023-09-17T08:53:03Z</time>
      </trkpt>
      <trkpt lat="46.54289" lon="0.32309">
        <ele>122</ele>
        <time>2023-09-17T08:53:09Z</time>
      </trkpt>
      <trkpt lat="46.54283" lon="0.32306">
        <ele>121.8</ele>
        <time>2023-09-17T08:53:11Z</time>
      </trkpt>
      <trkpt lat="46.54275" lon="0.323">
        <ele>121.6</ele>
        <time>2023-09-17T08:53:14Z</time>
      </trkpt>
      <trkpt lat="46.54267" lon="0.32295">
        <ele>121.6</ele>
        <time>2023-09-17T08:53:16Z</time>
      </trkpt>
      <trkpt lat="46.54262" lon="0.32289">
        <ele>121.4</ele>
        <time>2023-09-17T08:53:18Z</time>
      </trkpt>
      <trkpt lat="46.5426" lon="0.32285">
        <ele>121.4</ele>
        <time>2023-09-17T08:53:19Z</time>
      </trkpt>
      <trkpt lat="46.54251" lon="0.32274">
        <ele>121.4</ele>
        <time>2023-09-17T08:53:23Z</time>
      </trkpt>
      <trkpt lat="46.54249" lon="0.3227">
        <ele>121.4</ele>
        <time>2023-09-17T08:53:24Z</time>
      </trkpt>
      <trkpt lat="46.54239" lon="0.32249">
        <ele>121.8</ele>
        <time>2023-09-17T08:53:28Z</time>
      </trkpt>
      <trkpt lat="46.5423" lon="0.32207">
        <ele>122.4</ele>
        <time>2023-09-17T08:53:33Z</time>
      </trkpt>
      <trkpt lat="46.54229" lon="0.32189">
        <ele>122.8</ele>
        <time>2023-09-17T08:53:35Z</time>
      </trkpt>
      <trkpt lat="46.54231" lon="0.32159">
        <ele>124</ele>
        <time>2023-09-17T08:53:38Z</time>
      </trkpt>
      <trkpt lat="46.54231" lon="0.32149">
        <ele>124</ele>
        <time>2023-09-17T08:53:39Z</time>
      </trkpt>
      <trkpt lat="46.54232" lon="0.32097">
        <ele>125</ele>
        <time>2023-09-17T08:53:45Z</time>
      </trkpt>
      <trkpt lat="46.54231" lon="0.32079">
        <ele>125.2</ele>
        <time>2023-09-17T08:53:48Z</time>
      </trkpt>
      <trkpt lat="46.5423" lon="0.32068">
        <ele>125.4</ele>
        <time>2023-09-17T08:53:50Z</time>
      </trkpt>
      <trkpt lat="46.5423" lon="0.32063">
        <ele>125.4</ele>
        <time>2023-09-17T08:53:51Z</time>
      </trkpt>
      <trkpt lat="46.54227" lon="0.32027">
        <ele>126.4</ele>
        <time>2023-09-17T08:53:57Z</time>
      </trkpt>
      <trkpt lat="46.5422" lon="0.31995">
        <ele>127.2</ele>
        <time>2023-09-17T08:54:01Z</time>
      </trkpt>
      <trkpt lat="46.54215" lon="0.31978">
        <ele>127.4</ele>
        <time>2023-09-17T08:54:03Z</time>
      </trkpt>
      <trkpt lat="46.54214" lon="0.31964">
        <ele>127.6</ele>
        <time>2023-09-17T08:54:05Z</time>
      </trkpt>
      <trkpt lat="46.54213" lon="0.31936">
        <ele>128</ele>
        <time>2023-09-17T08:54:09Z</time>
      </trkpt>
      <trkpt lat="46.54211" lon="0.31921">
        <ele>128.2</ele>
        <time>2023-09-17T08:54:11Z</time>
      </trkpt>
      <trkpt lat="46.5421" lon="0.31916">
        <ele>128.2</ele>
        <time>2023-09-17T08:54:12Z</time>
      </trkpt>
      <trkpt lat="46.54209" lon="0.31911">
        <ele>128.2</ele>
        <time>2023-09-17T08:54:13Z</time>
      </trkpt>
      <trkpt lat="46.54207" lon="0.31899">
        <ele>128.2</ele>
        <time>2023-09-17T08:54:16Z</time>
      </trkpt>
      <trkpt lat="46.54201" lon="0.31888">
        <ele>128</ele>
        <time>2023-09-17T08:54:18Z</time>
      </trkpt>
      <trkpt lat="46.54195" lon="0.31878">
        <ele>128</ele>
        <time>2023-09-17T08:54:20Z</time>
      </trkpt>
      <trkpt lat="46.54191" lon="0.31867">
        <ele>128.6</ele>
        <time>2023-09-17T08:54:22Z</time>
      </trkpt>
      <trkpt lat="46.54185" lon="0.31858">
        <ele>128.8</ele>
        <time>2023-09-17T08:54:24Z</time>
      </trkpt>
      <trkpt lat="46.54176" lon="0.31844">
        <ele>129.8</ele>
        <time>2023-09-17T08:54:28Z</time>
      </trkpt>
      <trkpt lat="46.5417" lon="0.31838">
        <ele>130</ele>
        <time>2023-09-17T08:54:30Z</time>
      </trkpt>
      <trkpt lat="46.54168" lon="0.31835">
        <ele>130.2</ele>
        <time>2023-09-17T08:54:31Z</time>
      </trkpt>
      <trkpt lat="46.54141" lon="0.31822">
        <ele>130.2</ele>
        <time>2023-09-17T08:54:37Z</time>
      </trkpt>
      <trkpt lat="46.54114" lon="0.31809">
        <ele>130.2</ele>
        <time>2023-09-17T08:54:43Z</time>
      </trkpt>
      <trkpt lat="46.54081" lon="0.318">
        <ele>130.4</ele>
        <time>2023-09-17T08:54:50Z</time>
      </trkpt>
      <trkpt lat="46.54048" lon="0.31796">
        <ele>130</ele>
        <time>2023-09-17T08:54:58Z</time>
      </trkpt>
      <trkpt lat="46.54014" lon="0.31799">
        <ele>129.6</ele>
        <time>2023-09-17T08:55:06Z</time>
      </trkpt>
      <trkpt lat="46.53985" lon="0.318">
        <ele>129</ele>
        <time>2023-09-17T08:55:11Z</time>
      </trkpt>
      <trkpt lat="46.53978" lon="0.31801">
        <ele>128.8</ele>
        <time>2023-09-17T08:55:12Z</time>
      </trkpt>
      <trkpt lat="46.53972" lon="0.31803">
        <ele>128.8</ele>
        <time>2023-09-17T08:55:13Z</time>
      </trkpt>
      <trkpt lat="46.53951" lon="0.31811">
        <ele>128.6</ele>
        <time>2023-09-17T08:55:16Z</time>
      </trkpt>
      <trkpt lat="46.53946" lon="0.31814">
        <ele>128.4</ele>
        <time>2023-09-17T08:55:17Z</time>
      </trkpt>
      <trkpt lat="46.53913" lon="0.31828">
        <ele>128</ele>
        <time>2023-09-17T08:55:22Z</time>
      </trkpt>
      <trkpt lat="46.53878" lon="0.31842">
        <ele>128.4</ele>
        <time>2023-09-17T08:55:27Z</time>
      </trkpt>
      <trkpt lat="46.53833" lon="0.31863">
        <ele>127.6</ele>
        <time>2023-09-17T08:55:34Z</time>
      </trkpt>
      <trkpt lat="46.53825" lon="0.31864">
        <ele>127.6</ele>
        <time>2023-09-17T08:55:35Z</time>
      </trkpt>
      <trkpt lat="46.53791" lon="0.31871">
        <ele>126.6</ele>
        <time>2023-09-17T08:55:39Z</time>
      </trkpt>
      <trkpt lat="46.53761" lon="0.31881">
        <ele>125.4</ele>
        <time>2023-09-17T08:55:43Z</time>
      </trkpt>
      <trkpt lat="46.53727" lon="0.31889">
        <ele>124.8</ele>
        <time>2023-09-17T08:55:47Z</time>
      </trkpt>
      <trkpt lat="46.53719" lon="0.3189">
        <ele>124.6</ele>
        <time>2023-09-17T08:55:48Z</time>
      </trkpt>
      <trkpt lat="46.53711" lon="0.3189">
        <ele>124.2</ele>
        <time>2023-09-17T08:55:49Z</time>
      </trkpt>
      <trkpt lat="46.53685" lon="0.3189">
        <ele>123.8</ele>
        <time>2023-09-17T08:55:52Z</time>
      </trkpt>
      <trkpt lat="46.53648" lon="0.31895">
        <ele>123.2</ele>
        <time>2023-09-17T08:55:57Z</time>
      </trkpt>
      <trkpt lat="46.53626" lon="0.31894">
        <ele>123</ele>
        <time>2023-09-17T08:56:00Z</time>
      </trkpt>
      <trkpt lat="46.53591" lon="0.31893">
        <ele>122.2</ele>
        <time>2023-09-17T08:56:04Z</time>
      </trkpt>
      <trkpt lat="46.53583" lon="0.31895">
        <ele>121.6</ele>
        <time>2023-09-17T08:56:05Z</time>
      </trkpt>
      <trkpt lat="46.53569" lon="0.31901">
        <ele>121</ele>
        <time>2023-09-17T08:56:07Z</time>
      </trkpt>
      <trkpt lat="46.53556" lon="0.31908">
        <ele>119.8</ele>
        <time>2023-09-17T08:56:09Z</time>
      </trkpt>
      <trkpt lat="46.5355" lon="0.31912">
        <ele>119.2</ele>
        <time>2023-09-17T08:56:10Z</time>
      </trkpt>
      <trkpt lat="46.53544" lon="0.31917">
        <ele>118.8</ele>
        <time>2023-09-17T08:56:11Z</time>
      </trkpt>
      <trkpt lat="46.53522" lon="0.31935">
        <ele>118</ele>
        <time>2023-09-17T08:56:15Z</time>
      </trkpt>
      <trkpt lat="46.53518" lon="0.31938">
        <ele>117.8</ele>
        <time>2023-09-17T08:56:16Z</time>
      </trkpt>
      <trkpt lat="46.53514" lon="0.31939">
        <ele>117.2</ele>
        <time>2023-09-17T08:56:17Z</time>
      </trkpt>
      <trkpt lat="46.5351" lon="0.31941">
        <ele>116.8</ele>
        <time>2023-09-17T08:56:18Z</time>
      </trkpt>
      <trkpt lat="46.53507" lon="0.31942">
        <ele>116.2</ele>
        <time>2023-09-17T08:56:19Z</time>
      </trkpt>
      <trkpt lat="46.53501" lon="0.31944">
        <ele>115.2</ele>
        <time>2023-09-17T08:56:21Z</time>
      </trkpt>
      <trkpt lat="46.53494" lon="0.31945">
        <ele>114</ele>
        <time>2023-09-17T08:56:23Z</time>
      </trkpt>
      <trkpt lat="46.53492" lon="0.31943">
        <ele>112.4</ele>
        <time>2023-09-17T08:56:24Z</time>
      </trkpt>
      <trkpt lat="46.5349" lon="0.3194">
        <ele>111.2</ele>
        <time>2023-09-17T08:56:25Z</time>
      </trkpt>
      <trkpt lat="46.53487" lon="0.31934">
        <ele>110</ele>
        <time>2023-09-17T08:56:27Z</time>
      </trkpt>
      <trkpt lat="46.53479" lon="0.31918">
        <ele>110</ele>
        <time>2023-09-17T08:56:33Z</time>
      </trkpt>
      <trkpt lat="46.53477" lon="0.31909">
        <ele>111.4</ele>
        <time>2023-09-17T08:56:36Z</time>
      </trkpt>
      <trkpt lat="46.53475" lon="0.31898">
        <ele>112.8</ele>
        <time>2023-09-17T08:56:39Z</time>
      </trkpt>
      <trkpt lat="46.53475" lon="0.31891">
        <ele>113.2</ele>
        <time>2023-09-17T08:56:41Z</time>
      </trkpt>
      <trkpt lat="46.53475" lon="0.31873">
        <ele>113.8</ele>
        <time>2023-09-17T08:56:46Z</time>
      </trkpt>
      <trkpt lat="46.53478" lon="0.31863">
        <ele>114.6</ele>
        <time>2023-09-17T08:56:49Z</time>
      </trkpt>
      <trkpt lat="46.5348" lon="0.3186">
        <ele>115.2</ele>
        <time>2023-09-17T08:56:50Z</time>
      </trkpt>
      <trkpt lat="46.53489" lon="0.31847">
        <ele>116.2</ele>
        <time>2023-09-17T08:56:54Z</time>
      </trkpt>
      <trkpt lat="46.53494" lon="0.31841">
        <ele>116.4</ele>
        <time>2023-09-17T08:56:56Z</time>
      </trkpt>
      <trkpt lat="46.53501" lon="0.31834">
        <ele>116.4</ele>
        <time>2023-09-17T08:56:57Z</time>
      </trkpt>
      <trkpt lat="46.53516" lon="0.31815">
        <ele>117</ele>
        <time>2023-09-17T08:57:03Z</time>
      </trkpt>
      <trkpt lat="46.53521" lon="0.31806">
        <ele>117.4</ele>
        <time>2023-09-17T08:57:05Z</time>
      </trkpt>
      <trkpt lat="46.53524" lon="0.31802">
        <ele>117.4</ele>
        <time>2023-09-17T08:57:06Z</time>
      </trkpt>
      <trkpt lat="46.53533" lon="0.31777">
        <ele>117.8</ele>
        <time>2023-09-17T08:57:11Z</time>
      </trkpt>
      <trkpt lat="46.53546" lon="0.31741">
        <ele>118</ele>
        <time>2023-09-17T08:57:19Z</time>
      </trkpt>
      <trkpt lat="46.53551" lon="0.31718">
        <ele>117.8</ele>
        <time>2023-09-17T08:57:23Z</time>
      </trkpt>
      <trkpt lat="46.53554" lon="0.31703">
        <ele>117.8</ele>
        <time>2023-09-17T08:57:26Z</time>
      </trkpt>
      <trkpt lat="46.53561" lon="0.31674">
        <ele>118.4</ele>
        <time>2023-09-17T08:57:31Z</time>
      </trkpt>
      <trkpt lat="46.53562" lon="0.31668">
        <ele>118.6</ele>
        <time>2023-09-17T08:57:32Z</time>
      </trkpt>
      <trkpt lat="46.53563" lon="0.31662">
        <ele>118.6</ele>
        <time>2023-09-17T08:57:33Z</time>
      </trkpt>
      <trkpt lat="46.53564" lon="0.31656">
        <ele>118.6</ele>
        <time>2023-09-17T08:57:34Z</time>
      </trkpt>
      <trkpt lat="46.53568" lon="0.31628">
        <ele>119.2</ele>
        <time>2023-09-17T08:57:39Z</time>
      </trkpt>
      <trkpt lat="46.53572" lon="0.3162">
        <ele>119.4</ele>
        <time>2023-09-17T08:57:40Z</time>
      </trkpt>
      <trkpt lat="46.53575" lon="0.31616">
        <ele>119.6</ele>
        <time>2023-09-17T08:57:41Z</time>
      </trkpt>
      <trkpt lat="46.53583" lon="0.31597">
        <ele>120.6</ele>
        <time>2023-09-17T08:57:45Z</time>
      </trkpt>
      <trkpt lat="46.53588" lon="0.31588">
        <ele>120.4</ele>
        <time>2023-09-17T08:57:46Z</time>
      </trkpt>
      <trkpt lat="46.53593" lon="0.31581">
        <ele>120.2</ele>
        <time>2023-09-17T08:57:47Z</time>
      </trkpt>
      <trkpt lat="46.53605" lon="0.31562">
        <ele>120</ele>
        <time>2023-09-17T08:57:50Z</time>
      </trkpt>
      <trkpt lat="46.53608" lon="0.31556">
        <ele>119.8</ele>
        <time>2023-09-17T08:57:52Z</time>
      </trkpt>
      <trkpt lat="46.53607" lon="0.31544">
        <ele>121</ele>
        <time>2023-09-17T08:57:57Z</time>
      </trkpt>
      <trkpt lat="46.53604" lon="0.31536">
        <ele>121.8</ele>
        <time>2023-09-17T08:58:00Z</time>
      </trkpt>
      <trkpt lat="46.53599" lon="0.31527">
        <ele>121.8</ele>
        <time>2023-09-17T08:58:03Z</time>
      </trkpt>
      <trkpt lat="46.53593" lon="0.31518">
        <ele>122.2</ele>
        <time>2023-09-17T08:58:06Z</time>
      </trkpt>
      <trkpt lat="46.53589" lon="0.31511">
        <ele>122.6</ele>
        <time>2023-09-17T08:58:08Z</time>
      </trkpt>
      <trkpt lat="46.53583" lon="0.31504">
        <ele>122.8</ele>
        <time>2023-09-17T08:58:10Z</time>
      </trkpt>
      <trkpt lat="46.53569" lon="0.31488">
        <ele>123.2</ele>
        <time>2023-09-17T08:58:15Z</time>
      </trkpt>
      <trkpt lat="46.53562" lon="0.31483">
        <ele>123.4</ele>
        <time>2023-09-17T08:58:17Z</time>
      </trkpt>
      <trkpt lat="46.53541" lon="0.31475">
        <ele>123.6</ele>
        <time>2023-09-17T08:58:21Z</time>
      </trkpt>
      <trkpt lat="46.53523" lon="0.31469">
        <ele>124</ele>
        <time>2023-09-17T08:58:25Z</time>
      </trkpt>
      <trkpt lat="46.53514" lon="0.31466">
        <ele>124.4</ele>
        <time>2023-09-17T08:58:27Z</time>
      </trkpt>
      <trkpt lat="46.53485" lon="0.31462">
        <ele>124</ele>
        <time>2023-09-17T08:58:34Z</time>
      </trkpt>
      <trkpt lat="46.53481" lon="0.31463">
        <ele>124</ele>
        <time>2023-09-17T08:58:35Z</time>
      </trkpt>
      <trkpt lat="46.53474" lon="0.31467">
        <ele>124</ele>
        <time>2023-09-17T08:58:37Z</time>
      </trkpt>
      <trkpt lat="46.53472" lon="0.3147">
        <ele>124</ele>
        <time>2023-09-17T08:58:38Z</time>
      </trkpt>
      <trkpt lat="46.53472" lon="0.31474">
        <ele>124</ele>
        <time>2023-09-17T08:58:39Z</time>
      </trkpt>
      <trkpt lat="46.53467" lon="0.31487">
        <ele>123.4</ele>
        <time>2023-09-17T08:58:42Z</time>
      </trkpt>
      <trkpt lat="46.53459" lon="0.31506">
        <ele>122.6</ele>
        <time>2023-09-17T08:58:46Z</time>
      </trkpt>
      <trkpt lat="46.53447" lon="0.31533">
        <ele>121.8</ele>
        <time>2023-09-17T08:58:51Z</time>
      </trkpt>
      <trkpt lat="46.53441" lon="0.31544">
        <ele>121.6</ele>
        <time>2023-09-17T08:58:53Z</time>
      </trkpt>
      <trkpt lat="46.53423" lon="0.31564">
        <ele>121.2</ele>
        <time>2023-09-17T08:58:57Z</time>
      </trkpt>
      <trkpt lat="46.53397" lon="0.31596">
        <ele>120.8</ele>
        <time>2023-09-17T08:59:03Z</time>
      </trkpt>
      <trkpt lat="46.53376" lon="0.31636">
        <ele>121</ele>
        <time>2023-09-17T08:59:09Z</time>
      </trkpt>
      <trkpt lat="46.53358" lon="0.31677">
        <ele>120.4</ele>
        <time>2023-09-17T08:59:15Z</time>
      </trkpt>
      <trkpt lat="46.5333" lon="0.31739">
        <ele>119.6</ele>
        <time>2023-09-17T08:59:23Z</time>
      </trkpt>
      <trkpt lat="46.53326" lon="0.31746">
        <ele>119.6</ele>
        <time>2023-09-17T08:59:24Z</time>
      </trkpt>
      <trkpt lat="46.53323" lon="0.31749">
        <ele>119.2</ele>
        <time>2023-09-17T08:59:25Z</time>
      </trkpt>
      <trkpt lat="46.53321" lon="0.31752">
        <ele>118.8</ele>
        <time>2023-09-17T08:59:26Z</time>
      </trkpt>
      <trkpt lat="46.53308" lon="0.31749">
        <ele>118</ele>
        <time>2023-09-17T08:59:30Z</time>
      </trkpt>
      <trkpt lat="46.53292" lon="0.31741">
        <ele>117.6</ele>
        <time>2023-09-17T08:59:33Z</time>
      </trkpt>
      <trkpt lat="46.53288" lon="0.31739">
        <ele>117.4</ele>
        <time>2023-09-17T08:59:34Z</time>
      </trkpt>
      <trkpt lat="46.53285" lon="0.31735">
        <ele>117</ele>
        <time>2023-09-17T08:59:35Z</time>
      </trkpt>
      <trkpt lat="46.53284" lon="0.31732">
        <ele>116.6</ele>
        <time>2023-09-17T08:59:36Z</time>
      </trkpt>
      <trkpt lat="46.53265" lon="0.31718">
        <ele>116.4</ele>
        <time>2023-09-17T08:59:37Z</time>
      </trkpt>
      <trkpt lat="46.53243" lon="0.3169">
        <ele>115.6</ele>
        <time>2023-09-17T08:59:40Z</time>
      </trkpt>
      <trkpt lat="46.53239" lon="0.31681">
        <ele>115.2</ele>
        <time>2023-09-17T08:59:41Z</time>
      </trkpt>
      <trkpt lat="46.53237" lon="0.31673">
        <ele>115.4</ele>
        <time>2023-09-17T08:59:42Z</time>
      </trkpt>
      <trkpt lat="46.53225" lon="0.31627">
        <ele>115.4</ele>
        <time>2023-09-17T08:59:48Z</time>
      </trkpt>
      <trkpt lat="46.53219" lon="0.31595">
        <ele>115.4</ele>
        <time>2023-09-17T08:59:53Z</time>
      </trkpt>
      <trkpt lat="46.53207" lon="0.31567">
        <ele>114.4</ele>
        <time>2023-09-17T08:59:58Z</time>
      </trkpt>
      <trkpt lat="46.53205" lon="0.31562">
        <ele>114.4</ele>
        <time>2023-09-17T08:59:59Z</time>
      </trkpt>
      <trkpt lat="46.53194" lon="0.31534">
        <ele>114.6</ele>
        <time>2023-09-17T09:00:04Z</time>
      </trkpt>
      <trkpt lat="46.53188" lon="0.31527">
        <ele>114.2</ele>
        <time>2023-09-17T09:00:06Z</time>
      </trkpt>
      <trkpt lat="46.53181" lon="0.31519">
        <ele>113.6</ele>
        <time>2023-09-17T09:00:08Z</time>
      </trkpt>
      <trkpt lat="46.53178" lon="0.31515">
        <ele>113.4</ele>
        <time>2023-09-17T09:00:09Z</time>
      </trkpt>
      <trkpt lat="46.53176" lon="0.31511">
        <ele>113.2</ele>
        <time>2023-09-17T09:00:10Z</time>
      </trkpt>
      <trkpt lat="46.53174" lon="0.31503">
        <ele>113.4</ele>
        <time>2023-09-17T09:00:12Z</time>
      </trkpt>
      <trkpt lat="46.53171" lon="0.31495">
        <ele>113.4</ele>
        <time>2023-09-17T09:00:14Z</time>
      </trkpt>
      <trkpt lat="46.53164" lon="0.31475">
        <ele>114.8</ele>
        <time>2023-09-17T09:00:19Z</time>
      </trkpt>
      <trkpt lat="46.53162" lon="0.31466">
        <ele>115.2</ele>
        <time>2023-09-17T09:00:21Z</time>
      </trkpt>
      <trkpt lat="46.53157" lon="0.31446">
        <ele>115.4</ele>
        <time>2023-09-17T09:00:26Z</time>
      </trkpt>
      <trkpt lat="46.53153" lon="0.31421">
        <ele>114</ele>
        <time>2023-09-17T09:00:32Z</time>
      </trkpt>
      <trkpt lat="46.53149" lon="0.31397">
        <ele>114.4</ele>
        <time>2023-09-17T09:00:38Z</time>
      </trkpt>
      <trkpt lat="46.53145" lon="0.31369">
        <ele>115.4</ele>
        <time>2023-09-17T09:00:45Z</time>
      </trkpt>
      <trkpt lat="46.53143" lon="0.31361">
        <ele>116</ele>
        <time>2023-09-17T09:00:47Z</time>
      </trkpt>
      <trkpt lat="46.53137" lon="0.31338">
        <ele>116.4</ele>
        <time>2023-09-17T09:00:52Z</time>
      </trkpt>
      <trkpt lat="46.5313" lon="0.31307">
        <ele>116.4</ele>
        <time>2023-09-17T09:00:59Z</time>
      </trkpt>
      <trkpt lat="46.5313" lon="0.31297">
        <ele>117</ele>
        <time>2023-09-17T09:01:02Z</time>
      </trkpt>
      <trkpt lat="46.53132" lon="0.31294">
        <ele>117.4</ele>
        <time>2023-09-17T09:01:03Z</time>
      </trkpt>
      <trkpt lat="46.53134" lon="0.31289">
        <ele>118</ele>
        <time>2023-09-17T09:01:05Z</time>
      </trkpt>
      <trkpt lat="46.53138" lon="0.31279">
        <ele>118.6</ele>
        <time>2023-09-17T09:01:08Z</time>
      </trkpt>
      <trkpt lat="46.53142" lon="0.31266">
        <ele>119.6</ele>
        <time>2023-09-17T09:01:12Z</time>
      </trkpt>
      <trkpt lat="46.53144" lon="0.31258">
        <ele>120.2</ele>
        <time>2023-09-17T09:01:14Z</time>
      </trkpt>
      <trkpt lat="46.53148" lon="0.31246">
        <ele>120.6</ele>
        <time>2023-09-17T09:01:17Z</time>
      </trkpt>
      <trkpt lat="46.53154" lon="0.31232">
        <ele>121</ele>
        <time>2023-09-17T09:01:21Z</time>
      </trkpt>
      <trkpt lat="46.53165" lon="0.31207">
        <ele>120.2</ele>
        <time>2023-09-17T09:01:28Z</time>
      </trkpt>
      <trkpt lat="46.53173" lon="0.31175">
        <ele>119.8</ele>
        <time>2023-09-17T09:01:34Z</time>
      </trkpt>
      <trkpt lat="46.53175" lon="0.3117">
        <ele>119.6</ele>
        <time>2023-09-17T09:01:35Z</time>
      </trkpt>
      <trkpt lat="46.53176" lon="0.31165">
        <ele>119.4</ele>
        <time>2023-09-17T09:01:36Z</time>
      </trkpt>
      <trkpt lat="46.53185" lon="0.3114">
        <ele>118.6</ele>
        <time>2023-09-17T09:01:42Z</time>
      </trkpt>
      <trkpt lat="46.53184" lon="0.3113">
        <ele>118.2</ele>
        <time>2023-09-17T09:01:44Z</time>
      </trkpt>
      <trkpt lat="46.53184" lon="0.3112">
        <ele>117.6</ele>
        <time>2023-09-17T09:01:46Z</time>
      </trkpt>
      <trkpt lat="46.53185" lon="0.31112">
        <ele>115.8</ele>
        <time>2023-09-17T09:01:48Z</time>
      </trkpt>
      <trkpt lat="46.53188" lon="0.31098">
        <ele>115</ele>
        <time>2023-09-17T09:01:51Z</time>
      </trkpt>
      <trkpt lat="46.53187" lon="0.31092">
        <ele>114.8</ele>
        <time>2023-09-17T09:01:52Z</time>
      </trkpt>
      <trkpt lat="46.53187" lon="0.31086">
        <ele>114.6</ele>
        <time>2023-09-17T09:01:53Z</time>
      </trkpt>
      <trkpt lat="46.53183" lon="0.31073">
        <ele>113.2</ele>
        <time>2023-09-17T09:01:55Z</time>
      </trkpt>
      <trkpt lat="46.53182" lon="0.31068">
        <ele>111.6</ele>
        <time>2023-09-17T09:01:56Z</time>
      </trkpt>
      <trkpt lat="46.5318" lon="0.31064">
        <ele>110.4</ele>
        <time>2023-09-17T09:01:57Z</time>
      </trkpt>
      <trkpt lat="46.53178" lon="0.31059">
        <ele>109</ele>
        <time>2023-09-17T09:01:58Z</time>
      </trkpt>
      <trkpt lat="46.5318" lon="0.31054">
        <ele>108</ele>
        <time>2023-09-17T09:01:59Z</time>
      </trkpt>
      <trkpt lat="46.5318" lon="0.3105">
        <ele>107.6</ele>
        <time>2023-09-17T09:02:00Z</time>
      </trkpt>
      <trkpt lat="46.53178" lon="0.31038">
        <ele>107.2</ele>
        <time>2023-09-17T09:02:03Z</time>
      </trkpt>
      <trkpt lat="46.53181" lon="0.31028">
        <ele>107.2</ele>
        <time>2023-09-17T09:02:07Z</time>
      </trkpt>
      <trkpt lat="46.53186" lon="0.31017">
        <ele>107.4</ele>
        <time>2023-09-17T09:02:10Z</time>
      </trkpt>
      <trkpt lat="46.53189" lon="0.31008">
        <ele>107.4</ele>
        <time>2023-09-17T09:02:12Z</time>
      </trkpt>
      <trkpt lat="46.53197" lon="0.30996">
        <ele>106.6</ele>
        <time>2023-09-17T09:02:15Z</time>
      </trkpt>
      <trkpt lat="46.53201" lon="0.30993">
        <ele>106</ele>
        <time>2023-09-17T09:02:16Z</time>
      </trkpt>
      <trkpt lat="46.53205" lon="0.30991">
        <ele>105.4</ele>
        <time>2023-09-17T09:02:17Z</time>
      </trkpt>
      <trkpt lat="46.53212" lon="0.30987">
        <ele>104.8</ele>
        <time>2023-09-17T09:02:19Z</time>
      </trkpt>
      <trkpt lat="46.53215" lon="0.30979">
        <ele>104.4</ele>
        <time>2023-09-17T09:02:21Z</time>
      </trkpt>
      <trkpt lat="46.53227" lon="0.30957">
        <ele>104.4</ele>
        <time>2023-09-17T09:02:27Z</time>
      </trkpt>
      <trkpt lat="46.53242" lon="0.30933">
        <ele>104.6</ele>
        <time>2023-09-17T09:02:33Z</time>
      </trkpt>
      <trkpt lat="46.53247" lon="0.30924">
        <ele>105.2</ele>
        <time>2023-09-17T09:02:35Z</time>
      </trkpt>
      <trkpt lat="46.53262" lon="0.30883">
        <ele>105.8</ele>
        <time>2023-09-17T09:02:40Z</time>
      </trkpt>
      <trkpt lat="46.53263" lon="0.30876">
        <ele>106</ele>
        <time>2023-09-17T09:02:41Z</time>
      </trkpt>
      <trkpt lat="46.53264" lon="0.30871">
        <ele>106.2</ele>
        <time>2023-09-17T09:02:42Z</time>
      </trkpt>
      <trkpt lat="46.53263" lon="0.30862">
        <ele>106.2</ele>
        <time>2023-09-17T09:02:43Z</time>
      </trkpt>
      <trkpt lat="46.53261" lon="0.30851">
        <ele>107</ele>
        <time>2023-09-17T09:02:45Z</time>
      </trkpt>
      <trkpt lat="46.53258" lon="0.30843">
        <ele>107.4</ele>
        <time>2023-09-17T09:02:46Z</time>
      </trkpt>
      <trkpt lat="46.53258" lon="0.30837">
        <ele>108</ele>
        <time>2023-09-17T09:02:47Z</time>
      </trkpt>
      <trkpt lat="46.53255" lon="0.30824">
        <ele>108</ele>
        <time>2023-09-17T09:02:49Z</time>
      </trkpt>
      <trkpt lat="46.5325" lon="0.308">
        <ele>108.2</ele>
        <time>2023-09-17T09:02:53Z</time>
      </trkpt>
      <trkpt lat="46.53259" lon="0.30783">
        <ele>109.2</ele>
        <time>2023-09-17T09:02:58Z</time>
      </trkpt>
      <trkpt lat="46.53263" lon="0.30781">
        <ele>109.4</ele>
        <time>2023-09-17T09:02:59Z</time>
      </trkpt>
      <trkpt lat="46.53279" lon="0.30767">
        <ele>110.2</ele>
        <time>2023-09-17T09:03:05Z</time>
      </trkpt>
      <trkpt lat="46.53284" lon="0.30765">
        <ele>110.4</ele>
        <time>2023-09-17T09:03:06Z</time>
      </trkpt>
      <trkpt lat="46.53309" lon="0.30763">
        <ele>111.4</ele>
        <time>2023-09-17T09:03:11Z</time>
      </trkpt>
      <trkpt lat="46.53332" lon="0.30752">
        <ele>112.4</ele>
        <time>2023-09-17T09:03:18Z</time>
      </trkpt>
      <trkpt lat="46.5335" lon="0.30737">
        <ele>113.4</ele>
        <time>2023-09-17T09:03:25Z</time>
      </trkpt>
      <trkpt lat="46.53361" lon="0.30735">
        <ele>113.4</ele>
        <time>2023-09-17T09:03:27Z</time>
      </trkpt>
      <trkpt lat="46.53393" lon="0.30714">
        <ele>113.8</ele>
        <time>2023-09-17T09:03:35Z</time>
      </trkpt>
      <trkpt lat="46.53405" lon="0.30695">
        <ele>114</ele>
        <time>2023-09-17T09:03:40Z</time>
      </trkpt>
      <trkpt lat="46.53408" lon="0.30686">
        <ele>114.6</ele>
        <time>2023-09-17T09:03:43Z</time>
      </trkpt>
      <trkpt lat="46.53439" lon="0.30695">
        <ele>115</ele>
        <time>2023-09-17T09:03:47Z</time>
      </trkpt>
      <trkpt lat="46.53446" lon="0.30695">
        <ele>115.2</ele>
        <time>2023-09-17T09:03:48Z</time>
      </trkpt>
      <trkpt lat="46.5346" lon="0.30691">
        <ele>115.6</ele>
        <time>2023-09-17T09:03:51Z</time>
      </trkpt>
      <trkpt lat="46.53466" lon="0.30686">
        <ele>115.8</ele>
        <time>2023-09-17T09:03:53Z</time>
      </trkpt>
      <trkpt lat="46.53471" lon="0.30684">
        <ele>116.8</ele>
        <time>2023-09-17T09:03:55Z</time>
      </trkpt>
      <trkpt lat="46.53474" lon="0.30679">
        <ele>117.2</ele>
        <time>2023-09-17T09:03:57Z</time>
      </trkpt>
      <trkpt lat="46.53476" lon="0.30676">
        <ele>117.6</ele>
        <time>2023-09-17T09:03:59Z</time>
      </trkpt>
      <trkpt lat="46.53477" lon="0.30676">
        <ele>117.8</ele>
        <time>2023-09-17T09:04:00Z</time>
      </trkpt>
      <trkpt lat="46.53478" lon="0.30676">
        <ele>118.2</ele>
        <time>2023-09-17T09:04:01Z</time>
      </trkpt>
      <trkpt lat="46.53479" lon="0.30675">
        <ele>119</ele>
        <time>2023-09-17T09:04:02Z</time>
      </trkpt>
      <trkpt lat="46.53482" lon="0.30674">
        <ele>120.2</ele>
        <time>2023-09-17T09:04:05Z</time>
      </trkpt>
      <trkpt lat="46.53491" lon="0.3068">
        <ele>120.4</ele>
        <time>2023-09-17T09:04:06Z</time>
      </trkpt>
      <trkpt lat="46.53494" lon="0.3068">
        <ele>120.8</ele>
        <time>2023-09-17T09:04:08Z</time>
      </trkpt>
      <trkpt lat="46.53495" lon="0.30679">
        <ele>121.4</ele>
        <time>2023-09-17T09:04:09Z</time>
      </trkpt>
      <trkpt lat="46.53495" lon="0.30679">
        <ele>121.6</ele>
        <time>2023-09-17T09:04:10Z</time>
      </trkpt>
      <trkpt lat="46.53497" lon="0.3068">
        <ele>121.8</ele>
        <time>2023-09-17T09:04:11Z</time>
      </trkpt>
      <trkpt lat="46.53506" lon="0.30686">
        <ele>122.4</ele>
        <time>2023-09-17T09:04:14Z</time>
      </trkpt>
      <trkpt lat="46.53513" lon="0.30691">
        <ele>122.8</ele>
        <time>2023-09-17T09:04:17Z</time>
      </trkpt>
      <trkpt lat="46.53519" lon="0.30694">
        <ele>123</ele>
        <time>2023-09-17T09:04:19Z</time>
      </trkpt>
      <trkpt lat="46.53524" lon="0.30698">
        <ele>123.6</ele>
        <time>2023-09-17T09:04:22Z</time>
      </trkpt>
      <trkpt lat="46.5353" lon="0.30701">
        <ele>124.2</ele>
        <time>2023-09-17T09:04:25Z</time>
      </trkpt>
      <trkpt lat="46.53532" lon="0.30703">
        <ele>124.6</ele>
        <time>2023-09-17T09:04:27Z</time>
      </trkpt>
      <trkpt lat="46.53534" lon="0.30707">
        <ele>125.4</ele>
        <time>2023-09-17T09:04:29Z</time>
      </trkpt>
      <trkpt lat="46.53534" lon="0.30709">
        <ele>125.6</ele>
        <time>2023-09-17T09:04:30Z</time>
      </trkpt>
      <trkpt lat="46.53536" lon="0.30712">
        <ele>126</ele>
        <time>2023-09-17T09:04:32Z</time>
      </trkpt>
      <trkpt lat="46.53536" lon="0.30719">
        <ele>127</ele>
        <time>2023-09-17T09:04:37Z</time>
      </trkpt>
      <trkpt lat="46.53536" lon="0.30722">
        <ele>127.4</ele>
        <time>2023-09-17T09:04:39Z</time>
      </trkpt>
      <trkpt lat="46.53535" lon="0.30732">
        <ele>128.2</ele>
        <time>2023-09-17T09:04:45Z</time>
      </trkpt>
      <trkpt lat="46.53536" lon="0.30735">
        <ele>128.4</ele>
        <time>2023-09-17T09:04:46Z</time>
      </trkpt>
      <trkpt lat="46.53541" lon="0.30757">
        <ele>129.4</ele>
        <time>2023-09-17T09:04:54Z</time>
      </trkpt>
      <trkpt lat="46.53555" lon="0.30784">
        <ele>130.4</ele>
        <time>2023-09-17T09:05:00Z</time>
      </trkpt>
      <trkpt lat="46.5356" lon="0.30794">
        <ele>130.6</ele>
        <time>2023-09-17T09:05:02Z</time>
      </trkpt>
      <trkpt lat="46.53565" lon="0.30809">
        <ele>130.6</ele>
        <time>2023-09-17T09:05:05Z</time>
      </trkpt>
      <trkpt lat="46.53571" lon="0.30823">
        <ele>130.8</ele>
        <time>2023-09-17T09:05:08Z</time>
      </trkpt>
      <trkpt lat="46.53573" lon="0.30829">
        <ele>131</ele>
        <time>2023-09-17T09:05:09Z</time>
      </trkpt>
      <trkpt lat="46.53577" lon="0.30853">
        <ele>131.4</ele>
        <time>2023-09-17T09:05:13Z</time>
      </trkpt>
      <trkpt lat="46.53579" lon="0.30859">
        <ele>131.6</ele>
        <time>2023-09-17T09:05:14Z</time>
      </trkpt>
      <trkpt lat="46.53581" lon="0.30865">
        <ele>131.6</ele>
        <time>2023-09-17T09:05:15Z</time>
      </trkpt>
      <trkpt lat="46.53585" lon="0.30891">
        <ele>131.8</ele>
        <time>2023-09-17T09:05:19Z</time>
      </trkpt>
      <trkpt lat="46.53595" lon="0.30933">
        <ele>131.4</ele>
        <time>2023-09-17T09:05:25Z</time>
      </trkpt>
      <trkpt lat="46.53608" lon="0.30948">
        <ele>131.4</ele>
        <time>2023-09-17T09:05:26Z</time>
      </trkpt>
      <trkpt lat="46.53626" lon="0.3097">
        <ele>131.2</ele>
        <time>2023-09-17T09:05:28Z</time>
      </trkpt>
      <trkpt lat="46.53637" lon="0.30987">
        <ele>131.2</ele>
        <time>2023-09-17T09:05:31Z</time>
      </trkpt>
      <trkpt lat="46.53645" lon="0.31005">
        <ele>131</ele>
        <time>2023-09-17T09:05:34Z</time>
      </trkpt>
      <trkpt lat="46.53656" lon="0.31029">
        <ele>130.8</ele>
        <time>2023-09-17T09:05:37Z</time>
      </trkpt>
      <trkpt lat="46.53663" lon="0.31045">
        <ele>130.6</ele>
        <time>2023-09-17T09:05:39Z</time>
      </trkpt>
      <trkpt lat="46.53689" lon="0.31093">
        <ele>129.6</ele>
        <time>2023-09-17T09:05:44Z</time>
      </trkpt>
      <trkpt lat="46.53693" lon="0.31101">
        <ele>129.2</ele>
        <time>2023-09-17T09:05:45Z</time>
      </trkpt>
      <trkpt lat="46.53721" lon="0.31142">
        <ele>128.2</ele>
        <time>2023-09-17T09:05:49Z</time>
      </trkpt>
      <trkpt lat="46.53738" lon="0.31162">
        <ele>127.8</ele>
        <time>2023-09-17T09:05:51Z</time>
      </trkpt>
      <trkpt lat="46.53761" lon="0.31188">
        <ele>127</ele>
        <time>2023-09-17T09:05:54Z</time>
      </trkpt>
      <trkpt lat="46.53777" lon="0.31202">
        <ele>126</ele>
        <time>2023-09-17T09:05:56Z</time>
      </trkpt>
      <trkpt lat="46.53785" lon="0.31207">
        <ele>126</ele>
        <time>2023-09-17T09:05:57Z</time>
      </trkpt>
      <trkpt lat="46.53806" lon="0.31218">
        <ele>125.8</ele>
        <time>2023-09-17T09:06:02Z</time>
      </trkpt>
      <trkpt lat="46.53815" lon="0.31222">
        <ele>125.8</ele>
        <time>2023-09-17T09:06:04Z</time>
      </trkpt>
      <trkpt lat="46.53834" lon="0.31233">
        <ele>125.6</ele>
        <time>2023-09-17T09:06:08Z</time>
      </trkpt>
      <trkpt lat="46.53853" lon="0.31243">
        <ele>125.8</ele>
        <time>2023-09-17T09:06:13Z</time>
      </trkpt>
      <trkpt lat="46.53856" lon="0.31246">
        <ele>126</ele>
        <time>2023-09-17T09:06:14Z</time>
      </trkpt>
      <trkpt lat="46.53876" lon="0.31266">
        <ele>127</ele>
        <time>2023-09-17T09:06:17Z</time>
      </trkpt>
      <trkpt lat="46.5389" lon="0.31277">
        <ele>127.6</ele>
        <time>2023-09-17T09:06:19Z</time>
      </trkpt>
      <trkpt lat="46.53902" lon="0.31287">
        <ele>128</ele>
        <time>2023-09-17T09:06:21Z</time>
      </trkpt>
      <trkpt lat="46.53933" lon="0.31311">
        <ele>128.8</ele>
        <time>2023-09-17T09:06:27Z</time>
      </trkpt>
      <trkpt lat="46.53939" lon="0.31315">
        <ele>129</ele>
        <time>2023-09-17T09:06:28Z</time>
      </trkpt>
      <trkpt lat="46.53982" lon="0.31342">
        <ele>129.8</ele>
        <time>2023-09-17T09:06:34Z</time>
      </trkpt>
      <trkpt lat="46.53997" lon="0.31346">
        <ele>130.2</ele>
        <time>2023-09-17T09:06:37Z</time>
      </trkpt>
      <trkpt lat="46.5401" lon="0.3135">
        <ele>130.6</ele>
        <time>2023-09-17T09:06:39Z</time>
      </trkpt>
      <trkpt lat="46.54042" lon="0.3136">
        <ele>130.8</ele>
        <time>2023-09-17T09:06:45Z</time>
      </trkpt>
      <trkpt lat="46.54084" lon="0.31373">
        <ele>131.2</ele>
        <time>2023-09-17T09:06:52Z</time>
      </trkpt>
      <trkpt lat="46.54105" lon="0.31378">
        <ele>131.4</ele>
        <time>2023-09-17T09:06:56Z</time>
      </trkpt>
      <trkpt lat="46.54115" lon="0.3138">
        <ele>131.4</ele>
        <time>2023-09-17T09:06:58Z</time>
      </trkpt>
      <trkpt lat="46.54149" lon="0.31385">
        <ele>131.8</ele>
        <time>2023-09-17T09:07:04Z</time>
      </trkpt>
      <trkpt lat="46.54193" lon="0.31387">
        <ele>131.8</ele>
        <time>2023-09-17T09:07:11Z</time>
      </trkpt>
      <trkpt lat="46.54199" lon="0.31386">
        <ele>131.8</ele>
        <time>2023-09-17T09:07:12Z</time>
      </trkpt>
      <trkpt lat="46.54223" lon="0.31381">
        <ele>131.8</ele>
        <time>2023-09-17T09:07:16Z</time>
      </trkpt>
      <trkpt lat="46.54259" lon="0.31373">
        <ele>132</ele>
        <time>2023-09-17T09:07:22Z</time>
      </trkpt>
      <trkpt lat="46.54297" lon="0.31361">
        <ele>132</ele>
        <time>2023-09-17T09:07:28Z</time>
      </trkpt>
      <trkpt lat="46.5435" lon="0.31348">
        <ele>131.6</ele>
        <time>2023-09-17T09:07:36Z</time>
      </trkpt>
      <trkpt lat="46.54393" lon="0.3134">
        <ele>130.8</ele>
        <time>2023-09-17T09:07:42Z</time>
      </trkpt>
      <trkpt lat="46.54419" lon="0.31334">
        <ele>130.4</ele>
        <time>2023-09-17T09:07:46Z</time>
      </trkpt>
      <trkpt lat="46.54425" lon="0.31333">
        <ele>130.4</ele>
        <time>2023-09-17T09:07:47Z</time>
      </trkpt>
      <trkpt lat="46.54473" lon="0.31334">
        <ele>131.2</ele>
        <time>2023-09-17T09:07:55Z</time>
      </trkpt>
      <trkpt lat="46.54509" lon="0.31333">
        <ele>131.8</ele>
        <time>2023-09-17T09:08:01Z</time>
      </trkpt>
      <trkpt lat="46.54543" lon="0.31329">
        <ele>132.2</ele>
        <time>2023-09-17T09:08:07Z</time>
      </trkpt>
      <trkpt lat="46.5457" lon="0.31322">
        <ele>132</ele>
        <time>2023-09-17T09:08:12Z</time>
      </trkpt>
      <trkpt lat="46.54575" lon="0.31319">
        <ele>131.8</ele>
        <time>2023-09-17T09:08:13Z</time>
      </trkpt>
      <trkpt lat="46.54583" lon="0.31312">
        <ele>131.6</ele>
        <time>2023-09-17T09:08:15Z</time>
      </trkpt>
      <trkpt lat="46.54584" lon="0.31308">
        <ele>131.6</ele>
        <time>2023-09-17T09:08:16Z</time>
      </trkpt>
      <trkpt lat="46.54582" lon="0.3128">
        <ele>131.8</ele>
        <time>2023-09-17T09:08:21Z</time>
      </trkpt>
      <trkpt lat="46.54581" lon="0.31273">
        <ele>131.8</ele>
        <time>2023-09-17T09:08:22Z</time>
      </trkpt>
      <trkpt lat="46.54578" lon="0.31253">
        <ele>132</ele>
        <time>2023-09-17T09:08:25Z</time>
      </trkpt>
      <trkpt lat="46.54577" lon="0.31242">
        <ele>132</ele>
        <time>2023-09-17T09:08:27Z</time>
      </trkpt>
      <trkpt lat="46.54577" lon="0.31237">
        <ele>132.2</ele>
        <time>2023-09-17T09:08:28Z</time>
      </trkpt>
      <trkpt lat="46.54576" lon="0.31225">
        <ele>132.2</ele>
        <time>2023-09-17T09:08:30Z</time>
      </trkpt>
      <trkpt lat="46.54575" lon="0.31219">
        <ele>132.4</ele>
        <time>2023-09-17T09:08:31Z</time>
      </trkpt>
      <trkpt lat="46.54571" lon="0.31198">
        <ele>133</ele>
        <time>2023-09-17T09:08:34Z</time>
      </trkpt>
      <trkpt lat="46.54569" lon="0.3119">
        <ele>133.4</ele>
        <time>2023-09-17T09:08:35Z</time>
      </trkpt>
      <trkpt lat="46.54566" lon="0.31182">
        <ele>133.6</ele>
        <time>2023-09-17T09:08:36Z</time>
      </trkpt>
      <trkpt lat="46.54558" lon="0.31159">
        <ele>134</ele>
        <time>2023-09-17T09:08:39Z</time>
      </trkpt>
      <trkpt lat="46.54536" lon="0.31101">
        <ele>133.4</ele>
        <time>2023-09-17T09:08:47Z</time>
      </trkpt>
      <trkpt lat="46.54526" lon="0.3107">
        <ele>133.2</ele>
        <time>2023-09-17T09:08:52Z</time>
      </trkpt>
      <trkpt lat="46.54525" lon="0.31061">
        <ele>133.4</ele>
        <time>2023-09-17T09:08:54Z</time>
      </trkpt>
      <trkpt lat="46.54528" lon="0.31053">
        <ele>133.4</ele>
        <time>2023-09-17T09:08:56Z</time>
      </trkpt>
      <trkpt lat="46.5453" lon="0.31051">
        <ele>133.4</ele>
        <time>2023-09-17T09:08:57Z</time>
      </trkpt>
      <trkpt lat="46.54532" lon="0.3105">
        <ele>133.4</ele>
        <time>2023-09-17T09:08:58Z</time>
      </trkpt>
      <trkpt lat="46.54541" lon="0.31045">
        <ele>133.2</ele>
        <time>2023-09-17T09:09:01Z</time>
      </trkpt>
      <trkpt lat="46.54545" lon="0.31045">
        <ele>133</ele>
        <time>2023-09-17T09:09:02Z</time>
      </trkpt>
      <trkpt lat="46.54548" lon="0.31043">
        <ele>133</ele>
        <time>2023-09-17T09:09:03Z</time>
      </trkpt>
      <trkpt lat="46.54561" lon="0.3104">
        <ele>132.8</ele>
        <time>2023-09-17T09:09:07Z</time>
      </trkpt>
      <trkpt lat="46.54564" lon="0.31039">
        <ele>132.8</ele>
        <time>2023-09-17T09:09:08Z</time>
      </trkpt>
      <trkpt lat="46.54573" lon="0.31034">
        <ele>132.4</ele>
        <time>2023-09-17T09:09:11Z</time>
      </trkpt>
      <trkpt lat="46.54578" lon="0.31024">
        <ele>132</ele>
        <time>2023-09-17T09:09:15Z</time>
      </trkpt>
      <trkpt lat="46.54592" lon="0.31013">
        <ele>131.2</ele>
        <time>2023-09-17T09:09:21Z</time>
      </trkpt>
      <trkpt lat="46.54606" lon="0.31007">
        <ele>130.8</ele>
        <time>2023-09-17T09:09:25Z</time>
      </trkpt>
      <trkpt lat="46.54609" lon="0.31006">
        <ele>130.6</ele>
        <time>2023-09-17T09:09:26Z</time>
      </trkpt>
      <trkpt lat="46.54621" lon="0.31002">
        <ele>130</ele>
        <time>2023-09-17T09:09:29Z</time>
      </trkpt>
      <trkpt lat="46.54624" lon="0.31001">
        <ele>129.8</ele>
        <time>2023-09-17T09:09:30Z</time>
      </trkpt>
      <trkpt lat="46.54632" lon="0.30997">
        <ele>129</ele>
        <time>2023-09-17T09:09:33Z</time>
      </trkpt>
      <trkpt lat="46.54641" lon="0.30995">
        <ele>128</ele>
        <time>2023-09-17T09:09:36Z</time>
      </trkpt>
      <trkpt lat="46.54644" lon="0.30995">
        <ele>127.8</ele>
        <time>2023-09-17T09:09:37Z</time>
      </trkpt>
      <trkpt lat="46.54651" lon="0.30993">
        <ele>127.8</ele>
        <time>2023-09-17T09:09:39Z</time>
      </trkpt>
      <trkpt lat="46.54665" lon="0.30995">
        <ele>128</ele>
        <time>2023-09-17T09:09:42Z</time>
      </trkpt>
      <trkpt lat="46.54673" lon="0.30997">
        <ele>127.2</ele>
        <time>2023-09-17T09:09:44Z</time>
      </trkpt>
      <trkpt lat="46.54674" lon="0.31">
        <ele>126.6</ele>
        <time>2023-09-17T09:09:45Z</time>
      </trkpt>
      <trkpt lat="46.54676" lon="0.31002">
        <ele>126.4</ele>
        <time>2023-09-17T09:09:46Z</time>
      </trkpt>
      <trkpt lat="46.54686" lon="0.31016">
        <ele>126.8</ele>
        <time>2023-09-17T09:09:52Z</time>
      </trkpt>
      <trkpt lat="46.54688" lon="0.31017">
        <ele>126.8</ele>
        <time>2023-09-17T09:09:53Z</time>
      </trkpt>
      <trkpt lat="46.54703" lon="0.3102">
        <ele>126.6</ele>
        <time>2023-09-17T09:09:58Z</time>
      </trkpt>
      <trkpt lat="46.54708" lon="0.31018">
        <ele>126.4</ele>
        <time>2023-09-17T09:10:00Z</time>
      </trkpt>
      <trkpt lat="46.54711" lon="0.31014">
        <ele>126</ele>
        <time>2023-09-17T09:10:02Z</time>
      </trkpt>
      <trkpt lat="46.54713" lon="0.31013">
        <ele>126</ele>
        <time>2023-09-17T09:10:03Z</time>
      </trkpt>
      <trkpt lat="46.54716" lon="0.3101">
        <ele>125.6</ele>
        <time>2023-09-17T09:10:05Z</time>
      </trkpt>
      <trkpt lat="46.54718" lon="0.31007">
        <ele>125.2</ele>
        <time>2023-09-17T09:10:07Z</time>
      </trkpt>
      <trkpt lat="46.54722" lon="0.31005">
        <ele>125</ele>
        <time>2023-09-17T09:10:09Z</time>
      </trkpt>
      <trkpt lat="46.54725" lon="0.31003">
        <ele>125.2</ele>
        <time>2023-09-17T09:10:10Z</time>
      </trkpt>
      <trkpt lat="46.54728" lon="0.31001">
        <ele>125.2</ele>
        <time>2023-09-17T09:10:11Z</time>
      </trkpt>
      <trkpt lat="46.54739" lon="0.30992">
        <ele>126</ele>
        <time>2023-09-17T09:10:15Z</time>
      </trkpt>
      <trkpt lat="46.5474" lon="0.3099">
        <ele>126</ele>
        <time>2023-09-17T09:10:16Z</time>
      </trkpt>
      <trkpt lat="46.54746" lon="0.30968">
        <ele>126.2</ele>
        <time>2023-09-17T09:10:23Z</time>
      </trkpt>
      <trkpt lat="46.54754" lon="0.30951">
        <ele>126.8</ele>
        <time>2023-09-17T09:10:28Z</time>
      </trkpt>
      <trkpt lat="46.54755" lon="0.30947">
        <ele>126.8</ele>
        <time>2023-09-17T09:10:29Z</time>
      </trkpt>
      <trkpt lat="46.54765" lon="0.30923">
        <ele>127.2</ele>
        <time>2023-09-17T09:10:35Z</time>
      </trkpt>
      <trkpt lat="46.54764" lon="0.30896">
        <ele>127.6</ele>
        <time>2023-09-17T09:10:42Z</time>
      </trkpt>
      <trkpt lat="46.54761" lon="0.3089">
        <ele>127.8</ele>
        <time>2023-09-17T09:10:43Z</time>
      </trkpt>
      <trkpt lat="46.54757" lon="0.30865">
        <ele>128</ele>
        <time>2023-09-17T09:10:48Z</time>
      </trkpt>
      <trkpt lat="46.54755" lon="0.30859">
        <ele>128</ele>
        <time>2023-09-17T09:10:49Z</time>
      </trkpt>
      <trkpt lat="46.54751" lon="0.30851">
        <ele>128</ele>
        <time>2023-09-17T09:10:51Z</time>
      </trkpt>
      <trkpt lat="46.54736" lon="0.30828">
        <ele>128.6</ele>
        <time>2023-09-17T09:10:56Z</time>
      </trkpt>
      <trkpt lat="46.5473" lon="0.30815">
        <ele>128.8</ele>
        <time>2023-09-17T09:10:59Z</time>
      </trkpt>
      <trkpt lat="46.54723" lon="0.30803">
        <ele>129.2</ele>
        <time>2023-09-17T09:11:02Z</time>
      </trkpt>
      <trkpt lat="46.54713" lon="0.30782">
        <ele>129.8</ele>
        <time>2023-09-17T09:11:06Z</time>
      </trkpt>
      <trkpt lat="46.54707" lon="0.30773">
        <ele>130.2</ele>
        <time>2023-09-17T09:11:08Z</time>
      </trkpt>
      <trkpt lat="46.54684" lon="0.30743">
        <ele>130.8</ele>
        <time>2023-09-17T09:11:15Z</time>
      </trkpt>
      <trkpt lat="46.5468" lon="0.30739">
        <ele>130.8</ele>
        <time>2023-09-17T09:11:16Z</time>
      </trkpt>
      <trkpt lat="46.5466" lon="0.3072">
        <ele>131</ele>
        <time>2023-09-17T09:11:21Z</time>
      </trkpt>
      <trkpt lat="46.54646" lon="0.30708">
        <ele>131</ele>
        <time>2023-09-17T09:11:24Z</time>
      </trkpt>
      <trkpt lat="46.54629" lon="0.3069">
        <ele>131</ele>
        <time>2023-09-17T09:11:28Z</time>
      </trkpt>
      <trkpt lat="46.54599" lon="0.3065">
        <ele>131</ele>
        <time>2023-09-17T09:11:35Z</time>
      </trkpt>
      <trkpt lat="46.54591" lon="0.30639">
        <ele>131</ele>
        <time>2023-09-17T09:11:37Z</time>
      </trkpt>
      <trkpt lat="46.54581" lon="0.3063">
        <ele>130.8</ele>
        <time>2023-09-17T09:11:39Z</time>
      </trkpt>
      <trkpt lat="46.54575" lon="0.30626">
        <ele>130.6</ele>
        <time>2023-09-17T09:11:40Z</time>
      </trkpt>
      <trkpt lat="46.54561" lon="0.3062">
        <ele>130.4</ele>
        <time>2023-09-17T09:11:42Z</time>
      </trkpt>
      <trkpt lat="46.5454" lon="0.30616">
        <ele>129.6</ele>
        <time>2023-09-17T09:11:45Z</time>
      </trkpt>
      <trkpt lat="46.54521" lon="0.30613">
        <ele>129.6</ele>
        <time>2023-09-17T09:11:48Z</time>
      </trkpt>
      <trkpt lat="46.54489" lon="0.3061">
        <ele>130</ele>
        <time>2023-09-17T09:11:54Z</time>
      </trkpt>
      <trkpt lat="46.54474" lon="0.30609">
        <ele>130.8</ele>
        <time>2023-09-17T09:11:57Z</time>
      </trkpt>
      <trkpt lat="46.54449" lon="0.30609">
        <ele>131.4</ele>
        <time>2023-09-17T09:12:02Z</time>
      </trkpt>
      <trkpt lat="46.54439" lon="0.30609">
        <ele>132</ele>
        <time>2023-09-17T09:12:04Z</time>
      </trkpt>
      <trkpt lat="46.5443" lon="0.30608">
        <ele>132.4</ele>
        <time>2023-09-17T09:12:06Z</time>
      </trkpt>
      <trkpt lat="46.54423" lon="0.30607">
        <ele>133</ele>
        <time>2023-09-17T09:12:08Z</time>
      </trkpt>
      <trkpt lat="46.54419" lon="0.30606">
        <ele>133.2</ele>
        <time>2023-09-17T09:12:09Z</time>
      </trkpt>
      <trkpt lat="46.54415" lon="0.30602">
        <ele>133.6</ele>
        <time>2023-09-17T09:12:11Z</time>
      </trkpt>
      <trkpt lat="46.54415" lon="0.306">
        <ele>133.8</ele>
        <time>2023-09-17T09:12:12Z</time>
      </trkpt>
      <trkpt lat="46.54415" lon="0.30596">
        <ele>133.8</ele>
        <time>2023-09-17T09:12:13Z</time>
      </trkpt>
      <trkpt lat="46.54414" lon="0.30581">
        <ele>134</ele>
        <time>2023-09-17T09:12:16Z</time>
      </trkpt>
      <trkpt lat="46.5441" lon="0.30543">
        <ele>133.2</ele>
        <time>2023-09-17T09:12:22Z</time>
      </trkpt>
      <trkpt lat="46.54414" lon="0.30521">
        <ele>132.8</ele>
        <time>2023-09-17T09:12:25Z</time>
      </trkpt>
      <trkpt lat="46.54421" lon="0.30509">
        <ele>132.6</ele>
        <time>2023-09-17T09:12:27Z</time>
      </trkpt>
      <trkpt lat="46.54451" lon="0.30479">
        <ele>132.8</ele>
        <time>2023-09-17T09:12:33Z</time>
      </trkpt>
      <trkpt lat="46.54467" lon="0.30436">
        <ele>133.8</ele>
        <time>2023-09-17T09:12:39Z</time>
      </trkpt>
      <trkpt lat="46.5447" lon="0.30428">
        <ele>134.2</ele>
        <time>2023-09-17T09:12:40Z</time>
      </trkpt>
      <trkpt lat="46.54479" lon="0.30405">
        <ele>134.8</ele>
        <time>2023-09-17T09:12:43Z</time>
      </trkpt>
      <trkpt lat="46.54479" lon="0.30392">
        <ele>134.8</ele>
        <time>2023-09-17T09:12:45Z</time>
      </trkpt>
      <trkpt lat="46.54468" lon="0.30373">
        <ele>134.6</ele>
        <time>2023-09-17T09:12:49Z</time>
      </trkpt>
      <trkpt lat="46.54442" lon="0.30345">
        <ele>135.2</ele>
        <time>2023-09-17T09:12:55Z</time>
      </trkpt>
      <trkpt lat="46.54409" lon="0.30318">
        <ele>135.6</ele>
        <time>2023-09-17T09:13:02Z</time>
      </trkpt>
      <trkpt lat="46.54385" lon="0.30298">
        <ele>135.8</ele>
        <time>2023-09-17T09:13:08Z</time>
      </trkpt>
      <trkpt lat="46.54369" lon="0.30284">
        <ele>136.4</ele>
        <time>2023-09-17T09:13:12Z</time>
      </trkpt>
      <trkpt lat="46.54357" lon="0.30273">
        <ele>137.2</ele>
        <time>2023-09-17T09:13:15Z</time>
      </trkpt>
      <trkpt lat="46.54353" lon="0.30269">
        <ele>137.4</ele>
        <time>2023-09-17T09:13:16Z</time>
      </trkpt>
      <trkpt lat="46.54324" lon="0.30241">
        <ele>137.8</ele>
        <time>2023-09-17T09:13:23Z</time>
      </trkpt>
      <trkpt lat="46.54296" lon="0.30219">
        <ele>137.6</ele>
        <time>2023-09-17T09:13:29Z</time>
      </trkpt>
      <trkpt lat="46.54273" lon="0.30206">
        <ele>137.2</ele>
        <time>2023-09-17T09:13:34Z</time>
      </trkpt>
      <trkpt lat="46.54254" lon="0.30188">
        <ele>136.4</ele>
        <time>2023-09-17T09:13:38Z</time>
      </trkpt>
      <trkpt lat="46.54248" lon="0.30183">
        <ele>136</ele>
        <time>2023-09-17T09:13:39Z</time>
      </trkpt>
      <trkpt lat="46.54226" lon="0.30162">
        <ele>137</ele>
        <time>2023-09-17T09:13:44Z</time>
      </trkpt>
      <trkpt lat="46.54223" lon="0.30152">
        <ele>137.4</ele>
        <time>2023-09-17T09:13:47Z</time>
      </trkpt>
      <trkpt lat="46.54224" lon="0.30144">
        <ele>138.4</ele>
        <time>2023-09-17T09:13:51Z</time>
      </trkpt>
      <trkpt lat="46.54226" lon="0.30142">
        <ele>138.6</ele>
        <time>2023-09-17T09:13:52Z</time>
      </trkpt>
      <trkpt lat="46.54227" lon="0.3014">
        <ele>138.8</ele>
        <time>2023-09-17T09:13:53Z</time>
      </trkpt>
      <trkpt lat="46.54239" lon="0.3012">
        <ele>139.2</ele>
        <time>2023-09-17T09:14:01Z</time>
      </trkpt>
      <trkpt lat="46.54245" lon="0.30113">
        <ele>139.4</ele>
        <time>2023-09-17T09:14:04Z</time>
      </trkpt>
      <trkpt lat="46.54252" lon="0.30106">
        <ele>139.6</ele>
        <time>2023-09-17T09:14:07Z</time>
      </trkpt>
      <trkpt lat="46.54255" lon="0.30102">
        <ele>139.4</ele>
        <time>2023-09-17T09:14:08Z</time>
      </trkpt>
      <trkpt lat="46.54267" lon="0.30094">
        <ele>139.4</ele>
        <time>2023-09-17T09:14:12Z</time>
      </trkpt>
      <trkpt lat="46.5427" lon="0.30093">
        <ele>139.4</ele>
        <time>2023-09-17T09:14:13Z</time>
      </trkpt>
      <trkpt lat="46.54273" lon="0.30092">
        <ele>139.4</ele>
        <time>2023-09-17T09:14:14Z</time>
      </trkpt>
      <trkpt lat="46.5428" lon="0.30098">
        <ele>139.6</ele>
        <time>2023-09-17T09:14:17Z</time>
      </trkpt>
      <trkpt lat="46.54289" lon="0.30111">
        <ele>139.8</ele>
        <time>2023-09-17T09:14:21Z</time>
      </trkpt>
      <trkpt lat="46.54295" lon="0.30116">
        <ele>139.4</ele>
        <time>2023-09-17T09:14:23Z</time>
      </trkpt>
      <trkpt lat="46.54298" lon="0.30118">
        <ele>139.2</ele>
        <time>2023-09-17T09:14:24Z</time>
      </trkpt>
      <trkpt lat="46.54302" lon="0.30121">
        <ele>139</ele>
        <time>2023-09-17T09:14:25Z</time>
      </trkpt>
      <trkpt lat="46.54319" lon="0.30125">
        <ele>139</ele>
        <time>2023-09-17T09:14:30Z</time>
      </trkpt>
      <trkpt lat="46.54326" lon="0.30125">
        <ele>139</ele>
        <time>2023-09-17T09:14:32Z</time>
      </trkpt>
      <trkpt lat="46.5433" lon="0.3012">
        <ele>138.8</ele>
        <time>2023-09-17T09:14:34Z</time>
      </trkpt>
      <trkpt lat="46.54338" lon="0.30114">
        <ele>138.8</ele>
        <time>2023-09-17T09:14:37Z</time>
      </trkpt>
      <trkpt lat="46.5435" lon="0.30109">
        <ele>138.6</ele>
        <time>2023-09-17T09:14:40Z</time>
      </trkpt>
      <trkpt lat="46.54364" lon="0.30087">
        <ele>138.8</ele>
        <time>2023-09-17T09:14:46Z</time>
      </trkpt>
      <trkpt lat="46.54371" lon="0.30065">
        <ele>139</ele>
        <time>2023-09-17T09:14:52Z</time>
      </trkpt>
      <trkpt lat="46.54377" lon="0.30046">
        <ele>139.4</ele>
        <time>2023-09-17T09:14:57Z</time>
      </trkpt>
      <trkpt lat="46.5438" lon="0.30017">
        <ele>139.2</ele>
        <time>2023-09-17T09:15:03Z</time>
      </trkpt>
      <trkpt lat="46.54378" lon="0.29992">
        <ele>139.2</ele>
        <time>2023-09-17T09:15:08Z</time>
      </trkpt>
      <trkpt lat="46.54377" lon="0.29988">
        <ele>139.4</ele>
        <time>2023-09-17T09:15:09Z</time>
      </trkpt>
      <trkpt lat="46.54371" lon="0.29962">
        <ele>139.6</ele>
        <time>2023-09-17T09:15:15Z</time>
      </trkpt>
      <trkpt lat="46.54367" lon="0.29943">
        <ele>139.6</ele>
        <time>2023-09-17T09:15:20Z</time>
      </trkpt>
      <trkpt lat="46.54361" lon="0.29913">
        <ele>139.6</ele>
        <time>2023-09-17T09:15:27Z</time>
      </trkpt>
      <trkpt lat="46.54357" lon="0.29888">
        <ele>139.4</ele>
        <time>2023-09-17T09:15:33Z</time>
      </trkpt>
      <trkpt lat="46.54352" lon="0.29869">
        <ele>139.2</ele>
        <time>2023-09-17T09:15:38Z</time>
      </trkpt>
      <trkpt lat="46.5435" lon="0.29866">
        <ele>139</ele>
        <time>2023-09-17T09:15:39Z</time>
      </trkpt>
      <trkpt lat="46.54343" lon="0.29844">
        <ele>139</ele>
        <time>2023-09-17T09:15:45Z</time>
      </trkpt>
      <trkpt lat="46.54334" lon="0.29823">
        <ele>138.8</ele>
        <time>2023-09-17T09:15:50Z</time>
      </trkpt>
      <trkpt lat="46.54322" lon="0.29799">
        <ele>139</ele>
        <time>2023-09-17T09:15:56Z</time>
      </trkpt>
      <trkpt lat="46.5431" lon="0.29777">
        <ele>139.2</ele>
        <time>2023-09-17T09:16:02Z</time>
      </trkpt>
      <trkpt lat="46.54297" lon="0.29753">
        <ele>139.2</ele>
        <time>2023-09-17T09:16:08Z</time>
      </trkpt>
      <trkpt lat="46.54287" lon="0.29753">
        <ele>138.4</ele>
        <time>2023-09-17T09:16:12Z</time>
      </trkpt>
      <trkpt lat="46.54283" lon="0.29752">
        <ele>138.6</ele>
        <time>2023-09-17T09:16:14Z</time>
      </trkpt>
      <trkpt lat="46.54278" lon="0.2975">
        <ele>138.8</ele>
        <time>2023-09-17T09:16:16Z</time>
      </trkpt>
      <trkpt lat="46.54265" lon="0.29737">
        <ele>138.8</ele>
        <time>2023-09-17T09:16:22Z</time>
      </trkpt>
      <trkpt lat="46.5425" lon="0.29719">
        <ele>139</ele>
        <time>2023-09-17T09:16:28Z</time>
      </trkpt>
      <trkpt lat="46.54237" lon="0.29704">
        <ele>139.2</ele>
        <time>2023-09-17T09:16:34Z</time>
      </trkpt>
      <trkpt lat="46.54236" lon="0.29694">
        <ele>139.6</ele>
        <time>2023-09-17T09:16:37Z</time>
      </trkpt>
      <trkpt lat="46.54236" lon="0.29686">
        <ele>139.6</ele>
        <time>2023-09-17T09:16:39Z</time>
      </trkpt>
      <trkpt lat="46.54237" lon="0.29667">
        <ele>139.6</ele>
        <time>2023-09-17T09:16:45Z</time>
      </trkpt>
      <trkpt lat="46.54236" lon="0.29664">
        <ele>139.6</ele>
        <time>2023-09-17T09:16:46Z</time>
      </trkpt>
      <trkpt lat="46.54231" lon="0.29657">
        <ele>139.8</ele>
        <time>2023-09-17T09:16:48Z</time>
      </trkpt>
      <trkpt lat="46.54229" lon="0.29655">
        <ele>140</ele>
        <time>2023-09-17T09:16:49Z</time>
      </trkpt>
      <trkpt lat="46.54222" lon="0.29649">
        <ele>140</ele>
        <time>2023-09-17T09:16:51Z</time>
      </trkpt>
      <trkpt lat="46.54207" lon="0.29633">
        <ele>140.4</ele>
        <time>2023-09-17T09:16:55Z</time>
      </trkpt>
      <trkpt lat="46.54201" lon="0.29625">
        <ele>140.6</ele>
        <time>2023-09-17T09:16:57Z</time>
      </trkpt>
      <trkpt lat="46.54183" lon="0.2961">
        <ele>140.8</ele>
        <time>2023-09-17T09:17:01Z</time>
      </trkpt>
      <trkpt lat="46.54164" lon="0.29595">
        <ele>141</ele>
        <time>2023-09-17T09:17:05Z</time>
      </trkpt>
      <trkpt lat="46.54163" lon="0.29591">
        <ele>141</ele>
        <time>2023-09-17T09:17:06Z</time>
      </trkpt>
      <trkpt lat="46.54163" lon="0.29588">
        <ele>141.2</ele>
        <time>2023-09-17T09:17:07Z</time>
      </trkpt>
      <trkpt lat="46.54165" lon="0.29582">
        <ele>141.2</ele>
        <time>2023-09-17T09:17:09Z</time>
      </trkpt>
      <trkpt lat="46.54173" lon="0.29565">
        <ele>140.6</ele>
        <time>2023-09-17T09:17:15Z</time>
      </trkpt>
      <trkpt lat="46.54182" lon="0.29548">
        <ele>140.8</ele>
        <time>2023-09-17T09:17:21Z</time>
      </trkpt>
      <trkpt lat="46.54182" lon="0.29544">
        <ele>141.2</ele>
        <time>2023-09-17T09:17:24Z</time>
      </trkpt>
      <trkpt lat="46.54182" lon="0.29539">
        <ele>141.2</ele>
        <time>2023-09-17T09:17:26Z</time>
      </trkpt>
      <trkpt lat="46.54181" lon="0.29523">
        <ele>141.6</ele>
        <time>2023-09-17T09:17:29Z</time>
      </trkpt>
      <trkpt lat="46.5418" lon="0.29518">
        <ele>141.6</ele>
        <time>2023-09-17T09:17:30Z</time>
      </trkpt>
      <trkpt lat="46.54171" lon="0.29493">
        <ele>141.4</ele>
        <time>2023-09-17T09:17:36Z</time>
      </trkpt>
      <trkpt lat="46.54168" lon="0.29472">
        <ele>141.6</ele>
        <time>2023-09-17T09:17:41Z</time>
      </trkpt>
      <trkpt lat="46.54163" lon="0.29449">
        <ele>141.6</ele>
        <time>2023-09-17T09:17:46Z</time>
      </trkpt>
      <trkpt lat="46.54161" lon="0.29445">
        <ele>141.4</ele>
        <time>2023-09-17T09:17:47Z</time>
      </trkpt>
      <trkpt lat="46.54155" lon="0.29431">
        <ele>141.2</ele>
        <time>2023-09-17T09:17:50Z</time>
      </trkpt>
      <trkpt lat="46.54146" lon="0.29406">
        <ele>141.8</ele>
        <time>2023-09-17T09:17:56Z</time>
      </trkpt>
      <trkpt lat="46.54136" lon="0.29383">
        <ele>142</ele>
        <time>2023-09-17T09:18:02Z</time>
      </trkpt>
      <trkpt lat="46.54129" lon="0.29366">
        <ele>141.6</ele>
        <time>2023-09-17T09:18:07Z</time>
      </trkpt>
      <trkpt lat="46.5412" lon="0.29341">
        <ele>141.2</ele>
        <time>2023-09-17T09:18:14Z</time>
      </trkpt>
      <trkpt lat="46.54112" lon="0.29322">
        <ele>141</ele>
        <time>2023-09-17T09:18:18Z</time>
      </trkpt>
      <trkpt lat="46.54106" lon="0.29313">
        <ele>140.6</ele>
        <time>2023-09-17T09:18:23Z</time>
      </trkpt>
      <trkpt lat="46.54105" lon="0.29311">
        <ele>140.4</ele>
        <time>2023-09-17T09:18:24Z</time>
      </trkpt>
      <trkpt lat="46.54094" lon="0.293">
        <ele>140.4</ele>
        <time>2023-09-17T09:18:30Z</time>
      </trkpt>
      <trkpt lat="46.54071" lon="0.29283">
        <ele>140</ele>
        <time>2023-09-17T09:18:35Z</time>
      </trkpt>
      <trkpt lat="46.54053" lon="0.2926">
        <ele>139.8</ele>
        <time>2023-09-17T09:18:41Z</time>
      </trkpt>
      <trkpt lat="46.5405" lon="0.29255">
        <ele>139.6</ele>
        <time>2023-09-17T09:18:42Z</time>
      </trkpt>
      <trkpt lat="46.54041" lon="0.29245">
        <ele>139.8</ele>
        <time>2023-09-17T09:18:44Z</time>
      </trkpt>
      <trkpt lat="46.54036" lon="0.29241">
        <ele>140</ele>
        <time>2023-09-17T09:18:45Z</time>
      </trkpt>
      <trkpt lat="46.54009" lon="0.29222">
        <ele>140.2</ele>
        <time>2023-09-17T09:18:49Z</time>
      </trkpt>
      <trkpt lat="46.53965" lon="0.29192">
        <ele>141</ele>
        <time>2023-09-17T09:18:55Z</time>
      </trkpt>
      <trkpt lat="46.53931" lon="0.29169">
        <ele>140.6</ele>
        <time>2023-09-17T09:19:00Z</time>
      </trkpt>
      <trkpt lat="46.53905" lon="0.29151">
        <ele>140</ele>
        <time>2023-09-17T09:19:04Z</time>
      </trkpt>
      <trkpt lat="46.53893" lon="0.29142">
        <ele>139.8</ele>
        <time>2023-09-17T09:19:06Z</time>
      </trkpt>
      <trkpt lat="46.53886" lon="0.29138">
        <ele>139.4</ele>
        <time>2023-09-17T09:19:07Z</time>
      </trkpt>
      <trkpt lat="46.53857" lon="0.29118">
        <ele>138.6</ele>
        <time>2023-09-17T09:19:12Z</time>
      </trkpt>
      <trkpt lat="46.53857" lon="0.29118">
        <ele>137.8</ele>
        <time>2023-09-17T09:19:13Z</time>
      </trkpt>
      <trkpt lat="46.53853" lon="0.29106">
        <ele>137.8</ele>
        <time>2023-09-17T09:19:14Z</time>
      </trkpt>
      <trkpt lat="46.53854" lon="0.29099">
        <ele>137.6</ele>
        <time>2023-09-17T09:19:15Z</time>
      </trkpt>
      <trkpt lat="46.53858" lon="0.29081">
        <ele>137.2</ele>
        <time>2023-09-17T09:19:17Z</time>
      </trkpt>
      <trkpt lat="46.5386" lon="0.29069">
        <ele>136.8</ele>
        <time>2023-09-17T09:19:18Z</time>
      </trkpt>
      <trkpt lat="46.53867" lon="0.29044">
        <ele>135.6</ele>
        <time>2023-09-17T09:19:20Z</time>
      </trkpt>
      <trkpt lat="46.53871" lon="0.29029">
        <ele>135.2</ele>
        <time>2023-09-17T09:19:21Z</time>
      </trkpt>
      <trkpt lat="46.53873" lon="0.29013">
        <ele>134.4</ele>
        <time>2023-09-17T09:19:22Z</time>
      </trkpt>
      <trkpt lat="46.53882" lon="0.28981">
        <ele>132.6</ele>
        <time>2023-09-17T09:19:24Z</time>
      </trkpt>
      <trkpt lat="46.53885" lon="0.28964">
        <ele>131.4</ele>
        <time>2023-09-17T09:19:25Z</time>
      </trkpt>
      <trkpt lat="46.5389" lon="0.28949">
        <ele>130.8</ele>
        <time>2023-09-17T09:19:26Z</time>
      </trkpt>
      <trkpt lat="46.53895" lon="0.28935">
        <ele>130.4</ele>
        <time>2023-09-17T09:19:27Z</time>
      </trkpt>
      <trkpt lat="46.53901" lon="0.28923">
        <ele>129.8</ele>
        <time>2023-09-17T09:19:28Z</time>
      </trkpt>
      <trkpt lat="46.53911" lon="0.28898">
        <ele>129</ele>
        <time>2023-09-17T09:19:30Z</time>
      </trkpt>
      <trkpt lat="46.53911" lon="0.28898">
        <ele>127.6</ele>
        <time>2023-09-17T09:19:33Z</time>
      </trkpt>
      <trkpt lat="46.53941" lon="0.28845">
        <ele>127</ele>
        <time>2023-09-17T09:19:35Z</time>
      </trkpt>
      <trkpt lat="46.53958" lon="0.28837">
        <ele>127</ele>
        <time>2023-09-17T09:19:37Z</time>
      </trkpt>
      <trkpt lat="46.53966" lon="0.28834">
        <ele>127</ele>
        <time>2023-09-17T09:19:38Z</time>
      </trkpt>
      <trkpt lat="46.53974" lon="0.28832">
        <ele>127</ele>
        <time>2023-09-17T09:19:39Z</time>
      </trkpt>
      <trkpt lat="46.53987" lon="0.28832">
        <ele>127.4</ele>
        <time>2023-09-17T09:19:41Z</time>
      </trkpt>
      <trkpt lat="46.53993" lon="0.28833">
        <ele>127.8</ele>
        <time>2023-09-17T09:19:42Z</time>
      </trkpt>
      <trkpt lat="46.5401" lon="0.28839">
        <ele>128.6</ele>
        <time>2023-09-17T09:19:45Z</time>
      </trkpt>
      <trkpt lat="46.54027" lon="0.28846">
        <ele>129.4</ele>
        <time>2023-09-17T09:19:48Z</time>
      </trkpt>
      <trkpt lat="46.54032" lon="0.28847">
        <ele>129.8</ele>
        <time>2023-09-17T09:19:49Z</time>
      </trkpt>
      <trkpt lat="46.54045" lon="0.2885">
        <ele>131.2</ele>
        <time>2023-09-17T09:19:52Z</time>
      </trkpt>
      <trkpt lat="46.54049" lon="0.2885">
        <ele>131.8</ele>
        <time>2023-09-17T09:19:53Z</time>
      </trkpt>
      <trkpt lat="46.54055" lon="0.28847">
        <ele>132.6</ele>
        <time>2023-09-17T09:19:55Z</time>
      </trkpt>
      <trkpt lat="46.54065" lon="0.28841">
        <ele>133.6</ele>
        <time>2023-09-17T09:19:58Z</time>
      </trkpt>
      <trkpt lat="46.54068" lon="0.28838">
        <ele>133.8</ele>
        <time>2023-09-17T09:19:59Z</time>
      </trkpt>
      <trkpt lat="46.54075" lon="0.28831">
        <ele>135</ele>
        <time>2023-09-17T09:20:02Z</time>
      </trkpt>
      <trkpt lat="46.54076" lon="0.28828">
        <ele>135.4</ele>
        <time>2023-09-17T09:20:03Z</time>
      </trkpt>
      <trkpt lat="46.54079" lon="0.2882">
        <ele>136.4</ele>
        <time>2023-09-17T09:20:06Z</time>
      </trkpt>
      <trkpt lat="46.54083" lon="0.28811">
        <ele>137.2</ele>
        <time>2023-09-17T09:20:09Z</time>
      </trkpt>
      <trkpt lat="46.54084" lon="0.28807">
        <ele>137.6</ele>
        <time>2023-09-17T09:20:10Z</time>
      </trkpt>
      <trkpt lat="46.54086" lon="0.28793">
        <ele>138.6</ele>
        <time>2023-09-17T09:20:13Z</time>
      </trkpt>
      <trkpt lat="46.54087" lon="0.28773">
        <ele>139.8</ele>
        <time>2023-09-17T09:20:17Z</time>
      </trkpt>
      <trkpt lat="46.54087" lon="0.28744">
        <ele>140.8</ele>
        <time>2023-09-17T09:20:23Z</time>
      </trkpt>
      <trkpt lat="46.54087" lon="0.28738">
        <ele>141</ele>
        <time>2023-09-17T09:20:24Z</time>
      </trkpt>
      <trkpt lat="46.54085" lon="0.28705">
        <ele>142</ele>
        <time>2023-09-17T09:20:30Z</time>
      </trkpt>
      <trkpt lat="46.54083" lon="0.2868">
        <ele>142.6</ele>
        <time>2023-09-17T09:20:34Z</time>
      </trkpt>
      <trkpt lat="46.5408" lon="0.28669">
        <ele>142.8</ele>
        <time>2023-09-17T09:20:36Z</time>
      </trkpt>
      <trkpt lat="46.54076" lon="0.28659">
        <ele>143</ele>
        <time>2023-09-17T09:20:38Z</time>
      </trkpt>
      <trkpt lat="46.54073" lon="0.2865">
        <ele>143.2</ele>
        <time>2023-09-17T09:20:40Z</time>
      </trkpt>
      <trkpt lat="46.54073" lon="0.28646">
        <ele>143.2</ele>
        <time>2023-09-17T09:20:41Z</time>
      </trkpt>
      <trkpt lat="46.54074" lon="0.28641">
        <ele>143.2</ele>
        <time>2023-09-17T09:20:42Z</time>
      </trkpt>
      <trkpt lat="46.54078" lon="0.28634">
        <ele>143.2</ele>
        <time>2023-09-17T09:20:44Z</time>
      </trkpt>
      <trkpt lat="46.5408" lon="0.2863">
        <ele>143.4</ele>
        <time>2023-09-17T09:20:45Z</time>
      </trkpt>
      <trkpt lat="46.54086" lon="0.28621">
        <ele>143.6</ele>
        <time>2023-09-17T09:20:47Z</time>
      </trkpt>
      <trkpt lat="46.54094" lon="0.28603">
        <ele>143.8</ele>
        <time>2023-09-17T09:20:50Z</time>
      </trkpt>
      <trkpt lat="46.54112" lon="0.28562">
        <ele>144</ele>
        <time>2023-09-17T09:20:57Z</time>
      </trkpt>
      <trkpt lat="46.54115" lon="0.28556">
        <ele>144</ele>
        <time>2023-09-17T09:20:58Z</time>
      </trkpt>
      <trkpt lat="46.54135" lon="0.28525">
        <ele>144.4</ele>
        <time>2023-09-17T09:21:04Z</time>
      </trkpt>
      <trkpt lat="46.54153" lon="0.28491">
        <ele>144.6</ele>
        <time>2023-09-17T09:21:10Z</time>
      </trkpt>
      <trkpt lat="46.54174" lon="0.28458">
        <ele>145</ele>
        <time>2023-09-17T09:21:16Z</time>
      </trkpt>
      <trkpt lat="46.54178" lon="0.28452">
        <ele>145.2</ele>
        <time>2023-09-17T09:21:17Z</time>
      </trkpt>
      <trkpt lat="46.54209" lon="0.28409">
        <ele>145.2</ele>
        <time>2023-09-17T09:21:23Z</time>
      </trkpt>
      <trkpt lat="46.54222" lon="0.2838">
        <ele>145</ele>
        <time>2023-09-17T09:21:26Z</time>
      </trkpt>
      <trkpt lat="46.5423" lon="0.28361">
        <ele>145</ele>
        <time>2023-09-17T09:21:28Z</time>
      </trkpt>
      <trkpt lat="46.54245" lon="0.28316">
        <ele>144.8</ele>
        <time>2023-09-17T09:21:33Z</time>
      </trkpt>
      <trkpt lat="46.54246" lon="0.28308">
        <ele>144.8</ele>
        <time>2023-09-17T09:21:34Z</time>
      </trkpt>
      <trkpt lat="46.54246" lon="0.28301">
        <ele>144.8</ele>
        <time>2023-09-17T09:21:35Z</time>
      </trkpt>
      <trkpt lat="46.54238" lon="0.28279">
        <ele>144.4</ele>
        <time>2023-09-17T09:21:38Z</time>
      </trkpt>
      <trkpt lat="46.54231" lon="0.2826">
        <ele>144.2</ele>
        <time>2023-09-17T09:21:41Z</time>
      </trkpt>
      <trkpt lat="46.54226" lon="0.28243">
        <ele>144.4</ele>
        <time>2023-09-17T09:21:43Z</time>
      </trkpt>
      <trkpt lat="46.54222" lon="0.28226">
        <ele>144</ele>
        <time>2023-09-17T09:21:45Z</time>
      </trkpt>
      <trkpt lat="46.54211" lon="0.28181">
        <ele>144.2</ele>
        <time>2023-09-17T09:21:50Z</time>
      </trkpt>
      <trkpt lat="46.54198" lon="0.28149">
        <ele>144.8</ele>
        <time>2023-09-17T09:21:54Z</time>
      </trkpt>
      <trkpt lat="46.54195" lon="0.2814">
        <ele>144.8</ele>
        <time>2023-09-17T09:21:55Z</time>
      </trkpt>
      <trkpt lat="46.54193" lon="0.28131">
        <ele>145</ele>
        <time>2023-09-17T09:21:56Z</time>
      </trkpt>
      <trkpt lat="46.54191" lon="0.28122">
        <ele>145.2</ele>
        <time>2023-09-17T09:21:57Z</time>
      </trkpt>
      <trkpt lat="46.54183" lon="0.28086">
        <ele>145.2</ele>
        <time>2023-09-17T09:22:01Z</time>
      </trkpt>
      <trkpt lat="46.54173" lon="0.28054">
        <ele>144.8</ele>
        <time>2023-09-17T09:22:05Z</time>
      </trkpt>
      <trkpt lat="46.54165" lon="0.28029">
        <ele>144.6</ele>
        <time>2023-09-17T09:22:08Z</time>
      </trkpt>
      <trkpt lat="46.54147" lon="0.27971">
        <ele>144.4</ele>
        <time>2023-09-17T09:22:15Z</time>
      </trkpt>
      <trkpt lat="46.5414" lon="0.27954">
        <ele>144.2</ele>
        <time>2023-09-17T09:22:17Z</time>
      </trkpt>
      <trkpt lat="46.54115" lon="0.27901">
        <ele>143.6</ele>
        <time>2023-09-17T09:22:23Z</time>
      </trkpt>
      <trkpt lat="46.54108" lon="0.27888">
        <ele>143.4</ele>
        <time>2023-09-17T09:22:25Z</time>
      </trkpt>
      <trkpt lat="46.54101" lon="0.27878">
        <ele>143.4</ele>
        <time>2023-09-17T09:22:27Z</time>
      </trkpt>
      <trkpt lat="46.54074" lon="0.27845">
        <ele>143.2</ele>
        <time>2023-09-17T09:22:32Z</time>
      </trkpt>
      <trkpt lat="46.54068" lon="0.27838">
        <ele>143.2</ele>
        <time>2023-09-17T09:22:33Z</time>
      </trkpt>
      <trkpt lat="46.54034" lon="0.27801">
        <ele>143.6</ele>
        <time>2023-09-17T09:22:39Z</time>
      </trkpt>
      <trkpt lat="46.54024" lon="0.27789">
        <ele>143.4</ele>
        <time>2023-09-17T09:22:41Z</time>
      </trkpt>
      <trkpt lat="46.54012" lon="0.27783">
        <ele>143.4</ele>
        <time>2023-09-17T09:22:43Z</time>
      </trkpt>
      <trkpt lat="46.53968" lon="0.2778">
        <ele>143.4</ele>
        <time>2023-09-17T09:22:49Z</time>
      </trkpt>
      <trkpt lat="46.53915" lon="0.27783">
        <ele>142.4</ele>
        <time>2023-09-17T09:22:56Z</time>
      </trkpt>
      <trkpt lat="46.539" lon="0.27783">
        <ele>142.2</ele>
        <time>2023-09-17T09:22:58Z</time>
      </trkpt>
      <trkpt lat="46.53878" lon="0.27787">
        <ele>142</ele>
        <time>2023-09-17T09:23:01Z</time>
      </trkpt>
      <trkpt lat="46.53864" lon="0.27798">
        <ele>141.4</ele>
        <time>2023-09-17T09:23:03Z</time>
      </trkpt>
      <trkpt lat="46.53858" lon="0.27806">
        <ele>141.2</ele>
        <time>2023-09-17T09:23:04Z</time>
      </trkpt>
      <trkpt lat="46.53851" lon="0.27814">
        <ele>140.8</ele>
        <time>2023-09-17T09:23:05Z</time>
      </trkpt>
      <trkpt lat="46.5383" lon="0.27838">
        <ele>139.6</ele>
        <time>2023-09-17T09:23:08Z</time>
      </trkpt>
      <trkpt lat="46.53816" lon="0.27853">
        <ele>139</ele>
        <time>2023-09-17T09:23:10Z</time>
      </trkpt>
      <trkpt lat="46.53809" lon="0.27861">
        <ele>138.2</ele>
        <time>2023-09-17T09:23:11Z</time>
      </trkpt>
      <trkpt lat="46.5379" lon="0.27886">
        <ele>136.6</ele>
        <time>2023-09-17T09:23:14Z</time>
      </trkpt>
      <trkpt lat="46.53785" lon="0.27895">
        <ele>136.4</ele>
        <time>2023-09-17T09:23:15Z</time>
      </trkpt>
      <trkpt lat="46.53781" lon="0.27906">
        <ele>136</ele>
        <time>2023-09-17T09:23:16Z</time>
      </trkpt>
      <trkpt lat="46.53779" lon="0.27917">
        <ele>135.6</ele>
        <time>2023-09-17T09:23:17Z</time>
      </trkpt>
      <trkpt lat="46.53774" lon="0.27938">
        <ele>135</ele>
        <time>2023-09-17T09:23:19Z</time>
      </trkpt>
      <trkpt lat="46.53769" lon="0.27967">
        <ele>134.6</ele>
        <time>2023-09-17T09:23:22Z</time>
      </trkpt>
      <trkpt lat="46.53767" lon="0.27974">
        <ele>134.4</ele>
        <time>2023-09-17T09:23:23Z</time>
      </trkpt>
      <trkpt lat="46.53762" lon="0.27985">
        <ele>134.4</ele>
        <time>2023-09-17T09:23:25Z</time>
      </trkpt>
      <trkpt lat="46.53756" lon="0.27997">
        <ele>134</ele>
        <time>2023-09-17T09:23:27Z</time>
      </trkpt>
      <trkpt lat="46.53745" lon="0.28015">
        <ele>133.2</ele>
        <time>2023-09-17T09:23:30Z</time>
      </trkpt>
      <trkpt lat="46.53739" lon="0.28025">
        <ele>132</ele>
        <time>2023-09-17T09:23:32Z</time>
      </trkpt>
      <trkpt lat="46.53734" lon="0.28032">
        <ele>130.8</ele>
        <time>2023-09-17T09:23:34Z</time>
      </trkpt>
      <trkpt lat="46.5373" lon="0.28035">
        <ele>129.6</ele>
        <time>2023-09-17T09:23:36Z</time>
      </trkpt>
      <trkpt lat="46.53727" lon="0.28035">
        <ele>128.2</ele>
        <time>2023-09-17T09:23:37Z</time>
      </trkpt>
      <trkpt lat="46.53724" lon="0.28034">
        <ele>126.8</ele>
        <time>2023-09-17T09:23:39Z</time>
      </trkpt>
      <trkpt lat="46.53721" lon="0.2803">
        <ele>126.2</ele>
        <time>2023-09-17T09:23:41Z</time>
      </trkpt>
      <trkpt lat="46.5372" lon="0.28018">
        <ele>126.2</ele>
        <time>2023-09-17T09:23:46Z</time>
      </trkpt>
      <trkpt lat="46.53723" lon="0.28013">
        <ele>127.2</ele>
        <time>2023-09-17T09:23:50Z</time>
      </trkpt>
      <trkpt lat="46.53722" lon="0.2801">
        <ele>127.2</ele>
        <time>2023-09-17T09:23:51Z</time>
      </trkpt>
      <trkpt lat="46.53718" lon="0.28">
        <ele>128</ele>
        <time>2023-09-17T09:23:54Z</time>
      </trkpt>
      <trkpt lat="46.53717" lon="0.27988">
        <ele>128.6</ele>
        <time>2023-09-17T09:23:57Z</time>
      </trkpt>
      <trkpt lat="46.53716" lon="0.27983">
        <ele>128.8</ele>
        <time>2023-09-17T09:23:58Z</time>
      </trkpt>
      <trkpt lat="46.53716" lon="0.27974">
        <ele>128.8</ele>
        <time>2023-09-17T09:24:01Z</time>
      </trkpt>
      <trkpt lat="46.53714" lon="0.27966">
        <ele>128.8</ele>
        <time>2023-09-17T09:24:03Z</time>
      </trkpt>
      <trkpt lat="46.53711" lon="0.27961">
        <ele>128.8</ele>
        <time>2023-09-17T09:24:04Z</time>
      </trkpt>
      <trkpt lat="46.53702" lon="0.27951">
        <ele>128</ele>
        <time>2023-09-17T09:24:07Z</time>
      </trkpt>
      <trkpt lat="46.53694" lon="0.27944">
        <ele>126.2</ele>
        <time>2023-09-17T09:24:10Z</time>
      </trkpt>
      <trkpt lat="46.53689" lon="0.27932">
        <ele>125</ele>
        <time>2023-09-17T09:24:13Z</time>
      </trkpt>
      <trkpt lat="46.53688" lon="0.27928">
        <ele>124.6</ele>
        <time>2023-09-17T09:24:14Z</time>
      </trkpt>
      <trkpt lat="46.53688" lon="0.27921">
        <ele>123.8</ele>
        <time>2023-09-17T09:24:16Z</time>
      </trkpt>
      <trkpt lat="46.53688" lon="0.27913">
        <ele>123</ele>
        <time>2023-09-17T09:24:19Z</time>
      </trkpt>
      <trkpt lat="46.53689" lon="0.27908">
        <ele>122.8</ele>
        <time>2023-09-17T09:24:21Z</time>
      </trkpt>
      <trkpt lat="46.53683" lon="0.27896">
        <ele>122.4</ele>
        <time>2023-09-17T09:24:24Z</time>
      </trkpt>
      <trkpt lat="46.5368" lon="0.27891">
        <ele>121.8</ele>
        <time>2023-09-17T09:24:25Z</time>
      </trkpt>
      <trkpt lat="46.53679" lon="0.27884">
        <ele>120</ele>
        <time>2023-09-17T09:24:26Z</time>
      </trkpt>
      <trkpt lat="46.53678" lon="0.27879">
        <ele>118</ele>
        <time>2023-09-17T09:24:27Z</time>
      </trkpt>
      <trkpt lat="46.53675" lon="0.27874">
        <ele>116.8</ele>
        <time>2023-09-17T09:24:28Z</time>
      </trkpt>
      <trkpt lat="46.53669" lon="0.27872">
        <ele>115.2</ele>
        <time>2023-09-17T09:24:30Z</time>
      </trkpt>
      <trkpt lat="46.53663" lon="0.27869">
        <ele>113.4</ele>
        <time>2023-09-17T09:24:32Z</time>
      </trkpt>
      <trkpt lat="46.5366" lon="0.27866">
        <ele>112</ele>
        <time>2023-09-17T09:24:33Z</time>
      </trkpt>
      <trkpt lat="46.53657" lon="0.27863">
        <ele>110.8</ele>
        <time>2023-09-17T09:24:34Z</time>
      </trkpt>
      <trkpt lat="46.53652" lon="0.27855">
        <ele>109.4</ele>
        <time>2023-09-17T09:24:36Z</time>
      </trkpt>
      <trkpt lat="46.53633" lon="0.27821">
        <ele>108.4</ele>
        <time>2023-09-17T09:24:42Z</time>
      </trkpt>
      <trkpt lat="46.53629" lon="0.27815">
        <ele>108.4</ele>
        <time>2023-09-17T09:24:43Z</time>
      </trkpt>
      <trkpt lat="46.53625" lon="0.27808">
        <ele>108.4</ele>
        <time>2023-09-17T09:24:44Z</time>
      </trkpt>
      <trkpt lat="46.53619" lon="0.27793">
        <ele>108.4</ele>
        <time>2023-09-17T09:24:46Z</time>
      </trkpt>
      <trkpt lat="46.53601" lon="0.27743">
        <ele>108.8</ele>
        <time>2023-09-17T09:24:52Z</time>
      </trkpt>
      <trkpt lat="46.53591" lon="0.27718">
        <ele>109</ele>
        <time>2023-09-17T09:24:55Z</time>
      </trkpt>
      <trkpt lat="46.53583" lon="0.2771">
        <ele>109.2</ele>
        <time>2023-09-17T09:24:57Z</time>
      </trkpt>
      <trkpt lat="46.53575" lon="0.27714">
        <ele>109.4</ele>
        <time>2023-09-17T09:24:59Z</time>
      </trkpt>
      <trkpt lat="46.53572" lon="0.2772">
        <ele>109.4</ele>
        <time>2023-09-17T09:25:00Z</time>
      </trkpt>
      <trkpt lat="46.5356" lon="0.27758">
        <ele>109.2</ele>
        <time>2023-09-17T09:25:05Z</time>
      </trkpt>
      <trkpt lat="46.53551" lon="0.27771">
        <ele>109.2</ele>
        <time>2023-09-17T09:25:07Z</time>
      </trkpt>
      <trkpt lat="46.5354" lon="0.27791">
        <ele>109</ele>
        <time>2023-09-17T09:25:10Z</time>
      </trkpt>
      <trkpt lat="46.53533" lon="0.27812">
        <ele>108.2</ele>
        <time>2023-09-17T09:25:14Z</time>
      </trkpt>
      <trkpt lat="46.53532" lon="0.27815">
        <ele>108.2</ele>
        <time>2023-09-17T09:25:15Z</time>
      </trkpt>
      <trkpt lat="46.53528" lon="0.27822">
        <ele>108</ele>
        <time>2023-09-17T09:25:19Z</time>
      </trkpt>
      <trkpt lat="46.53527" lon="0.27832">
        <ele>109.6</ele>
        <time>2023-09-17T09:25:23Z</time>
      </trkpt>
      <trkpt lat="46.53526" lon="0.27837">
        <ele>110</ele>
        <time>2023-09-17T09:25:25Z</time>
      </trkpt>
      <trkpt lat="46.53526" lon="0.27843">
        <ele>110.6</ele>
        <time>2023-09-17T09:25:27Z</time>
      </trkpt>
      <trkpt lat="46.5352" lon="0.27858">
        <ele>111.2</ele>
        <time>2023-09-17T09:25:33Z</time>
      </trkpt>
      <trkpt lat="46.53519" lon="0.27867">
        <ele>111.8</ele>
        <time>2023-09-17T09:25:36Z</time>
      </trkpt>
      <trkpt lat="46.53518" lon="0.27879">
        <ele>112.6</ele>
        <time>2023-09-17T09:25:40Z</time>
      </trkpt>
      <trkpt lat="46.53517" lon="0.27881">
        <ele>112.8</ele>
        <time>2023-09-17T09:25:41Z</time>
      </trkpt>
      <trkpt lat="46.53517" lon="0.27886">
        <ele>112.8</ele>
        <time>2023-09-17T09:25:42Z</time>
      </trkpt>
      <trkpt lat="46.53519" lon="0.27911">
        <ele>112.8</ele>
        <time>2023-09-17T09:25:46Z</time>
      </trkpt>
      <trkpt lat="46.53526" lon="0.27945">
        <ele>111.6</ele>
        <time>2023-09-17T09:25:51Z</time>
      </trkpt>
      <trkpt lat="46.53528" lon="0.27953">
        <ele>111.6</ele>
        <time>2023-09-17T09:25:52Z</time>
      </trkpt>
      <trkpt lat="46.53534" lon="0.27986">
        <ele>110.8</ele>
        <time>2023-09-17T09:25:57Z</time>
      </trkpt>
      <trkpt lat="46.53532" lon="0.27991">
        <ele>110.6</ele>
        <time>2023-09-17T09:25:59Z</time>
      </trkpt>
      <trkpt lat="46.53529" lon="0.27995">
        <ele>110.4</ele>
        <time>2023-09-17T09:26:01Z</time>
      </trkpt>
      <trkpt lat="46.53528" lon="0.28003">
        <ele>110.4</ele>
        <time>2023-09-17T09:26:04Z</time>
      </trkpt>
      <trkpt lat="46.53525" lon="0.28013">
        <ele>110.4</ele>
        <time>2023-09-17T09:26:07Z</time>
      </trkpt>
      <trkpt lat="46.53525" lon="0.28022">
        <ele>110</ele>
        <time>2023-09-17T09:26:09Z</time>
      </trkpt>
      <trkpt lat="46.5354" lon="0.28052">
        <ele>109.6</ele>
        <time>2023-09-17T09:26:12Z</time>
      </trkpt>
      <trkpt lat="46.53546" lon="0.28083">
        <ele>110</ele>
        <time>2023-09-17T09:26:17Z</time>
      </trkpt>
      <trkpt lat="46.53545" lon="0.28087">
        <ele>110</ele>
        <time>2023-09-17T09:26:18Z</time>
      </trkpt>
      <trkpt lat="46.53537" lon="0.28111">
        <ele>110.2</ele>
        <time>2023-09-17T09:26:24Z</time>
      </trkpt>
      <trkpt lat="46.53532" lon="0.28138">
        <ele>110.6</ele>
        <time>2023-09-17T09:26:30Z</time>
      </trkpt>
      <trkpt lat="46.53533" lon="0.28153">
        <ele>109.8</ele>
        <time>2023-09-17T09:26:33Z</time>
      </trkpt>
      <trkpt lat="46.53533" lon="0.28158">
        <ele>109.4</ele>
        <time>2023-09-17T09:26:34Z</time>
      </trkpt>
      <trkpt lat="46.53533" lon="0.28162">
        <ele>109.4</ele>
        <time>2023-09-17T09:26:35Z</time>
      </trkpt>
      <trkpt lat="46.53533" lon="0.28169">
        <ele>109.4</ele>
        <time>2023-09-17T09:26:37Z</time>
      </trkpt>
      <trkpt lat="46.53537" lon="0.28195">
        <ele>110.8</ele>
        <time>2023-09-17T09:26:42Z</time>
      </trkpt>
      <trkpt lat="46.53537" lon="0.28205">
        <ele>111.8</ele>
        <time>2023-09-17T09:26:43Z</time>
      </trkpt>
      <trkpt lat="46.53536" lon="0.28213">
        <ele>112.8</ele>
        <time>2023-09-17T09:26:46Z</time>
      </trkpt>
      <trkpt lat="46.53535" lon="0.28216">
        <ele>113</ele>
        <time>2023-09-17T09:26:47Z</time>
      </trkpt>
      <trkpt lat="46.53535" lon="0.28225">
        <ele>113.4</ele>
        <time>2023-09-17T09:26:49Z</time>
      </trkpt>
      <trkpt lat="46.53535" lon="0.2825">
        <ele>114</ele>
        <time>2023-09-17T09:26:54Z</time>
      </trkpt>
      <trkpt lat="46.53533" lon="0.28258">
        <ele>114.4</ele>
        <time>2023-09-17T09:26:56Z</time>
      </trkpt>
      <trkpt lat="46.53507" lon="0.28278">
        <ele>115</ele>
        <time>2023-09-17T09:27:02Z</time>
      </trkpt>
      <trkpt lat="46.53504" lon="0.2828">
        <ele>115.2</ele>
        <time>2023-09-17T09:27:03Z</time>
      </trkpt>
      <trkpt lat="46.53488" lon="0.28279">
        <ele>115.8</ele>
        <time>2023-09-17T09:27:08Z</time>
      </trkpt>
      <trkpt lat="46.53482" lon="0.28271">
        <ele>116.2</ele>
        <time>2023-09-17T09:27:12Z</time>
      </trkpt>
      <trkpt lat="46.5348" lon="0.28265">
        <ele>117</ele>
        <time>2023-09-17T09:27:14Z</time>
      </trkpt>
      <trkpt lat="46.53479" lon="0.28262">
        <ele>117.4</ele>
        <time>2023-09-17T09:27:15Z</time>
      </trkpt>
      <trkpt lat="46.53475" lon="0.28241">
        <ele>118.2</ele>
        <time>2023-09-17T09:27:21Z</time>
      </trkpt>
      <trkpt lat="46.5347" lon="0.28219">
        <ele>118.4</ele>
        <time>2023-09-17T09:27:27Z</time>
      </trkpt>
      <trkpt lat="46.53469" lon="0.28209">
        <ele>118.8</ele>
        <time>2023-09-17T09:27:31Z</time>
      </trkpt>
      <trkpt lat="46.53463" lon="0.282">
        <ele>119.6</ele>
        <time>2023-09-17T09:27:35Z</time>
      </trkpt>
      <trkpt lat="46.53458" lon="0.28195">
        <ele>120</ele>
        <time>2023-09-17T09:27:37Z</time>
      </trkpt>
      <trkpt lat="46.53453" lon="0.28182">
        <ele>120.6</ele>
        <time>2023-09-17T09:27:41Z</time>
      </trkpt>
      <trkpt lat="46.53451" lon="0.28178">
        <ele>120.6</ele>
        <time>2023-09-17T09:27:42Z</time>
      </trkpt>
      <trkpt lat="46.53447" lon="0.28152">
        <ele>121.6</ele>
        <time>2023-09-17T09:27:49Z</time>
      </trkpt>
      <trkpt lat="46.53446" lon="0.28148">
        <ele>121.8</ele>
        <time>2023-09-17T09:27:50Z</time>
      </trkpt>
      <trkpt lat="46.53442" lon="0.28127">
        <ele>123</ele>
        <time>2023-09-17T09:27:55Z</time>
      </trkpt>
      <trkpt lat="46.53442" lon="0.28123">
        <ele>122.8</ele>
        <time>2023-09-17T09:27:56Z</time>
      </trkpt>
      <trkpt lat="46.53438" lon="0.28097">
        <ele>124</ele>
        <time>2023-09-17T09:28:03Z</time>
      </trkpt>
      <trkpt lat="46.53435" lon="0.28081">
        <ele>125.2</ele>
        <time>2023-09-17T09:28:07Z</time>
      </trkpt>
      <trkpt lat="46.53433" lon="0.28065">
        <ele>125.8</ele>
        <time>2023-09-17T09:28:11Z</time>
      </trkpt>
      <trkpt lat="46.53431" lon="0.2805">
        <ele>126.4</ele>
        <time>2023-09-17T09:28:15Z</time>
      </trkpt>
      <trkpt lat="46.53425" lon="0.28026">
        <ele>126.8</ele>
        <time>2023-09-17T09:28:20Z</time>
      </trkpt>
      <trkpt lat="46.53425" lon="0.28001">
        <ele>127.4</ele>
        <time>2023-09-17T09:28:25Z</time>
      </trkpt>
      <trkpt lat="46.53426" lon="0.27989">
        <ele>127.6</ele>
        <time>2023-09-17T09:28:27Z</time>
      </trkpt>
      <trkpt lat="46.5343" lon="0.27953">
        <ele>127.4</ele>
        <time>2023-09-17T09:28:33Z</time>
      </trkpt>
      <trkpt lat="46.53431" lon="0.27947">
        <ele>127.4</ele>
        <time>2023-09-17T09:28:34Z</time>
      </trkpt>
      <trkpt lat="46.53433" lon="0.27938">
        <ele>127.4</ele>
        <time>2023-09-17T09:28:36Z</time>
      </trkpt>
      <trkpt lat="46.53435" lon="0.27935">
        <ele>127.6</ele>
        <time>2023-09-17T09:28:37Z</time>
      </trkpt>
      <trkpt lat="46.53453" lon="0.27917">
        <ele>127.6</ele>
        <time>2023-09-17T09:28:43Z</time>
      </trkpt>
      <trkpt lat="46.53459" lon="0.27906">
        <ele>127.4</ele>
        <time>2023-09-17T09:28:45Z</time>
      </trkpt>
      <trkpt lat="46.53464" lon="0.27893">
        <ele>125.8</ele>
        <time>2023-09-17T09:28:47Z</time>
      </trkpt>
      <trkpt lat="46.53466" lon="0.2788">
        <ele>124</ele>
        <time>2023-09-17T09:28:49Z</time>
      </trkpt>
      <trkpt lat="46.53467" lon="0.2787">
        <ele>121.8</ele>
        <time>2023-09-17T09:28:51Z</time>
      </trkpt>
      <trkpt lat="46.53466" lon="0.27865">
        <ele>120.8</ele>
        <time>2023-09-17T09:28:52Z</time>
      </trkpt>
      <trkpt lat="46.53467" lon="0.27857">
        <ele>119.4</ele>
        <time>2023-09-17T09:28:54Z</time>
      </trkpt>
      <trkpt lat="46.53468" lon="0.2784">
        <ele>118.4</ele>
        <time>2023-09-17T09:28:57Z</time>
      </trkpt>
      <trkpt lat="46.53468" lon="0.27835">
        <ele>118.2</ele>
        <time>2023-09-17T09:28:58Z</time>
      </trkpt>
      <trkpt lat="46.53469" lon="0.27824">
        <ele>117.8</ele>
        <time>2023-09-17T09:29:00Z</time>
      </trkpt>
      <trkpt lat="46.53467" lon="0.27813">
        <ele>117.6</ele>
        <time>2023-09-17T09:29:02Z</time>
      </trkpt>
      <trkpt lat="46.53457" lon="0.27795">
        <ele>119</ele>
        <time>2023-09-17T09:29:07Z</time>
      </trkpt>
      <trkpt lat="46.53452" lon="0.27787">
        <ele>119.4</ele>
        <time>2023-09-17T09:29:09Z</time>
      </trkpt>
      <trkpt lat="46.53449" lon="0.27784">
        <ele>119.6</ele>
        <time>2023-09-17T09:29:10Z</time>
      </trkpt>
      <trkpt lat="46.53443" lon="0.27773">
        <ele>120.6</ele>
        <time>2023-09-17T09:29:13Z</time>
      </trkpt>
      <trkpt lat="46.53442" lon="0.2777">
        <ele>120.8</ele>
        <time>2023-09-17T09:29:14Z</time>
      </trkpt>
      <trkpt lat="46.53436" lon="0.27757">
        <ele>121.8</ele>
        <time>2023-09-17T09:29:18Z</time>
      </trkpt>
      <trkpt lat="46.53427" lon="0.2774">
        <ele>122.4</ele>
        <time>2023-09-17T09:29:22Z</time>
      </trkpt>
      <trkpt lat="46.53421" lon="0.27732">
        <ele>122.8</ele>
        <time>2023-09-17T09:29:24Z</time>
      </trkpt>
      <trkpt lat="46.53409" lon="0.27716">
        <ele>123.4</ele>
        <time>2023-09-17T09:29:29Z</time>
      </trkpt>
      <trkpt lat="46.53402" lon="0.27706">
        <ele>124.2</ele>
        <time>2023-09-17T09:29:32Z</time>
      </trkpt>
      <trkpt lat="46.53393" lon="0.27692">
        <ele>125.2</ele>
        <time>2023-09-17T09:29:38Z</time>
      </trkpt>
      <trkpt lat="46.53385" lon="0.27685">
        <ele>126.4</ele>
        <time>2023-09-17T09:29:42Z</time>
      </trkpt>
      <trkpt lat="46.53378" lon="0.27679">
        <ele>127</ele>
        <time>2023-09-17T09:29:45Z</time>
      </trkpt>
      <trkpt lat="46.53377" lon="0.27677">
        <ele>127.6</ele>
        <time>2023-09-17T09:29:46Z</time>
      </trkpt>
      <trkpt lat="46.53374" lon="0.27676">
        <ele>128.2</ele>
        <time>2023-09-17T09:29:48Z</time>
      </trkpt>
      <trkpt lat="46.53372" lon="0.27675">
        <ele>128.8</ele>
        <time>2023-09-17T09:29:49Z</time>
      </trkpt>
      <trkpt lat="46.53371" lon="0.27674">
        <ele>128.8</ele>
        <time>2023-09-17T09:29:50Z</time>
      </trkpt>
      <trkpt lat="46.53365" lon="0.2767">
        <ele>129.6</ele>
        <time>2023-09-17T09:29:53Z</time>
      </trkpt>
      <trkpt lat="46.53358" lon="0.27665">
        <ele>130</ele>
        <time>2023-09-17T09:29:56Z</time>
      </trkpt>
      <trkpt lat="46.5335" lon="0.2766">
        <ele>130.4</ele>
        <time>2023-09-17T09:30:00Z</time>
      </trkpt>
      <trkpt lat="46.5335" lon="0.2766">
        <ele>131</ele>
        <time>2023-09-17T09:30:02Z</time>
      </trkpt>
      <trkpt lat="46.53345" lon="0.27649">
        <ele>131</ele>
        <time>2023-09-17T09:30:03Z</time>
      </trkpt>
      <trkpt lat="46.53345" lon="0.27642">
        <ele>131</ele>
        <time>2023-09-17T09:30:05Z</time>
      </trkpt>
      <trkpt lat="46.5334" lon="0.27615">
        <ele>130.4</ele>
        <time>2023-09-17T09:30:10Z</time>
      </trkpt>
      <trkpt lat="46.53337" lon="0.27601">
        <ele>130</ele>
        <time>2023-09-17T09:30:12Z</time>
      </trkpt>
      <trkpt lat="46.53332" lon="0.27577">
        <ele>128.4</ele>
        <time>2023-09-17T09:30:15Z</time>
      </trkpt>
      <trkpt lat="46.5333" lon="0.27568">
        <ele>128</ele>
        <time>2023-09-17T09:30:16Z</time>
      </trkpt>
      <trkpt lat="46.53326" lon="0.27546">
        <ele>127.2</ele>
        <time>2023-09-17T09:30:18Z</time>
      </trkpt>
      <trkpt lat="46.53325" lon="0.27536">
        <ele>126.4</ele>
        <time>2023-09-17T09:30:19Z</time>
      </trkpt>
      <trkpt lat="46.53325" lon="0.27525">
        <ele>125.2</ele>
        <time>2023-09-17T09:30:20Z</time>
      </trkpt>
      <trkpt lat="46.53326" lon="0.27503">
        <ele>122.8</ele>
        <time>2023-09-17T09:30:22Z</time>
      </trkpt>
      <trkpt lat="46.53326" lon="0.2749">
        <ele>121.8</ele>
        <time>2023-09-17T09:30:23Z</time>
      </trkpt>
      <trkpt lat="46.53321" lon="0.2746">
        <ele>120.4</ele>
        <time>2023-09-17T09:30:25Z</time>
      </trkpt>
      <trkpt lat="46.53321" lon="0.27449">
        <ele>119</ele>
        <time>2023-09-17T09:30:26Z</time>
      </trkpt>
      <trkpt lat="46.53321" lon="0.27437">
        <ele>117.8</ele>
        <time>2023-09-17T09:30:27Z</time>
      </trkpt>
      <trkpt lat="46.53321" lon="0.27425">
        <ele>117</ele>
        <time>2023-09-17T09:30:28Z</time>
      </trkpt>
      <trkpt lat="46.53321" lon="0.27417">
        <ele>115.2</ele>
        <time>2023-09-17T09:30:29Z</time>
      </trkpt>
      <trkpt lat="46.53321" lon="0.2741">
        <ele>114.2</ele>
        <time>2023-09-17T09:30:30Z</time>
      </trkpt>
      <trkpt lat="46.5332" lon="0.27404">
        <ele>113.2</ele>
        <time>2023-09-17T09:30:31Z</time>
      </trkpt>
      <trkpt lat="46.53318" lon="0.274">
        <ele>112.6</ele>
        <time>2023-09-17T09:30:32Z</time>
      </trkpt>
      <trkpt lat="46.5331" lon="0.27385">
        <ele>112</ele>
        <time>2023-09-17T09:30:35Z</time>
      </trkpt>
      <trkpt lat="46.53304" lon="0.27375">
        <ele>112</ele>
        <time>2023-09-17T09:30:37Z</time>
      </trkpt>
      <trkpt lat="46.5329" lon="0.27354">
        <ele>112.4</ele>
        <time>2023-09-17T09:30:41Z</time>
      </trkpt>
      <trkpt lat="46.53284" lon="0.27345">
        <ele>112.2</ele>
        <time>2023-09-17T09:30:43Z</time>
      </trkpt>
      <trkpt lat="46.53263" lon="0.27318">
        <ele>112.8</ele>
        <time>2023-09-17T09:30:49Z</time>
      </trkpt>
      <trkpt lat="46.53252" lon="0.27312">
        <ele>113.2</ele>
        <time>2023-09-17T09:30:53Z</time>
      </trkpt>
      <trkpt lat="46.53242" lon="0.27309">
        <ele>114.2</ele>
        <time>2023-09-17T09:30:56Z</time>
      </trkpt>
      <trkpt lat="46.5324" lon="0.27307">
        <ele>114.4</ele>
        <time>2023-09-17T09:30:57Z</time>
      </trkpt>
      <trkpt lat="46.53238" lon="0.27305">
        <ele>114.6</ele>
        <time>2023-09-17T09:30:58Z</time>
      </trkpt>
      <trkpt lat="46.53228" lon="0.2729">
        <ele>115.6</ele>
        <time>2023-09-17T09:31:03Z</time>
      </trkpt>
      <trkpt lat="46.53221" lon="0.27275">
        <ele>115.4</ele>
        <time>2023-09-17T09:31:07Z</time>
      </trkpt>
      <trkpt lat="46.53212" lon="0.27262">
        <ele>115.2</ele>
        <time>2023-09-17T09:31:10Z</time>
      </trkpt>
      <trkpt lat="46.53204" lon="0.27248">
        <ele>115.4</ele>
        <time>2023-09-17T09:31:13Z</time>
      </trkpt>
      <trkpt lat="46.53198" lon="0.27241">
        <ele>114.8</ele>
        <time>2023-09-17T09:31:15Z</time>
      </trkpt>
      <trkpt lat="46.53194" lon="0.27236">
        <ele>114.8</ele>
        <time>2023-09-17T09:31:16Z</time>
      </trkpt>
      <trkpt lat="46.53188" lon="0.27227">
        <ele>114.4</ele>
        <time>2023-09-17T09:31:18Z</time>
      </trkpt>
      <trkpt lat="46.53182" lon="0.27218">
        <ele>114.4</ele>
        <time>2023-09-17T09:31:20Z</time>
      </trkpt>
      <trkpt lat="46.53175" lon="0.2721">
        <ele>114.8</ele>
        <time>2023-09-17T09:31:22Z</time>
      </trkpt>
      <trkpt lat="46.53161" lon="0.27197">
        <ele>115.4</ele>
        <time>2023-09-17T09:31:26Z</time>
      </trkpt>
      <trkpt lat="46.53158" lon="0.27195">
        <ele>115.6</ele>
        <time>2023-09-17T09:31:27Z</time>
      </trkpt>
      <trkpt lat="46.53146" lon="0.27185">
        <ele>115.8</ele>
        <time>2023-09-17T09:31:30Z</time>
      </trkpt>
      <trkpt lat="46.53134" lon="0.27176">
        <ele>116.2</ele>
        <time>2023-09-17T09:31:33Z</time>
      </trkpt>
      <trkpt lat="46.53121" lon="0.27162">
        <ele>116.4</ele>
        <time>2023-09-17T09:31:38Z</time>
      </trkpt>
      <trkpt lat="46.53116" lon="0.27155">
        <ele>116.4</ele>
        <time>2023-09-17T09:31:40Z</time>
      </trkpt>
      <trkpt lat="46.53104" lon="0.27143">
        <ele>116.6</ele>
        <time>2023-09-17T09:31:44Z</time>
      </trkpt>
      <trkpt lat="46.53079" lon="0.27127">
        <ele>116.8</ele>
        <time>2023-09-17T09:31:51Z</time>
      </trkpt>
      <trkpt lat="46.53069" lon="0.27119">
        <ele>116.4</ele>
        <time>2023-09-17T09:31:54Z</time>
      </trkpt>
      <trkpt lat="46.53058" lon="0.27112">
        <ele>116.2</ele>
        <time>2023-09-17T09:31:57Z</time>
      </trkpt>
      <trkpt lat="46.53041" lon="0.271">
        <ele>116</ele>
        <time>2023-09-17T09:32:02Z</time>
      </trkpt>
      <trkpt lat="46.53033" lon="0.27094">
        <ele>116</ele>
        <time>2023-09-17T09:32:05Z</time>
      </trkpt>
      <trkpt lat="46.53022" lon="0.27087">
        <ele>116.2</ele>
        <time>2023-09-17T09:32:08Z</time>
      </trkpt>
      <trkpt lat="46.53019" lon="0.27086">
        <ele>116.2</ele>
        <time>2023-09-17T09:32:09Z</time>
      </trkpt>
      <trkpt lat="46.53013" lon="0.27083">
        <ele>116.2</ele>
        <time>2023-09-17T09:32:11Z</time>
      </trkpt>
      <trkpt lat="46.53008" lon="0.27081">
        <ele>116.2</ele>
        <time>2023-09-17T09:32:13Z</time>
      </trkpt>
      <trkpt lat="46.52996" lon="0.27079">
        <ele>116.6</ele>
        <time>2023-09-17T09:32:18Z</time>
      </trkpt>
      <trkpt lat="46.52992" lon="0.27075">
        <ele>117.4</ele>
        <time>2023-09-17T09:32:19Z</time>
      </trkpt>
      <trkpt lat="46.52985" lon="0.27067">
        <ele>117.8</ele>
        <time>2023-09-17T09:32:21Z</time>
      </trkpt>
      <trkpt lat="46.52978" lon="0.27061">
        <ele>118</ele>
        <time>2023-09-17T09:32:23Z</time>
      </trkpt>
      <trkpt lat="46.52953" lon="0.27033">
        <ele>119</ele>
        <time>2023-09-17T09:32:30Z</time>
      </trkpt>
      <trkpt lat="46.52929" lon="0.27009">
        <ele>119.4</ele>
        <time>2023-09-17T09:32:37Z</time>
      </trkpt>
      <trkpt lat="46.52917" lon="0.26995">
        <ele>120</ele>
        <time>2023-09-17T09:32:41Z</time>
      </trkpt>
      <trkpt lat="46.52911" lon="0.26988">
        <ele>120.2</ele>
        <time>2023-09-17T09:32:43Z</time>
      </trkpt>
      <trkpt lat="46.52903" lon="0.26977">
        <ele>120.2</ele>
        <time>2023-09-17T09:32:46Z</time>
      </trkpt>
      <trkpt lat="46.52895" lon="0.26968">
        <ele>121.2</ele>
        <time>2023-09-17T09:32:49Z</time>
      </trkpt>
      <trkpt lat="46.52892" lon="0.26965">
        <ele>121.2</ele>
        <time>2023-09-17T09:32:50Z</time>
      </trkpt>
      <trkpt lat="46.52884" lon="0.26956">
        <ele>121.6</ele>
        <time>2023-09-17T09:32:52Z</time>
      </trkpt>
      <trkpt lat="46.52877" lon="0.26948">
        <ele>121.8</ele>
        <time>2023-09-17T09:32:54Z</time>
      </trkpt>
      <trkpt lat="46.52875" lon="0.26946">
        <ele>121.8</ele>
        <time>2023-09-17T09:32:55Z</time>
      </trkpt>
      <trkpt lat="46.52857" lon="0.26922">
        <ele>122</ele>
        <time>2023-09-17T09:33:00Z</time>
      </trkpt>
      <trkpt lat="46.52849" lon="0.26913">
        <ele>122.2</ele>
        <time>2023-09-17T09:33:02Z</time>
      </trkpt>
      <trkpt lat="46.52822" lon="0.26887">
        <ele>122.8</ele>
        <time>2023-09-17T09:33:09Z</time>
      </trkpt>
      <trkpt lat="46.528" lon="0.26862">
        <ele>122.8</ele>
        <time>2023-09-17T09:33:16Z</time>
      </trkpt>
      <trkpt lat="46.52796" lon="0.26858">
        <ele>122.6</ele>
        <time>2023-09-17T09:33:17Z</time>
      </trkpt>
      <trkpt lat="46.52789" lon="0.26854">
        <ele>122.6</ele>
        <time>2023-09-17T09:33:19Z</time>
      </trkpt>
      <trkpt lat="46.52782" lon="0.26853">
        <ele>122.8</ele>
        <time>2023-09-17T09:33:21Z</time>
      </trkpt>
      <trkpt lat="46.52761" lon="0.26842">
        <ele>123</ele>
        <time>2023-09-17T09:33:26Z</time>
      </trkpt>
      <trkpt lat="46.52744" lon="0.26835">
        <ele>123.2</ele>
        <time>2023-09-17T09:33:30Z</time>
      </trkpt>
      <trkpt lat="46.52741" lon="0.26833">
        <ele>123.4</ele>
        <time>2023-09-17T09:33:31Z</time>
      </trkpt>
      <trkpt lat="46.52732" lon="0.26831">
        <ele>124</ele>
        <time>2023-09-17T09:33:34Z</time>
      </trkpt>
      <trkpt lat="46.52727" lon="0.26824">
        <ele>124.2</ele>
        <time>2023-09-17T09:33:36Z</time>
      </trkpt>
      <trkpt lat="46.52717" lon="0.26812">
        <ele>123.6</ele>
        <time>2023-09-17T09:33:39Z</time>
      </trkpt>
      <trkpt lat="46.52709" lon="0.26799">
        <ele>121.8</ele>
        <time>2023-09-17T09:33:41Z</time>
      </trkpt>
      <trkpt lat="46.52704" lon="0.2679">
        <ele>121.4</ele>
        <time>2023-09-17T09:33:42Z</time>
      </trkpt>
      <trkpt lat="46.52692" lon="0.26767">
        <ele>120.6</ele>
        <time>2023-09-17T09:33:44Z</time>
      </trkpt>
      <trkpt lat="46.52688" lon="0.26744">
        <ele>119.4</ele>
        <time>2023-09-17T09:33:46Z</time>
      </trkpt>
      <trkpt lat="46.52688" lon="0.26733">
        <ele>118.4</ele>
        <time>2023-09-17T09:33:47Z</time>
      </trkpt>
      <trkpt lat="46.52686" lon="0.26712">
        <ele>117</ele>
        <time>2023-09-17T09:33:49Z</time>
      </trkpt>
      <trkpt lat="46.52686" lon="0.26703">
        <ele>116.6</ele>
        <time>2023-09-17T09:33:50Z</time>
      </trkpt>
      <trkpt lat="46.52683" lon="0.26692">
        <ele>116</ele>
        <time>2023-09-17T09:33:51Z</time>
      </trkpt>
      <trkpt lat="46.52683" lon="0.26682">
        <ele>115.6</ele>
        <time>2023-09-17T09:33:52Z</time>
      </trkpt>
      <trkpt lat="46.52682" lon="0.26658">
        <ele>114.6</ele>
        <time>2023-09-17T09:33:55Z</time>
      </trkpt>
      <trkpt lat="46.52681" lon="0.26652">
        <ele>114.6</ele>
        <time>2023-09-17T09:33:56Z</time>
      </trkpt>
      <trkpt lat="46.52681" lon="0.2664">
        <ele>114</ele>
        <time>2023-09-17T09:34:00Z</time>
      </trkpt>
      <trkpt lat="46.52682" lon="0.26623">
        <ele>113.6</ele>
        <time>2023-09-17T09:34:07Z</time>
      </trkpt>
      <trkpt lat="46.52683" lon="0.26607">
        <ele>113.8</ele>
        <time>2023-09-17T09:34:13Z</time>
      </trkpt>
      <trkpt lat="46.52682" lon="0.26602">
        <ele>113.8</ele>
        <time>2023-09-17T09:34:15Z</time>
      </trkpt>
      <trkpt lat="46.5268" lon="0.26597">
        <ele>113.8</ele>
        <time>2023-09-17T09:34:17Z</time>
      </trkpt>
      <trkpt lat="46.52674" lon="0.26592">
        <ele>113.8</ele>
        <time>2023-09-17T09:34:21Z</time>
      </trkpt>
    </trkseg>
  </trk>
</gpx>